<?xml version="1.0" encoding="UTF-8" standalone="no" ?>
<gpx xmlns="http://www.topografix.com/GPX/1/1" xmlns:xsi="http://www.w3.org/2001/XMLSchema-instance" xsi:schemaLocation="http://www.topografix.com/GPX/1/1 http://www.topografix.com/GPX/1/1/gpx.xsd" version="1.1" creator="VisuGPX - https://www.visugpx.com">
  <metadata>
    <name>Pornichet 31/07/2022</name>
    <desc><![CDATA[Sortie dimanche 31 juillet 2022]]></desc>
  </metadata>
  <trk>
    <name><![CDATA[Pornichet Cyclisme]]></name>
    <trkseg>
      <trkpt lat="47.26409" lon="-2.31604">
        <ele>9.7</ele>
        <time>2022-07-31T06:56:57.000Z</time>
      </trkpt>
      <trkpt lat="47.26409" lon="-2.31616">
        <ele>9.6</ele>
        <time>2022-07-31T06:57:00.000Z</time>
      </trkpt>
      <trkpt lat="47.26409" lon="-2.3162">
        <ele>2.2000000476837</ele>
        <time>2022-07-31T06:57:01.000Z</time>
      </trkpt>
      <trkpt lat="47.26409" lon="-2.31625">
        <ele>4.4000000953674</ele>
        <time>2022-07-31T06:57:02.000Z</time>
      </trkpt>
      <trkpt lat="47.26408" lon="-2.31629">
        <ele>6.5999999046326</ele>
        <time>2022-07-31T06:57:03.000Z</time>
      </trkpt>
      <trkpt lat="47.26408" lon="-2.31634">
        <ele>8.8000001907349</ele>
        <time>2022-07-31T06:57:04.000Z</time>
      </trkpt>
      <trkpt lat="47.2641" lon="-2.31653">
        <ele>8.8000001907349</ele>
        <time>2022-07-31T06:57:08.000Z</time>
      </trkpt>
      <trkpt lat="47.26411" lon="-2.31654">
        <ele>8.8000001907349</ele>
        <time>2022-07-31T06:57:09.000Z</time>
      </trkpt>
      <trkpt lat="47.26413" lon="-2.31651">
        <ele>8.8000001907349</ele>
        <time>2022-07-31T06:57:11.000Z</time>
      </trkpt>
      <trkpt lat="47.26411" lon="-2.31638">
        <ele>8.8000001907349</ele>
        <time>2022-07-31T06:57:15.000Z</time>
      </trkpt>
      <trkpt lat="47.26411" lon="-2.3162">
        <ele>8.8000001907349</ele>
        <time>2022-07-31T06:57:19.000Z</time>
      </trkpt>
      <trkpt lat="47.26405" lon="-2.31602">
        <ele>8.8000001907349</ele>
        <time>2022-07-31T06:57:23.000Z</time>
      </trkpt>
      <trkpt lat="47.26409" lon="-2.31587">
        <ele>8.8000001907349</ele>
        <time>2022-07-31T06:57:27.000Z</time>
      </trkpt>
      <trkpt lat="47.26411" lon="-2.31584">
        <ele>8.8000001907349</ele>
        <time>2022-07-31T06:57:30.000Z</time>
      </trkpt>
      <trkpt lat="47.26409" lon="-2.3158">
        <ele>8.8000001907349</ele>
        <time>2022-07-31T06:57:34.000Z</time>
      </trkpt>
      <trkpt lat="47.26408" lon="-2.31578">
        <ele>8.8000001907349</ele>
        <time>2022-07-31T06:57:36.000Z</time>
      </trkpt>
      <trkpt lat="47.26408" lon="-2.3158">
        <ele>8.8000001907349</ele>
        <time>2022-07-31T06:58:28.000Z</time>
      </trkpt>
      <trkpt lat="47.26407" lon="-2.31581">
        <ele>8.8000001907349</ele>
        <time>2022-07-31T06:58:29.000Z</time>
      </trkpt>
      <trkpt lat="47.26404" lon="-2.3159">
        <ele>8.8000001907349</ele>
        <time>2022-07-31T06:58:32.000Z</time>
      </trkpt>
      <trkpt lat="47.26405" lon="-2.31606">
        <ele>8.8000001907349</ele>
        <time>2022-07-31T06:58:35.000Z</time>
      </trkpt>
      <trkpt lat="47.26405" lon="-2.31616">
        <ele>8.8000001907349</ele>
        <time>2022-07-31T06:58:37.000Z</time>
      </trkpt>
      <trkpt lat="47.26407" lon="-2.31657">
        <ele>8.8000001907349</ele>
        <time>2022-07-31T06:58:44.000Z</time>
      </trkpt>
      <trkpt lat="47.264" lon="-2.31665">
        <ele>8.8000001907349</ele>
        <time>2022-07-31T06:58:47.000Z</time>
      </trkpt>
      <trkpt lat="47.26397" lon="-2.31666">
        <ele>8.8000001907349</ele>
        <time>2022-07-31T06:58:48.000Z</time>
      </trkpt>
      <trkpt lat="47.26379" lon="-2.31677">
        <ele>8.8000001907349</ele>
        <time>2022-07-31T06:58:53.000Z</time>
      </trkpt>
      <trkpt lat="47.26374" lon="-2.31679">
        <ele>6.5999999046326</ele>
        <time>2022-07-31T06:58:54.000Z</time>
      </trkpt>
      <trkpt lat="47.2637" lon="-2.31681">
        <ele>4.5999999046326</ele>
        <time>2022-07-31T06:58:55.000Z</time>
      </trkpt>
      <trkpt lat="47.26365" lon="-2.31684">
        <ele>2.4000000953674</ele>
        <time>2022-07-31T06:58:56.000Z</time>
      </trkpt>
      <trkpt lat="47.26361" lon="-2.31686">
        <ele>0.20000000298023</ele>
        <time>2022-07-31T06:58:57.000Z</time>
      </trkpt>
      <trkpt lat="47.26356" lon="-2.31689">
        <ele>-2</ele>
        <time>2022-07-31T06:58:58.000Z</time>
      </trkpt>
      <trkpt lat="47.26352" lon="-2.31691">
        <ele>-2</ele>
        <time>2022-07-31T06:58:59.000Z</time>
      </trkpt>
      <trkpt lat="47.26347" lon="-2.31694">
        <ele>-2</ele>
        <time>2022-07-31T06:59:00.000Z</time>
      </trkpt>
      <trkpt lat="47.2633" lon="-2.31702">
        <ele>-2</ele>
        <time>2022-07-31T06:59:03.000Z</time>
      </trkpt>
      <trkpt lat="47.26309" lon="-2.31713">
        <ele>-2.4000000953674</ele>
        <time>2022-07-31T06:59:07.000Z</time>
      </trkpt>
      <trkpt lat="47.26306" lon="-2.31717">
        <ele>-2.7999999523163</ele>
        <time>2022-07-31T06:59:08.000Z</time>
      </trkpt>
      <trkpt lat="47.26304" lon="-2.31723">
        <ele>-3.7999999523163</ele>
        <time>2022-07-31T06:59:09.000Z</time>
      </trkpt>
      <trkpt lat="47.26304" lon="-2.3173">
        <ele>-4.1999998092651</ele>
        <time>2022-07-31T06:59:10.000Z</time>
      </trkpt>
      <trkpt lat="47.26304" lon="-2.31735">
        <ele>-4.1999998092651</ele>
        <time>2022-07-31T06:59:11.000Z</time>
      </trkpt>
      <trkpt lat="47.26311" lon="-2.3176">
        <ele>-4.1999998092651</ele>
        <time>2022-07-31T06:59:16.000Z</time>
      </trkpt>
      <trkpt lat="47.26312" lon="-2.31765">
        <ele>-4.1999998092651</ele>
        <time>2022-07-31T06:59:17.000Z</time>
      </trkpt>
      <trkpt lat="47.26314" lon="-2.31782">
        <ele>-4.1999998092651</ele>
        <time>2022-07-31T06:59:20.000Z</time>
      </trkpt>
      <trkpt lat="47.26312" lon="-2.31812">
        <ele>-4.1999998092651</ele>
        <time>2022-07-31T06:59:25.000Z</time>
      </trkpt>
      <trkpt lat="47.2631" lon="-2.3184">
        <ele>-4.1999998092651</ele>
        <time>2022-07-31T06:59:29.000Z</time>
      </trkpt>
      <trkpt lat="47.26306" lon="-2.31871">
        <ele>-4.1999998092651</ele>
        <time>2022-07-31T06:59:34.000Z</time>
      </trkpt>
      <trkpt lat="47.26296" lon="-2.31882">
        <ele>-4.1999998092651</ele>
        <time>2022-07-31T06:59:37.000Z</time>
      </trkpt>
      <trkpt lat="47.2628" lon="-2.31899">
        <ele>-4.1999998092651</ele>
        <time>2022-07-31T06:59:41.000Z</time>
      </trkpt>
      <trkpt lat="47.26277" lon="-2.31903">
        <ele>-4.1999998092651</ele>
        <time>2022-07-31T06:59:42.000Z</time>
      </trkpt>
      <trkpt lat="47.26274" lon="-2.31908">
        <ele>-4.1999998092651</ele>
        <time>2022-07-31T06:59:43.000Z</time>
      </trkpt>
      <trkpt lat="47.2626" lon="-2.31932">
        <ele>-4.1999998092651</ele>
        <time>2022-07-31T06:59:48.000Z</time>
      </trkpt>
      <trkpt lat="47.26252" lon="-2.31947">
        <ele>-4.1999998092651</ele>
        <time>2022-07-31T06:59:51.000Z</time>
      </trkpt>
      <trkpt lat="47.26244" lon="-2.31955">
        <ele>-4.5999999046326</ele>
        <time>2022-07-31T06:59:53.000Z</time>
      </trkpt>
      <trkpt lat="47.26239" lon="-2.31959">
        <ele>-5</ele>
        <time>2022-07-31T06:59:54.000Z</time>
      </trkpt>
      <trkpt lat="47.26235" lon="-2.31963">
        <ele>-5.4000000953674</ele>
        <time>2022-07-31T06:59:55.000Z</time>
      </trkpt>
      <trkpt lat="47.26231" lon="-2.31967">
        <ele>-5.8000001907349</ele>
        <time>2022-07-31T06:59:56.000Z</time>
      </trkpt>
      <trkpt lat="47.26229" lon="-2.31971">
        <ele>-6.1999998092651</ele>
        <time>2022-07-31T06:59:57.000Z</time>
      </trkpt>
      <trkpt lat="47.26211" lon="-2.31989">
        <ele>-6.1999998092651</ele>
        <time>2022-07-31T07:00:03.000Z</time>
      </trkpt>
      <trkpt lat="47.26206" lon="-2.31997">
        <ele>-6.1999998092651</ele>
        <time>2022-07-31T07:00:05.000Z</time>
      </trkpt>
      <trkpt lat="47.26205" lon="-2.32001">
        <ele>-6.1999998092651</ele>
        <time>2022-07-31T07:00:06.000Z</time>
      </trkpt>
      <trkpt lat="47.26202" lon="-2.32013">
        <ele>-6.1999998092651</ele>
        <time>2022-07-31T07:00:09.000Z</time>
      </trkpt>
      <trkpt lat="47.262" lon="-2.32016">
        <ele>-6.1999998092651</ele>
        <time>2022-07-31T07:00:10.000Z</time>
      </trkpt>
      <trkpt lat="47.26193" lon="-2.32017">
        <ele>-6.1999998092651</ele>
        <time>2022-07-31T07:00:13.000Z</time>
      </trkpt>
      <trkpt lat="47.26175" lon="-2.32022">
        <ele>-6.1999998092651</ele>
        <time>2022-07-31T07:00:18.000Z</time>
      </trkpt>
      <trkpt lat="47.26165" lon="-2.3203">
        <ele>-6.1999998092651</ele>
        <time>2022-07-31T07:00:21.000Z</time>
      </trkpt>
      <trkpt lat="47.26162" lon="-2.32034">
        <ele>-6.1999998092651</ele>
        <time>2022-07-31T07:00:22.000Z</time>
      </trkpt>
      <trkpt lat="47.26154" lon="-2.32049">
        <ele>-6.1999998092651</ele>
        <time>2022-07-31T07:00:25.000Z</time>
      </trkpt>
      <trkpt lat="47.26148" lon="-2.32066">
        <ele>-6.1999998092651</ele>
        <time>2022-07-31T07:00:28.000Z</time>
      </trkpt>
      <trkpt lat="47.26134" lon="-2.32108">
        <ele>-6.1999998092651</ele>
        <time>2022-07-31T07:00:35.000Z</time>
      </trkpt>
      <trkpt lat="47.26124" lon="-2.32143">
        <ele>-6.1999998092651</ele>
        <time>2022-07-31T07:00:41.000Z</time>
      </trkpt>
      <trkpt lat="47.26118" lon="-2.32165">
        <ele>-6.1999998092651</ele>
        <time>2022-07-31T07:00:45.000Z</time>
      </trkpt>
      <trkpt lat="47.26113" lon="-2.32176">
        <ele>-6.1999998092651</ele>
        <time>2022-07-31T07:00:47.000Z</time>
      </trkpt>
      <trkpt lat="47.26105" lon="-2.32191">
        <ele>-6.1999998092651</ele>
        <time>2022-07-31T07:00:50.000Z</time>
      </trkpt>
      <trkpt lat="47.26097" lon="-2.32207">
        <ele>-6.1999998092651</ele>
        <time>2022-07-31T07:00:53.000Z</time>
      </trkpt>
      <trkpt lat="47.26088" lon="-2.32222">
        <ele>-6.1999998092651</ele>
        <time>2022-07-31T07:00:56.000Z</time>
      </trkpt>
      <trkpt lat="47.26085" lon="-2.32226">
        <ele>-6.1999998092651</ele>
        <time>2022-07-31T07:00:57.000Z</time>
      </trkpt>
      <trkpt lat="47.26082" lon="-2.3223">
        <ele>-6.1999998092651</ele>
        <time>2022-07-31T07:00:58.000Z</time>
      </trkpt>
      <trkpt lat="47.26071" lon="-2.32243">
        <ele>-6.1999998092651</ele>
        <time>2022-07-31T07:01:01.000Z</time>
      </trkpt>
      <trkpt lat="47.26058" lon="-2.32258">
        <ele>-6.1999998092651</ele>
        <time>2022-07-31T07:01:05.000Z</time>
      </trkpt>
      <trkpt lat="47.26032" lon="-2.32288">
        <ele>-6.1999998092651</ele>
        <time>2022-07-31T07:01:12.000Z</time>
      </trkpt>
      <trkpt lat="47.26006" lon="-2.32319">
        <ele>-6.1999998092651</ele>
        <time>2022-07-31T07:01:19.000Z</time>
      </trkpt>
      <trkpt lat="47.25972" lon="-2.32364">
        <ele>-6.1999998092651</ele>
        <time>2022-07-31T07:01:28.000Z</time>
      </trkpt>
      <trkpt lat="47.25947" lon="-2.32398">
        <ele>-6.1999998092651</ele>
        <time>2022-07-31T07:01:35.000Z</time>
      </trkpt>
      <trkpt lat="47.25936" lon="-2.32413">
        <ele>-6.1999998092651</ele>
        <time>2022-07-31T07:01:38.000Z</time>
      </trkpt>
      <trkpt lat="47.25925" lon="-2.32427">
        <ele>-6.1999998092651</ele>
        <time>2022-07-31T07:01:41.000Z</time>
      </trkpt>
      <trkpt lat="47.259" lon="-2.32458">
        <ele>-6.1999998092651</ele>
        <time>2022-07-31T07:01:48.000Z</time>
      </trkpt>
      <trkpt lat="47.25885" lon="-2.32472">
        <ele>-6.1999998092651</ele>
        <time>2022-07-31T07:01:52.000Z</time>
      </trkpt>
      <trkpt lat="47.2588" lon="-2.32474">
        <ele>-6.1999998092651</ele>
        <time>2022-07-31T07:01:53.000Z</time>
      </trkpt>
      <trkpt lat="47.25858" lon="-2.32478">
        <ele>-6.1999998092651</ele>
        <time>2022-07-31T07:01:58.000Z</time>
      </trkpt>
      <trkpt lat="47.25853" lon="-2.32478">
        <ele>-6.1999998092651</ele>
        <time>2022-07-31T07:01:59.000Z</time>
      </trkpt>
      <trkpt lat="47.25848" lon="-2.32477">
        <ele>-6.1999998092651</ele>
        <time>2022-07-31T07:02:00.000Z</time>
      </trkpt>
      <trkpt lat="47.25829" lon="-2.3247">
        <ele>-6.1999998092651</ele>
        <time>2022-07-31T07:02:04.000Z</time>
      </trkpt>
      <trkpt lat="47.25806" lon="-2.32458">
        <ele>-6.1999998092651</ele>
        <time>2022-07-31T07:02:09.000Z</time>
      </trkpt>
      <trkpt lat="47.25801" lon="-2.32457">
        <ele>-6.1999998092651</ele>
        <time>2022-07-31T07:02:10.000Z</time>
      </trkpt>
      <trkpt lat="47.25784" lon="-2.32457">
        <ele>-6.1999998092651</ele>
        <time>2022-07-31T07:02:14.000Z</time>
      </trkpt>
      <trkpt lat="47.2578" lon="-2.32454">
        <ele>-6.1999998092651</ele>
        <time>2022-07-31T07:02:15.000Z</time>
      </trkpt>
      <trkpt lat="47.25767" lon="-2.32432">
        <ele>-6.1999998092651</ele>
        <time>2022-07-31T07:02:19.000Z</time>
      </trkpt>
      <trkpt lat="47.25753" lon="-2.32428">
        <ele>-6.1999998092651</ele>
        <time>2022-07-31T07:02:22.000Z</time>
      </trkpt>
      <trkpt lat="47.25747" lon="-2.32428">
        <ele>-6.1999998092651</ele>
        <time>2022-07-31T07:02:23.000Z</time>
      </trkpt>
      <trkpt lat="47.2571" lon="-2.32426">
        <ele>-6.1999998092651</ele>
        <time>2022-07-31T07:02:30.000Z</time>
      </trkpt>
      <trkpt lat="47.25677" lon="-2.32424">
        <ele>-6.1999998092651</ele>
        <time>2022-07-31T07:02:37.000Z</time>
      </trkpt>
      <trkpt lat="47.25668" lon="-2.32424">
        <ele>-6.1999998092651</ele>
        <time>2022-07-31T07:02:39.000Z</time>
      </trkpt>
      <trkpt lat="47.25662" lon="-2.32432">
        <ele>-6.1999998092651</ele>
        <time>2022-07-31T07:02:41.000Z</time>
      </trkpt>
      <trkpt lat="47.25663" lon="-2.32451">
        <ele>-6.1999998092651</ele>
        <time>2022-07-31T07:02:44.000Z</time>
      </trkpt>
      <trkpt lat="47.25667" lon="-2.32463">
        <ele>-6.1999998092651</ele>
        <time>2022-07-31T07:02:46.000Z</time>
      </trkpt>
      <trkpt lat="47.25674" lon="-2.32487">
        <ele>-5.8000001907349</ele>
        <time>2022-07-31T07:02:50.000Z</time>
      </trkpt>
      <trkpt lat="47.25676" lon="-2.32493">
        <ele>-5</ele>
        <time>2022-07-31T07:02:51.000Z</time>
      </trkpt>
      <trkpt lat="47.25677" lon="-2.32499">
        <ele>-4.5999999046326</ele>
        <time>2022-07-31T07:02:52.000Z</time>
      </trkpt>
      <trkpt lat="47.25679" lon="-2.32505">
        <ele>-4.1999998092651</ele>
        <time>2022-07-31T07:02:53.000Z</time>
      </trkpt>
      <trkpt lat="47.25683" lon="-2.32517">
        <ele>-4.1999998092651</ele>
        <time>2022-07-31T07:02:55.000Z</time>
      </trkpt>
      <trkpt lat="47.25689" lon="-2.32534">
        <ele>-4.1999998092651</ele>
        <time>2022-07-31T07:02:58.000Z</time>
      </trkpt>
      <trkpt lat="47.25699" lon="-2.32569">
        <ele>-3.7999999523163</ele>
        <time>2022-07-31T07:03:04.000Z</time>
      </trkpt>
      <trkpt lat="47.25701" lon="-2.32575">
        <ele>-3.4000000953674</ele>
        <time>2022-07-31T07:03:05.000Z</time>
      </trkpt>
      <trkpt lat="47.25703" lon="-2.32581">
        <ele>-3</ele>
        <time>2022-07-31T07:03:06.000Z</time>
      </trkpt>
      <trkpt lat="47.25705" lon="-2.32586">
        <ele>-2.5999999046326</ele>
        <time>2022-07-31T07:03:07.000Z</time>
      </trkpt>
      <trkpt lat="47.25706" lon="-2.32592">
        <ele>-2.2000000476837</ele>
        <time>2022-07-31T07:03:08.000Z</time>
      </trkpt>
      <trkpt lat="47.25709" lon="-2.32604">
        <ele>-2.2000000476837</ele>
        <time>2022-07-31T07:03:10.000Z</time>
      </trkpt>
      <trkpt lat="47.25707" lon="-2.32616">
        <ele>-2.2000000476837</ele>
        <time>2022-07-31T07:03:12.000Z</time>
      </trkpt>
      <trkpt lat="47.25698" lon="-2.32628">
        <ele>-2.2000000476837</ele>
        <time>2022-07-31T07:03:15.000Z</time>
      </trkpt>
      <trkpt lat="47.25686" lon="-2.32633">
        <ele>-2.2000000476837</ele>
        <time>2022-07-31T07:03:18.000Z</time>
      </trkpt>
      <trkpt lat="47.25678" lon="-2.32637">
        <ele>-2.2000000476837</ele>
        <time>2022-07-31T07:03:20.000Z</time>
      </trkpt>
      <trkpt lat="47.25667" lon="-2.32644">
        <ele>-1.7999999523163</ele>
        <time>2022-07-31T07:03:23.000Z</time>
      </trkpt>
      <trkpt lat="47.25663" lon="-2.32646">
        <ele>-1.3999999761581</ele>
        <time>2022-07-31T07:03:24.000Z</time>
      </trkpt>
      <trkpt lat="47.25659" lon="-2.32648">
        <ele>-1</ele>
        <time>2022-07-31T07:03:25.000Z</time>
      </trkpt>
      <trkpt lat="47.25655" lon="-2.3265">
        <ele>-0.60000002384186</ele>
        <time>2022-07-31T07:03:26.000Z</time>
      </trkpt>
      <trkpt lat="47.25651" lon="-2.32652">
        <ele>11.8</ele>
        <time>2022-07-31T07:03:27.000Z</time>
      </trkpt>
      <trkpt lat="47.25627" lon="-2.32662">
        <ele>12.5</ele>
        <time>2022-07-31T07:03:33.000Z</time>
      </trkpt>
      <trkpt lat="47.25623" lon="-2.32664">
        <ele>12.4</ele>
        <time>2022-07-31T07:03:34.000Z</time>
      </trkpt>
      <trkpt lat="47.25615" lon="-2.32667">
        <ele>12.2</ele>
        <time>2022-07-31T07:03:36.000Z</time>
      </trkpt>
      <trkpt lat="47.25603" lon="-2.32672">
        <ele>12.2</ele>
        <time>2022-07-31T07:03:39.000Z</time>
      </trkpt>
      <trkpt lat="47.25599" lon="-2.32673">
        <ele>12.2</ele>
        <time>2022-07-31T07:03:40.000Z</time>
      </trkpt>
      <trkpt lat="47.25569" lon="-2.32685">
        <ele>12.3</ele>
        <time>2022-07-31T07:03:47.000Z</time>
      </trkpt>
      <trkpt lat="47.25537" lon="-2.32697">
        <ele>12.1</ele>
        <time>2022-07-31T07:03:54.000Z</time>
      </trkpt>
      <trkpt lat="47.25502" lon="-2.32704">
        <ele>12.3</ele>
        <time>2022-07-31T07:04:01.000Z</time>
      </trkpt>
      <trkpt lat="47.25487" lon="-2.32707">
        <ele>12.5</ele>
        <time>2022-07-31T07:04:04.000Z</time>
      </trkpt>
      <trkpt lat="47.25478" lon="-2.32713">
        <ele>12.4</ele>
        <time>2022-07-31T07:04:06.000Z</time>
      </trkpt>
      <trkpt lat="47.25467" lon="-2.32727">
        <ele>12.1</ele>
        <time>2022-07-31T07:04:09.000Z</time>
      </trkpt>
      <trkpt lat="47.25459" lon="-2.32737">
        <ele>12</ele>
        <time>2022-07-31T07:04:11.000Z</time>
      </trkpt>
      <trkpt lat="47.25437" lon="-2.32774">
        <ele>11.3</ele>
        <time>2022-07-31T07:04:18.000Z</time>
      </trkpt>
      <trkpt lat="47.25425" lon="-2.32796">
        <ele>10.6</ele>
        <time>2022-07-31T07:04:22.000Z</time>
      </trkpt>
      <trkpt lat="47.25395" lon="-2.32835">
        <ele>10</ele>
        <time>2022-07-31T07:04:29.000Z</time>
      </trkpt>
      <trkpt lat="47.25364" lon="-2.32871">
        <ele>9.6</ele>
        <time>2022-07-31T07:04:36.000Z</time>
      </trkpt>
      <trkpt lat="47.25328" lon="-2.32906">
        <ele>8.9</ele>
        <time>2022-07-31T07:04:44.000Z</time>
      </trkpt>
      <trkpt lat="47.25311" lon="-2.32924">
        <ele>9</ele>
        <time>2022-07-31T07:04:48.000Z</time>
      </trkpt>
      <trkpt lat="47.25309" lon="-2.3293">
        <ele>9</ele>
        <time>2022-07-31T07:04:49.000Z</time>
      </trkpt>
      <trkpt lat="47.25309" lon="-2.3295">
        <ele>9</ele>
        <time>2022-07-31T07:04:52.000Z</time>
      </trkpt>
      <trkpt lat="47.25313" lon="-2.32962">
        <ele>9</ele>
        <time>2022-07-31T07:04:54.000Z</time>
      </trkpt>
      <trkpt lat="47.2532" lon="-2.3298">
        <ele>8.9</ele>
        <time>2022-07-31T07:04:57.000Z</time>
      </trkpt>
      <trkpt lat="47.25336" lon="-2.33023">
        <ele>-0.40000000596046</ele>
        <time>2022-07-31T07:05:04.000Z</time>
      </trkpt>
      <trkpt lat="47.25339" lon="-2.33029">
        <ele>-0.80000001192093</ele>
        <time>2022-07-31T07:05:05.000Z</time>
      </trkpt>
      <trkpt lat="47.25342" lon="-2.33035">
        <ele>-1.2000000476837</ele>
        <time>2022-07-31T07:05:06.000Z</time>
      </trkpt>
      <trkpt lat="47.25344" lon="-2.3304">
        <ele>-1.6000000238419</ele>
        <time>2022-07-31T07:05:07.000Z</time>
      </trkpt>
      <trkpt lat="47.25347" lon="-2.33045">
        <ele>-2.2000000476837</ele>
        <time>2022-07-31T07:05:08.000Z</time>
      </trkpt>
      <trkpt lat="47.25352" lon="-2.33054">
        <ele>-2.2000000476837</ele>
        <time>2022-07-31T07:05:10.000Z</time>
      </trkpt>
      <trkpt lat="47.25364" lon="-2.33087">
        <ele>-2.2000000476837</ele>
        <time>2022-07-31T07:05:16.000Z</time>
      </trkpt>
      <trkpt lat="47.25369" lon="-2.33097">
        <ele>-2.2000000476837</ele>
        <time>2022-07-31T07:05:20.000Z</time>
      </trkpt>
      <trkpt lat="47.25369" lon="-2.331">
        <ele>-2.2000000476837</ele>
        <time>2022-07-31T07:05:23.000Z</time>
      </trkpt>
      <trkpt lat="47.25368" lon="-2.33101">
        <ele>-2.2000000476837</ele>
        <time>2022-07-31T07:05:24.000Z</time>
      </trkpt>
      <trkpt lat="47.2537" lon="-2.33107">
        <ele>-2.2000000476837</ele>
        <time>2022-07-31T07:06:48.000Z</time>
      </trkpt>
      <trkpt lat="47.25376" lon="-2.33123">
        <ele>-2.2000000476837</ele>
        <time>2022-07-31T07:06:53.000Z</time>
      </trkpt>
      <trkpt lat="47.25375" lon="-2.33152">
        <ele>-2.2000000476837</ele>
        <time>2022-07-31T07:06:59.000Z</time>
      </trkpt>
      <trkpt lat="47.25364" lon="-2.3317">
        <ele>-2.2000000476837</ele>
        <time>2022-07-31T07:07:03.000Z</time>
      </trkpt>
      <trkpt lat="47.25351" lon="-2.33189">
        <ele>-2.2000000476837</ele>
        <time>2022-07-31T07:07:08.000Z</time>
      </trkpt>
      <trkpt lat="47.25339" lon="-2.33206">
        <ele>-2.2000000476837</ele>
        <time>2022-07-31T07:07:12.000Z</time>
      </trkpt>
      <trkpt lat="47.25332" lon="-2.33215">
        <ele>-2.2000000476837</ele>
        <time>2022-07-31T07:07:14.000Z</time>
      </trkpt>
      <trkpt lat="47.25321" lon="-2.33226">
        <ele>-2.2000000476837</ele>
        <time>2022-07-31T07:07:18.000Z</time>
      </trkpt>
      <trkpt lat="47.25319" lon="-2.33226">
        <ele>-2.2000000476837</ele>
        <time>2022-07-31T07:07:19.000Z</time>
      </trkpt>
      <trkpt lat="47.2531" lon="-2.33216">
        <ele>-2.2000000476837</ele>
        <time>2022-07-31T07:07:22.000Z</time>
      </trkpt>
      <trkpt lat="47.25291" lon="-2.33182">
        <ele>-2.2000000476837</ele>
        <time>2022-07-31T07:07:29.000Z</time>
      </trkpt>
      <trkpt lat="47.25273" lon="-2.33149">
        <ele>-2.2000000476837</ele>
        <time>2022-07-31T07:07:35.000Z</time>
      </trkpt>
      <trkpt lat="47.25264" lon="-2.33132">
        <ele>-2.2000000476837</ele>
        <time>2022-07-31T07:07:39.000Z</time>
      </trkpt>
      <trkpt lat="47.25248" lon="-2.33103">
        <ele>-2.2000000476837</ele>
        <time>2022-07-31T07:07:45.000Z</time>
      </trkpt>
      <trkpt lat="47.2522" lon="-2.33049">
        <ele>-2.2000000476837</ele>
        <time>2022-07-31T07:07:54.000Z</time>
      </trkpt>
      <trkpt lat="47.25207" lon="-2.3303">
        <ele>-2.2000000476837</ele>
        <time>2022-07-31T07:07:59.000Z</time>
      </trkpt>
      <trkpt lat="47.25204" lon="-2.33031">
        <ele>-2.2000000476837</ele>
        <time>2022-07-31T07:08:00.000Z</time>
      </trkpt>
      <trkpt lat="47.25196" lon="-2.33039">
        <ele>-2.2000000476837</ele>
        <time>2022-07-31T07:08:03.000Z</time>
      </trkpt>
      <trkpt lat="47.25192" lon="-2.33043">
        <ele>-2.2000000476837</ele>
        <time>2022-07-31T07:08:04.000Z</time>
      </trkpt>
      <trkpt lat="47.25169" lon="-2.33065">
        <ele>-2.2000000476837</ele>
        <time>2022-07-31T07:08:09.000Z</time>
      </trkpt>
      <trkpt lat="47.25165" lon="-2.33068">
        <ele>-2.5999999046326</ele>
        <time>2022-07-31T07:08:10.000Z</time>
      </trkpt>
      <trkpt lat="47.2516" lon="-2.33071">
        <ele>-3</ele>
        <time>2022-07-31T07:08:11.000Z</time>
      </trkpt>
      <trkpt lat="47.25155" lon="-2.33074">
        <ele>-3.4000000953674</ele>
        <time>2022-07-31T07:08:12.000Z</time>
      </trkpt>
      <trkpt lat="47.2515" lon="-2.33076">
        <ele>-4.1999998092651</ele>
        <time>2022-07-31T07:08:13.000Z</time>
      </trkpt>
      <trkpt lat="47.25124" lon="-2.33087">
        <ele>-4.1999998092651</ele>
        <time>2022-07-31T07:08:19.000Z</time>
      </trkpt>
      <trkpt lat="47.25116" lon="-2.33085">
        <ele>-4.1999998092651</ele>
        <time>2022-07-31T07:08:22.000Z</time>
      </trkpt>
      <trkpt lat="47.25113" lon="-2.33082">
        <ele>-4.1999998092651</ele>
        <time>2022-07-31T07:08:23.000Z</time>
      </trkpt>
      <trkpt lat="47.25112" lon="-2.33078">
        <ele>-4.1999998092651</ele>
        <time>2022-07-31T07:08:24.000Z</time>
      </trkpt>
      <trkpt lat="47.25113" lon="-2.33072">
        <ele>-4.1999998092651</ele>
        <time>2022-07-31T07:08:26.000Z</time>
      </trkpt>
      <trkpt lat="47.25124" lon="-2.33055">
        <ele>-4.1999998092651</ele>
        <time>2022-07-31T07:08:30.000Z</time>
      </trkpt>
      <trkpt lat="47.25129" lon="-2.33044">
        <ele>-4.1999998092651</ele>
        <time>2022-07-31T07:08:32.000Z</time>
      </trkpt>
      <trkpt lat="47.25133" lon="-2.33032">
        <ele>-4.1999998092651</ele>
        <time>2022-07-31T07:08:34.000Z</time>
      </trkpt>
      <trkpt lat="47.25135" lon="-2.33026">
        <ele>-4.1999998092651</ele>
        <time>2022-07-31T07:08:35.000Z</time>
      </trkpt>
      <trkpt lat="47.25133" lon="-2.32999">
        <ele>-4.1999998092651</ele>
        <time>2022-07-31T07:08:39.000Z</time>
      </trkpt>
      <trkpt lat="47.25124" lon="-2.32984">
        <ele>-4.1999998092651</ele>
        <time>2022-07-31T07:08:42.000Z</time>
      </trkpt>
      <trkpt lat="47.2512" lon="-2.32979">
        <ele>-4.1999998092651</ele>
        <time>2022-07-31T07:08:43.000Z</time>
      </trkpt>
      <trkpt lat="47.25117" lon="-2.32973">
        <ele>-4.1999998092651</ele>
        <time>2022-07-31T07:08:44.000Z</time>
      </trkpt>
      <trkpt lat="47.25108" lon="-2.32957">
        <ele>-4.1999998092651</ele>
        <time>2022-07-31T07:08:47.000Z</time>
      </trkpt>
      <trkpt lat="47.25097" lon="-2.32937">
        <ele>-4.1999998092651</ele>
        <time>2022-07-31T07:08:52.000Z</time>
      </trkpt>
      <trkpt lat="47.25089" lon="-2.32917">
        <ele>-4.1999998092651</ele>
        <time>2022-07-31T07:08:58.000Z</time>
      </trkpt>
      <trkpt lat="47.25086" lon="-2.32906">
        <ele>-4.1999998092651</ele>
        <time>2022-07-31T07:09:03.000Z</time>
      </trkpt>
      <trkpt lat="47.25085" lon="-2.32904">
        <ele>-4.1999998092651</ele>
        <time>2022-07-31T07:09:04.000Z</time>
      </trkpt>
      <trkpt lat="47.25079" lon="-2.32885">
        <ele>-4.1999998092651</ele>
        <time>2022-07-31T07:09:09.000Z</time>
      </trkpt>
      <trkpt lat="47.25076" lon="-2.32866">
        <ele>-4.1999998092651</ele>
        <time>2022-07-31T07:09:13.000Z</time>
      </trkpt>
      <trkpt lat="47.25077" lon="-2.32857">
        <ele>-4.1999998092651</ele>
        <time>2022-07-31T07:09:15.000Z</time>
      </trkpt>
      <trkpt lat="47.25073" lon="-2.32852">
        <ele>-4.1999998092651</ele>
        <time>2022-07-31T07:09:17.000Z</time>
      </trkpt>
      <trkpt lat="47.25061" lon="-2.32837">
        <ele>-4.1999998092651</ele>
        <time>2022-07-31T07:09:21.000Z</time>
      </trkpt>
      <trkpt lat="47.25054" lon="-2.32827">
        <ele>-4.1999998092651</ele>
        <time>2022-07-31T07:09:23.000Z</time>
      </trkpt>
      <trkpt lat="47.25046" lon="-2.32808">
        <ele>-4.1999998092651</ele>
        <time>2022-07-31T07:09:26.000Z</time>
      </trkpt>
      <trkpt lat="47.25039" lon="-2.32782">
        <ele>-4.1999998092651</ele>
        <time>2022-07-31T07:09:30.000Z</time>
      </trkpt>
      <trkpt lat="47.25029" lon="-2.32763">
        <ele>-4.1999998092651</ele>
        <time>2022-07-31T07:09:34.000Z</time>
      </trkpt>
      <trkpt lat="47.25031" lon="-2.3275">
        <ele>-4.1999998092651</ele>
        <time>2022-07-31T07:09:37.000Z</time>
      </trkpt>
      <trkpt lat="47.25042" lon="-2.32738">
        <ele>-4.1999998092651</ele>
        <time>2022-07-31T07:09:40.000Z</time>
      </trkpt>
      <trkpt lat="47.25046" lon="-2.32734">
        <ele>-4.1999998092651</ele>
        <time>2022-07-31T07:09:41.000Z</time>
      </trkpt>
      <trkpt lat="47.2507" lon="-2.32712">
        <ele>-4.1999998092651</ele>
        <time>2022-07-31T07:09:47.000Z</time>
      </trkpt>
      <trkpt lat="47.25081" lon="-2.327">
        <ele>-3.7999999523163</ele>
        <time>2022-07-31T07:09:50.000Z</time>
      </trkpt>
      <trkpt lat="47.25084" lon="-2.32694">
        <ele>-3</ele>
        <time>2022-07-31T07:09:51.000Z</time>
      </trkpt>
      <trkpt lat="47.25084" lon="-2.32687">
        <ele>-2.5999999046326</ele>
        <time>2022-07-31T07:09:52.000Z</time>
      </trkpt>
      <trkpt lat="47.25083" lon="-2.32681">
        <ele>-2.2000000476837</ele>
        <time>2022-07-31T07:09:53.000Z</time>
      </trkpt>
      <trkpt lat="47.25079" lon="-2.3267">
        <ele>-2.2000000476837</ele>
        <time>2022-07-31T07:09:55.000Z</time>
      </trkpt>
      <trkpt lat="47.25073" lon="-2.32659">
        <ele>-2.2000000476837</ele>
        <time>2022-07-31T07:09:57.000Z</time>
      </trkpt>
      <trkpt lat="47.25071" lon="-2.32653">
        <ele>-2.2000000476837</ele>
        <time>2022-07-31T07:09:58.000Z</time>
      </trkpt>
      <trkpt lat="47.25066" lon="-2.32642">
        <ele>-2.2000000476837</ele>
        <time>2022-07-31T07:10:00.000Z</time>
      </trkpt>
      <trkpt lat="47.25063" lon="-2.32636">
        <ele>-2.2000000476837</ele>
        <time>2022-07-31T07:10:01.000Z</time>
      </trkpt>
      <trkpt lat="47.25061" lon="-2.32631">
        <ele>-2.2000000476837</ele>
        <time>2022-07-31T07:10:02.000Z</time>
      </trkpt>
      <trkpt lat="47.25053" lon="-2.32613">
        <ele>-1.7999999523163</ele>
        <time>2022-07-31T07:10:05.000Z</time>
      </trkpt>
      <trkpt lat="47.2505" lon="-2.32608">
        <ele>-1.2000000476837</ele>
        <time>2022-07-31T07:10:06.000Z</time>
      </trkpt>
      <trkpt lat="47.25048" lon="-2.32602">
        <ele>-0.80000001192093</ele>
        <time>2022-07-31T07:10:07.000Z</time>
      </trkpt>
      <trkpt lat="47.25045" lon="-2.32596">
        <ele>-0.40000000596046</ele>
        <time>2022-07-31T07:10:08.000Z</time>
      </trkpt>
      <trkpt lat="47.25042" lon="-2.32591">
        <ele>12.6</ele>
        <time>2022-07-31T07:10:09.000Z</time>
      </trkpt>
      <trkpt lat="47.2504" lon="-2.32584">
        <ele>13</ele>
        <time>2022-07-31T07:10:10.000Z</time>
      </trkpt>
      <trkpt lat="47.25035" lon="-2.32572">
        <ele>13.5</ele>
        <time>2022-07-31T07:10:12.000Z</time>
      </trkpt>
      <trkpt lat="47.25034" lon="-2.32566">
        <ele>13.7</ele>
        <time>2022-07-31T07:10:13.000Z</time>
      </trkpt>
      <trkpt lat="47.2503" lon="-2.32554">
        <ele>14.1</ele>
        <time>2022-07-31T07:10:15.000Z</time>
      </trkpt>
      <trkpt lat="47.25029" lon="-2.32541">
        <ele>0.40000000596046</ele>
        <time>2022-07-31T07:10:17.000Z</time>
      </trkpt>
      <trkpt lat="47.2503" lon="-2.32535">
        <ele>0.80000001192093</ele>
        <time>2022-07-31T07:10:18.000Z</time>
      </trkpt>
      <trkpt lat="47.25033" lon="-2.3253">
        <ele>1.2000000476837</ele>
        <time>2022-07-31T07:10:19.000Z</time>
      </trkpt>
      <trkpt lat="47.25035" lon="-2.32525">
        <ele>1.6000000238419</ele>
        <time>2022-07-31T07:10:20.000Z</time>
      </trkpt>
      <trkpt lat="47.25038" lon="-2.3252">
        <ele>2</ele>
        <time>2022-07-31T07:10:21.000Z</time>
      </trkpt>
      <trkpt lat="47.25055" lon="-2.32505">
        <ele>2</ele>
        <time>2022-07-31T07:10:26.000Z</time>
      </trkpt>
      <trkpt lat="47.25059" lon="-2.32503">
        <ele>2</ele>
        <time>2022-07-31T07:10:27.000Z</time>
      </trkpt>
      <trkpt lat="47.25066" lon="-2.32498">
        <ele>2.4000000953674</ele>
        <time>2022-07-31T07:10:29.000Z</time>
      </trkpt>
      <trkpt lat="47.2507" lon="-2.32496">
        <ele>2.7999999523163</ele>
        <time>2022-07-31T07:10:30.000Z</time>
      </trkpt>
      <trkpt lat="47.25074" lon="-2.32494">
        <ele>3.2000000476837</ele>
        <time>2022-07-31T07:10:31.000Z</time>
      </trkpt>
      <trkpt lat="47.25078" lon="-2.32493">
        <ele>3.7999999523163</ele>
        <time>2022-07-31T07:10:32.000Z</time>
      </trkpt>
      <trkpt lat="47.25082" lon="-2.3249">
        <ele>4.1999998092651</ele>
        <time>2022-07-31T07:10:33.000Z</time>
      </trkpt>
      <trkpt lat="47.25086" lon="-2.32488">
        <ele>4.1999998092651</ele>
        <time>2022-07-31T07:10:34.000Z</time>
      </trkpt>
      <trkpt lat="47.25089" lon="-2.32485">
        <ele>4.1999998092651</ele>
        <time>2022-07-31T07:10:35.000Z</time>
      </trkpt>
      <trkpt lat="47.25096" lon="-2.32478">
        <ele>4.1999998092651</ele>
        <time>2022-07-31T07:10:37.000Z</time>
      </trkpt>
      <trkpt lat="47.25104" lon="-2.32465">
        <ele>4.1999998092651</ele>
        <time>2022-07-31T07:10:40.000Z</time>
      </trkpt>
      <trkpt lat="47.25107" lon="-2.32443">
        <ele>4.1999998092651</ele>
        <time>2022-07-31T07:10:44.000Z</time>
      </trkpt>
      <trkpt lat="47.25107" lon="-2.32426">
        <ele>4.1999998092651</ele>
        <time>2022-07-31T07:10:47.000Z</time>
      </trkpt>
      <trkpt lat="47.25106" lon="-2.32414">
        <ele>4.5999999046326</ele>
        <time>2022-07-31T07:10:49.000Z</time>
      </trkpt>
      <trkpt lat="47.25106" lon="-2.32408">
        <ele>5</ele>
        <time>2022-07-31T07:10:50.000Z</time>
      </trkpt>
      <trkpt lat="47.25105" lon="-2.32402">
        <ele>5.4000000953674</ele>
        <time>2022-07-31T07:10:51.000Z</time>
      </trkpt>
      <trkpt lat="47.25105" lon="-2.32396">
        <ele>5.8000001907349</ele>
        <time>2022-07-31T07:10:52.000Z</time>
      </trkpt>
      <trkpt lat="47.25105" lon="-2.3239">
        <ele>6.1999998092651</ele>
        <time>2022-07-31T07:10:53.000Z</time>
      </trkpt>
      <trkpt lat="47.25107" lon="-2.32366">
        <ele>6.1999998092651</ele>
        <time>2022-07-31T07:10:57.000Z</time>
      </trkpt>
      <trkpt lat="47.25114" lon="-2.32333">
        <ele>6.1999998092651</ele>
        <time>2022-07-31T07:11:03.000Z</time>
      </trkpt>
      <trkpt lat="47.25117" lon="-2.32322">
        <ele>6.5999999046326</ele>
        <time>2022-07-31T07:11:05.000Z</time>
      </trkpt>
      <trkpt lat="47.25119" lon="-2.32318">
        <ele>7.4000000953674</ele>
        <time>2022-07-31T07:11:06.000Z</time>
      </trkpt>
      <trkpt lat="47.25122" lon="-2.32314">
        <ele>7.8000001907349</ele>
        <time>2022-07-31T07:11:07.000Z</time>
      </trkpt>
      <trkpt lat="47.25124" lon="-2.3231">
        <ele>8.1999998092651</ele>
        <time>2022-07-31T07:11:08.000Z</time>
      </trkpt>
      <trkpt lat="47.25126" lon="-2.32306">
        <ele>8.1999998092651</ele>
        <time>2022-07-31T07:11:09.000Z</time>
      </trkpt>
      <trkpt lat="47.25133" lon="-2.32284">
        <ele>8.1999998092651</ele>
        <time>2022-07-31T07:11:14.000Z</time>
      </trkpt>
      <trkpt lat="47.25132" lon="-2.32272">
        <ele>8.6000003814697</ele>
        <time>2022-07-31T07:11:16.000Z</time>
      </trkpt>
      <trkpt lat="47.25132" lon="-2.32266">
        <ele>9</ele>
        <time>2022-07-31T07:11:17.000Z</time>
      </trkpt>
      <trkpt lat="47.25131" lon="-2.3226">
        <ele>9.3999996185303</ele>
        <time>2022-07-31T07:11:18.000Z</time>
      </trkpt>
      <trkpt lat="47.2513" lon="-2.32254">
        <ele>9.8000001907349</ele>
        <time>2022-07-31T07:11:19.000Z</time>
      </trkpt>
      <trkpt lat="47.2513" lon="-2.32247">
        <ele>10.199999809265</ele>
        <time>2022-07-31T07:11:20.000Z</time>
      </trkpt>
      <trkpt lat="47.2513" lon="-2.32235">
        <ele>10.199999809265</ele>
        <time>2022-07-31T07:11:22.000Z</time>
      </trkpt>
      <trkpt lat="47.25129" lon="-2.32216">
        <ele>10.199999809265</ele>
        <time>2022-07-31T07:11:25.000Z</time>
      </trkpt>
      <trkpt lat="47.25128" lon="-2.32197">
        <ele>10.199999809265</ele>
        <time>2022-07-31T07:11:28.000Z</time>
      </trkpt>
      <trkpt lat="47.25125" lon="-2.32177">
        <ele>10.199999809265</ele>
        <time>2022-07-31T07:11:31.000Z</time>
      </trkpt>
      <trkpt lat="47.25124" lon="-2.32171">
        <ele>10.199999809265</ele>
        <time>2022-07-31T07:11:32.000Z</time>
      </trkpt>
      <trkpt lat="47.25122" lon="-2.32157">
        <ele>10.199999809265</ele>
        <time>2022-07-31T07:11:34.000Z</time>
      </trkpt>
      <trkpt lat="47.2512" lon="-2.32135">
        <ele>10.199999809265</ele>
        <time>2022-07-31T07:11:37.000Z</time>
      </trkpt>
      <trkpt lat="47.25117" lon="-2.32097">
        <ele>10.199999809265</ele>
        <time>2022-07-31T07:11:42.000Z</time>
      </trkpt>
      <trkpt lat="47.25115" lon="-2.32061">
        <ele>10.199999809265</ele>
        <time>2022-07-31T07:11:47.000Z</time>
      </trkpt>
      <trkpt lat="47.25113" lon="-2.32018">
        <ele>10.199999809265</ele>
        <time>2022-07-31T07:11:53.000Z</time>
      </trkpt>
      <trkpt lat="47.2511" lon="-2.31994">
        <ele>10.199999809265</ele>
        <time>2022-07-31T07:11:56.000Z</time>
      </trkpt>
      <trkpt lat="47.25107" lon="-2.31986">
        <ele>10.199999809265</ele>
        <time>2022-07-31T07:11:57.000Z</time>
      </trkpt>
      <trkpt lat="47.25105" lon="-2.31952">
        <ele>10.199999809265</ele>
        <time>2022-07-31T07:12:01.000Z</time>
      </trkpt>
      <trkpt lat="47.25103" lon="-2.31934">
        <ele>10.199999809265</ele>
        <time>2022-07-31T07:12:03.000Z</time>
      </trkpt>
      <trkpt lat="47.25099" lon="-2.31894">
        <ele>10.199999809265</ele>
        <time>2022-07-31T07:12:08.000Z</time>
      </trkpt>
      <trkpt lat="47.25089" lon="-2.31834">
        <ele>10.199999809265</ele>
        <time>2022-07-31T07:12:16.000Z</time>
      </trkpt>
      <trkpt lat="47.25083" lon="-2.31804">
        <ele>10.199999809265</ele>
        <time>2022-07-31T07:12:20.000Z</time>
      </trkpt>
      <trkpt lat="47.25079" lon="-2.31784">
        <ele>10.199999809265</ele>
        <time>2022-07-31T07:12:23.000Z</time>
      </trkpt>
      <trkpt lat="47.25078" lon="-2.31778">
        <ele>10.60000038147</ele>
        <time>2022-07-31T07:12:24.000Z</time>
      </trkpt>
      <trkpt lat="47.25077" lon="-2.31771">
        <ele>11.199999809265</ele>
        <time>2022-07-31T07:12:25.000Z</time>
      </trkpt>
      <trkpt lat="47.25075" lon="-2.31764">
        <ele>11.60000038147</ele>
        <time>2022-07-31T07:12:26.000Z</time>
      </trkpt>
      <trkpt lat="47.25073" lon="-2.31757">
        <ele>12</ele>
        <time>2022-07-31T07:12:27.000Z</time>
      </trkpt>
      <trkpt lat="47.25071" lon="-2.31749">
        <ele>12.39999961853</ele>
        <time>2022-07-31T07:12:28.000Z</time>
      </trkpt>
      <trkpt lat="47.25056" lon="-2.3169">
        <ele>12.39999961853</ele>
        <time>2022-07-31T07:12:36.000Z</time>
      </trkpt>
      <trkpt lat="47.25049" lon="-2.31657">
        <ele>12.39999961853</ele>
        <time>2022-07-31T07:12:41.000Z</time>
      </trkpt>
      <trkpt lat="47.25046" lon="-2.31653">
        <ele>12.39999961853</ele>
        <time>2022-07-31T07:12:42.000Z</time>
      </trkpt>
      <trkpt lat="47.25034" lon="-2.31654">
        <ele>12.39999961853</ele>
        <time>2022-07-31T07:12:45.000Z</time>
      </trkpt>
      <trkpt lat="47.25027" lon="-2.31663">
        <ele>12.39999961853</ele>
        <time>2022-07-31T07:12:47.000Z</time>
      </trkpt>
      <trkpt lat="47.25015" lon="-2.31675">
        <ele>12.39999961853</ele>
        <time>2022-07-31T07:12:50.000Z</time>
      </trkpt>
      <trkpt lat="47.24986" lon="-2.31704">
        <ele>12.39999961853</ele>
        <time>2022-07-31T07:12:57.000Z</time>
      </trkpt>
      <trkpt lat="47.24969" lon="-2.31721">
        <ele>12.39999961853</ele>
        <time>2022-07-31T07:13:01.000Z</time>
      </trkpt>
      <trkpt lat="47.24961" lon="-2.31729">
        <ele>12.39999961853</ele>
        <time>2022-07-31T07:13:03.000Z</time>
      </trkpt>
      <trkpt lat="47.24929" lon="-2.3176">
        <ele>12.39999961853</ele>
        <time>2022-07-31T07:13:10.000Z</time>
      </trkpt>
      <trkpt lat="47.24894" lon="-2.31787">
        <ele>12.39999961853</ele>
        <time>2022-07-31T07:13:17.000Z</time>
      </trkpt>
      <trkpt lat="47.24862" lon="-2.3182">
        <ele>12.39999961853</ele>
        <time>2022-07-31T07:13:24.000Z</time>
      </trkpt>
      <trkpt lat="47.24833" lon="-2.31845">
        <ele>12.39999961853</ele>
        <time>2022-07-31T07:13:30.000Z</time>
      </trkpt>
      <trkpt lat="47.24814" lon="-2.31861">
        <ele>11.60000038147</ele>
        <time>2022-07-31T07:13:34.000Z</time>
      </trkpt>
      <trkpt lat="47.24809" lon="-2.31864">
        <ele>11.199999809265</ele>
        <time>2022-07-31T07:13:35.000Z</time>
      </trkpt>
      <trkpt lat="47.24804" lon="-2.31865">
        <ele>10.800000190735</ele>
        <time>2022-07-31T07:13:36.000Z</time>
      </trkpt>
      <trkpt lat="47.24799" lon="-2.31864">
        <ele>10.39999961853</ele>
        <time>2022-07-31T07:13:37.000Z</time>
      </trkpt>
      <trkpt lat="47.24789" lon="-2.31856">
        <ele>10.39999961853</ele>
        <time>2022-07-31T07:13:39.000Z</time>
      </trkpt>
      <trkpt lat="47.24781" lon="-2.31844">
        <ele>10.39999961853</ele>
        <time>2022-07-31T07:13:41.000Z</time>
      </trkpt>
      <trkpt lat="47.24769" lon="-2.31825">
        <ele>10.39999961853</ele>
        <time>2022-07-31T07:13:44.000Z</time>
      </trkpt>
      <trkpt lat="47.24734" lon="-2.31776">
        <ele>10.39999961853</ele>
        <time>2022-07-31T07:13:52.000Z</time>
      </trkpt>
      <trkpt lat="47.24706" lon="-2.31732">
        <ele>10.39999961853</ele>
        <time>2022-07-31T07:13:59.000Z</time>
      </trkpt>
      <trkpt lat="47.24674" lon="-2.31683">
        <ele>10.39999961853</ele>
        <time>2022-07-31T07:14:07.000Z</time>
      </trkpt>
      <trkpt lat="47.24649" lon="-2.31646">
        <ele>10.39999961853</ele>
        <time>2022-07-31T07:14:13.000Z</time>
      </trkpt>
      <trkpt lat="47.24626" lon="-2.31608">
        <ele>10.39999961853</ele>
        <time>2022-07-31T07:14:19.000Z</time>
      </trkpt>
      <trkpt lat="47.24602" lon="-2.3157">
        <ele>10.39999961853</ele>
        <time>2022-07-31T07:14:25.000Z</time>
      </trkpt>
      <trkpt lat="47.24599" lon="-2.31562">
        <ele>10.39999961853</ele>
        <time>2022-07-31T07:14:26.000Z</time>
      </trkpt>
      <trkpt lat="47.24593" lon="-2.31537">
        <ele>10.39999961853</ele>
        <time>2022-07-31T07:14:29.000Z</time>
      </trkpt>
      <trkpt lat="47.24592" lon="-2.31529">
        <ele>10.39999961853</ele>
        <time>2022-07-31T07:14:30.000Z</time>
      </trkpt>
      <trkpt lat="47.24589" lon="-2.31495">
        <ele>10.39999961853</ele>
        <time>2022-07-31T07:14:34.000Z</time>
      </trkpt>
      <trkpt lat="47.24584" lon="-2.31437">
        <ele>10.39999961853</ele>
        <time>2022-07-31T07:14:41.000Z</time>
      </trkpt>
      <trkpt lat="47.24579" lon="-2.31391">
        <ele>10.39999961853</ele>
        <time>2022-07-31T07:14:48.000Z</time>
      </trkpt>
      <trkpt lat="47.24576" lon="-2.31387">
        <ele>10.39999961853</ele>
        <time>2022-07-31T07:14:49.000Z</time>
      </trkpt>
      <trkpt lat="47.2457" lon="-2.31385">
        <ele>10.39999961853</ele>
        <time>2022-07-31T07:14:51.000Z</time>
      </trkpt>
      <trkpt lat="47.24557" lon="-2.31389">
        <ele>10.39999961853</ele>
        <time>2022-07-31T07:14:55.000Z</time>
      </trkpt>
      <trkpt lat="47.24544" lon="-2.31387">
        <ele>10.39999961853</ele>
        <time>2022-07-31T07:14:58.000Z</time>
      </trkpt>
      <trkpt lat="47.24536" lon="-2.31388">
        <ele>10.39999961853</ele>
        <time>2022-07-31T07:15:00.000Z</time>
      </trkpt>
      <trkpt lat="47.24524" lon="-2.31384">
        <ele>10.39999961853</ele>
        <time>2022-07-31T07:15:03.000Z</time>
      </trkpt>
      <trkpt lat="47.24517" lon="-2.3138">
        <ele>10.39999961853</ele>
        <time>2022-07-31T07:15:05.000Z</time>
      </trkpt>
      <trkpt lat="47.24511" lon="-2.31373">
        <ele>10</ele>
        <time>2022-07-31T07:15:07.000Z</time>
      </trkpt>
      <trkpt lat="47.24507" lon="-2.31369">
        <ele>9.6000003814697</ele>
        <time>2022-07-31T07:15:08.000Z</time>
      </trkpt>
      <trkpt lat="47.24504" lon="-2.31363">
        <ele>9.1999998092651</ele>
        <time>2022-07-31T07:15:09.000Z</time>
      </trkpt>
      <trkpt lat="47.24501" lon="-2.31357">
        <ele>8.8000001907349</ele>
        <time>2022-07-31T07:15:10.000Z</time>
      </trkpt>
      <trkpt lat="47.24498" lon="-2.3135">
        <ele>8.3999996185303</ele>
        <time>2022-07-31T07:15:11.000Z</time>
      </trkpt>
      <trkpt lat="47.24494" lon="-2.31341">
        <ele>8</ele>
        <time>2022-07-31T07:15:12.000Z</time>
      </trkpt>
      <trkpt lat="47.24491" lon="-2.31334">
        <ele>7.1999998092651</ele>
        <time>2022-07-31T07:15:13.000Z</time>
      </trkpt>
      <trkpt lat="47.24488" lon="-2.31327">
        <ele>6.8000001907349</ele>
        <time>2022-07-31T07:15:14.000Z</time>
      </trkpt>
      <trkpt lat="47.24484" lon="-2.31321">
        <ele>6.4000000953674</ele>
        <time>2022-07-31T07:15:15.000Z</time>
      </trkpt>
      <trkpt lat="47.24481" lon="-2.31314">
        <ele>6.4000000953674</ele>
        <time>2022-07-31T07:15:16.000Z</time>
      </trkpt>
      <trkpt lat="47.24475" lon="-2.31298">
        <ele>6.4000000953674</ele>
        <time>2022-07-31T07:15:18.000Z</time>
      </trkpt>
      <trkpt lat="47.24472" lon="-2.31289">
        <ele>6.4000000953674</ele>
        <time>2022-07-31T07:15:19.000Z</time>
      </trkpt>
      <trkpt lat="47.24459" lon="-2.31259">
        <ele>6</ele>
        <time>2022-07-31T07:15:23.000Z</time>
      </trkpt>
      <trkpt lat="47.24456" lon="-2.31252">
        <ele>5.5999999046326</ele>
        <time>2022-07-31T07:15:24.000Z</time>
      </trkpt>
      <trkpt lat="47.24454" lon="-2.31244">
        <ele>5.1999998092651</ele>
        <time>2022-07-31T07:15:25.000Z</time>
      </trkpt>
      <trkpt lat="47.24452" lon="-2.31238">
        <ele>4.5999999046326</ele>
        <time>2022-07-31T07:15:26.000Z</time>
      </trkpt>
      <trkpt lat="47.24449" lon="-2.31232">
        <ele>4.1999998092651</ele>
        <time>2022-07-31T07:15:27.000Z</time>
      </trkpt>
      <trkpt lat="47.24444" lon="-2.31225">
        <ele>4.1999998092651</ele>
        <time>2022-07-31T07:15:29.000Z</time>
      </trkpt>
      <trkpt lat="47.2444" lon="-2.31223">
        <ele>3.7999999523163</ele>
        <time>2022-07-31T07:15:31.000Z</time>
      </trkpt>
      <trkpt lat="47.24437" lon="-2.31225">
        <ele>3.4000000953674</ele>
        <time>2022-07-31T07:15:32.000Z</time>
      </trkpt>
      <trkpt lat="47.24435" lon="-2.31226">
        <ele>3</ele>
        <time>2022-07-31T07:15:33.000Z</time>
      </trkpt>
      <trkpt lat="47.24432" lon="-2.31226">
        <ele>2.5999999046326</ele>
        <time>2022-07-31T07:15:34.000Z</time>
      </trkpt>
      <trkpt lat="47.2443" lon="-2.31224">
        <ele>2.2000000476837</ele>
        <time>2022-07-31T07:15:35.000Z</time>
      </trkpt>
      <trkpt lat="47.24428" lon="-2.31221">
        <ele>1.7999999523163</ele>
        <time>2022-07-31T07:15:36.000Z</time>
      </trkpt>
      <trkpt lat="47.24426" lon="-2.31218">
        <ele>1</ele>
        <time>2022-07-31T07:15:37.000Z</time>
      </trkpt>
      <trkpt lat="47.24425" lon="-2.31216">
        <ele>0.60000002384186</ele>
        <time>2022-07-31T07:15:38.000Z</time>
      </trkpt>
      <trkpt lat="47.24424" lon="-2.31214">
        <ele>0.20000000298023</ele>
        <time>2022-07-31T07:15:39.000Z</time>
      </trkpt>
      <trkpt lat="47.24423" lon="-2.31211">
        <ele>0.20000000298023</ele>
        <time>2022-07-31T07:15:40.000Z</time>
      </trkpt>
      <trkpt lat="47.24421" lon="-2.31204">
        <ele>0.20000000298023</ele>
        <time>2022-07-31T07:15:42.000Z</time>
      </trkpt>
      <trkpt lat="47.24418" lon="-2.31194">
        <ele>0.60000002384186</ele>
        <time>2022-07-31T07:15:46.000Z</time>
      </trkpt>
      <trkpt lat="47.24416" lon="-2.31192">
        <ele>1</ele>
        <time>2022-07-31T07:15:47.000Z</time>
      </trkpt>
      <trkpt lat="47.24414" lon="-2.3119">
        <ele>1.6000000238419</ele>
        <time>2022-07-31T07:15:48.000Z</time>
      </trkpt>
      <trkpt lat="47.2441" lon="-2.31186">
        <ele>2</ele>
        <time>2022-07-31T07:15:49.000Z</time>
      </trkpt>
      <trkpt lat="47.24407" lon="-2.31182">
        <ele>2.4000000953674</ele>
        <time>2022-07-31T07:15:50.000Z</time>
      </trkpt>
      <trkpt lat="47.24404" lon="-2.3118">
        <ele>2.4000000953674</ele>
        <time>2022-07-31T07:15:51.000Z</time>
      </trkpt>
      <trkpt lat="47.2439" lon="-2.31164">
        <ele>2.7999999523163</ele>
        <time>2022-07-31T07:15:56.000Z</time>
      </trkpt>
      <trkpt lat="47.24386" lon="-2.3116">
        <ele>3.2000000476837</ele>
        <time>2022-07-31T07:15:57.000Z</time>
      </trkpt>
      <trkpt lat="47.24383" lon="-2.31156">
        <ele>3.5999999046326</ele>
        <time>2022-07-31T07:15:58.000Z</time>
      </trkpt>
      <trkpt lat="47.2438" lon="-2.31152">
        <ele>4.1999998092651</ele>
        <time>2022-07-31T07:15:59.000Z</time>
      </trkpt>
      <trkpt lat="47.24377" lon="-2.31148">
        <ele>4.5999999046326</ele>
        <time>2022-07-31T07:16:00.000Z</time>
      </trkpt>
      <trkpt lat="47.24372" lon="-2.31139">
        <ele>4.5999999046326</ele>
        <time>2022-07-31T07:16:02.000Z</time>
      </trkpt>
      <trkpt lat="47.24365" lon="-2.31127">
        <ele>4.5999999046326</ele>
        <time>2022-07-31T07:16:06.000Z</time>
      </trkpt>
      <trkpt lat="47.24356" lon="-2.311">
        <ele>4.5999999046326</ele>
        <time>2022-07-31T07:16:12.000Z</time>
      </trkpt>
      <trkpt lat="47.24347" lon="-2.31074">
        <ele>4.5999999046326</ele>
        <time>2022-07-31T07:16:17.000Z</time>
      </trkpt>
      <trkpt lat="47.24345" lon="-2.31068">
        <ele>4.5999999046326</ele>
        <time>2022-07-31T07:16:18.000Z</time>
      </trkpt>
      <trkpt lat="47.24337" lon="-2.31049">
        <ele>4.5999999046326</ele>
        <time>2022-07-31T07:16:22.000Z</time>
      </trkpt>
      <trkpt lat="47.24321" lon="-2.31036">
        <ele>4.5999999046326</ele>
        <time>2022-07-31T07:16:27.000Z</time>
      </trkpt>
      <trkpt lat="47.24313" lon="-2.31036">
        <ele>4.5999999046326</ele>
        <time>2022-07-31T07:16:29.000Z</time>
      </trkpt>
      <trkpt lat="47.24308" lon="-2.31034">
        <ele>4.5999999046326</ele>
        <time>2022-07-31T07:16:30.000Z</time>
      </trkpt>
      <trkpt lat="47.24294" lon="-2.31035">
        <ele>4.1999998092651</ele>
        <time>2022-07-31T07:16:33.000Z</time>
      </trkpt>
      <trkpt lat="47.24289" lon="-2.31036">
        <ele>3.5999999046326</ele>
        <time>2022-07-31T07:16:34.000Z</time>
      </trkpt>
      <trkpt lat="47.24285" lon="-2.31034">
        <ele>3.2000000476837</ele>
        <time>2022-07-31T07:16:35.000Z</time>
      </trkpt>
      <trkpt lat="47.24282" lon="-2.31032">
        <ele>2.7999999523163</ele>
        <time>2022-07-31T07:16:36.000Z</time>
      </trkpt>
      <trkpt lat="47.2428" lon="-2.31027">
        <ele>2.4000000953674</ele>
        <time>2022-07-31T07:16:37.000Z</time>
      </trkpt>
      <trkpt lat="47.24281" lon="-2.31012">
        <ele>2.4000000953674</ele>
        <time>2022-07-31T07:16:40.000Z</time>
      </trkpt>
      <trkpt lat="47.24285" lon="-2.30988">
        <ele>2.4000000953674</ele>
        <time>2022-07-31T07:16:44.000Z</time>
      </trkpt>
      <trkpt lat="47.24285" lon="-2.30982">
        <ele>2.4000000953674</ele>
        <time>2022-07-31T07:16:45.000Z</time>
      </trkpt>
      <trkpt lat="47.24289" lon="-2.30958">
        <ele>2.7999999523163</ele>
        <time>2022-07-31T07:16:49.000Z</time>
      </trkpt>
      <trkpt lat="47.24289" lon="-2.30953">
        <ele>3.5999999046326</ele>
        <time>2022-07-31T07:16:50.000Z</time>
      </trkpt>
      <trkpt lat="47.24289" lon="-2.30949">
        <ele>4</ele>
        <time>2022-07-31T07:16:51.000Z</time>
      </trkpt>
      <trkpt lat="47.24288" lon="-2.30943">
        <ele>4.4000000953674</ele>
        <time>2022-07-31T07:16:52.000Z</time>
      </trkpt>
      <trkpt lat="47.24288" lon="-2.30932">
        <ele>4.8000001907349</ele>
        <time>2022-07-31T07:16:54.000Z</time>
      </trkpt>
      <trkpt lat="47.24288" lon="-2.30925">
        <ele>5.1999998092651</ele>
        <time>2022-07-31T07:16:55.000Z</time>
      </trkpt>
      <trkpt lat="47.24288" lon="-2.30919">
        <ele>5.5999999046326</ele>
        <time>2022-07-31T07:16:56.000Z</time>
      </trkpt>
      <trkpt lat="47.24287" lon="-2.30913">
        <ele>6.1999998092651</ele>
        <time>2022-07-31T07:16:57.000Z</time>
      </trkpt>
      <trkpt lat="47.24286" lon="-2.30907">
        <ele>6.5999999046326</ele>
        <time>2022-07-31T07:16:58.000Z</time>
      </trkpt>
      <trkpt lat="47.24283" lon="-2.30889">
        <ele>6.5999999046326</ele>
        <time>2022-07-31T07:17:01.000Z</time>
      </trkpt>
      <trkpt lat="47.24282" lon="-2.30876">
        <ele>6.5999999046326</ele>
        <time>2022-07-31T07:17:03.000Z</time>
      </trkpt>
      <trkpt lat="47.24284" lon="-2.30857">
        <ele>6.5999999046326</ele>
        <time>2022-07-31T07:17:06.000Z</time>
      </trkpt>
      <trkpt lat="47.24287" lon="-2.30845">
        <ele>7</ele>
        <time>2022-07-31T07:17:08.000Z</time>
      </trkpt>
      <trkpt lat="47.24288" lon="-2.3084">
        <ele>7.4000000953674</ele>
        <time>2022-07-31T07:17:09.000Z</time>
      </trkpt>
      <trkpt lat="47.24291" lon="-2.30836">
        <ele>7.8000001907349</ele>
        <time>2022-07-31T07:17:10.000Z</time>
      </trkpt>
      <trkpt lat="47.24293" lon="-2.30831">
        <ele>8.1999998092651</ele>
        <time>2022-07-31T07:17:11.000Z</time>
      </trkpt>
      <trkpt lat="47.24296" lon="-2.30826">
        <ele>8.6000003814697</ele>
        <time>2022-07-31T07:17:12.000Z</time>
      </trkpt>
      <trkpt lat="47.243" lon="-2.30822">
        <ele>8.6000003814697</ele>
        <time>2022-07-31T07:17:13.000Z</time>
      </trkpt>
      <trkpt lat="47.24309" lon="-2.3081">
        <ele>8.6000003814697</ele>
        <time>2022-07-31T07:17:16.000Z</time>
      </trkpt>
      <trkpt lat="47.24327" lon="-2.30799">
        <ele>8.6000003814697</ele>
        <time>2022-07-31T07:17:21.000Z</time>
      </trkpt>
      <trkpt lat="47.24331" lon="-2.30798">
        <ele>9</ele>
        <time>2022-07-31T07:17:22.000Z</time>
      </trkpt>
      <trkpt lat="47.24336" lon="-2.30797">
        <ele>9.3999996185303</ele>
        <time>2022-07-31T07:17:23.000Z</time>
      </trkpt>
      <trkpt lat="47.24341" lon="-2.30796">
        <ele>9.8000001907349</ele>
        <time>2022-07-31T07:17:24.000Z</time>
      </trkpt>
      <trkpt lat="47.24346" lon="-2.30795">
        <ele>10.199999809265</ele>
        <time>2022-07-31T07:17:25.000Z</time>
      </trkpt>
      <trkpt lat="47.2435" lon="-2.30793">
        <ele>10.60000038147</ele>
        <time>2022-07-31T07:17:26.000Z</time>
      </trkpt>
      <trkpt lat="47.24355" lon="-2.30791">
        <ele>10.60000038147</ele>
        <time>2022-07-31T07:17:27.000Z</time>
      </trkpt>
      <trkpt lat="47.24375" lon="-2.30773">
        <ele>11</ele>
        <time>2022-07-31T07:17:33.000Z</time>
      </trkpt>
      <trkpt lat="47.24378" lon="-2.30769">
        <ele>11.39999961853</ele>
        <time>2022-07-31T07:17:34.000Z</time>
      </trkpt>
      <trkpt lat="47.2438" lon="-2.30766">
        <ele>11.800000190735</ele>
        <time>2022-07-31T07:17:35.000Z</time>
      </trkpt>
      <trkpt lat="47.24382" lon="-2.30763">
        <ele>12.39999961853</ele>
        <time>2022-07-31T07:17:36.000Z</time>
      </trkpt>
      <trkpt lat="47.24385" lon="-2.30761">
        <ele>12.800000190735</ele>
        <time>2022-07-31T07:17:37.000Z</time>
      </trkpt>
      <trkpt lat="47.24387" lon="-2.30759">
        <ele>12.800000190735</ele>
        <time>2022-07-31T07:17:38.000Z</time>
      </trkpt>
      <trkpt lat="47.2439" lon="-2.30755">
        <ele>13.199999809265</ele>
        <time>2022-07-31T07:17:40.000Z</time>
      </trkpt>
      <trkpt lat="47.24392" lon="-2.30753">
        <ele>13.60000038147</ele>
        <time>2022-07-31T07:17:41.000Z</time>
      </trkpt>
      <trkpt lat="47.24394" lon="-2.3075">
        <ele>14</ele>
        <time>2022-07-31T07:17:42.000Z</time>
      </trkpt>
      <trkpt lat="47.24395" lon="-2.30746">
        <ele>14.39999961853</ele>
        <time>2022-07-31T07:17:43.000Z</time>
      </trkpt>
      <trkpt lat="47.24397" lon="-2.30742">
        <ele>14.800000190735</ele>
        <time>2022-07-31T07:17:44.000Z</time>
      </trkpt>
      <trkpt lat="47.24399" lon="-2.30717">
        <ele>14.800000190735</ele>
        <time>2022-07-31T07:17:49.000Z</time>
      </trkpt>
      <trkpt lat="47.244" lon="-2.30711">
        <ele>14.800000190735</ele>
        <time>2022-07-31T07:17:50.000Z</time>
      </trkpt>
      <trkpt lat="47.24404" lon="-2.30693">
        <ele>14.800000190735</ele>
        <time>2022-07-31T07:17:53.000Z</time>
      </trkpt>
      <trkpt lat="47.24409" lon="-2.30674">
        <ele>14.800000190735</ele>
        <time>2022-07-31T07:17:56.000Z</time>
      </trkpt>
      <trkpt lat="47.24414" lon="-2.30655">
        <ele>14.800000190735</ele>
        <time>2022-07-31T07:17:59.000Z</time>
      </trkpt>
      <trkpt lat="47.2442" lon="-2.30633">
        <ele>14.800000190735</ele>
        <time>2022-07-31T07:18:03.000Z</time>
      </trkpt>
      <trkpt lat="47.24423" lon="-2.30628">
        <ele>14.800000190735</ele>
        <time>2022-07-31T07:18:04.000Z</time>
      </trkpt>
      <trkpt lat="47.2443" lon="-2.3062">
        <ele>14.800000190735</ele>
        <time>2022-07-31T07:18:06.000Z</time>
      </trkpt>
      <trkpt lat="47.24441" lon="-2.30609">
        <ele>14.800000190735</ele>
        <time>2022-07-31T07:18:09.000Z</time>
      </trkpt>
      <trkpt lat="47.24446" lon="-2.30605">
        <ele>14.800000190735</ele>
        <time>2022-07-31T07:18:10.000Z</time>
      </trkpt>
      <trkpt lat="47.24449" lon="-2.30601">
        <ele>14.800000190735</ele>
        <time>2022-07-31T07:18:11.000Z</time>
      </trkpt>
      <trkpt lat="47.24462" lon="-2.30581">
        <ele>14.800000190735</ele>
        <time>2022-07-31T07:18:14.000Z</time>
      </trkpt>
      <trkpt lat="47.2447" lon="-2.30565">
        <ele>14.39999961853</ele>
        <time>2022-07-31T07:18:16.000Z</time>
      </trkpt>
      <trkpt lat="47.24471" lon="-2.30559">
        <ele>14</ele>
        <time>2022-07-31T07:18:17.000Z</time>
      </trkpt>
      <trkpt lat="47.24471" lon="-2.30553">
        <ele>13.39999961853</ele>
        <time>2022-07-31T07:18:18.000Z</time>
      </trkpt>
      <trkpt lat="47.24468" lon="-2.30549">
        <ele>13</ele>
        <time>2022-07-31T07:18:19.000Z</time>
      </trkpt>
      <trkpt lat="47.24465" lon="-2.30548">
        <ele>12.60000038147</ele>
        <time>2022-07-31T07:18:20.000Z</time>
      </trkpt>
      <trkpt lat="47.24461" lon="-2.30549">
        <ele>12.60000038147</ele>
        <time>2022-07-31T07:18:21.000Z</time>
      </trkpt>
      <trkpt lat="47.24451" lon="-2.3056">
        <ele>12.199999809265</ele>
        <time>2022-07-31T07:18:24.000Z</time>
      </trkpt>
      <trkpt lat="47.24448" lon="-2.30564">
        <ele>11.800000190735</ele>
        <time>2022-07-31T07:18:25.000Z</time>
      </trkpt>
      <trkpt lat="47.24443" lon="-2.30568">
        <ele>11.199999809265</ele>
        <time>2022-07-31T07:18:26.000Z</time>
      </trkpt>
      <trkpt lat="47.24439" lon="-2.30571">
        <ele>10.800000190735</ele>
        <time>2022-07-31T07:18:27.000Z</time>
      </trkpt>
      <trkpt lat="47.24433" lon="-2.30575">
        <ele>10.39999961853</ele>
        <time>2022-07-31T07:18:28.000Z</time>
      </trkpt>
      <trkpt lat="47.24427" lon="-2.30577">
        <ele>10.39999961853</ele>
        <time>2022-07-31T07:18:29.000Z</time>
      </trkpt>
      <trkpt lat="47.24416" lon="-2.30581">
        <ele>10</ele>
        <time>2022-07-31T07:18:31.000Z</time>
      </trkpt>
      <trkpt lat="47.2441" lon="-2.30583">
        <ele>9.6000003814697</ele>
        <time>2022-07-31T07:18:32.000Z</time>
      </trkpt>
      <trkpt lat="47.24404" lon="-2.30583">
        <ele>9.1999998092651</ele>
        <time>2022-07-31T07:18:33.000Z</time>
      </trkpt>
      <trkpt lat="47.244" lon="-2.30582">
        <ele>8.8000001907349</ele>
        <time>2022-07-31T07:18:34.000Z</time>
      </trkpt>
      <trkpt lat="47.24394" lon="-2.30579">
        <ele>8.3999996185303</ele>
        <time>2022-07-31T07:18:35.000Z</time>
      </trkpt>
      <trkpt lat="47.24378" lon="-2.3057">
        <ele>8.3999996185303</ele>
        <time>2022-07-31T07:18:38.000Z</time>
      </trkpt>
      <trkpt lat="47.24374" lon="-2.30566">
        <ele>8.3999996185303</ele>
        <time>2022-07-31T07:18:39.000Z</time>
      </trkpt>
      <trkpt lat="47.2437" lon="-2.30555">
        <ele>8.3999996185303</ele>
        <time>2022-07-31T07:18:41.000Z</time>
      </trkpt>
      <trkpt lat="47.24366" lon="-2.30534">
        <ele>8.3999996185303</ele>
        <time>2022-07-31T07:18:45.000Z</time>
      </trkpt>
      <trkpt lat="47.24369" lon="-2.30514">
        <ele>8.3999996185303</ele>
        <time>2022-07-31T07:18:49.000Z</time>
      </trkpt>
      <trkpt lat="47.24373" lon="-2.30499">
        <ele>8.8000001907349</ele>
        <time>2022-07-31T07:18:52.000Z</time>
      </trkpt>
      <trkpt lat="47.24373" lon="-2.30495">
        <ele>9.1999998092651</ele>
        <time>2022-07-31T07:18:53.000Z</time>
      </trkpt>
      <trkpt lat="47.24374" lon="-2.3049">
        <ele>10</ele>
        <time>2022-07-31T07:18:54.000Z</time>
      </trkpt>
      <trkpt lat="47.24375" lon="-2.30485">
        <ele>10.39999961853</ele>
        <time>2022-07-31T07:18:55.000Z</time>
      </trkpt>
      <trkpt lat="47.24377" lon="-2.30463">
        <ele>10.39999961853</ele>
        <time>2022-07-31T07:18:59.000Z</time>
      </trkpt>
      <trkpt lat="47.24377" lon="-2.30459">
        <ele>10.800000190735</ele>
        <time>2022-07-31T07:19:00.000Z</time>
      </trkpt>
      <trkpt lat="47.24375" lon="-2.30457">
        <ele>11.199999809265</ele>
        <time>2022-07-31T07:19:01.000Z</time>
      </trkpt>
      <trkpt lat="47.24372" lon="-2.30456">
        <ele>11.60000038147</ele>
        <time>2022-07-31T07:19:02.000Z</time>
      </trkpt>
      <trkpt lat="47.24369" lon="-2.30456">
        <ele>12.199999809265</ele>
        <time>2022-07-31T07:19:03.000Z</time>
      </trkpt>
      <trkpt lat="47.24367" lon="-2.30457">
        <ele>12.60000038147</ele>
        <time>2022-07-31T07:19:04.000Z</time>
      </trkpt>
      <trkpt lat="47.24364" lon="-2.30457">
        <ele>12.60000038147</ele>
        <time>2022-07-31T07:19:05.000Z</time>
      </trkpt>
      <trkpt lat="47.24359" lon="-2.30455">
        <ele>12.60000038147</ele>
        <time>2022-07-31T07:19:07.000Z</time>
      </trkpt>
      <trkpt lat="47.24345" lon="-2.3045">
        <ele>12.60000038147</ele>
        <time>2022-07-31T07:19:12.000Z</time>
      </trkpt>
      <trkpt lat="47.24331" lon="-2.30443">
        <ele>12.60000038147</ele>
        <time>2022-07-31T07:19:17.000Z</time>
      </trkpt>
      <trkpt lat="47.24322" lon="-2.30435">
        <ele>13</ele>
        <time>2022-07-31T07:19:20.000Z</time>
      </trkpt>
      <trkpt lat="47.2432" lon="-2.30433">
        <ele>13.39999961853</ele>
        <time>2022-07-31T07:19:21.000Z</time>
      </trkpt>
      <trkpt lat="47.24317" lon="-2.30432">
        <ele>13.800000190735</ele>
        <time>2022-07-31T07:19:22.000Z</time>
      </trkpt>
      <trkpt lat="47.24313" lon="-2.30432">
        <ele>14.199999809265</ele>
        <time>2022-07-31T07:19:23.000Z</time>
      </trkpt>
      <trkpt lat="47.24309" lon="-2.3043">
        <ele>14.60000038147</ele>
        <time>2022-07-31T07:19:24.000Z</time>
      </trkpt>
      <trkpt lat="47.243" lon="-2.30423">
        <ele>14.60000038147</ele>
        <time>2022-07-31T07:19:27.000Z</time>
      </trkpt>
      <trkpt lat="47.24282" lon="-2.30402">
        <ele>14.60000038147</ele>
        <time>2022-07-31T07:19:32.000Z</time>
      </trkpt>
      <trkpt lat="47.24263" lon="-2.30374">
        <ele>14.60000038147</ele>
        <time>2022-07-31T07:19:38.000Z</time>
      </trkpt>
      <trkpt lat="47.24246" lon="-2.30343">
        <ele>14.60000038147</ele>
        <time>2022-07-31T07:19:45.000Z</time>
      </trkpt>
      <trkpt lat="47.24235" lon="-2.3033">
        <ele>14.60000038147</ele>
        <time>2022-07-31T07:19:50.000Z</time>
      </trkpt>
      <trkpt lat="47.24219" lon="-2.30332">
        <ele>14.60000038147</ele>
        <time>2022-07-31T07:19:54.000Z</time>
      </trkpt>
      <trkpt lat="47.24215" lon="-2.30333">
        <ele>14.199999809265</ele>
        <time>2022-07-31T07:19:55.000Z</time>
      </trkpt>
      <trkpt lat="47.24212" lon="-2.30333">
        <ele>13.60000038147</ele>
        <time>2022-07-31T07:19:56.000Z</time>
      </trkpt>
      <trkpt lat="47.24208" lon="-2.3033">
        <ele>13.199999809265</ele>
        <time>2022-07-31T07:19:57.000Z</time>
      </trkpt>
      <trkpt lat="47.24207" lon="-2.30329">
        <ele>12.800000190735</ele>
        <time>2022-07-31T07:19:58.000Z</time>
      </trkpt>
      <trkpt lat="47.24206" lon="-2.30327">
        <ele>12.199999809265</ele>
        <time>2022-07-31T07:19:59.000Z</time>
      </trkpt>
      <trkpt lat="47.24205" lon="-2.30324">
        <ele>11.800000190735</ele>
        <time>2022-07-31T07:20:00.000Z</time>
      </trkpt>
      <trkpt lat="47.24205" lon="-2.30318">
        <ele>11.39999961853</ele>
        <time>2022-07-31T07:20:01.000Z</time>
      </trkpt>
      <trkpt lat="47.24203" lon="-2.3031">
        <ele>11</ele>
        <time>2022-07-31T07:20:02.000Z</time>
      </trkpt>
      <trkpt lat="47.24202" lon="-2.30301">
        <ele>10.60000038147</ele>
        <time>2022-07-31T07:20:03.000Z</time>
      </trkpt>
      <trkpt lat="47.242" lon="-2.30293">
        <ele>10.199999809265</ele>
        <time>2022-07-31T07:20:04.000Z</time>
      </trkpt>
      <trkpt lat="47.24199" lon="-2.30284">
        <ele>10.199999809265</ele>
        <time>2022-07-31T07:20:05.000Z</time>
      </trkpt>
      <trkpt lat="47.24195" lon="-2.30263">
        <ele>10.199999809265</ele>
        <time>2022-07-31T07:20:08.000Z</time>
      </trkpt>
      <trkpt lat="47.24188" lon="-2.30243">
        <ele>10.199999809265</ele>
        <time>2022-07-31T07:20:13.000Z</time>
      </trkpt>
      <trkpt lat="47.2418" lon="-2.30244">
        <ele>10.199999809265</ele>
        <time>2022-07-31T07:20:16.000Z</time>
      </trkpt>
      <trkpt lat="47.2417" lon="-2.30243">
        <ele>10.199999809265</ele>
        <time>2022-07-31T07:20:19.000Z</time>
      </trkpt>
      <trkpt lat="47.24163" lon="-2.30234">
        <ele>10.199999809265</ele>
        <time>2022-07-31T07:20:22.000Z</time>
      </trkpt>
      <trkpt lat="47.24162" lon="-2.30231">
        <ele>10.199999809265</ele>
        <time>2022-07-31T07:20:23.000Z</time>
      </trkpt>
      <trkpt lat="47.24151" lon="-2.30212">
        <ele>10.199999809265</ele>
        <time>2022-07-31T07:20:28.000Z</time>
      </trkpt>
      <trkpt lat="47.24143" lon="-2.30191">
        <ele>10.199999809265</ele>
        <time>2022-07-31T07:20:34.000Z</time>
      </trkpt>
      <trkpt lat="47.24142" lon="-2.30187">
        <ele>10.60000038147</ele>
        <time>2022-07-31T07:20:35.000Z</time>
      </trkpt>
      <trkpt lat="47.2414" lon="-2.30183">
        <ele>11</ele>
        <time>2022-07-31T07:20:36.000Z</time>
      </trkpt>
      <trkpt lat="47.24138" lon="-2.30179">
        <ele>11.39999961853</ele>
        <time>2022-07-31T07:20:37.000Z</time>
      </trkpt>
      <trkpt lat="47.24137" lon="-2.30176">
        <ele>11.800000190735</ele>
        <time>2022-07-31T07:20:38.000Z</time>
      </trkpt>
      <trkpt lat="47.24135" lon="-2.30173">
        <ele>12.199999809265</ele>
        <time>2022-07-31T07:20:39.000Z</time>
      </trkpt>
      <trkpt lat="47.24134" lon="-2.30171">
        <ele>12.199999809265</ele>
        <time>2022-07-31T07:20:40.000Z</time>
      </trkpt>
      <trkpt lat="47.24133" lon="-2.3017">
        <ele>12.60000038147</ele>
        <time>2022-07-31T07:20:41.000Z</time>
      </trkpt>
      <trkpt lat="47.24131" lon="-2.30168">
        <ele>13</ele>
        <time>2022-07-31T07:20:42.000Z</time>
      </trkpt>
      <trkpt lat="47.2413" lon="-2.30168">
        <ele>13.39999961853</ele>
        <time>2022-07-31T07:20:43.000Z</time>
      </trkpt>
      <trkpt lat="47.24128" lon="-2.30168">
        <ele>13.800000190735</ele>
        <time>2022-07-31T07:20:44.000Z</time>
      </trkpt>
      <trkpt lat="47.24127" lon="-2.30167">
        <ele>14.199999809265</ele>
        <time>2022-07-31T07:20:45.000Z</time>
      </trkpt>
      <trkpt lat="47.24127" lon="-2.30167">
        <ele>14.199999809265</ele>
        <time>2022-07-31T07:20:46.000Z</time>
      </trkpt>
      <trkpt lat="47.24117" lon="-2.30163">
        <ele>14.199999809265</ele>
        <time>2022-07-31T07:21:55.000Z</time>
      </trkpt>
      <trkpt lat="47.24115" lon="-2.30163">
        <ele>14.199999809265</ele>
        <time>2022-07-31T07:21:56.000Z</time>
      </trkpt>
      <trkpt lat="47.24109" lon="-2.30163">
        <ele>14.199999809265</ele>
        <time>2022-07-31T07:21:59.000Z</time>
      </trkpt>
      <trkpt lat="47.24107" lon="-2.30162">
        <ele>14.199999809265</ele>
        <time>2022-07-31T07:22:01.000Z</time>
      </trkpt>
      <trkpt lat="47.24106" lon="-2.3016">
        <ele>14.60000038147</ele>
        <time>2022-07-31T07:22:02.000Z</time>
      </trkpt>
      <trkpt lat="47.24104" lon="-2.30159">
        <ele>15</ele>
        <time>2022-07-31T07:22:03.000Z</time>
      </trkpt>
      <trkpt lat="47.24102" lon="-2.30159">
        <ele>15.39999961853</ele>
        <time>2022-07-31T07:22:04.000Z</time>
      </trkpt>
      <trkpt lat="47.241" lon="-2.30159">
        <ele>15.800000190735</ele>
        <time>2022-07-31T07:22:05.000Z</time>
      </trkpt>
      <trkpt lat="47.24098" lon="-2.3016">
        <ele>16.200000762939</ele>
        <time>2022-07-31T07:22:06.000Z</time>
      </trkpt>
      <trkpt lat="47.24084" lon="-2.30162">
        <ele>16.200000762939</ele>
        <time>2022-07-31T07:22:11.000Z</time>
      </trkpt>
      <trkpt lat="47.24075" lon="-2.30166">
        <ele>16.200000762939</ele>
        <time>2022-07-31T07:22:16.000Z</time>
      </trkpt>
      <trkpt lat="47.24073" lon="-2.3017">
        <ele>16.200000762939</ele>
        <time>2022-07-31T07:22:17.000Z</time>
      </trkpt>
      <trkpt lat="47.24063" lon="-2.30179">
        <ele>16.200000762939</ele>
        <time>2022-07-31T07:22:21.000Z</time>
      </trkpt>
      <trkpt lat="47.24059" lon="-2.30182">
        <ele>16.200000762939</ele>
        <time>2022-07-31T07:22:22.000Z</time>
      </trkpt>
      <trkpt lat="47.24044" lon="-2.30188">
        <ele>16.200000762939</ele>
        <time>2022-07-31T07:22:26.000Z</time>
      </trkpt>
      <trkpt lat="47.24041" lon="-2.30188">
        <ele>16.200000762939</ele>
        <time>2022-07-31T07:22:27.000Z</time>
      </trkpt>
      <trkpt lat="47.24036" lon="-2.30182">
        <ele>16.200000762939</ele>
        <time>2022-07-31T07:22:30.000Z</time>
      </trkpt>
      <trkpt lat="47.24033" lon="-2.30179">
        <ele>16.200000762939</ele>
        <time>2022-07-31T07:22:31.000Z</time>
      </trkpt>
      <trkpt lat="47.24024" lon="-2.30171">
        <ele>16.200000762939</ele>
        <time>2022-07-31T07:22:34.000Z</time>
      </trkpt>
      <trkpt lat="47.24016" lon="-2.30167">
        <ele>16.200000762939</ele>
        <time>2022-07-31T07:22:36.000Z</time>
      </trkpt>
      <trkpt lat="47.23998" lon="-2.30156">
        <ele>16.200000762939</ele>
        <time>2022-07-31T07:22:41.000Z</time>
      </trkpt>
      <trkpt lat="47.23984" lon="-2.30146">
        <ele>16.200000762939</ele>
        <time>2022-07-31T07:22:45.000Z</time>
      </trkpt>
      <trkpt lat="47.23983" lon="-2.30142">
        <ele>16.200000762939</ele>
        <time>2022-07-31T07:22:46.000Z</time>
      </trkpt>
      <trkpt lat="47.23983" lon="-2.30138">
        <ele>16.200000762939</ele>
        <time>2022-07-31T07:22:48.000Z</time>
      </trkpt>
      <trkpt lat="47.23982" lon="-2.30136">
        <ele>16.200000762939</ele>
        <time>2022-07-31T07:22:50.000Z</time>
      </trkpt>
      <trkpt lat="47.23984" lon="-2.30129">
        <ele>16.200000762939</ele>
        <time>2022-07-31T07:23:04.000Z</time>
      </trkpt>
      <trkpt lat="47.23984" lon="-2.30127">
        <ele>16.200000762939</ele>
        <time>2022-07-31T07:23:05.000Z</time>
      </trkpt>
      <trkpt lat="47.23987" lon="-2.3011">
        <ele>16.200000762939</ele>
        <time>2022-07-31T07:23:09.000Z</time>
      </trkpt>
      <trkpt lat="47.2399" lon="-2.3009">
        <ele>16.200000762939</ele>
        <time>2022-07-31T07:23:13.000Z</time>
      </trkpt>
      <trkpt lat="47.23994" lon="-2.30065">
        <ele>16.200000762939</ele>
        <time>2022-07-31T07:23:19.000Z</time>
      </trkpt>
      <trkpt lat="47.24002" lon="-2.30048">
        <ele>16.200000762939</ele>
        <time>2022-07-31T07:23:23.000Z</time>
      </trkpt>
      <trkpt lat="47.2401" lon="-2.30026">
        <ele>16.200000762939</ele>
        <time>2022-07-31T07:23:28.000Z</time>
      </trkpt>
      <trkpt lat="47.24011" lon="-2.30022">
        <ele>16.60000038147</ele>
        <time>2022-07-31T07:23:29.000Z</time>
      </trkpt>
      <trkpt lat="47.24012" lon="-2.3002">
        <ele>17</ele>
        <time>2022-07-31T07:23:30.000Z</time>
      </trkpt>
      <trkpt lat="47.24014" lon="-2.30017">
        <ele>17.39999961853</ele>
        <time>2022-07-31T07:23:31.000Z</time>
      </trkpt>
      <trkpt lat="47.24016" lon="-2.30013">
        <ele>17.799999237061</ele>
        <time>2022-07-31T07:23:32.000Z</time>
      </trkpt>
      <trkpt lat="47.24019" lon="-2.30009">
        <ele>18.200000762939</ele>
        <time>2022-07-31T07:23:33.000Z</time>
      </trkpt>
      <trkpt lat="47.2403" lon="-2.29995">
        <ele>18.200000762939</ele>
        <time>2022-07-31T07:23:37.000Z</time>
      </trkpt>
      <trkpt lat="47.24046" lon="-2.29986">
        <ele>18.200000762939</ele>
        <time>2022-07-31T07:23:42.000Z</time>
      </trkpt>
      <trkpt lat="47.24049" lon="-2.29987">
        <ele>18.200000762939</ele>
        <time>2022-07-31T07:23:43.000Z</time>
      </trkpt>
      <trkpt lat="47.24058" lon="-2.29988">
        <ele>18.200000762939</ele>
        <time>2022-07-31T07:23:46.000Z</time>
      </trkpt>
      <trkpt lat="47.24073" lon="-2.29982">
        <ele>18.200000762939</ele>
        <time>2022-07-31T07:23:51.000Z</time>
      </trkpt>
      <trkpt lat="47.24085" lon="-2.29982">
        <ele>18.200000762939</ele>
        <time>2022-07-31T07:23:55.000Z</time>
      </trkpt>
      <trkpt lat="47.24099" lon="-2.29985">
        <ele>18.200000762939</ele>
        <time>2022-07-31T07:24:00.000Z</time>
      </trkpt>
      <trkpt lat="47.24116" lon="-2.29985">
        <ele>18.200000762939</ele>
        <time>2022-07-31T07:24:05.000Z</time>
      </trkpt>
      <trkpt lat="47.24133" lon="-2.29985">
        <ele>18.200000762939</ele>
        <time>2022-07-31T07:24:11.000Z</time>
      </trkpt>
      <trkpt lat="47.24141" lon="-2.29983">
        <ele>18.200000762939</ele>
        <time>2022-07-31T07:24:15.000Z</time>
      </trkpt>
      <trkpt lat="47.24143" lon="-2.29983">
        <ele>18.200000762939</ele>
        <time>2022-07-31T07:24:16.000Z</time>
      </trkpt>
      <trkpt lat="47.24145" lon="-2.29984">
        <ele>18.200000762939</ele>
        <time>2022-07-31T07:24:17.000Z</time>
      </trkpt>
      <trkpt lat="47.24151" lon="-2.29986">
        <ele>18.200000762939</ele>
        <time>2022-07-31T07:24:21.000Z</time>
      </trkpt>
      <trkpt lat="47.24152" lon="-2.29987">
        <ele>18.200000762939</ele>
        <time>2022-07-31T07:24:22.000Z</time>
      </trkpt>
      <trkpt lat="47.24161" lon="-2.29993">
        <ele>18.200000762939</ele>
        <time>2022-07-31T07:24:27.000Z</time>
      </trkpt>
      <trkpt lat="47.24174" lon="-2.30007">
        <ele>17.799999237061</ele>
        <time>2022-07-31T07:24:32.000Z</time>
      </trkpt>
      <trkpt lat="47.24176" lon="-2.30009">
        <ele>17.39999961853</ele>
        <time>2022-07-31T07:24:33.000Z</time>
      </trkpt>
      <trkpt lat="47.24178" lon="-2.30011">
        <ele>17</ele>
        <time>2022-07-31T07:24:34.000Z</time>
      </trkpt>
      <trkpt lat="47.24178" lon="-2.30012">
        <ele>16.60000038147</ele>
        <time>2022-07-31T07:24:35.000Z</time>
      </trkpt>
      <trkpt lat="47.24176" lon="-2.30015">
        <ele>16.200000762939</ele>
        <time>2022-07-31T07:24:36.000Z</time>
      </trkpt>
      <trkpt lat="47.24174" lon="-2.30018">
        <ele>16.200000762939</ele>
        <time>2022-07-31T07:24:39.000Z</time>
      </trkpt>
      <trkpt lat="47.24173" lon="-2.30017">
        <ele>16.200000762939</ele>
        <time>2022-07-31T07:24:47.000Z</time>
      </trkpt>
      <trkpt lat="47.2417" lon="-2.30012">
        <ele>16.200000762939</ele>
        <time>2022-07-31T07:24:51.000Z</time>
      </trkpt>
      <trkpt lat="47.24159" lon="-2.30019">
        <ele>16.200000762939</ele>
        <time>2022-07-31T07:24:55.000Z</time>
      </trkpt>
      <trkpt lat="47.24156" lon="-2.30022">
        <ele>16.200000762939</ele>
        <time>2022-07-31T07:24:57.000Z</time>
      </trkpt>
      <trkpt lat="47.24154" lon="-2.30026">
        <ele>16.200000762939</ele>
        <time>2022-07-31T07:25:01.000Z</time>
      </trkpt>
      <trkpt lat="47.24155" lon="-2.30029">
        <ele>16.200000762939</ele>
        <time>2022-07-31T07:25:02.000Z</time>
      </trkpt>
      <trkpt lat="47.24158" lon="-2.30039">
        <ele>16.200000762939</ele>
        <time>2022-07-31T07:25:06.000Z</time>
      </trkpt>
      <trkpt lat="47.24158" lon="-2.30041">
        <ele>16.200000762939</ele>
        <time>2022-07-31T07:25:07.000Z</time>
      </trkpt>
      <trkpt lat="47.2416" lon="-2.30047">
        <ele>16.200000762939</ele>
        <time>2022-07-31T07:25:10.000Z</time>
      </trkpt>
      <trkpt lat="47.24163" lon="-2.30055">
        <ele>16.200000762939</ele>
        <time>2022-07-31T07:25:13.000Z</time>
      </trkpt>
      <trkpt lat="47.24163" lon="-2.30055">
        <ele>16.200000762939</ele>
        <time>2022-07-31T07:25:15.000Z</time>
      </trkpt>
      <trkpt lat="47.24162" lon="-2.30053">
        <ele>15</ele>
        <time>2022-07-31T07:25:18.000Z</time>
      </trkpt>
      <trkpt lat="47.24162" lon="-2.30053">
        <ele>14.60000038147</ele>
        <time>2022-07-31T07:25:19.000Z</time>
      </trkpt>
      <trkpt lat="47.24161" lon="-2.30052">
        <ele>14.199999809265</ele>
        <time>2022-07-31T07:25:20.000Z</time>
      </trkpt>
      <trkpt lat="47.24161" lon="-2.30048">
        <ele>14.199999809265</ele>
        <time>2022-07-31T07:25:23.000Z</time>
      </trkpt>
      <trkpt lat="47.2416" lon="-2.30048">
        <ele>14.199999809265</ele>
        <time>2022-07-31T07:25:26.000Z</time>
      </trkpt>
      <trkpt lat="47.2416" lon="-2.30044">
        <ele>14.199999809265</ele>
        <time>2022-07-31T07:25:31.000Z</time>
      </trkpt>
      <trkpt lat="47.24159" lon="-2.30045">
        <ele>14.199999809265</ele>
        <time>2022-07-31T07:25:33.000Z</time>
      </trkpt>
      <trkpt lat="47.24165" lon="-2.30041">
        <ele>16.200000762939</ele>
        <time>2022-07-31T07:27:41.000Z</time>
      </trkpt>
      <trkpt lat="47.24167" lon="-2.30038">
        <ele>16.200000762939</ele>
        <time>2022-07-31T07:27:42.000Z</time>
      </trkpt>
      <trkpt lat="47.2417" lon="-2.30033">
        <ele>16.200000762939</ele>
        <time>2022-07-31T07:27:44.000Z</time>
      </trkpt>
      <trkpt lat="47.2417" lon="-2.30028">
        <ele>16.200000762939</ele>
        <time>2022-07-31T07:27:46.000Z</time>
      </trkpt>
      <trkpt lat="47.24168" lon="-2.30023">
        <ele>16.200000762939</ele>
        <time>2022-07-31T07:27:49.000Z</time>
      </trkpt>
      <trkpt lat="47.24168" lon="-2.30019">
        <ele>16.200000762939</ele>
        <time>2022-07-31T07:27:51.000Z</time>
      </trkpt>
      <trkpt lat="47.24169" lon="-2.30008">
        <ele>16.200000762939</ele>
        <time>2022-07-31T07:27:58.000Z</time>
      </trkpt>
      <trkpt lat="47.24171" lon="-2.29978">
        <ele>14.199999809265</ele>
        <time>2022-07-31T07:38:35.000Z</time>
      </trkpt>
      <trkpt lat="47.24182" lon="-2.29976">
        <ele>14.199999809265</ele>
        <time>2022-07-31T07:38:39.000Z</time>
      </trkpt>
      <trkpt lat="47.24195" lon="-2.2997">
        <ele>14.199999809265</ele>
        <time>2022-07-31T07:38:43.000Z</time>
      </trkpt>
      <trkpt lat="47.24224" lon="-2.29958">
        <ele>14.199999809265</ele>
        <time>2022-07-31T07:38:49.000Z</time>
      </trkpt>
      <trkpt lat="47.24246" lon="-2.29942">
        <ele>14.199999809265</ele>
        <time>2022-07-31T07:38:54.000Z</time>
      </trkpt>
      <trkpt lat="47.2425" lon="-2.29938">
        <ele>13.800000190735</ele>
        <time>2022-07-31T07:38:55.000Z</time>
      </trkpt>
      <trkpt lat="47.24254" lon="-2.29932">
        <ele>13.39999961853</ele>
        <time>2022-07-31T07:38:56.000Z</time>
      </trkpt>
      <trkpt lat="47.24258" lon="-2.29928">
        <ele>13</ele>
        <time>2022-07-31T07:38:57.000Z</time>
      </trkpt>
      <trkpt lat="47.24262" lon="-2.29924">
        <ele>12.60000038147</ele>
        <time>2022-07-31T07:38:58.000Z</time>
      </trkpt>
      <trkpt lat="47.24266" lon="-2.2992">
        <ele>12.199999809265</ele>
        <time>2022-07-31T07:38:59.000Z</time>
      </trkpt>
      <trkpt lat="47.24274" lon="-2.29913">
        <ele>12.199999809265</ele>
        <time>2022-07-31T07:39:01.000Z</time>
      </trkpt>
      <trkpt lat="47.24289" lon="-2.29903">
        <ele>12.199999809265</ele>
        <time>2022-07-31T07:39:04.000Z</time>
      </trkpt>
      <trkpt lat="47.24308" lon="-2.29887">
        <ele>12.199999809265</ele>
        <time>2022-07-31T07:39:08.000Z</time>
      </trkpt>
      <trkpt lat="47.24312" lon="-2.29882">
        <ele>12.199999809265</ele>
        <time>2022-07-31T07:39:09.000Z</time>
      </trkpt>
      <trkpt lat="47.24319" lon="-2.2987">
        <ele>12.199999809265</ele>
        <time>2022-07-31T07:39:11.000Z</time>
      </trkpt>
      <trkpt lat="47.24319" lon="-2.29857">
        <ele>12.199999809265</ele>
        <time>2022-07-31T07:39:13.000Z</time>
      </trkpt>
      <trkpt lat="47.24321" lon="-2.2983">
        <ele>12.199999809265</ele>
        <time>2022-07-31T07:39:17.000Z</time>
      </trkpt>
      <trkpt lat="47.24329" lon="-2.29816">
        <ele>12.199999809265</ele>
        <time>2022-07-31T07:39:20.000Z</time>
      </trkpt>
      <trkpt lat="47.24334" lon="-2.29812">
        <ele>12.60000038147</ele>
        <time>2022-07-31T07:39:21.000Z</time>
      </trkpt>
      <trkpt lat="47.24338" lon="-2.2981">
        <ele>13</ele>
        <time>2022-07-31T07:39:22.000Z</time>
      </trkpt>
      <trkpt lat="47.24343" lon="-2.29808">
        <ele>13.39999961853</ele>
        <time>2022-07-31T07:39:23.000Z</time>
      </trkpt>
      <trkpt lat="47.24347" lon="-2.29807">
        <ele>13.800000190735</ele>
        <time>2022-07-31T07:39:24.000Z</time>
      </trkpt>
      <trkpt lat="47.24352" lon="-2.29805">
        <ele>14.199999809265</ele>
        <time>2022-07-31T07:39:25.000Z</time>
      </trkpt>
      <trkpt lat="47.24367" lon="-2.29786">
        <ele>14.199999809265</ele>
        <time>2022-07-31T07:39:29.000Z</time>
      </trkpt>
      <trkpt lat="47.24372" lon="-2.29773">
        <ele>14.199999809265</ele>
        <time>2022-07-31T07:39:31.000Z</time>
      </trkpt>
      <trkpt lat="47.24384" lon="-2.29745">
        <ele>14.199999809265</ele>
        <time>2022-07-31T07:39:35.000Z</time>
      </trkpt>
      <trkpt lat="47.24395" lon="-2.29717">
        <ele>14.199999809265</ele>
        <time>2022-07-31T07:39:39.000Z</time>
      </trkpt>
      <trkpt lat="47.24403" lon="-2.29705">
        <ele>14.199999809265</ele>
        <time>2022-07-31T07:39:41.000Z</time>
      </trkpt>
      <trkpt lat="47.24418" lon="-2.29696">
        <ele>14.199999809265</ele>
        <time>2022-07-31T07:39:44.000Z</time>
      </trkpt>
      <trkpt lat="47.24423" lon="-2.29694">
        <ele>14.199999809265</ele>
        <time>2022-07-31T07:39:45.000Z</time>
      </trkpt>
      <trkpt lat="47.24436" lon="-2.29699">
        <ele>14.199999809265</ele>
        <time>2022-07-31T07:39:48.000Z</time>
      </trkpt>
      <trkpt lat="47.24449" lon="-2.29717">
        <ele>14.199999809265</ele>
        <time>2022-07-31T07:39:52.000Z</time>
      </trkpt>
      <trkpt lat="47.24452" lon="-2.29722">
        <ele>14.199999809265</ele>
        <time>2022-07-31T07:39:53.000Z</time>
      </trkpt>
      <trkpt lat="47.24455" lon="-2.29727">
        <ele>14.199999809265</ele>
        <time>2022-07-31T07:39:54.000Z</time>
      </trkpt>
      <trkpt lat="47.24463" lon="-2.29746">
        <ele>14.199999809265</ele>
        <time>2022-07-31T07:39:57.000Z</time>
      </trkpt>
      <trkpt lat="47.24465" lon="-2.29752">
        <ele>14.199999809265</ele>
        <time>2022-07-31T07:39:58.000Z</time>
      </trkpt>
      <trkpt lat="47.24468" lon="-2.29773">
        <ele>14.199999809265</ele>
        <time>2022-07-31T07:40:01.000Z</time>
      </trkpt>
      <trkpt lat="47.24472" lon="-2.29786">
        <ele>14.199999809265</ele>
        <time>2022-07-31T07:40:03.000Z</time>
      </trkpt>
      <trkpt lat="47.24479" lon="-2.29804">
        <ele>14.199999809265</ele>
        <time>2022-07-31T07:40:06.000Z</time>
      </trkpt>
      <trkpt lat="47.24481" lon="-2.29809">
        <ele>14.199999809265</ele>
        <time>2022-07-31T07:40:07.000Z</time>
      </trkpt>
      <trkpt lat="47.24494" lon="-2.29831">
        <ele>14.199999809265</ele>
        <time>2022-07-31T07:40:11.000Z</time>
      </trkpt>
      <trkpt lat="47.24497" lon="-2.29835">
        <ele>14.199999809265</ele>
        <time>2022-07-31T07:40:12.000Z</time>
      </trkpt>
      <trkpt lat="47.24501" lon="-2.29839">
        <ele>14.199999809265</ele>
        <time>2022-07-31T07:40:13.000Z</time>
      </trkpt>
      <trkpt lat="47.24518" lon="-2.29855">
        <ele>14.199999809265</ele>
        <time>2022-07-31T07:40:17.000Z</time>
      </trkpt>
      <trkpt lat="47.24526" lon="-2.2986">
        <ele>14.60000038147</ele>
        <time>2022-07-31T07:40:19.000Z</time>
      </trkpt>
      <trkpt lat="47.2453" lon="-2.29862">
        <ele>15.199999809265</ele>
        <time>2022-07-31T07:40:20.000Z</time>
      </trkpt>
      <trkpt lat="47.24534" lon="-2.29864">
        <ele>15.60000038147</ele>
        <time>2022-07-31T07:40:21.000Z</time>
      </trkpt>
      <trkpt lat="47.24537" lon="-2.29865">
        <ele>16</ele>
        <time>2022-07-31T07:40:22.000Z</time>
      </trkpt>
      <trkpt lat="47.24541" lon="-2.29867">
        <ele>16.39999961853</ele>
        <time>2022-07-31T07:40:23.000Z</time>
      </trkpt>
      <trkpt lat="47.24561" lon="-2.29882">
        <ele>16.39999961853</ele>
        <time>2022-07-31T07:40:29.000Z</time>
      </trkpt>
      <trkpt lat="47.24575" lon="-2.29904">
        <ele>16.39999961853</ele>
        <time>2022-07-31T07:40:34.000Z</time>
      </trkpt>
      <trkpt lat="47.24598" lon="-2.29945">
        <ele>16.39999961853</ele>
        <time>2022-07-31T07:40:42.000Z</time>
      </trkpt>
      <trkpt lat="47.2461" lon="-2.29945">
        <ele>16.39999961853</ele>
        <time>2022-07-31T07:40:45.000Z</time>
      </trkpt>
      <trkpt lat="47.24616" lon="-2.29942">
        <ele>16.39999961853</ele>
        <time>2022-07-31T07:40:46.000Z</time>
      </trkpt>
      <trkpt lat="47.24643" lon="-2.29931">
        <ele>16.39999961853</ele>
        <time>2022-07-31T07:40:51.000Z</time>
      </trkpt>
      <trkpt lat="47.2469" lon="-2.29914">
        <ele>16.39999961853</ele>
        <time>2022-07-31T07:41:00.000Z</time>
      </trkpt>
      <trkpt lat="47.24729" lon="-2.29901">
        <ele>16.799999237061</ele>
        <time>2022-07-31T07:41:08.000Z</time>
      </trkpt>
      <trkpt lat="47.24734" lon="-2.299">
        <ele>17.200000762939</ele>
        <time>2022-07-31T07:41:09.000Z</time>
      </trkpt>
      <trkpt lat="47.24739" lon="-2.29897">
        <ele>17.60000038147</ele>
        <time>2022-07-31T07:41:10.000Z</time>
      </trkpt>
      <trkpt lat="47.24744" lon="-2.29895">
        <ele>18</ele>
        <time>2022-07-31T07:41:11.000Z</time>
      </trkpt>
      <trkpt lat="47.24749" lon="-2.29892">
        <ele>18.39999961853</ele>
        <time>2022-07-31T07:41:12.000Z</time>
      </trkpt>
      <trkpt lat="47.24758" lon="-2.29885">
        <ele>18.39999961853</ele>
        <time>2022-07-31T07:41:14.000Z</time>
      </trkpt>
      <trkpt lat="47.24796" lon="-2.29858">
        <ele>18.39999961853</ele>
        <time>2022-07-31T07:41:22.000Z</time>
      </trkpt>
      <trkpt lat="47.24828" lon="-2.29845">
        <ele>18.39999961853</ele>
        <time>2022-07-31T07:41:28.000Z</time>
      </trkpt>
      <trkpt lat="47.24847" lon="-2.29839">
        <ele>18.39999961853</ele>
        <time>2022-07-31T07:41:32.000Z</time>
      </trkpt>
      <trkpt lat="47.24855" lon="-2.29833">
        <ele>18.39999961853</ele>
        <time>2022-07-31T07:41:34.000Z</time>
      </trkpt>
      <trkpt lat="47.2486" lon="-2.2983">
        <ele>18.39999961853</ele>
        <time>2022-07-31T07:41:36.000Z</time>
      </trkpt>
      <trkpt lat="47.24863" lon="-2.29831">
        <ele>18.39999961853</ele>
        <time>2022-07-31T07:41:37.000Z</time>
      </trkpt>
      <trkpt lat="47.24869" lon="-2.29849">
        <ele>18.39999961853</ele>
        <time>2022-07-31T07:41:41.000Z</time>
      </trkpt>
      <trkpt lat="47.24875" lon="-2.29891">
        <ele>18.39999961853</ele>
        <time>2022-07-31T07:41:47.000Z</time>
      </trkpt>
      <trkpt lat="47.2488" lon="-2.29934">
        <ele>18.39999961853</ele>
        <time>2022-07-31T07:41:52.000Z</time>
      </trkpt>
      <trkpt lat="47.24881" lon="-2.29942">
        <ele>18.39999961853</ele>
        <time>2022-07-31T07:41:53.000Z</time>
      </trkpt>
      <trkpt lat="47.24897" lon="-2.29999">
        <ele>18.39999961853</ele>
        <time>2022-07-31T07:42:00.000Z</time>
      </trkpt>
      <trkpt lat="47.24903" lon="-2.3003">
        <ele>18.39999961853</ele>
        <time>2022-07-31T07:42:04.000Z</time>
      </trkpt>
      <trkpt lat="47.24903" lon="-2.30044">
        <ele>18.39999961853</ele>
        <time>2022-07-31T07:42:06.000Z</time>
      </trkpt>
      <trkpt lat="47.24908" lon="-2.3006">
        <ele>18.39999961853</ele>
        <time>2022-07-31T07:42:09.000Z</time>
      </trkpt>
      <trkpt lat="47.24919" lon="-2.30062">
        <ele>18.39999961853</ele>
        <time>2022-07-31T07:42:12.000Z</time>
      </trkpt>
      <trkpt lat="47.24924" lon="-2.30062">
        <ele>18.39999961853</ele>
        <time>2022-07-31T07:42:13.000Z</time>
      </trkpt>
      <trkpt lat="47.24952" lon="-2.30058">
        <ele>18.39999961853</ele>
        <time>2022-07-31T07:42:18.000Z</time>
      </trkpt>
      <trkpt lat="47.24988" lon="-2.30055">
        <ele>18.39999961853</ele>
        <time>2022-07-31T07:42:25.000Z</time>
      </trkpt>
      <trkpt lat="47.25003" lon="-2.30053">
        <ele>18.39999961853</ele>
        <time>2022-07-31T07:42:28.000Z</time>
      </trkpt>
      <trkpt lat="47.25013" lon="-2.30053">
        <ele>18.39999961853</ele>
        <time>2022-07-31T07:42:30.000Z</time>
      </trkpt>
      <trkpt lat="47.25043" lon="-2.30054">
        <ele>18.39999961853</ele>
        <time>2022-07-31T07:42:36.000Z</time>
      </trkpt>
      <trkpt lat="47.25074" lon="-2.30064">
        <ele>18.39999961853</ele>
        <time>2022-07-31T07:42:43.000Z</time>
      </trkpt>
      <trkpt lat="47.25072" lon="-2.30084">
        <ele>18.39999961853</ele>
        <time>2022-07-31T07:42:46.000Z</time>
      </trkpt>
      <trkpt lat="47.25069" lon="-2.30127">
        <ele>18.39999961853</ele>
        <time>2022-07-31T07:42:52.000Z</time>
      </trkpt>
      <trkpt lat="47.25077" lon="-2.30138">
        <ele>18.39999961853</ele>
        <time>2022-07-31T07:42:55.000Z</time>
      </trkpt>
      <trkpt lat="47.25085" lon="-2.30136">
        <ele>18.39999961853</ele>
        <time>2022-07-31T07:42:57.000Z</time>
      </trkpt>
      <trkpt lat="47.25099" lon="-2.30134">
        <ele>18.39999961853</ele>
        <time>2022-07-31T07:43:00.000Z</time>
      </trkpt>
      <trkpt lat="47.25104" lon="-2.30133">
        <ele>18</ele>
        <time>2022-07-31T07:43:01.000Z</time>
      </trkpt>
      <trkpt lat="47.25108" lon="-2.30131">
        <ele>17.60000038147</ele>
        <time>2022-07-31T07:43:02.000Z</time>
      </trkpt>
      <trkpt lat="47.25112" lon="-2.30129">
        <ele>17.200000762939</ele>
        <time>2022-07-31T07:43:03.000Z</time>
      </trkpt>
      <trkpt lat="47.25117" lon="-2.30128">
        <ele>16.799999237061</ele>
        <time>2022-07-31T07:43:04.000Z</time>
      </trkpt>
      <trkpt lat="47.25122" lon="-2.30127">
        <ele>16.200000762939</ele>
        <time>2022-07-31T07:43:05.000Z</time>
      </trkpt>
      <trkpt lat="47.25126" lon="-2.30127">
        <ele>16.200000762939</ele>
        <time>2022-07-31T07:43:06.000Z</time>
      </trkpt>
      <trkpt lat="47.25141" lon="-2.30125">
        <ele>16.200000762939</ele>
        <time>2022-07-31T07:43:09.000Z</time>
      </trkpt>
      <trkpt lat="47.25172" lon="-2.30116">
        <ele>16.200000762939</ele>
        <time>2022-07-31T07:43:15.000Z</time>
      </trkpt>
      <trkpt lat="47.25185" lon="-2.30127">
        <ele>16.200000762939</ele>
        <time>2022-07-31T07:43:18.000Z</time>
      </trkpt>
      <trkpt lat="47.25189" lon="-2.30134">
        <ele>15.800000190735</ele>
        <time>2022-07-31T07:43:19.000Z</time>
      </trkpt>
      <trkpt lat="47.25193" lon="-2.3014">
        <ele>15.39999961853</ele>
        <time>2022-07-31T07:43:20.000Z</time>
      </trkpt>
      <trkpt lat="47.25197" lon="-2.30145">
        <ele>15</ele>
        <time>2022-07-31T07:43:21.000Z</time>
      </trkpt>
      <trkpt lat="47.25202" lon="-2.3015">
        <ele>14.60000038147</ele>
        <time>2022-07-31T07:43:22.000Z</time>
      </trkpt>
      <trkpt lat="47.25207" lon="-2.30156">
        <ele>14.199999809265</ele>
        <time>2022-07-31T07:43:23.000Z</time>
      </trkpt>
      <trkpt lat="47.25226" lon="-2.30175">
        <ele>14.199999809265</ele>
        <time>2022-07-31T07:43:27.000Z</time>
      </trkpt>
      <trkpt lat="47.25232" lon="-2.30177">
        <ele>13.800000190735</ele>
        <time>2022-07-31T07:43:28.000Z</time>
      </trkpt>
      <trkpt lat="47.25238" lon="-2.3018">
        <ele>13.39999961853</ele>
        <time>2022-07-31T07:43:29.000Z</time>
      </trkpt>
      <trkpt lat="47.25244" lon="-2.30182">
        <ele>12.800000190735</ele>
        <time>2022-07-31T07:43:30.000Z</time>
      </trkpt>
      <trkpt lat="47.2525" lon="-2.30184">
        <ele>12.39999961853</ele>
        <time>2022-07-31T07:43:31.000Z</time>
      </trkpt>
      <trkpt lat="47.25255" lon="-2.30187">
        <ele>12</ele>
        <time>2022-07-31T07:43:32.000Z</time>
      </trkpt>
      <trkpt lat="47.25284" lon="-2.302">
        <ele>12</ele>
        <time>2022-07-31T07:43:37.000Z</time>
      </trkpt>
      <trkpt lat="47.25301" lon="-2.30206">
        <ele>12</ele>
        <time>2022-07-31T07:43:41.000Z</time>
      </trkpt>
      <trkpt lat="47.25303" lon="-2.30205">
        <ele>12</ele>
        <time>2022-07-31T07:43:42.000Z</time>
      </trkpt>
      <trkpt lat="47.25307" lon="-2.30201">
        <ele>12</ele>
        <time>2022-07-31T07:43:44.000Z</time>
      </trkpt>
      <trkpt lat="47.25313" lon="-2.30204">
        <ele>11.60000038147</ele>
        <time>2022-07-31T07:43:46.000Z</time>
      </trkpt>
      <trkpt lat="47.25318" lon="-2.30206">
        <ele>11.199999809265</ele>
        <time>2022-07-31T07:43:47.000Z</time>
      </trkpt>
      <trkpt lat="47.25323" lon="-2.30207">
        <ele>10.800000190735</ele>
        <time>2022-07-31T07:43:48.000Z</time>
      </trkpt>
      <trkpt lat="47.25328" lon="-2.30207">
        <ele>10.39999961853</ele>
        <time>2022-07-31T07:43:49.000Z</time>
      </trkpt>
      <trkpt lat="47.25333" lon="-2.30207">
        <ele>10</ele>
        <time>2022-07-31T07:43:50.000Z</time>
      </trkpt>
      <trkpt lat="47.25339" lon="-2.30208">
        <ele>10</ele>
        <time>2022-07-31T07:43:51.000Z</time>
      </trkpt>
      <trkpt lat="47.2538" lon="-2.30211">
        <ele>10</ele>
        <time>2022-07-31T07:43:59.000Z</time>
      </trkpt>
      <trkpt lat="47.25384" lon="-2.30213">
        <ele>10</ele>
        <time>2022-07-31T07:44:00.000Z</time>
      </trkpt>
      <trkpt lat="47.25397" lon="-2.30218">
        <ele>10</ele>
        <time>2022-07-31T07:44:03.000Z</time>
      </trkpt>
      <trkpt lat="47.25405" lon="-2.30224">
        <ele>9.6000003814697</ele>
        <time>2022-07-31T07:44:05.000Z</time>
      </trkpt>
      <trkpt lat="47.2541" lon="-2.30225">
        <ele>9.1999998092651</ele>
        <time>2022-07-31T07:44:06.000Z</time>
      </trkpt>
      <trkpt lat="47.25414" lon="-2.30225">
        <ele>8.8000001907349</ele>
        <time>2022-07-31T07:44:07.000Z</time>
      </trkpt>
      <trkpt lat="47.25418" lon="-2.30225">
        <ele>8.3999996185303</ele>
        <time>2022-07-31T07:44:08.000Z</time>
      </trkpt>
      <trkpt lat="47.25422" lon="-2.30227">
        <ele>8</ele>
        <time>2022-07-31T07:44:09.000Z</time>
      </trkpt>
      <trkpt lat="47.25431" lon="-2.3023">
        <ele>8</ele>
        <time>2022-07-31T07:44:11.000Z</time>
      </trkpt>
      <trkpt lat="47.2545" lon="-2.30236">
        <ele>8</ele>
        <time>2022-07-31T07:44:16.000Z</time>
      </trkpt>
      <trkpt lat="47.25462" lon="-2.30239">
        <ele>8</ele>
        <time>2022-07-31T07:44:19.000Z</time>
      </trkpt>
      <trkpt lat="47.25473" lon="-2.30221">
        <ele>7.5999999046326</ele>
        <time>2022-07-31T07:44:23.000Z</time>
      </trkpt>
      <trkpt lat="47.25475" lon="-2.30216">
        <ele>7.1999998092651</ele>
        <time>2022-07-31T07:44:24.000Z</time>
      </trkpt>
      <trkpt lat="47.25478" lon="-2.30212">
        <ele>6.8000001907349</ele>
        <time>2022-07-31T07:44:25.000Z</time>
      </trkpt>
      <trkpt lat="47.25482" lon="-2.30208">
        <ele>6</ele>
        <time>2022-07-31T07:44:26.000Z</time>
      </trkpt>
      <trkpt lat="47.25485" lon="-2.30204">
        <ele>6</ele>
        <time>2022-07-31T07:44:27.000Z</time>
      </trkpt>
      <trkpt lat="47.25492" lon="-2.30199">
        <ele>6</ele>
        <time>2022-07-31T07:44:29.000Z</time>
      </trkpt>
      <trkpt lat="47.25498" lon="-2.30199">
        <ele>6</ele>
        <time>2022-07-31T07:44:31.000Z</time>
      </trkpt>
      <trkpt lat="47.25514" lon="-2.30201">
        <ele>6</ele>
        <time>2022-07-31T07:44:36.000Z</time>
      </trkpt>
      <trkpt lat="47.25528" lon="-2.30198">
        <ele>6</ele>
        <time>2022-07-31T07:44:39.000Z</time>
      </trkpt>
      <trkpt lat="47.25538" lon="-2.30195">
        <ele>6</ele>
        <time>2022-07-31T07:44:41.000Z</time>
      </trkpt>
      <trkpt lat="47.25544" lon="-2.30195">
        <ele>6</ele>
        <time>2022-07-31T07:44:42.000Z</time>
      </trkpt>
      <trkpt lat="47.25565" lon="-2.30198">
        <ele>6</ele>
        <time>2022-07-31T07:44:45.000Z</time>
      </trkpt>
      <trkpt lat="47.25577" lon="-2.30201">
        <ele>6</ele>
        <time>2022-07-31T07:44:47.000Z</time>
      </trkpt>
      <trkpt lat="47.25594" lon="-2.30212">
        <ele>6</ele>
        <time>2022-07-31T07:44:50.000Z</time>
      </trkpt>
      <trkpt lat="47.25599" lon="-2.30217">
        <ele>5.1999998092651</ele>
        <time>2022-07-31T07:44:51.000Z</time>
      </trkpt>
      <trkpt lat="47.25603" lon="-2.30222">
        <ele>4.8000001907349</ele>
        <time>2022-07-31T07:44:52.000Z</time>
      </trkpt>
      <trkpt lat="47.25606" lon="-2.30227">
        <ele>4.1999998092651</ele>
        <time>2022-07-31T07:44:53.000Z</time>
      </trkpt>
      <trkpt lat="47.2561" lon="-2.30232">
        <ele>3.7999999523163</ele>
        <time>2022-07-31T07:44:54.000Z</time>
      </trkpt>
      <trkpt lat="47.25619" lon="-2.30252">
        <ele>3.7999999523163</ele>
        <time>2022-07-31T07:44:57.000Z</time>
      </trkpt>
      <trkpt lat="47.25622" lon="-2.30267">
        <ele>3.7999999523163</ele>
        <time>2022-07-31T07:44:59.000Z</time>
      </trkpt>
      <trkpt lat="47.25624" lon="-2.3028">
        <ele>3.7999999523163</ele>
        <time>2022-07-31T07:45:01.000Z</time>
      </trkpt>
      <trkpt lat="47.25627" lon="-2.30297">
        <ele>3.7999999523163</ele>
        <time>2022-07-31T07:45:04.000Z</time>
      </trkpt>
      <trkpt lat="47.2563" lon="-2.30328">
        <ele>3.7999999523163</ele>
        <time>2022-07-31T07:45:09.000Z</time>
      </trkpt>
      <trkpt lat="47.25635" lon="-2.30344">
        <ele>3.7999999523163</ele>
        <time>2022-07-31T07:45:13.000Z</time>
      </trkpt>
      <trkpt lat="47.25641" lon="-2.30337">
        <ele>3.7999999523163</ele>
        <time>2022-07-31T07:45:16.000Z</time>
      </trkpt>
      <trkpt lat="47.25646" lon="-2.30327">
        <ele>3.7999999523163</ele>
        <time>2022-07-31T07:45:18.000Z</time>
      </trkpt>
      <trkpt lat="47.2565" lon="-2.30317">
        <ele>3.7999999523163</ele>
        <time>2022-07-31T07:45:20.000Z</time>
      </trkpt>
      <trkpt lat="47.25652" lon="-2.30312">
        <ele>3.7999999523163</ele>
        <time>2022-07-31T07:45:21.000Z</time>
      </trkpt>
      <trkpt lat="47.25654" lon="-2.30294">
        <ele>3.7999999523163</ele>
        <time>2022-07-31T07:45:24.000Z</time>
      </trkpt>
      <trkpt lat="47.2566" lon="-2.30276">
        <ele>3.7999999523163</ele>
        <time>2022-07-31T07:45:27.000Z</time>
      </trkpt>
      <trkpt lat="47.25673" lon="-2.30255">
        <ele>3.7999999523163</ele>
        <time>2022-07-31T07:45:31.000Z</time>
      </trkpt>
      <trkpt lat="47.25679" lon="-2.3024">
        <ele>3.7999999523163</ele>
        <time>2022-07-31T07:45:33.000Z</time>
      </trkpt>
      <trkpt lat="47.2569" lon="-2.3022">
        <ele>3.7999999523163</ele>
        <time>2022-07-31T07:45:36.000Z</time>
      </trkpt>
      <trkpt lat="47.25711" lon="-2.30206">
        <ele>3.7999999523163</ele>
        <time>2022-07-31T07:45:40.000Z</time>
      </trkpt>
      <trkpt lat="47.25718" lon="-2.30205">
        <ele>3.4000000953674</ele>
        <time>2022-07-31T07:45:41.000Z</time>
      </trkpt>
      <trkpt lat="47.25724" lon="-2.30206">
        <ele>3</ele>
        <time>2022-07-31T07:45:42.000Z</time>
      </trkpt>
      <trkpt lat="47.2573" lon="-2.30208">
        <ele>2.5999999046326</ele>
        <time>2022-07-31T07:45:43.000Z</time>
      </trkpt>
      <trkpt lat="47.25737" lon="-2.3021">
        <ele>2.2000000476837</ele>
        <time>2022-07-31T07:45:44.000Z</time>
      </trkpt>
      <trkpt lat="47.25743" lon="-2.30213">
        <ele>1.7999999523163</ele>
        <time>2022-07-31T07:45:45.000Z</time>
      </trkpt>
      <trkpt lat="47.25782" lon="-2.30232">
        <ele>1.7999999523163</ele>
        <time>2022-07-31T07:45:51.000Z</time>
      </trkpt>
      <trkpt lat="47.25795" lon="-2.30239">
        <ele>1.3999999761581</ele>
        <time>2022-07-31T07:45:53.000Z</time>
      </trkpt>
      <trkpt lat="47.25802" lon="-2.30243">
        <ele>1</ele>
        <time>2022-07-31T07:45:54.000Z</time>
      </trkpt>
      <trkpt lat="47.25809" lon="-2.30247">
        <ele>0.60000002384186</ele>
        <time>2022-07-31T07:45:55.000Z</time>
      </trkpt>
      <trkpt lat="47.25815" lon="-2.3025">
        <ele>19</ele>
        <time>2022-07-31T07:45:56.000Z</time>
      </trkpt>
      <trkpt lat="47.25821" lon="-2.30254">
        <ele>-0.40000000596046</ele>
        <time>2022-07-31T07:45:57.000Z</time>
      </trkpt>
      <trkpt lat="47.25827" lon="-2.30256">
        <ele>-0.40000000596046</ele>
        <time>2022-07-31T07:45:58.000Z</time>
      </trkpt>
      <trkpt lat="47.25854" lon="-2.30266">
        <ele>-0.40000000596046</ele>
        <time>2022-07-31T07:46:03.000Z</time>
      </trkpt>
      <trkpt lat="47.25867" lon="-2.3027">
        <ele>-0.40000000596046</ele>
        <time>2022-07-31T07:46:06.000Z</time>
      </trkpt>
      <trkpt lat="47.25876" lon="-2.30265">
        <ele>-0.40000000596046</ele>
        <time>2022-07-31T07:46:08.000Z</time>
      </trkpt>
      <trkpt lat="47.25889" lon="-2.30241">
        <ele>-0.40000000596046</ele>
        <time>2022-07-31T07:46:12.000Z</time>
      </trkpt>
      <trkpt lat="47.25886" lon="-2.30221">
        <ele>-0.40000000596046</ele>
        <time>2022-07-31T07:46:15.000Z</time>
      </trkpt>
      <trkpt lat="47.25887" lon="-2.30194">
        <ele>-0.40000000596046</ele>
        <time>2022-07-31T07:46:19.000Z</time>
      </trkpt>
      <trkpt lat="47.25898" lon="-2.30178">
        <ele>-0.40000000596046</ele>
        <time>2022-07-31T07:46:22.000Z</time>
      </trkpt>
      <trkpt lat="47.25918" lon="-2.30169">
        <ele>-0.40000000596046</ele>
        <time>2022-07-31T07:46:26.000Z</time>
      </trkpt>
      <trkpt lat="47.25924" lon="-2.30167">
        <ele>-0.40000000596046</ele>
        <time>2022-07-31T07:46:27.000Z</time>
      </trkpt>
      <trkpt lat="47.25954" lon="-2.30158">
        <ele>-0.40000000596046</ele>
        <time>2022-07-31T07:46:32.000Z</time>
      </trkpt>
      <trkpt lat="47.25965" lon="-2.3014">
        <ele>-0.40000000596046</ele>
        <time>2022-07-31T07:46:35.000Z</time>
      </trkpt>
      <trkpt lat="47.25976" lon="-2.30131">
        <ele>-0.40000000596046</ele>
        <time>2022-07-31T07:46:38.000Z</time>
      </trkpt>
      <trkpt lat="47.2598" lon="-2.3013">
        <ele>-0.40000000596046</ele>
        <time>2022-07-31T07:46:39.000Z</time>
      </trkpt>
      <trkpt lat="47.25988" lon="-2.30128">
        <ele>-0.40000000596046</ele>
        <time>2022-07-31T07:46:42.000Z</time>
      </trkpt>
      <trkpt lat="47.25997" lon="-2.30128">
        <ele>-0.40000000596046</ele>
        <time>2022-07-31T07:46:45.000Z</time>
      </trkpt>
      <trkpt lat="47.26003" lon="-2.30126">
        <ele>-0.40000000596046</ele>
        <time>2022-07-31T07:46:47.000Z</time>
      </trkpt>
      <trkpt lat="47.26015" lon="-2.30126">
        <ele>-0.40000000596046</ele>
        <time>2022-07-31T07:46:51.000Z</time>
      </trkpt>
      <trkpt lat="47.26019" lon="-2.30128">
        <ele>-0.40000000596046</ele>
        <time>2022-07-31T07:46:52.000Z</time>
      </trkpt>
      <trkpt lat="47.26035" lon="-2.30129">
        <ele>20.9</ele>
        <time>2022-07-31T07:46:56.000Z</time>
      </trkpt>
      <trkpt lat="47.26039" lon="-2.30128">
        <ele>0.40000000596046</ele>
        <time>2022-07-31T07:46:57.000Z</time>
      </trkpt>
      <trkpt lat="47.26043" lon="-2.30128">
        <ele>1</ele>
        <time>2022-07-31T07:46:58.000Z</time>
      </trkpt>
      <trkpt lat="47.26048" lon="-2.30128">
        <ele>1.3999999761581</ele>
        <time>2022-07-31T07:46:59.000Z</time>
      </trkpt>
      <trkpt lat="47.26053" lon="-2.30128">
        <ele>1.7999999523163</ele>
        <time>2022-07-31T07:47:00.000Z</time>
      </trkpt>
      <trkpt lat="47.2607" lon="-2.30134">
        <ele>1.7999999523163</ele>
        <time>2022-07-31T07:47:04.000Z</time>
      </trkpt>
      <trkpt lat="47.26076" lon="-2.30136">
        <ele>1.7999999523163</ele>
        <time>2022-07-31T07:47:06.000Z</time>
      </trkpt>
      <trkpt lat="47.2608" lon="-2.30137">
        <ele>1.7999999523163</ele>
        <time>2022-07-31T07:47:08.000Z</time>
      </trkpt>
      <trkpt lat="47.26086" lon="-2.30138">
        <ele>2.2000000476837</ele>
        <time>2022-07-31T07:47:11.000Z</time>
      </trkpt>
      <trkpt lat="47.26089" lon="-2.30138">
        <ele>2.5999999046326</ele>
        <time>2022-07-31T07:47:12.000Z</time>
      </trkpt>
      <trkpt lat="47.26091" lon="-2.30139">
        <ele>3</ele>
        <time>2022-07-31T07:47:13.000Z</time>
      </trkpt>
      <trkpt lat="47.26093" lon="-2.30141">
        <ele>3.4000000953674</ele>
        <time>2022-07-31T07:47:14.000Z</time>
      </trkpt>
      <trkpt lat="47.26094" lon="-2.30144">
        <ele>3.7999999523163</ele>
        <time>2022-07-31T07:47:15.000Z</time>
      </trkpt>
      <trkpt lat="47.26096" lon="-2.30147">
        <ele>3.7999999523163</ele>
        <time>2022-07-31T07:47:17.000Z</time>
      </trkpt>
      <trkpt lat="47.26099" lon="-2.30148">
        <ele>3.7999999523163</ele>
        <time>2022-07-31T07:47:18.000Z</time>
      </trkpt>
      <trkpt lat="47.26116" lon="-2.30155">
        <ele>3.7999999523163</ele>
        <time>2022-07-31T07:47:22.000Z</time>
      </trkpt>
      <trkpt lat="47.26125" lon="-2.30156">
        <ele>4.4000000953674</ele>
        <time>2022-07-31T07:47:24.000Z</time>
      </trkpt>
      <trkpt lat="47.2613" lon="-2.30155">
        <ele>4.8000001907349</ele>
        <time>2022-07-31T07:47:25.000Z</time>
      </trkpt>
      <trkpt lat="47.26133" lon="-2.30154">
        <ele>5.1999998092651</ele>
        <time>2022-07-31T07:47:26.000Z</time>
      </trkpt>
      <trkpt lat="47.26137" lon="-2.30154">
        <ele>5.5999999046326</ele>
        <time>2022-07-31T07:47:27.000Z</time>
      </trkpt>
      <trkpt lat="47.26141" lon="-2.30153">
        <ele>6</ele>
        <time>2022-07-31T07:47:28.000Z</time>
      </trkpt>
      <trkpt lat="47.26144" lon="-2.30152">
        <ele>6</ele>
        <time>2022-07-31T07:47:29.000Z</time>
      </trkpt>
      <trkpt lat="47.26162" lon="-2.30148">
        <ele>6</ele>
        <time>2022-07-31T07:47:35.000Z</time>
      </trkpt>
      <trkpt lat="47.26165" lon="-2.30147">
        <ele>6.5999999046326</ele>
        <time>2022-07-31T07:47:36.000Z</time>
      </trkpt>
      <trkpt lat="47.26168" lon="-2.30146">
        <ele>7</ele>
        <time>2022-07-31T07:47:37.000Z</time>
      </trkpt>
      <trkpt lat="47.26169" lon="-2.30147">
        <ele>7.4000000953674</ele>
        <time>2022-07-31T07:47:38.000Z</time>
      </trkpt>
      <trkpt lat="47.26171" lon="-2.30149">
        <ele>7.8000001907349</ele>
        <time>2022-07-31T07:47:39.000Z</time>
      </trkpt>
      <trkpt lat="47.26172" lon="-2.30152">
        <ele>8.1999998092651</ele>
        <time>2022-07-31T07:47:40.000Z</time>
      </trkpt>
      <trkpt lat="47.26177" lon="-2.30157">
        <ele>8.1999998092651</ele>
        <time>2022-07-31T07:47:43.000Z</time>
      </trkpt>
      <trkpt lat="47.2618" lon="-2.30156">
        <ele>8.1999998092651</ele>
        <time>2022-07-31T07:47:44.000Z</time>
      </trkpt>
      <trkpt lat="47.26199" lon="-2.30146">
        <ele>8.1999998092651</ele>
        <time>2022-07-31T07:47:49.000Z</time>
      </trkpt>
      <trkpt lat="47.26215" lon="-2.30139">
        <ele>8.6000003814697</ele>
        <time>2022-07-31T07:47:53.000Z</time>
      </trkpt>
      <trkpt lat="47.26219" lon="-2.30138">
        <ele>9</ele>
        <time>2022-07-31T07:47:54.000Z</time>
      </trkpt>
      <trkpt lat="47.26223" lon="-2.30137">
        <ele>9.3999996185303</ele>
        <time>2022-07-31T07:47:55.000Z</time>
      </trkpt>
      <trkpt lat="47.26226" lon="-2.30136">
        <ele>9.8000001907349</ele>
        <time>2022-07-31T07:47:56.000Z</time>
      </trkpt>
      <trkpt lat="47.2623" lon="-2.30134">
        <ele>10.199999809265</ele>
        <time>2022-07-31T07:47:57.000Z</time>
      </trkpt>
      <trkpt lat="47.26244" lon="-2.30131">
        <ele>10.199999809265</ele>
        <time>2022-07-31T07:48:01.000Z</time>
      </trkpt>
      <trkpt lat="47.2625" lon="-2.30135">
        <ele>10.199999809265</ele>
        <time>2022-07-31T07:48:03.000Z</time>
      </trkpt>
      <trkpt lat="47.26255" lon="-2.30143">
        <ele>10.199999809265</ele>
        <time>2022-07-31T07:48:05.000Z</time>
      </trkpt>
      <trkpt lat="47.26271" lon="-2.30168">
        <ele>10.199999809265</ele>
        <time>2022-07-31T07:48:10.000Z</time>
      </trkpt>
      <trkpt lat="47.26274" lon="-2.30174">
        <ele>10.199999809265</ele>
        <time>2022-07-31T07:48:11.000Z</time>
      </trkpt>
      <trkpt lat="47.26279" lon="-2.30206">
        <ele>10.199999809265</ele>
        <time>2022-07-31T07:48:15.000Z</time>
      </trkpt>
      <trkpt lat="47.26291" lon="-2.30288">
        <ele>10.199999809265</ele>
        <time>2022-07-31T07:48:24.000Z</time>
      </trkpt>
      <trkpt lat="47.26302" lon="-2.30319">
        <ele>10.199999809265</ele>
        <time>2022-07-31T07:48:28.000Z</time>
      </trkpt>
      <trkpt lat="47.26305" lon="-2.30326">
        <ele>10.199999809265</ele>
        <time>2022-07-31T07:48:29.000Z</time>
      </trkpt>
      <trkpt lat="47.26307" lon="-2.30332">
        <ele>10.199999809265</ele>
        <time>2022-07-31T07:48:30.000Z</time>
      </trkpt>
      <trkpt lat="47.2631" lon="-2.30355">
        <ele>10.199999809265</ele>
        <time>2022-07-31T07:48:33.000Z</time>
      </trkpt>
      <trkpt lat="47.26314" lon="-2.30387">
        <ele>10.199999809265</ele>
        <time>2022-07-31T07:48:37.000Z</time>
      </trkpt>
      <trkpt lat="47.26317" lon="-2.3041">
        <ele>10.199999809265</ele>
        <time>2022-07-31T07:48:40.000Z</time>
      </trkpt>
      <trkpt lat="47.2632" lon="-2.30424">
        <ele>10.199999809265</ele>
        <time>2022-07-31T07:48:42.000Z</time>
      </trkpt>
      <trkpt lat="47.26322" lon="-2.30439">
        <ele>10.199999809265</ele>
        <time>2022-07-31T07:48:44.000Z</time>
      </trkpt>
      <trkpt lat="47.26324" lon="-2.30445">
        <ele>10.199999809265</ele>
        <time>2022-07-31T07:48:45.000Z</time>
      </trkpt>
      <trkpt lat="47.26332" lon="-2.30489">
        <ele>10.199999809265</ele>
        <time>2022-07-31T07:48:51.000Z</time>
      </trkpt>
      <trkpt lat="47.26342" lon="-2.3053">
        <ele>10.199999809265</ele>
        <time>2022-07-31T07:48:57.000Z</time>
      </trkpt>
      <trkpt lat="47.26346" lon="-2.30553">
        <ele>9.8000001907349</ele>
        <time>2022-07-31T07:49:01.000Z</time>
      </trkpt>
      <trkpt lat="47.26346" lon="-2.30559">
        <ele>9.3999996185303</ele>
        <time>2022-07-31T07:49:02.000Z</time>
      </trkpt>
      <trkpt lat="47.26345" lon="-2.30565">
        <ele>9</ele>
        <time>2022-07-31T07:49:03.000Z</time>
      </trkpt>
      <trkpt lat="47.26345" lon="-2.30572">
        <ele>8.6000003814697</ele>
        <time>2022-07-31T07:49:04.000Z</time>
      </trkpt>
      <trkpt lat="47.26346" lon="-2.30579">
        <ele>8.1999998092651</ele>
        <time>2022-07-31T07:49:05.000Z</time>
      </trkpt>
      <trkpt lat="47.26347" lon="-2.30585">
        <ele>8.1999998092651</ele>
        <time>2022-07-31T07:49:06.000Z</time>
      </trkpt>
      <trkpt lat="47.2635" lon="-2.30591">
        <ele>8.1999998092651</ele>
        <time>2022-07-31T07:49:07.000Z</time>
      </trkpt>
      <trkpt lat="47.26356" lon="-2.30603">
        <ele>8.1999998092651</ele>
        <time>2022-07-31T07:49:09.000Z</time>
      </trkpt>
      <trkpt lat="47.26367" lon="-2.30617">
        <ele>8.1999998092651</ele>
        <time>2022-07-31T07:49:12.000Z</time>
      </trkpt>
      <trkpt lat="47.2637" lon="-2.3062">
        <ele>8.1999998092651</ele>
        <time>2022-07-31T07:49:13.000Z</time>
      </trkpt>
      <trkpt lat="47.26391" lon="-2.30649">
        <ele>8.1999998092651</ele>
        <time>2022-07-31T07:49:19.000Z</time>
      </trkpt>
      <trkpt lat="47.26394" lon="-2.30653">
        <ele>8.1999998092651</ele>
        <time>2022-07-31T07:49:20.000Z</time>
      </trkpt>
      <trkpt lat="47.26408" lon="-2.30667">
        <ele>8.1999998092651</ele>
        <time>2022-07-31T07:49:24.000Z</time>
      </trkpt>
      <trkpt lat="47.26419" lon="-2.30681">
        <ele>8.1999998092651</ele>
        <time>2022-07-31T07:49:29.000Z</time>
      </trkpt>
      <trkpt lat="47.26431" lon="-2.307">
        <ele>8.1999998092651</ele>
        <time>2022-07-31T07:49:34.000Z</time>
      </trkpt>
      <trkpt lat="47.2644" lon="-2.3072">
        <ele>8.1999998092651</ele>
        <time>2022-07-31T07:49:38.000Z</time>
      </trkpt>
      <trkpt lat="47.26446" lon="-2.30735">
        <ele>7.8000001907349</ele>
        <time>2022-07-31T07:49:40.000Z</time>
      </trkpt>
      <trkpt lat="47.26449" lon="-2.30742">
        <ele>7.4000000953674</ele>
        <time>2022-07-31T07:49:41.000Z</time>
      </trkpt>
      <trkpt lat="47.26451" lon="-2.30749">
        <ele>6.8000001907349</ele>
        <time>2022-07-31T07:49:42.000Z</time>
      </trkpt>
      <trkpt lat="47.26454" lon="-2.30756">
        <ele>6.4000000953674</ele>
        <time>2022-07-31T07:49:43.000Z</time>
      </trkpt>
      <trkpt lat="47.26456" lon="-2.30763">
        <ele>6</ele>
        <time>2022-07-31T07:49:44.000Z</time>
      </trkpt>
      <trkpt lat="47.26467" lon="-2.30791">
        <ele>6</ele>
        <time>2022-07-31T07:49:48.000Z</time>
      </trkpt>
      <trkpt lat="47.26474" lon="-2.30814">
        <ele>5.5999999046326</ele>
        <time>2022-07-31T07:49:51.000Z</time>
      </trkpt>
      <trkpt lat="47.26477" lon="-2.30821">
        <ele>5.1999998092651</ele>
        <time>2022-07-31T07:49:52.000Z</time>
      </trkpt>
      <trkpt lat="47.26479" lon="-2.30829">
        <ele>4.8000001907349</ele>
        <time>2022-07-31T07:49:53.000Z</time>
      </trkpt>
      <trkpt lat="47.26482" lon="-2.30836">
        <ele>4.1999998092651</ele>
        <time>2022-07-31T07:49:54.000Z</time>
      </trkpt>
      <trkpt lat="47.26485" lon="-2.30842">
        <ele>3.7999999523163</ele>
        <time>2022-07-31T07:49:55.000Z</time>
      </trkpt>
      <trkpt lat="47.26488" lon="-2.30847">
        <ele>3.7999999523163</ele>
        <time>2022-07-31T07:49:56.000Z</time>
      </trkpt>
      <trkpt lat="47.26492" lon="-2.30852">
        <ele>3.4000000953674</ele>
        <time>2022-07-31T07:49:57.000Z</time>
      </trkpt>
      <trkpt lat="47.26495" lon="-2.30856">
        <ele>3</ele>
        <time>2022-07-31T07:49:58.000Z</time>
      </trkpt>
      <trkpt lat="47.26498" lon="-2.3086">
        <ele>2.5999999046326</ele>
        <time>2022-07-31T07:49:59.000Z</time>
      </trkpt>
      <trkpt lat="47.26502" lon="-2.30866">
        <ele>2</ele>
        <time>2022-07-31T07:50:00.000Z</time>
      </trkpt>
      <trkpt lat="47.26506" lon="-2.3087">
        <ele>1.3999999761581</ele>
        <time>2022-07-31T07:50:01.000Z</time>
      </trkpt>
      <trkpt lat="47.26509" lon="-2.30873">
        <ele>0.80000001192093</ele>
        <time>2022-07-31T07:50:02.000Z</time>
      </trkpt>
      <trkpt lat="47.26511" lon="-2.30873">
        <ele>0.20000000298023</ele>
        <time>2022-07-31T07:50:03.000Z</time>
      </trkpt>
      <trkpt lat="47.26514" lon="-2.30872">
        <ele>-0.40000000596046</ele>
        <time>2022-07-31T07:50:04.000Z</time>
      </trkpt>
      <trkpt lat="47.26524" lon="-2.30864">
        <ele>-0.40000000596046</ele>
        <time>2022-07-31T07:50:08.000Z</time>
      </trkpt>
      <trkpt lat="47.26536" lon="-2.30851">
        <ele>-0.40000000596046</ele>
        <time>2022-07-31T07:50:12.000Z</time>
      </trkpt>
      <trkpt lat="47.2655" lon="-2.30839">
        <ele>-0.40000000596046</ele>
        <time>2022-07-31T07:50:17.000Z</time>
      </trkpt>
      <trkpt lat="47.26552" lon="-2.30835">
        <ele>-0.40000000596046</ele>
        <time>2022-07-31T07:50:18.000Z</time>
      </trkpt>
      <trkpt lat="47.26555" lon="-2.30827">
        <ele>-0.40000000596046</ele>
        <time>2022-07-31T07:50:20.000Z</time>
      </trkpt>
      <trkpt lat="47.26569" lon="-2.30808">
        <ele>-0.40000000596046</ele>
        <time>2022-07-31T07:50:25.000Z</time>
      </trkpt>
      <trkpt lat="47.26573" lon="-2.30805">
        <ele>21.4</ele>
        <time>2022-07-31T07:50:26.000Z</time>
      </trkpt>
      <trkpt lat="47.26575" lon="-2.30802">
        <ele>0.40000000596046</ele>
        <time>2022-07-31T07:50:27.000Z</time>
      </trkpt>
      <trkpt lat="47.26579" lon="-2.30799">
        <ele>0.80000001192093</ele>
        <time>2022-07-31T07:50:28.000Z</time>
      </trkpt>
      <trkpt lat="47.26582" lon="-2.30796">
        <ele>1.2000000476837</ele>
        <time>2022-07-31T07:50:29.000Z</time>
      </trkpt>
      <trkpt lat="47.26585" lon="-2.30793">
        <ele>1.6000000238419</ele>
        <time>2022-07-31T07:50:30.000Z</time>
      </trkpt>
      <trkpt lat="47.26589" lon="-2.3079">
        <ele>1.6000000238419</ele>
        <time>2022-07-31T07:50:31.000Z</time>
      </trkpt>
      <trkpt lat="47.26604" lon="-2.30773">
        <ele>1.6000000238419</ele>
        <time>2022-07-31T07:50:36.000Z</time>
      </trkpt>
      <trkpt lat="47.26605" lon="-2.30769">
        <ele>1.6000000238419</ele>
        <time>2022-07-31T07:50:37.000Z</time>
      </trkpt>
      <trkpt lat="47.26605" lon="-2.30761">
        <ele>1.6000000238419</ele>
        <time>2022-07-31T07:50:39.000Z</time>
      </trkpt>
      <trkpt lat="47.26613" lon="-2.30747">
        <ele>1.6000000238419</ele>
        <time>2022-07-31T07:50:43.000Z</time>
      </trkpt>
      <trkpt lat="47.26615" lon="-2.30744">
        <ele>1.6000000238419</ele>
        <time>2022-07-31T07:50:44.000Z</time>
      </trkpt>
      <trkpt lat="47.26622" lon="-2.30737">
        <ele>1.6000000238419</ele>
        <time>2022-07-31T07:50:46.000Z</time>
      </trkpt>
      <trkpt lat="47.26624" lon="-2.30733">
        <ele>2</ele>
        <time>2022-07-31T07:50:47.000Z</time>
      </trkpt>
      <trkpt lat="47.26626" lon="-2.30728">
        <ele>2.4000000953674</ele>
        <time>2022-07-31T07:50:48.000Z</time>
      </trkpt>
      <trkpt lat="47.26629" lon="-2.30722">
        <ele>2.7999999523163</ele>
        <time>2022-07-31T07:50:49.000Z</time>
      </trkpt>
      <trkpt lat="47.26633" lon="-2.30715">
        <ele>3.2000000476837</ele>
        <time>2022-07-31T07:50:50.000Z</time>
      </trkpt>
      <trkpt lat="47.26636" lon="-2.30709">
        <ele>3.5999999046326</ele>
        <time>2022-07-31T07:50:51.000Z</time>
      </trkpt>
      <trkpt lat="47.2664" lon="-2.30708">
        <ele>3.5999999046326</ele>
        <time>2022-07-31T07:50:52.000Z</time>
      </trkpt>
      <trkpt lat="47.26654" lon="-2.30713">
        <ele>3.5999999046326</ele>
        <time>2022-07-31T07:50:56.000Z</time>
      </trkpt>
      <trkpt lat="47.26668" lon="-2.30731">
        <ele>3.5999999046326</ele>
        <time>2022-07-31T07:51:00.000Z</time>
      </trkpt>
      <trkpt lat="47.26679" lon="-2.30747">
        <ele>3.5999999046326</ele>
        <time>2022-07-31T07:51:03.000Z</time>
      </trkpt>
      <trkpt lat="47.26681" lon="-2.30752">
        <ele>4.1999998092651</ele>
        <time>2022-07-31T07:51:04.000Z</time>
      </trkpt>
      <trkpt lat="47.26684" lon="-2.30758">
        <ele>4.5999999046326</ele>
        <time>2022-07-31T07:51:05.000Z</time>
      </trkpt>
      <trkpt lat="47.26687" lon="-2.30763">
        <ele>5</ele>
        <time>2022-07-31T07:51:06.000Z</time>
      </trkpt>
      <trkpt lat="47.2669" lon="-2.30768">
        <ele>5.4000000953674</ele>
        <time>2022-07-31T07:51:07.000Z</time>
      </trkpt>
      <trkpt lat="47.26693" lon="-2.30773">
        <ele>5.8000001907349</ele>
        <time>2022-07-31T07:51:08.000Z</time>
      </trkpt>
      <trkpt lat="47.26695" lon="-2.3078">
        <ele>5.8000001907349</ele>
        <time>2022-07-31T07:51:09.000Z</time>
      </trkpt>
      <trkpt lat="47.26702" lon="-2.308">
        <ele>5.8000001907349</ele>
        <time>2022-07-31T07:51:12.000Z</time>
      </trkpt>
      <trkpt lat="47.26707" lon="-2.30812">
        <ele>6.1999998092651</ele>
        <time>2022-07-31T07:51:14.000Z</time>
      </trkpt>
      <trkpt lat="47.2671" lon="-2.30818">
        <ele>6.8000001907349</ele>
        <time>2022-07-31T07:51:15.000Z</time>
      </trkpt>
      <trkpt lat="47.26712" lon="-2.30824">
        <ele>7.1999998092651</ele>
        <time>2022-07-31T07:51:16.000Z</time>
      </trkpt>
      <trkpt lat="47.26715" lon="-2.3083">
        <ele>7.5999999046326</ele>
        <time>2022-07-31T07:51:17.000Z</time>
      </trkpt>
      <trkpt lat="47.26718" lon="-2.30836">
        <ele>8</ele>
        <time>2022-07-31T07:51:18.000Z</time>
      </trkpt>
      <trkpt lat="47.26721" lon="-2.30842">
        <ele>8</ele>
        <time>2022-07-31T07:51:19.000Z</time>
      </trkpt>
      <trkpt lat="47.26738" lon="-2.30869">
        <ele>8</ele>
        <time>2022-07-31T07:51:24.000Z</time>
      </trkpt>
      <trkpt lat="47.26742" lon="-2.30871">
        <ele>8</ele>
        <time>2022-07-31T07:51:25.000Z</time>
      </trkpt>
      <trkpt lat="47.26755" lon="-2.30861">
        <ele>8</ele>
        <time>2022-07-31T07:51:28.000Z</time>
      </trkpt>
      <trkpt lat="47.26759" lon="-2.30856">
        <ele>8</ele>
        <time>2022-07-31T07:51:29.000Z</time>
      </trkpt>
      <trkpt lat="47.26787" lon="-2.30826">
        <ele>8</ele>
        <time>2022-07-31T07:51:35.000Z</time>
      </trkpt>
      <trkpt lat="47.26818" lon="-2.30797">
        <ele>8</ele>
        <time>2022-07-31T07:51:42.000Z</time>
      </trkpt>
      <trkpt lat="47.26822" lon="-2.30796">
        <ele>8</ele>
        <time>2022-07-31T07:51:43.000Z</time>
      </trkpt>
      <trkpt lat="47.2683" lon="-2.3079">
        <ele>8</ele>
        <time>2022-07-31T07:51:46.000Z</time>
      </trkpt>
      <trkpt lat="47.26837" lon="-2.30774">
        <ele>8</ele>
        <time>2022-07-31T07:51:50.000Z</time>
      </trkpt>
      <trkpt lat="47.26843" lon="-2.30759">
        <ele>8</ele>
        <time>2022-07-31T07:51:53.000Z</time>
      </trkpt>
      <trkpt lat="47.26848" lon="-2.30741">
        <ele>8</ele>
        <time>2022-07-31T07:51:56.000Z</time>
      </trkpt>
      <trkpt lat="47.26863" lon="-2.30701">
        <ele>8</ele>
        <time>2022-07-31T07:52:02.000Z</time>
      </trkpt>
      <trkpt lat="47.26886" lon="-2.3067">
        <ele>8</ele>
        <time>2022-07-31T07:52:08.000Z</time>
      </trkpt>
      <trkpt lat="47.26916" lon="-2.3064">
        <ele>8</ele>
        <time>2022-07-31T07:52:15.000Z</time>
      </trkpt>
      <trkpt lat="47.26921" lon="-2.30637">
        <ele>8</ele>
        <time>2022-07-31T07:52:16.000Z</time>
      </trkpt>
      <trkpt lat="47.26939" lon="-2.3063">
        <ele>8</ele>
        <time>2022-07-31T07:52:19.000Z</time>
      </trkpt>
      <trkpt lat="47.26945" lon="-2.30629">
        <ele>8</ele>
        <time>2022-07-31T07:52:20.000Z</time>
      </trkpt>
      <trkpt lat="47.26976" lon="-2.30617">
        <ele>8</ele>
        <time>2022-07-31T07:52:25.000Z</time>
      </trkpt>
      <trkpt lat="47.27003" lon="-2.30598">
        <ele>8</ele>
        <time>2022-07-31T07:52:30.000Z</time>
      </trkpt>
      <trkpt lat="47.27007" lon="-2.30592">
        <ele>8</ele>
        <time>2022-07-31T07:52:31.000Z</time>
      </trkpt>
      <trkpt lat="47.27017" lon="-2.30561">
        <ele>8</ele>
        <time>2022-07-31T07:52:35.000Z</time>
      </trkpt>
      <trkpt lat="47.27026" lon="-2.30528">
        <ele>8</ele>
        <time>2022-07-31T07:52:39.000Z</time>
      </trkpt>
      <trkpt lat="47.27028" lon="-2.30519">
        <ele>8</ele>
        <time>2022-07-31T07:52:40.000Z</time>
      </trkpt>
      <trkpt lat="47.27035" lon="-2.30492">
        <ele>8</ele>
        <time>2022-07-31T07:52:43.000Z</time>
      </trkpt>
      <trkpt lat="47.27038" lon="-2.30479">
        <ele>8</ele>
        <time>2022-07-31T07:52:45.000Z</time>
      </trkpt>
      <trkpt lat="47.27043" lon="-2.30472">
        <ele>8</ele>
        <time>2022-07-31T07:52:48.000Z</time>
      </trkpt>
      <trkpt lat="47.27051" lon="-2.30478">
        <ele>8</ele>
        <time>2022-07-31T07:52:52.000Z</time>
      </trkpt>
      <trkpt lat="47.27059" lon="-2.30479">
        <ele>7.5999999046326</ele>
        <time>2022-07-31T07:52:54.000Z</time>
      </trkpt>
      <trkpt lat="47.27064" lon="-2.30479">
        <ele>7</ele>
        <time>2022-07-31T07:52:55.000Z</time>
      </trkpt>
      <trkpt lat="47.27068" lon="-2.30481">
        <ele>6.5999999046326</ele>
        <time>2022-07-31T07:52:56.000Z</time>
      </trkpt>
      <trkpt lat="47.27073" lon="-2.30484">
        <ele>6.1999998092651</ele>
        <time>2022-07-31T07:52:57.000Z</time>
      </trkpt>
      <trkpt lat="47.27077" lon="-2.30486">
        <ele>5.8000001907349</ele>
        <time>2022-07-31T07:52:58.000Z</time>
      </trkpt>
      <trkpt lat="47.27097" lon="-2.30491">
        <ele>5.8000001907349</ele>
        <time>2022-07-31T07:53:02.000Z</time>
      </trkpt>
      <trkpt lat="47.27102" lon="-2.30491">
        <ele>5.8000001907349</ele>
        <time>2022-07-31T07:53:03.000Z</time>
      </trkpt>
      <trkpt lat="47.27111" lon="-2.30497">
        <ele>5.4000000953674</ele>
        <time>2022-07-31T07:53:05.000Z</time>
      </trkpt>
      <trkpt lat="47.27116" lon="-2.305">
        <ele>5</ele>
        <time>2022-07-31T07:53:06.000Z</time>
      </trkpt>
      <trkpt lat="47.27122" lon="-2.30501">
        <ele>4.5999999046326</ele>
        <time>2022-07-31T07:53:07.000Z</time>
      </trkpt>
      <trkpt lat="47.27128" lon="-2.30504">
        <ele>4</ele>
        <time>2022-07-31T07:53:08.000Z</time>
      </trkpt>
      <trkpt lat="47.27133" lon="-2.30505">
        <ele>3.5999999046326</ele>
        <time>2022-07-31T07:53:09.000Z</time>
      </trkpt>
      <trkpt lat="47.27146" lon="-2.30514">
        <ele>3.5999999046326</ele>
        <time>2022-07-31T07:53:12.000Z</time>
      </trkpt>
      <trkpt lat="47.2715" lon="-2.30517">
        <ele>3.5999999046326</ele>
        <time>2022-07-31T07:53:13.000Z</time>
      </trkpt>
      <trkpt lat="47.27159" lon="-2.30525">
        <ele>3.2000000476837</ele>
        <time>2022-07-31T07:53:15.000Z</time>
      </trkpt>
      <trkpt lat="47.27164" lon="-2.30528">
        <ele>2.7999999523163</ele>
        <time>2022-07-31T07:53:16.000Z</time>
      </trkpt>
      <trkpt lat="47.27168" lon="-2.30531">
        <ele>2.4000000953674</ele>
        <time>2022-07-31T07:53:17.000Z</time>
      </trkpt>
      <trkpt lat="47.27173" lon="-2.30533">
        <ele>2</ele>
        <time>2022-07-31T07:53:18.000Z</time>
      </trkpt>
      <trkpt lat="47.27177" lon="-2.30535">
        <ele>1.6000000238419</ele>
        <time>2022-07-31T07:53:19.000Z</time>
      </trkpt>
      <trkpt lat="47.27183" lon="-2.30537">
        <ele>1.6000000238419</ele>
        <time>2022-07-31T07:53:21.000Z</time>
      </trkpt>
      <trkpt lat="47.27186" lon="-2.30539">
        <ele>1.6000000238419</ele>
        <time>2022-07-31T07:53:22.000Z</time>
      </trkpt>
      <trkpt lat="47.27204" lon="-2.30542">
        <ele>1.6000000238419</ele>
        <time>2022-07-31T07:53:28.000Z</time>
      </trkpt>
      <trkpt lat="47.27206" lon="-2.30541">
        <ele>1.6000000238419</ele>
        <time>2022-07-31T07:53:29.000Z</time>
      </trkpt>
      <trkpt lat="47.27216" lon="-2.30541">
        <ele>1.6000000238419</ele>
        <time>2022-07-31T07:53:32.000Z</time>
      </trkpt>
      <trkpt lat="47.27218" lon="-2.30542">
        <ele>1.2000000476837</ele>
        <time>2022-07-31T07:53:33.000Z</time>
      </trkpt>
      <trkpt lat="47.27222" lon="-2.30543">
        <ele>0.80000001192093</ele>
        <time>2022-07-31T07:53:34.000Z</time>
      </trkpt>
      <trkpt lat="47.27226" lon="-2.30542">
        <ele>0.40000000596046</ele>
        <time>2022-07-31T07:53:35.000Z</time>
      </trkpt>
      <trkpt lat="47.27228" lon="-2.30544">
        <ele>19.9</ele>
        <time>2022-07-31T07:53:36.000Z</time>
      </trkpt>
      <trkpt lat="47.27231" lon="-2.30545">
        <ele>-0.40000000596046</ele>
        <time>2022-07-31T07:53:37.000Z</time>
      </trkpt>
      <trkpt lat="47.27242" lon="-2.30545">
        <ele>-0.40000000596046</ele>
        <time>2022-07-31T07:53:40.000Z</time>
      </trkpt>
      <trkpt lat="47.27262" lon="-2.30542">
        <ele>-0.40000000596046</ele>
        <time>2022-07-31T07:53:45.000Z</time>
      </trkpt>
      <trkpt lat="47.27266" lon="-2.30539">
        <ele>-0.40000000596046</ele>
        <time>2022-07-31T07:53:46.000Z</time>
      </trkpt>
      <trkpt lat="47.27281" lon="-2.30529">
        <ele>-0.40000000596046</ele>
        <time>2022-07-31T07:53:50.000Z</time>
      </trkpt>
      <trkpt lat="47.27299" lon="-2.30522">
        <ele>-0.40000000596046</ele>
        <time>2022-07-31T07:53:54.000Z</time>
      </trkpt>
      <trkpt lat="47.27327" lon="-2.30515">
        <ele>-0.40000000596046</ele>
        <time>2022-07-31T07:54:00.000Z</time>
      </trkpt>
      <trkpt lat="47.27339" lon="-2.30508">
        <ele>-0.40000000596046</ele>
        <time>2022-07-31T07:54:04.000Z</time>
      </trkpt>
      <trkpt lat="47.27358" lon="-2.30494">
        <ele>-0.40000000596046</ele>
        <time>2022-07-31T07:54:10.000Z</time>
      </trkpt>
      <trkpt lat="47.27371" lon="-2.30478">
        <ele>-0.40000000596046</ele>
        <time>2022-07-31T07:54:14.000Z</time>
      </trkpt>
      <trkpt lat="47.27386" lon="-2.30464">
        <ele>-0.40000000596046</ele>
        <time>2022-07-31T07:54:19.000Z</time>
      </trkpt>
      <trkpt lat="47.27394" lon="-2.30457">
        <ele>-0.40000000596046</ele>
        <time>2022-07-31T07:54:22.000Z</time>
      </trkpt>
      <trkpt lat="47.27399" lon="-2.30458">
        <ele>-0.40000000596046</ele>
        <time>2022-07-31T07:54:24.000Z</time>
      </trkpt>
      <trkpt lat="47.27413" lon="-2.3045">
        <ele>-0.40000000596046</ele>
        <time>2022-07-31T07:54:28.000Z</time>
      </trkpt>
      <trkpt lat="47.27418" lon="-2.3045">
        <ele>-0.40000000596046</ele>
        <time>2022-07-31T07:54:29.000Z</time>
      </trkpt>
      <trkpt lat="47.27446" lon="-2.30448">
        <ele>-0.40000000596046</ele>
        <time>2022-07-31T07:54:34.000Z</time>
      </trkpt>
      <trkpt lat="47.27472" lon="-2.30444">
        <ele>-0.40000000596046</ele>
        <time>2022-07-31T07:54:38.000Z</time>
      </trkpt>
      <trkpt lat="47.27483" lon="-2.3044">
        <ele>-0.40000000596046</ele>
        <time>2022-07-31T07:54:40.000Z</time>
      </trkpt>
      <trkpt lat="47.27494" lon="-2.3043">
        <ele>-0.40000000596046</ele>
        <time>2022-07-31T07:54:43.000Z</time>
      </trkpt>
      <trkpt lat="47.27496" lon="-2.30423">
        <ele>-0.40000000596046</ele>
        <time>2022-07-31T07:54:44.000Z</time>
      </trkpt>
      <trkpt lat="47.27495" lon="-2.30402">
        <ele>-0.40000000596046</ele>
        <time>2022-07-31T07:54:47.000Z</time>
      </trkpt>
      <trkpt lat="47.27488" lon="-2.30349">
        <ele>-0.40000000596046</ele>
        <time>2022-07-31T07:54:55.000Z</time>
      </trkpt>
      <trkpt lat="47.27483" lon="-2.30326">
        <ele>-0.40000000596046</ele>
        <time>2022-07-31T07:55:00.000Z</time>
      </trkpt>
      <trkpt lat="47.27482" lon="-2.3032">
        <ele>23.6</ele>
        <time>2022-07-31T07:55:01.000Z</time>
      </trkpt>
      <trkpt lat="47.27481" lon="-2.30315">
        <ele>0.40000000596046</ele>
        <time>2022-07-31T07:55:02.000Z</time>
      </trkpt>
      <trkpt lat="47.2748" lon="-2.30309">
        <ele>0.80000001192093</ele>
        <time>2022-07-31T07:55:03.000Z</time>
      </trkpt>
      <trkpt lat="47.27478" lon="-2.30304">
        <ele>1.2000000476837</ele>
        <time>2022-07-31T07:55:04.000Z</time>
      </trkpt>
      <trkpt lat="47.27477" lon="-2.303">
        <ele>1.6000000238419</ele>
        <time>2022-07-31T07:55:05.000Z</time>
      </trkpt>
      <trkpt lat="47.27476" lon="-2.30295">
        <ele>1.6000000238419</ele>
        <time>2022-07-31T07:55:06.000Z</time>
      </trkpt>
      <trkpt lat="47.27473" lon="-2.30282">
        <ele>1.6000000238419</ele>
        <time>2022-07-31T07:55:11.000Z</time>
      </trkpt>
      <trkpt lat="47.2747" lon="-2.30272">
        <ele>1.6000000238419</ele>
        <time>2022-07-31T07:55:16.000Z</time>
      </trkpt>
      <trkpt lat="47.27469" lon="-2.30261">
        <ele>2</ele>
        <time>2022-07-31T07:55:20.000Z</time>
      </trkpt>
      <trkpt lat="47.27468" lon="-2.30258">
        <ele>2.5999999046326</ele>
        <time>2022-07-31T07:55:21.000Z</time>
      </trkpt>
      <trkpt lat="47.27468" lon="-2.30254">
        <ele>3</ele>
        <time>2022-07-31T07:55:22.000Z</time>
      </trkpt>
      <trkpt lat="47.27466" lon="-2.30251">
        <ele>3.4000000953674</ele>
        <time>2022-07-31T07:55:23.000Z</time>
      </trkpt>
      <trkpt lat="47.27464" lon="-2.30247">
        <ele>3.7999999523163</ele>
        <time>2022-07-31T07:55:24.000Z</time>
      </trkpt>
      <trkpt lat="47.27462" lon="-2.30239">
        <ele>3.7999999523163</ele>
        <time>2022-07-31T07:55:26.000Z</time>
      </trkpt>
      <trkpt lat="47.27458" lon="-2.30223">
        <ele>3.7999999523163</ele>
        <time>2022-07-31T07:55:30.000Z</time>
      </trkpt>
      <trkpt lat="47.27455" lon="-2.30222">
        <ele>3.7999999523163</ele>
        <time>2022-07-31T07:55:31.000Z</time>
      </trkpt>
      <trkpt lat="47.27443" lon="-2.30226">
        <ele>3.7999999523163</ele>
        <time>2022-07-31T07:55:35.000Z</time>
      </trkpt>
      <trkpt lat="47.27439" lon="-2.30227">
        <ele>3.7999999523163</ele>
        <time>2022-07-31T07:55:36.000Z</time>
      </trkpt>
      <trkpt lat="47.27422" lon="-2.30237">
        <ele>3.7999999523163</ele>
        <time>2022-07-31T07:55:40.000Z</time>
      </trkpt>
      <trkpt lat="47.27412" lon="-2.30241">
        <ele>3.7999999523163</ele>
        <time>2022-07-31T07:55:42.000Z</time>
      </trkpt>
      <trkpt lat="47.27399" lon="-2.30247">
        <ele>3.7999999523163</ele>
        <time>2022-07-31T07:55:45.000Z</time>
      </trkpt>
      <trkpt lat="47.27381" lon="-2.30254">
        <ele>3.7999999523163</ele>
        <time>2022-07-31T07:55:50.000Z</time>
      </trkpt>
      <trkpt lat="47.27364" lon="-2.30257">
        <ele>3.7999999523163</ele>
        <time>2022-07-31T07:55:54.000Z</time>
      </trkpt>
      <trkpt lat="47.2736" lon="-2.30256">
        <ele>3.7999999523163</ele>
        <time>2022-07-31T07:55:55.000Z</time>
      </trkpt>
      <trkpt lat="47.2735" lon="-2.30258">
        <ele>3.7999999523163</ele>
        <time>2022-07-31T07:55:57.000Z</time>
      </trkpt>
      <trkpt lat="47.27333" lon="-2.30259">
        <ele>3.7999999523163</ele>
        <time>2022-07-31T07:56:00.000Z</time>
      </trkpt>
      <trkpt lat="47.27299" lon="-2.30262">
        <ele>3.7999999523163</ele>
        <time>2022-07-31T07:56:06.000Z</time>
      </trkpt>
      <trkpt lat="47.27274" lon="-2.30262">
        <ele>3.7999999523163</ele>
        <time>2022-07-31T07:56:10.000Z</time>
      </trkpt>
      <trkpt lat="47.27262" lon="-2.30266">
        <ele>3.7999999523163</ele>
        <time>2022-07-31T07:56:12.000Z</time>
      </trkpt>
      <trkpt lat="47.27257" lon="-2.30267">
        <ele>3.7999999523163</ele>
        <time>2022-07-31T07:56:13.000Z</time>
      </trkpt>
      <trkpt lat="47.27243" lon="-2.30262">
        <ele>3.7999999523163</ele>
        <time>2022-07-31T07:56:16.000Z</time>
      </trkpt>
      <trkpt lat="47.27228" lon="-2.30263">
        <ele>3.7999999523163</ele>
        <time>2022-07-31T07:56:20.000Z</time>
      </trkpt>
      <trkpt lat="47.27211" lon="-2.30261">
        <ele>3.7999999523163</ele>
        <time>2022-07-31T07:56:24.000Z</time>
      </trkpt>
      <trkpt lat="47.27205" lon="-2.30262">
        <ele>3.7999999523163</ele>
        <time>2022-07-31T07:56:25.000Z</time>
      </trkpt>
      <trkpt lat="47.27201" lon="-2.30264">
        <ele>3.7999999523163</ele>
        <time>2022-07-31T07:56:26.000Z</time>
      </trkpt>
      <trkpt lat="47.27188" lon="-2.30266">
        <ele>3.7999999523163</ele>
        <time>2022-07-31T07:56:29.000Z</time>
      </trkpt>
      <trkpt lat="47.27184" lon="-2.30263">
        <ele>3.7999999523163</ele>
        <time>2022-07-31T07:56:30.000Z</time>
      </trkpt>
      <trkpt lat="47.27178" lon="-2.30256">
        <ele>3.7999999523163</ele>
        <time>2022-07-31T07:56:32.000Z</time>
      </trkpt>
      <trkpt lat="47.27167" lon="-2.30246">
        <ele>3.7999999523163</ele>
        <time>2022-07-31T07:56:36.000Z</time>
      </trkpt>
      <trkpt lat="47.27168" lon="-2.30228">
        <ele>3.7999999523163</ele>
        <time>2022-07-31T07:56:39.000Z</time>
      </trkpt>
      <trkpt lat="47.27162" lon="-2.302">
        <ele>3.7999999523163</ele>
        <time>2022-07-31T07:56:44.000Z</time>
      </trkpt>
      <trkpt lat="47.27158" lon="-2.30178">
        <ele>3.7999999523163</ele>
        <time>2022-07-31T07:56:49.000Z</time>
      </trkpt>
      <trkpt lat="47.27155" lon="-2.30156">
        <ele>4.1999998092651</ele>
        <time>2022-07-31T07:56:55.000Z</time>
      </trkpt>
      <trkpt lat="47.27155" lon="-2.30151">
        <ele>4.5999999046326</ele>
        <time>2022-07-31T07:56:56.000Z</time>
      </trkpt>
      <trkpt lat="47.27155" lon="-2.30146">
        <ele>5</ele>
        <time>2022-07-31T07:56:57.000Z</time>
      </trkpt>
      <trkpt lat="47.27154" lon="-2.30143">
        <ele>5.4000000953674</ele>
        <time>2022-07-31T07:56:58.000Z</time>
      </trkpt>
      <trkpt lat="47.27154" lon="-2.3014">
        <ele>5.8000001907349</ele>
        <time>2022-07-31T07:56:59.000Z</time>
      </trkpt>
      <trkpt lat="47.27152" lon="-2.30131">
        <ele>5.8000001907349</ele>
        <time>2022-07-31T07:57:01.000Z</time>
      </trkpt>
      <trkpt lat="47.27143" lon="-2.30121">
        <ele>5.8000001907349</ele>
        <time>2022-07-31T07:57:05.000Z</time>
      </trkpt>
      <trkpt lat="47.27126" lon="-2.30112">
        <ele>5.8000001907349</ele>
        <time>2022-07-31T07:57:11.000Z</time>
      </trkpt>
      <trkpt lat="47.27116" lon="-2.30109">
        <ele>6.1999998092651</ele>
        <time>2022-07-31T07:57:14.000Z</time>
      </trkpt>
      <trkpt lat="47.27112" lon="-2.30107">
        <ele>6.8000001907349</ele>
        <time>2022-07-31T07:57:15.000Z</time>
      </trkpt>
      <trkpt lat="47.27109" lon="-2.30106">
        <ele>7.1999998092651</ele>
        <time>2022-07-31T07:57:16.000Z</time>
      </trkpt>
      <trkpt lat="47.27105" lon="-2.30103">
        <ele>7.5999999046326</ele>
        <time>2022-07-31T07:57:17.000Z</time>
      </trkpt>
      <trkpt lat="47.27102" lon="-2.301">
        <ele>8</ele>
        <time>2022-07-31T07:57:18.000Z</time>
      </trkpt>
      <trkpt lat="47.27085" lon="-2.30086">
        <ele>8</ele>
        <time>2022-07-31T07:57:23.000Z</time>
      </trkpt>
      <trkpt lat="47.2707" lon="-2.30075">
        <ele>8</ele>
        <time>2022-07-31T07:57:27.000Z</time>
      </trkpt>
      <trkpt lat="47.27066" lon="-2.30073">
        <ele>8</ele>
        <time>2022-07-31T07:57:28.000Z</time>
      </trkpt>
      <trkpt lat="47.27057" lon="-2.3007">
        <ele>8</ele>
        <time>2022-07-31T07:57:30.000Z</time>
      </trkpt>
      <trkpt lat="47.27035" lon="-2.30067">
        <ele>8</ele>
        <time>2022-07-31T07:57:35.000Z</time>
      </trkpt>
      <trkpt lat="47.27031" lon="-2.30066">
        <ele>8.3999996185303</ele>
        <time>2022-07-31T07:57:36.000Z</time>
      </trkpt>
      <trkpt lat="47.27027" lon="-2.30065">
        <ele>9.1999998092651</ele>
        <time>2022-07-31T07:57:37.000Z</time>
      </trkpt>
      <trkpt lat="47.27024" lon="-2.30064">
        <ele>9.6000003814697</ele>
        <time>2022-07-31T07:57:38.000Z</time>
      </trkpt>
      <trkpt lat="47.27021" lon="-2.30065">
        <ele>10</ele>
        <time>2022-07-31T07:57:39.000Z</time>
      </trkpt>
      <trkpt lat="47.27013" lon="-2.30053">
        <ele>10</ele>
        <time>2022-07-31T07:57:43.000Z</time>
      </trkpt>
      <trkpt lat="47.27016" lon="-2.30038">
        <ele>10</ele>
        <time>2022-07-31T07:57:46.000Z</time>
      </trkpt>
      <trkpt lat="47.27018" lon="-2.30029">
        <ele>10</ele>
        <time>2022-07-31T07:57:48.000Z</time>
      </trkpt>
      <trkpt lat="47.27021" lon="-2.30019">
        <ele>10</ele>
        <time>2022-07-31T07:57:52.000Z</time>
      </trkpt>
      <trkpt lat="47.27029" lon="-2.29997">
        <ele>10</ele>
        <time>2022-07-31T07:57:58.000Z</time>
      </trkpt>
      <trkpt lat="47.2704" lon="-2.2997">
        <ele>10</ele>
        <time>2022-07-31T07:58:05.000Z</time>
      </trkpt>
      <trkpt lat="47.27051" lon="-2.29947">
        <ele>10</ele>
        <time>2022-07-31T07:58:09.000Z</time>
      </trkpt>
      <trkpt lat="47.27053" lon="-2.2994">
        <ele>10</ele>
        <time>2022-07-31T07:58:10.000Z</time>
      </trkpt>
      <trkpt lat="47.27064" lon="-2.29923">
        <ele>10</ele>
        <time>2022-07-31T07:58:13.000Z</time>
      </trkpt>
      <trkpt lat="47.27068" lon="-2.29919">
        <ele>10</ele>
        <time>2022-07-31T07:58:14.000Z</time>
      </trkpt>
      <trkpt lat="47.27083" lon="-2.29902">
        <ele>10</ele>
        <time>2022-07-31T07:58:17.000Z</time>
      </trkpt>
      <trkpt lat="47.2709" lon="-2.29886">
        <ele>10</ele>
        <time>2022-07-31T07:58:19.000Z</time>
      </trkpt>
      <trkpt lat="47.27094" lon="-2.2987">
        <ele>10</ele>
        <time>2022-07-31T07:58:21.000Z</time>
      </trkpt>
      <trkpt lat="47.27101" lon="-2.29849">
        <ele>10</ele>
        <time>2022-07-31T07:58:24.000Z</time>
      </trkpt>
      <trkpt lat="47.27105" lon="-2.29826">
        <ele>10</ele>
        <time>2022-07-31T07:58:27.000Z</time>
      </trkpt>
      <trkpt lat="47.27106" lon="-2.29811">
        <ele>10</ele>
        <time>2022-07-31T07:58:29.000Z</time>
      </trkpt>
      <trkpt lat="47.27109" lon="-2.29763">
        <ele>10</ele>
        <time>2022-07-31T07:58:35.000Z</time>
      </trkpt>
      <trkpt lat="47.2711" lon="-2.2974">
        <ele>10.60000038147</ele>
        <time>2022-07-31T07:58:38.000Z</time>
      </trkpt>
      <trkpt lat="47.2711" lon="-2.29733">
        <ele>11</ele>
        <time>2022-07-31T07:58:39.000Z</time>
      </trkpt>
      <trkpt lat="47.27111" lon="-2.29725">
        <ele>11.39999961853</ele>
        <time>2022-07-31T07:58:40.000Z</time>
      </trkpt>
      <trkpt lat="47.27112" lon="-2.29717">
        <ele>11.800000190735</ele>
        <time>2022-07-31T07:58:41.000Z</time>
      </trkpt>
      <trkpt lat="47.27112" lon="-2.2971">
        <ele>12.199999809265</ele>
        <time>2022-07-31T07:58:42.000Z</time>
      </trkpt>
      <trkpt lat="47.27113" lon="-2.29703">
        <ele>12.199999809265</ele>
        <time>2022-07-31T07:58:43.000Z</time>
      </trkpt>
      <trkpt lat="47.27114" lon="-2.29666">
        <ele>12.199999809265</ele>
        <time>2022-07-31T07:58:49.000Z</time>
      </trkpt>
      <trkpt lat="47.27123" lon="-2.29647">
        <ele>12.199999809265</ele>
        <time>2022-07-31T07:58:53.000Z</time>
      </trkpt>
      <trkpt lat="47.27138" lon="-2.29643">
        <ele>12.199999809265</ele>
        <time>2022-07-31T07:58:56.000Z</time>
      </trkpt>
      <trkpt lat="47.27144" lon="-2.29642">
        <ele>12.199999809265</ele>
        <time>2022-07-31T07:58:57.000Z</time>
      </trkpt>
      <trkpt lat="47.27156" lon="-2.29641">
        <ele>12.199999809265</ele>
        <time>2022-07-31T07:58:59.000Z</time>
      </trkpt>
      <trkpt lat="47.2716" lon="-2.29636">
        <ele>12.199999809265</ele>
        <time>2022-07-31T07:59:00.000Z</time>
      </trkpt>
      <trkpt lat="47.27188" lon="-2.29616">
        <ele>12.199999809265</ele>
        <time>2022-07-31T07:59:05.000Z</time>
      </trkpt>
      <trkpt lat="47.27216" lon="-2.29591">
        <ele>12.199999809265</ele>
        <time>2022-07-31T07:59:11.000Z</time>
      </trkpt>
      <trkpt lat="47.2722" lon="-2.29588">
        <ele>12.199999809265</ele>
        <time>2022-07-31T07:59:12.000Z</time>
      </trkpt>
      <trkpt lat="47.27235" lon="-2.29574">
        <ele>12.199999809265</ele>
        <time>2022-07-31T07:59:16.000Z</time>
      </trkpt>
      <trkpt lat="47.27238" lon="-2.29568">
        <ele>12.199999809265</ele>
        <time>2022-07-31T07:59:17.000Z</time>
      </trkpt>
      <trkpt lat="47.2724" lon="-2.29562">
        <ele>12.199999809265</ele>
        <time>2022-07-31T07:59:18.000Z</time>
      </trkpt>
      <trkpt lat="47.27241" lon="-2.29546">
        <ele>12.199999809265</ele>
        <time>2022-07-31T07:59:20.000Z</time>
      </trkpt>
      <trkpt lat="47.27232" lon="-2.29514">
        <ele>12.199999809265</ele>
        <time>2022-07-31T07:59:24.000Z</time>
      </trkpt>
      <trkpt lat="47.2723" lon="-2.29509">
        <ele>12.199999809265</ele>
        <time>2022-07-31T07:59:25.000Z</time>
      </trkpt>
      <trkpt lat="47.27224" lon="-2.29493">
        <ele>12.199999809265</ele>
        <time>2022-07-31T07:59:27.000Z</time>
      </trkpt>
      <trkpt lat="47.27207" lon="-2.29434">
        <ele>12.199999809265</ele>
        <time>2022-07-31T07:59:34.000Z</time>
      </trkpt>
      <trkpt lat="47.27192" lon="-2.29384">
        <ele>11.800000190735</ele>
        <time>2022-07-31T07:59:40.000Z</time>
      </trkpt>
      <trkpt lat="47.27189" lon="-2.29377">
        <ele>11</ele>
        <time>2022-07-31T07:59:41.000Z</time>
      </trkpt>
      <trkpt lat="47.27185" lon="-2.29369">
        <ele>10.60000038147</ele>
        <time>2022-07-31T07:59:42.000Z</time>
      </trkpt>
      <trkpt lat="47.27182" lon="-2.29363">
        <ele>10.199999809265</ele>
        <time>2022-07-31T07:59:43.000Z</time>
      </trkpt>
      <trkpt lat="47.27178" lon="-2.29358">
        <ele>10.199999809265</ele>
        <time>2022-07-31T07:59:44.000Z</time>
      </trkpt>
      <trkpt lat="47.27174" lon="-2.29353">
        <ele>10.199999809265</ele>
        <time>2022-07-31T07:59:45.000Z</time>
      </trkpt>
      <trkpt lat="47.27156" lon="-2.29332">
        <ele>10.199999809265</ele>
        <time>2022-07-31T07:59:50.000Z</time>
      </trkpt>
      <trkpt lat="47.27148" lon="-2.29312">
        <ele>10.199999809265</ele>
        <time>2022-07-31T07:59:54.000Z</time>
      </trkpt>
      <trkpt lat="47.27154" lon="-2.29293">
        <ele>10.199999809265</ele>
        <time>2022-07-31T07:59:57.000Z</time>
      </trkpt>
      <trkpt lat="47.27157" lon="-2.29285">
        <ele>10.199999809265</ele>
        <time>2022-07-31T07:59:58.000Z</time>
      </trkpt>
      <trkpt lat="47.27161" lon="-2.29276">
        <ele>10.199999809265</ele>
        <time>2022-07-31T07:59:59.000Z</time>
      </trkpt>
      <trkpt lat="47.27168" lon="-2.29251">
        <ele>10.199999809265</ele>
        <time>2022-07-31T08:00:02.000Z</time>
      </trkpt>
      <trkpt lat="47.27161" lon="-2.29228">
        <ele>10.199999809265</ele>
        <time>2022-07-31T08:00:05.000Z</time>
      </trkpt>
      <trkpt lat="47.27156" lon="-2.29214">
        <ele>10.199999809265</ele>
        <time>2022-07-31T08:00:07.000Z</time>
      </trkpt>
      <trkpt lat="47.27148" lon="-2.29191">
        <ele>10.199999809265</ele>
        <time>2022-07-31T08:00:10.000Z</time>
      </trkpt>
      <trkpt lat="47.27146" lon="-2.29185">
        <ele>10.199999809265</ele>
        <time>2022-07-31T08:00:11.000Z</time>
      </trkpt>
      <trkpt lat="47.27146" lon="-2.29179">
        <ele>10.199999809265</ele>
        <time>2022-07-31T08:00:12.000Z</time>
      </trkpt>
      <trkpt lat="47.27148" lon="-2.2917">
        <ele>10.199999809265</ele>
        <time>2022-07-31T08:00:14.000Z</time>
      </trkpt>
      <trkpt lat="47.27157" lon="-2.29149">
        <ele>10.199999809265</ele>
        <time>2022-07-31T08:00:18.000Z</time>
      </trkpt>
      <trkpt lat="47.27161" lon="-2.29143">
        <ele>10.199999809265</ele>
        <time>2022-07-31T08:00:19.000Z</time>
      </trkpt>
      <trkpt lat="47.27174" lon="-2.29131">
        <ele>10.199999809265</ele>
        <time>2022-07-31T08:00:22.000Z</time>
      </trkpt>
      <trkpt lat="47.27183" lon="-2.2912">
        <ele>10.199999809265</ele>
        <time>2022-07-31T08:00:24.000Z</time>
      </trkpt>
      <trkpt lat="47.27197" lon="-2.29103">
        <ele>10.199999809265</ele>
        <time>2022-07-31T08:00:28.000Z</time>
      </trkpt>
      <trkpt lat="47.27206" lon="-2.29095">
        <ele>10.199999809265</ele>
        <time>2022-07-31T08:00:30.000Z</time>
      </trkpt>
      <trkpt lat="47.27225" lon="-2.29075">
        <ele>10.199999809265</ele>
        <time>2022-07-31T08:00:34.000Z</time>
      </trkpt>
      <trkpt lat="47.2723" lon="-2.2907">
        <ele>9.8000001907349</ele>
        <time>2022-07-31T08:00:35.000Z</time>
      </trkpt>
      <trkpt lat="47.27235" lon="-2.29067">
        <ele>9.3999996185303</ele>
        <time>2022-07-31T08:00:36.000Z</time>
      </trkpt>
      <trkpt lat="47.27241" lon="-2.29064">
        <ele>9</ele>
        <time>2022-07-31T08:00:37.000Z</time>
      </trkpt>
      <trkpt lat="47.27246" lon="-2.2906">
        <ele>8.6000003814697</ele>
        <time>2022-07-31T08:00:38.000Z</time>
      </trkpt>
      <trkpt lat="47.27251" lon="-2.29055">
        <ele>8.1999998092651</ele>
        <time>2022-07-31T08:00:39.000Z</time>
      </trkpt>
      <trkpt lat="47.27254" lon="-2.29048">
        <ele>8.1999998092651</ele>
        <time>2022-07-31T08:00:40.000Z</time>
      </trkpt>
      <trkpt lat="47.27272" lon="-2.29019">
        <ele>8.1999998092651</ele>
        <time>2022-07-31T08:00:45.000Z</time>
      </trkpt>
      <trkpt lat="47.27274" lon="-2.29012">
        <ele>8.1999998092651</ele>
        <time>2022-07-31T08:00:46.000Z</time>
      </trkpt>
      <trkpt lat="47.27286" lon="-2.28989">
        <ele>8.1999998092651</ele>
        <time>2022-07-31T08:00:50.000Z</time>
      </trkpt>
      <trkpt lat="47.27292" lon="-2.28982">
        <ele>8.1999998092651</ele>
        <time>2022-07-31T08:00:52.000Z</time>
      </trkpt>
      <trkpt lat="47.27297" lon="-2.28974">
        <ele>8.1999998092651</ele>
        <time>2022-07-31T08:00:54.000Z</time>
      </trkpt>
      <trkpt lat="47.27303" lon="-2.28956">
        <ele>8.1999998092651</ele>
        <time>2022-07-31T08:00:57.000Z</time>
      </trkpt>
      <trkpt lat="47.27305" lon="-2.28953">
        <ele>8.1999998092651</ele>
        <time>2022-07-31T08:00:58.000Z</time>
      </trkpt>
      <trkpt lat="47.27309" lon="-2.28952">
        <ele>8.1999998092651</ele>
        <time>2022-07-31T08:00:59.000Z</time>
      </trkpt>
      <trkpt lat="47.27319" lon="-2.28955">
        <ele>8.1999998092651</ele>
        <time>2022-07-31T08:01:01.000Z</time>
      </trkpt>
      <trkpt lat="47.27329" lon="-2.28957">
        <ele>8.1999998092651</ele>
        <time>2022-07-31T08:01:03.000Z</time>
      </trkpt>
      <trkpt lat="47.27332" lon="-2.28956">
        <ele>8.1999998092651</ele>
        <time>2022-07-31T08:01:04.000Z</time>
      </trkpt>
      <trkpt lat="47.27337" lon="-2.28943">
        <ele>8.1999998092651</ele>
        <time>2022-07-31T08:01:07.000Z</time>
      </trkpt>
      <trkpt lat="47.27338" lon="-2.28936">
        <ele>8.1999998092651</ele>
        <time>2022-07-31T08:01:08.000Z</time>
      </trkpt>
      <trkpt lat="47.27341" lon="-2.28916">
        <ele>8.1999998092651</ele>
        <time>2022-07-31T08:01:10.000Z</time>
      </trkpt>
      <trkpt lat="47.27347" lon="-2.28881">
        <ele>8.1999998092651</ele>
        <time>2022-07-31T08:01:14.000Z</time>
      </trkpt>
      <trkpt lat="47.27356" lon="-2.28845">
        <ele>8.1999998092651</ele>
        <time>2022-07-31T08:01:18.000Z</time>
      </trkpt>
      <trkpt lat="47.27358" lon="-2.28835">
        <ele>8.1999998092651</ele>
        <time>2022-07-31T08:01:19.000Z</time>
      </trkpt>
      <trkpt lat="47.27363" lon="-2.28815">
        <ele>8.1999998092651</ele>
        <time>2022-07-31T08:01:21.000Z</time>
      </trkpt>
      <trkpt lat="47.27371" lon="-2.28799">
        <ele>8.1999998092651</ele>
        <time>2022-07-31T08:01:23.000Z</time>
      </trkpt>
      <trkpt lat="47.27394" lon="-2.28751">
        <ele>8.1999998092651</ele>
        <time>2022-07-31T08:01:29.000Z</time>
      </trkpt>
      <trkpt lat="47.27417" lon="-2.28704">
        <ele>8.1999998092651</ele>
        <time>2022-07-31T08:01:36.000Z</time>
      </trkpt>
      <trkpt lat="47.27424" lon="-2.28693">
        <ele>8.1999998092651</ele>
        <time>2022-07-31T08:01:38.000Z</time>
      </trkpt>
      <trkpt lat="47.27436" lon="-2.28672">
        <ele>8.1999998092651</ele>
        <time>2022-07-31T08:01:42.000Z</time>
      </trkpt>
      <trkpt lat="47.27444" lon="-2.28653">
        <ele>8.1999998092651</ele>
        <time>2022-07-31T08:01:47.000Z</time>
      </trkpt>
      <trkpt lat="47.27453" lon="-2.28636">
        <ele>8.1999998092651</ele>
        <time>2022-07-31T08:01:52.000Z</time>
      </trkpt>
      <trkpt lat="47.27468" lon="-2.286">
        <ele>8.1999998092651</ele>
        <time>2022-07-31T08:01:59.000Z</time>
      </trkpt>
      <trkpt lat="47.27483" lon="-2.28557">
        <ele>8.1999998092651</ele>
        <time>2022-07-31T08:02:05.000Z</time>
      </trkpt>
      <trkpt lat="47.27485" lon="-2.2855">
        <ele>8.1999998092651</ele>
        <time>2022-07-31T08:02:06.000Z</time>
      </trkpt>
      <trkpt lat="47.27498" lon="-2.28524">
        <ele>8.1999998092651</ele>
        <time>2022-07-31T08:02:10.000Z</time>
      </trkpt>
      <trkpt lat="47.27506" lon="-2.28504">
        <ele>8.1999998092651</ele>
        <time>2022-07-31T08:02:13.000Z</time>
      </trkpt>
      <trkpt lat="47.27511" lon="-2.28491">
        <ele>8.1999998092651</ele>
        <time>2022-07-31T08:02:15.000Z</time>
      </trkpt>
      <trkpt lat="47.27528" lon="-2.28447">
        <ele>8.1999998092651</ele>
        <time>2022-07-31T08:02:21.000Z</time>
      </trkpt>
      <trkpt lat="47.27547" lon="-2.28415">
        <ele>8.1999998092651</ele>
        <time>2022-07-31T08:02:26.000Z</time>
      </trkpt>
      <trkpt lat="47.2755" lon="-2.28409">
        <ele>8.1999998092651</ele>
        <time>2022-07-31T08:02:27.000Z</time>
      </trkpt>
      <trkpt lat="47.27555" lon="-2.28404">
        <ele>8.1999998092651</ele>
        <time>2022-07-31T08:02:28.000Z</time>
      </trkpt>
      <trkpt lat="47.27571" lon="-2.28384">
        <ele>8.1999998092651</ele>
        <time>2022-07-31T08:02:32.000Z</time>
      </trkpt>
      <trkpt lat="47.27576" lon="-2.28379">
        <ele>8.1999998092651</ele>
        <time>2022-07-31T08:02:33.000Z</time>
      </trkpt>
      <trkpt lat="47.27599" lon="-2.2835">
        <ele>8.1999998092651</ele>
        <time>2022-07-31T08:02:38.000Z</time>
      </trkpt>
      <trkpt lat="47.27621" lon="-2.28324">
        <ele>8.1999998092651</ele>
        <time>2022-07-31T08:02:42.000Z</time>
      </trkpt>
      <trkpt lat="47.27626" lon="-2.28318">
        <ele>8.1999998092651</ele>
        <time>2022-07-31T08:02:43.000Z</time>
      </trkpt>
      <trkpt lat="47.27645" lon="-2.283">
        <ele>8.1999998092651</ele>
        <time>2022-07-31T08:02:48.000Z</time>
      </trkpt>
      <trkpt lat="47.27646" lon="-2.28299">
        <ele>8.1999998092651</ele>
        <time>2022-07-31T08:02:50.000Z</time>
      </trkpt>
      <trkpt lat="47.27646" lon="-2.28299">
        <ele>8.1999998092651</ele>
        <time>2022-07-31T08:02:54.000Z</time>
      </trkpt>
      <trkpt lat="47.27648" lon="-2.28297">
        <ele>8.1999998092651</ele>
        <time>2022-07-31T08:02:55.000Z</time>
      </trkpt>
      <trkpt lat="47.27657" lon="-2.28286">
        <ele>8.1999998092651</ele>
        <time>2022-07-31T08:02:59.000Z</time>
      </trkpt>
      <trkpt lat="47.27668" lon="-2.2827">
        <ele>8.1999998092651</ele>
        <time>2022-07-31T08:03:03.000Z</time>
      </trkpt>
      <trkpt lat="47.27695" lon="-2.28234">
        <ele>8.1999998092651</ele>
        <time>2022-07-31T08:03:11.000Z</time>
      </trkpt>
      <trkpt lat="47.27706" lon="-2.28218">
        <ele>8.1999998092651</ele>
        <time>2022-07-31T08:03:14.000Z</time>
      </trkpt>
      <trkpt lat="47.27712" lon="-2.28206">
        <ele>8.1999998092651</ele>
        <time>2022-07-31T08:03:16.000Z</time>
      </trkpt>
      <trkpt lat="47.27717" lon="-2.28193">
        <ele>8.1999998092651</ele>
        <time>2022-07-31T08:03:18.000Z</time>
      </trkpt>
      <trkpt lat="47.27723" lon="-2.28181">
        <ele>8.1999998092651</ele>
        <time>2022-07-31T08:03:20.000Z</time>
      </trkpt>
      <trkpt lat="47.27725" lon="-2.28175">
        <ele>8.1999998092651</ele>
        <time>2022-07-31T08:03:21.000Z</time>
      </trkpt>
      <trkpt lat="47.27737" lon="-2.28127">
        <ele>8.1999998092651</ele>
        <time>2022-07-31T08:03:27.000Z</time>
      </trkpt>
      <trkpt lat="47.2774" lon="-2.28101">
        <ele>8.1999998092651</ele>
        <time>2022-07-31T08:03:30.000Z</time>
      </trkpt>
      <trkpt lat="47.27742" lon="-2.28085">
        <ele>8.1999998092651</ele>
        <time>2022-07-31T08:03:32.000Z</time>
      </trkpt>
      <trkpt lat="47.27747" lon="-2.28052">
        <ele>8.1999998092651</ele>
        <time>2022-07-31T08:03:36.000Z</time>
      </trkpt>
      <trkpt lat="47.27748" lon="-2.28044">
        <ele>8.1999998092651</ele>
        <time>2022-07-31T08:03:37.000Z</time>
      </trkpt>
      <trkpt lat="47.27754" lon="-2.28013">
        <ele>8.1999998092651</ele>
        <time>2022-07-31T08:03:41.000Z</time>
      </trkpt>
      <trkpt lat="47.27756" lon="-2.27998">
        <ele>8.1999998092651</ele>
        <time>2022-07-31T08:03:43.000Z</time>
      </trkpt>
      <trkpt lat="47.27763" lon="-2.27962">
        <ele>8.1999998092651</ele>
        <time>2022-07-31T08:03:48.000Z</time>
      </trkpt>
      <trkpt lat="47.27772" lon="-2.27928">
        <ele>8.1999998092651</ele>
        <time>2022-07-31T08:03:53.000Z</time>
      </trkpt>
      <trkpt lat="47.27778" lon="-2.27904">
        <ele>8.1999998092651</ele>
        <time>2022-07-31T08:03:56.000Z</time>
      </trkpt>
      <trkpt lat="47.27784" lon="-2.27887">
        <ele>8.1999998092651</ele>
        <time>2022-07-31T08:03:58.000Z</time>
      </trkpt>
      <trkpt lat="47.27813" lon="-2.27831">
        <ele>8.1999998092651</ele>
        <time>2022-07-31T08:04:05.000Z</time>
      </trkpt>
      <trkpt lat="47.27835" lon="-2.27784">
        <ele>8.1999998092651</ele>
        <time>2022-07-31T08:04:11.000Z</time>
      </trkpt>
      <trkpt lat="47.27838" lon="-2.27776">
        <ele>8.1999998092651</ele>
        <time>2022-07-31T08:04:12.000Z</time>
      </trkpt>
      <trkpt lat="47.27854" lon="-2.27744">
        <ele>8.1999998092651</ele>
        <time>2022-07-31T08:04:16.000Z</time>
      </trkpt>
      <trkpt lat="47.2787" lon="-2.27713">
        <ele>8.1999998092651</ele>
        <time>2022-07-31T08:04:20.000Z</time>
      </trkpt>
      <trkpt lat="47.27877" lon="-2.27698">
        <ele>8.1999998092651</ele>
        <time>2022-07-31T08:04:22.000Z</time>
      </trkpt>
      <trkpt lat="47.2789" lon="-2.27668">
        <ele>8.1999998092651</ele>
        <time>2022-07-31T08:04:26.000Z</time>
      </trkpt>
      <trkpt lat="47.27892" lon="-2.2766">
        <ele>8.1999998092651</ele>
        <time>2022-07-31T08:04:27.000Z</time>
      </trkpt>
      <trkpt lat="47.27899" lon="-2.27637">
        <ele>8.1999998092651</ele>
        <time>2022-07-31T08:04:30.000Z</time>
      </trkpt>
      <trkpt lat="47.27913" lon="-2.2759">
        <ele>8.1999998092651</ele>
        <time>2022-07-31T08:04:36.000Z</time>
      </trkpt>
      <trkpt lat="47.27917" lon="-2.27583">
        <ele>8.1999998092651</ele>
        <time>2022-07-31T08:04:37.000Z</time>
      </trkpt>
      <trkpt lat="47.27932" lon="-2.27568">
        <ele>8.1999998092651</ele>
        <time>2022-07-31T08:04:40.000Z</time>
      </trkpt>
      <trkpt lat="47.27937" lon="-2.27564">
        <ele>8.1999998092651</ele>
        <time>2022-07-31T08:04:41.000Z</time>
      </trkpt>
      <trkpt lat="47.27953" lon="-2.27556">
        <ele>8.1999998092651</ele>
        <time>2022-07-31T08:04:45.000Z</time>
      </trkpt>
      <trkpt lat="47.27975" lon="-2.27556">
        <ele>8.1999998092651</ele>
        <time>2022-07-31T08:04:50.000Z</time>
      </trkpt>
      <trkpt lat="47.28006" lon="-2.27558">
        <ele>8.6000003814697</ele>
        <time>2022-07-31T08:04:56.000Z</time>
      </trkpt>
      <trkpt lat="47.28011" lon="-2.27559">
        <ele>9</ele>
        <time>2022-07-31T08:04:57.000Z</time>
      </trkpt>
      <trkpt lat="47.28016" lon="-2.27559">
        <ele>9.3999996185303</ele>
        <time>2022-07-31T08:04:58.000Z</time>
      </trkpt>
      <trkpt lat="47.28021" lon="-2.27558">
        <ele>10</ele>
        <time>2022-07-31T08:04:59.000Z</time>
      </trkpt>
      <trkpt lat="47.28027" lon="-2.27557">
        <ele>10.39999961853</ele>
        <time>2022-07-31T08:05:00.000Z</time>
      </trkpt>
      <trkpt lat="47.28036" lon="-2.27555">
        <ele>10.39999961853</ele>
        <time>2022-07-31T08:05:02.000Z</time>
      </trkpt>
      <trkpt lat="47.28041" lon="-2.27553">
        <ele>10.800000190735</ele>
        <time>2022-07-31T08:05:03.000Z</time>
      </trkpt>
      <trkpt lat="47.28046" lon="-2.27551">
        <ele>11.199999809265</ele>
        <time>2022-07-31T08:05:04.000Z</time>
      </trkpt>
      <trkpt lat="47.28051" lon="-2.27548">
        <ele>11.60000038147</ele>
        <time>2022-07-31T08:05:05.000Z</time>
      </trkpt>
      <trkpt lat="47.28055" lon="-2.27545">
        <ele>12</ele>
        <time>2022-07-31T08:05:06.000Z</time>
      </trkpt>
      <trkpt lat="47.2806" lon="-2.27541">
        <ele>12.39999961853</ele>
        <time>2022-07-31T08:05:07.000Z</time>
      </trkpt>
      <trkpt lat="47.28069" lon="-2.2753">
        <ele>12.39999961853</ele>
        <time>2022-07-31T08:05:09.000Z</time>
      </trkpt>
      <trkpt lat="47.28075" lon="-2.27518">
        <ele>12.39999961853</ele>
        <time>2022-07-31T08:05:11.000Z</time>
      </trkpt>
      <trkpt lat="47.2808" lon="-2.27506">
        <ele>13</ele>
        <time>2022-07-31T08:05:13.000Z</time>
      </trkpt>
      <trkpt lat="47.28083" lon="-2.275">
        <ele>13.39999961853</ele>
        <time>2022-07-31T08:05:14.000Z</time>
      </trkpt>
      <trkpt lat="47.28085" lon="-2.27494">
        <ele>13.800000190735</ele>
        <time>2022-07-31T08:05:15.000Z</time>
      </trkpt>
      <trkpt lat="47.28087" lon="-2.27489">
        <ele>14.39999961853</ele>
        <time>2022-07-31T08:05:16.000Z</time>
      </trkpt>
      <trkpt lat="47.28089" lon="-2.27483">
        <ele>14.800000190735</ele>
        <time>2022-07-31T08:05:17.000Z</time>
      </trkpt>
      <trkpt lat="47.28096" lon="-2.27465">
        <ele>15.199999809265</ele>
        <time>2022-07-31T08:05:20.000Z</time>
      </trkpt>
      <trkpt lat="47.28098" lon="-2.27458">
        <ele>15.60000038147</ele>
        <time>2022-07-31T08:05:21.000Z</time>
      </trkpt>
      <trkpt lat="47.281" lon="-2.27452">
        <ele>16</ele>
        <time>2022-07-31T08:05:22.000Z</time>
      </trkpt>
      <trkpt lat="47.28102" lon="-2.27445">
        <ele>16.39999961853</ele>
        <time>2022-07-31T08:05:23.000Z</time>
      </trkpt>
      <trkpt lat="47.28104" lon="-2.27439">
        <ele>16.799999237061</ele>
        <time>2022-07-31T08:05:24.000Z</time>
      </trkpt>
      <trkpt lat="47.28106" lon="-2.27433">
        <ele>16.799999237061</ele>
        <time>2022-07-31T08:05:25.000Z</time>
      </trkpt>
      <trkpt lat="47.28117" lon="-2.27401">
        <ele>17.200000762939</ele>
        <time>2022-07-31T08:05:30.000Z</time>
      </trkpt>
      <trkpt lat="47.2812" lon="-2.27395">
        <ele>17.60000038147</ele>
        <time>2022-07-31T08:05:31.000Z</time>
      </trkpt>
      <trkpt lat="47.28122" lon="-2.2739">
        <ele>18.200000762939</ele>
        <time>2022-07-31T08:05:32.000Z</time>
      </trkpt>
      <trkpt lat="47.28125" lon="-2.27385">
        <ele>18.60000038147</ele>
        <time>2022-07-31T08:05:33.000Z</time>
      </trkpt>
      <trkpt lat="47.28129" lon="-2.27381">
        <ele>19</ele>
        <time>2022-07-31T08:05:34.000Z</time>
      </trkpt>
      <trkpt lat="47.28132" lon="-2.27378">
        <ele>19</ele>
        <time>2022-07-31T08:05:35.000Z</time>
      </trkpt>
      <trkpt lat="47.28142" lon="-2.27373">
        <ele>19</ele>
        <time>2022-07-31T08:05:37.000Z</time>
      </trkpt>
      <trkpt lat="47.28147" lon="-2.27371">
        <ele>19</ele>
        <time>2022-07-31T08:05:38.000Z</time>
      </trkpt>
      <trkpt lat="47.28152" lon="-2.2737">
        <ele>19</ele>
        <time>2022-07-31T08:05:39.000Z</time>
      </trkpt>
      <trkpt lat="47.28189" lon="-2.27362">
        <ele>19</ele>
        <time>2022-07-31T08:05:46.000Z</time>
      </trkpt>
      <trkpt lat="47.28223" lon="-2.27355">
        <ele>19</ele>
        <time>2022-07-31T08:05:52.000Z</time>
      </trkpt>
      <trkpt lat="47.28261" lon="-2.27349">
        <ele>19</ele>
        <time>2022-07-31T08:05:58.000Z</time>
      </trkpt>
      <trkpt lat="47.28283" lon="-2.2735">
        <ele>18.60000038147</ele>
        <time>2022-07-31T08:06:01.000Z</time>
      </trkpt>
      <trkpt lat="47.28291" lon="-2.2735">
        <ele>18</ele>
        <time>2022-07-31T08:06:02.000Z</time>
      </trkpt>
      <trkpt lat="47.28299" lon="-2.2735">
        <ele>17.60000038147</ele>
        <time>2022-07-31T08:06:03.000Z</time>
      </trkpt>
      <trkpt lat="47.28307" lon="-2.2735">
        <ele>17.200000762939</ele>
        <time>2022-07-31T08:06:04.000Z</time>
      </trkpt>
      <trkpt lat="47.28315" lon="-2.27349">
        <ele>16.799999237061</ele>
        <time>2022-07-31T08:06:05.000Z</time>
      </trkpt>
      <trkpt lat="47.28323" lon="-2.27349">
        <ele>16.39999961853</ele>
        <time>2022-07-31T08:06:06.000Z</time>
      </trkpt>
      <trkpt lat="47.28331" lon="-2.27348">
        <ele>16</ele>
        <time>2022-07-31T08:06:07.000Z</time>
      </trkpt>
      <trkpt lat="47.28339" lon="-2.27348">
        <ele>15.60000038147</ele>
        <time>2022-07-31T08:06:08.000Z</time>
      </trkpt>
      <trkpt lat="47.28347" lon="-2.27348">
        <ele>15</ele>
        <time>2022-07-31T08:06:09.000Z</time>
      </trkpt>
      <trkpt lat="47.28355" lon="-2.27348">
        <ele>14.39999961853</ele>
        <time>2022-07-31T08:06:10.000Z</time>
      </trkpt>
      <trkpt lat="47.28362" lon="-2.27349">
        <ele>13.800000190735</ele>
        <time>2022-07-31T08:06:11.000Z</time>
      </trkpt>
      <trkpt lat="47.28368" lon="-2.27349">
        <ele>13.199999809265</ele>
        <time>2022-07-31T08:06:12.000Z</time>
      </trkpt>
      <trkpt lat="47.28374" lon="-2.27351">
        <ele>12.60000038147</ele>
        <time>2022-07-31T08:06:13.000Z</time>
      </trkpt>
      <trkpt lat="47.28379" lon="-2.27353">
        <ele>12</ele>
        <time>2022-07-31T08:06:14.000Z</time>
      </trkpt>
      <trkpt lat="47.28383" lon="-2.27357">
        <ele>11.39999961853</ele>
        <time>2022-07-31T08:06:15.000Z</time>
      </trkpt>
      <trkpt lat="47.28385" lon="-2.27362">
        <ele>10.800000190735</ele>
        <time>2022-07-31T08:06:16.000Z</time>
      </trkpt>
      <trkpt lat="47.28385" lon="-2.27367">
        <ele>9.8000001907349</ele>
        <time>2022-07-31T08:06:17.000Z</time>
      </trkpt>
      <trkpt lat="47.28385" lon="-2.27371">
        <ele>9.1999998092651</ele>
        <time>2022-07-31T08:06:18.000Z</time>
      </trkpt>
      <trkpt lat="47.28384" lon="-2.27375">
        <ele>8.6000003814697</ele>
        <time>2022-07-31T08:06:19.000Z</time>
      </trkpt>
      <trkpt lat="47.28383" lon="-2.27379">
        <ele>8</ele>
        <time>2022-07-31T08:06:20.000Z</time>
      </trkpt>
      <trkpt lat="47.28383" lon="-2.27383">
        <ele>8</ele>
        <time>2022-07-31T08:06:21.000Z</time>
      </trkpt>
      <trkpt lat="47.2838" lon="-2.27396">
        <ele>8</ele>
        <time>2022-07-31T08:06:24.000Z</time>
      </trkpt>
      <trkpt lat="47.2838" lon="-2.27405">
        <ele>8.3999996185303</ele>
        <time>2022-07-31T08:06:26.000Z</time>
      </trkpt>
      <trkpt lat="47.28379" lon="-2.2741">
        <ele>8.8000001907349</ele>
        <time>2022-07-31T08:06:27.000Z</time>
      </trkpt>
      <trkpt lat="47.28379" lon="-2.27414">
        <ele>9.3999996185303</ele>
        <time>2022-07-31T08:06:28.000Z</time>
      </trkpt>
      <trkpt lat="47.28378" lon="-2.27419">
        <ele>9.8000001907349</ele>
        <time>2022-07-31T08:06:29.000Z</time>
      </trkpt>
      <trkpt lat="47.28377" lon="-2.27425">
        <ele>10.199999809265</ele>
        <time>2022-07-31T08:06:30.000Z</time>
      </trkpt>
      <trkpt lat="47.28372" lon="-2.27458">
        <ele>10.60000038147</ele>
        <time>2022-07-31T08:06:35.000Z</time>
      </trkpt>
      <trkpt lat="47.28371" lon="-2.27466">
        <ele>11</ele>
        <time>2022-07-31T08:06:36.000Z</time>
      </trkpt>
      <trkpt lat="47.2837" lon="-2.27473">
        <ele>11.60000038147</ele>
        <time>2022-07-31T08:06:37.000Z</time>
      </trkpt>
      <trkpt lat="47.28369" lon="-2.27481">
        <ele>12</ele>
        <time>2022-07-31T08:06:38.000Z</time>
      </trkpt>
      <trkpt lat="47.28368" lon="-2.27488">
        <ele>12.39999961853</ele>
        <time>2022-07-31T08:06:39.000Z</time>
      </trkpt>
      <trkpt lat="47.28365" lon="-2.27504">
        <ele>12.39999961853</ele>
        <time>2022-07-31T08:06:41.000Z</time>
      </trkpt>
      <trkpt lat="47.28355" lon="-2.27566">
        <ele>12.39999961853</ele>
        <time>2022-07-31T08:06:49.000Z</time>
      </trkpt>
      <trkpt lat="47.28351" lon="-2.27589">
        <ele>12.39999961853</ele>
        <time>2022-07-31T08:06:52.000Z</time>
      </trkpt>
      <trkpt lat="47.28351" lon="-2.27596">
        <ele>12.39999961853</ele>
        <time>2022-07-31T08:06:53.000Z</time>
      </trkpt>
      <trkpt lat="47.28351" lon="-2.2762">
        <ele>12.39999961853</ele>
        <time>2022-07-31T08:06:56.000Z</time>
      </trkpt>
      <trkpt lat="47.2835" lon="-2.27637">
        <ele>12.39999961853</ele>
        <time>2022-07-31T08:06:58.000Z</time>
      </trkpt>
      <trkpt lat="47.28348" lon="-2.27653">
        <ele>12.39999961853</ele>
        <time>2022-07-31T08:07:00.000Z</time>
      </trkpt>
      <trkpt lat="47.28346" lon="-2.27669">
        <ele>12.39999961853</ele>
        <time>2022-07-31T08:07:02.000Z</time>
      </trkpt>
      <trkpt lat="47.28342" lon="-2.27715">
        <ele>11.800000190735</ele>
        <time>2022-07-31T08:07:07.000Z</time>
      </trkpt>
      <trkpt lat="47.28341" lon="-2.27725">
        <ele>11.39999961853</ele>
        <time>2022-07-31T08:07:08.000Z</time>
      </trkpt>
      <trkpt lat="47.2834" lon="-2.27734">
        <ele>11</ele>
        <time>2022-07-31T08:07:09.000Z</time>
      </trkpt>
      <trkpt lat="47.2834" lon="-2.27744">
        <ele>10.60000038147</ele>
        <time>2022-07-31T08:07:10.000Z</time>
      </trkpt>
      <trkpt lat="47.28339" lon="-2.27753">
        <ele>10</ele>
        <time>2022-07-31T08:07:11.000Z</time>
      </trkpt>
      <trkpt lat="47.28338" lon="-2.27771">
        <ele>10</ele>
        <time>2022-07-31T08:07:13.000Z</time>
      </trkpt>
      <trkpt lat="47.28332" lon="-2.27829">
        <ele>10</ele>
        <time>2022-07-31T08:07:20.000Z</time>
      </trkpt>
      <trkpt lat="47.28331" lon="-2.27844">
        <ele>10</ele>
        <time>2022-07-31T08:07:22.000Z</time>
      </trkpt>
      <trkpt lat="47.2833" lon="-2.27868">
        <ele>10</ele>
        <time>2022-07-31T08:07:25.000Z</time>
      </trkpt>
      <trkpt lat="47.28325" lon="-2.27926">
        <ele>10</ele>
        <time>2022-07-31T08:07:32.000Z</time>
      </trkpt>
      <trkpt lat="47.28325" lon="-2.27935">
        <ele>10</ele>
        <time>2022-07-31T08:07:33.000Z</time>
      </trkpt>
      <trkpt lat="47.28325" lon="-2.27967">
        <ele>10</ele>
        <time>2022-07-31T08:07:37.000Z</time>
      </trkpt>
      <trkpt lat="47.28319" lon="-2.27984">
        <ele>10</ele>
        <time>2022-07-31T08:07:40.000Z</time>
      </trkpt>
      <trkpt lat="47.28323" lon="-2.27999">
        <ele>10</ele>
        <time>2022-07-31T08:07:43.000Z</time>
      </trkpt>
      <trkpt lat="47.28324" lon="-2.28005">
        <ele>10</ele>
        <time>2022-07-31T08:07:44.000Z</time>
      </trkpt>
      <trkpt lat="47.28324" lon="-2.2802">
        <ele>10</ele>
        <time>2022-07-31T08:07:46.000Z</time>
      </trkpt>
      <trkpt lat="47.28324" lon="-2.28028">
        <ele>9.6000003814697</ele>
        <time>2022-07-31T08:07:47.000Z</time>
      </trkpt>
      <trkpt lat="47.28325" lon="-2.28037">
        <ele>9.1999998092651</ele>
        <time>2022-07-31T08:07:48.000Z</time>
      </trkpt>
      <trkpt lat="47.28325" lon="-2.28046">
        <ele>8.8000001907349</ele>
        <time>2022-07-31T08:07:49.000Z</time>
      </trkpt>
      <trkpt lat="47.28326" lon="-2.28053">
        <ele>8.3999996185303</ele>
        <time>2022-07-31T08:07:50.000Z</time>
      </trkpt>
      <trkpt lat="47.28326" lon="-2.2806">
        <ele>7.8000001907349</ele>
        <time>2022-07-31T08:07:51.000Z</time>
      </trkpt>
      <trkpt lat="47.28327" lon="-2.28065">
        <ele>7.1999998092651</ele>
        <time>2022-07-31T08:07:52.000Z</time>
      </trkpt>
      <trkpt lat="47.28327" lon="-2.2807">
        <ele>6.8000001907349</ele>
        <time>2022-07-31T08:07:53.000Z</time>
      </trkpt>
      <trkpt lat="47.28326" lon="-2.28075">
        <ele>6.1999998092651</ele>
        <time>2022-07-31T08:07:54.000Z</time>
      </trkpt>
      <trkpt lat="47.28326" lon="-2.28078">
        <ele>5.5999999046326</ele>
        <time>2022-07-31T08:07:55.000Z</time>
      </trkpt>
      <trkpt lat="47.28325" lon="-2.2808">
        <ele>5.5999999046326</ele>
        <time>2022-07-31T08:07:57.000Z</time>
      </trkpt>
      <trkpt lat="47.28326" lon="-2.28083">
        <ele>5.5999999046326</ele>
        <time>2022-07-31T08:08:16.000Z</time>
      </trkpt>
      <trkpt lat="47.28327" lon="-2.28085">
        <ele>5.5999999046326</ele>
        <time>2022-07-31T08:08:17.000Z</time>
      </trkpt>
      <trkpt lat="47.2833" lon="-2.28089">
        <ele>5.1999998092651</ele>
        <time>2022-07-31T08:08:20.000Z</time>
      </trkpt>
      <trkpt lat="47.28331" lon="-2.28089">
        <ele>4.4000000953674</ele>
        <time>2022-07-31T08:08:21.000Z</time>
      </trkpt>
      <trkpt lat="47.28332" lon="-2.28088">
        <ele>4</ele>
        <time>2022-07-31T08:08:22.000Z</time>
      </trkpt>
      <trkpt lat="47.28334" lon="-2.28088">
        <ele>3.5999999046326</ele>
        <time>2022-07-31T08:08:23.000Z</time>
      </trkpt>
      <trkpt lat="47.28354" lon="-2.28087">
        <ele>3.5999999046326</ele>
        <time>2022-07-31T08:08:31.000Z</time>
      </trkpt>
      <trkpt lat="47.28359" lon="-2.28084">
        <ele>3.5999999046326</ele>
        <time>2022-07-31T08:08:32.000Z</time>
      </trkpt>
      <trkpt lat="47.28364" lon="-2.28077">
        <ele>3.5999999046326</ele>
        <time>2022-07-31T08:08:35.000Z</time>
      </trkpt>
      <trkpt lat="47.28365" lon="-2.28076">
        <ele>3.5999999046326</ele>
        <time>2022-07-31T08:08:36.000Z</time>
      </trkpt>
      <trkpt lat="47.2837" lon="-2.28075">
        <ele>3.5999999046326</ele>
        <time>2022-07-31T08:08:39.000Z</time>
      </trkpt>
      <trkpt lat="47.28376" lon="-2.28074">
        <ele>3.5999999046326</ele>
        <time>2022-07-31T08:08:42.000Z</time>
      </trkpt>
      <trkpt lat="47.2838" lon="-2.28074">
        <ele>3.5999999046326</ele>
        <time>2022-07-31T08:08:44.000Z</time>
      </trkpt>
      <trkpt lat="47.28389" lon="-2.28074">
        <ele>3.5999999046326</ele>
        <time>2022-07-31T08:08:48.000Z</time>
      </trkpt>
      <trkpt lat="47.284" lon="-2.28076">
        <ele>3.5999999046326</ele>
        <time>2022-07-31T08:08:53.000Z</time>
      </trkpt>
      <trkpt lat="47.28413" lon="-2.2808">
        <ele>3.5999999046326</ele>
        <time>2022-07-31T08:08:57.000Z</time>
      </trkpt>
      <trkpt lat="47.28428" lon="-2.28083">
        <ele>3.5999999046326</ele>
        <time>2022-07-31T08:09:02.000Z</time>
      </trkpt>
      <trkpt lat="47.28434" lon="-2.28081">
        <ele>4</ele>
        <time>2022-07-31T08:09:04.000Z</time>
      </trkpt>
      <trkpt lat="47.28436" lon="-2.28082">
        <ele>4.4000000953674</ele>
        <time>2022-07-31T08:09:05.000Z</time>
      </trkpt>
      <trkpt lat="47.28439" lon="-2.28083">
        <ele>5</ele>
        <time>2022-07-31T08:09:06.000Z</time>
      </trkpt>
      <trkpt lat="47.28441" lon="-2.28084">
        <ele>5.4000000953674</ele>
        <time>2022-07-31T08:09:07.000Z</time>
      </trkpt>
      <trkpt lat="47.28446" lon="-2.28085">
        <ele>5.8000001907349</ele>
        <time>2022-07-31T08:09:08.000Z</time>
      </trkpt>
      <trkpt lat="47.28452" lon="-2.28089">
        <ele>5.8000001907349</ele>
        <time>2022-07-31T08:09:10.000Z</time>
      </trkpt>
      <trkpt lat="47.2846" lon="-2.28094">
        <ele>5.8000001907349</ele>
        <time>2022-07-31T08:09:13.000Z</time>
      </trkpt>
      <trkpt lat="47.28463" lon="-2.28094">
        <ele>5.8000001907349</ele>
        <time>2022-07-31T08:09:14.000Z</time>
      </trkpt>
      <trkpt lat="47.28465" lon="-2.28092">
        <ele>5.8000001907349</ele>
        <time>2022-07-31T08:09:15.000Z</time>
      </trkpt>
      <trkpt lat="47.28479" lon="-2.28085">
        <ele>5.8000001907349</ele>
        <time>2022-07-31T08:09:19.000Z</time>
      </trkpt>
      <trkpt lat="47.28483" lon="-2.28076">
        <ele>5.8000001907349</ele>
        <time>2022-07-31T08:09:22.000Z</time>
      </trkpt>
      <trkpt lat="47.28477" lon="-2.28062">
        <ele>6.1999998092651</ele>
        <time>2022-07-31T08:09:27.000Z</time>
      </trkpt>
      <trkpt lat="47.28476" lon="-2.28058">
        <ele>6.5999999046326</ele>
        <time>2022-07-31T08:09:28.000Z</time>
      </trkpt>
      <trkpt lat="47.28476" lon="-2.28054">
        <ele>7</ele>
        <time>2022-07-31T08:09:29.000Z</time>
      </trkpt>
      <trkpt lat="47.28478" lon="-2.28052">
        <ele>7.4000000953674</ele>
        <time>2022-07-31T08:09:30.000Z</time>
      </trkpt>
      <trkpt lat="47.28481" lon="-2.28049">
        <ele>7.8000001907349</ele>
        <time>2022-07-31T08:09:31.000Z</time>
      </trkpt>
      <trkpt lat="47.2849" lon="-2.28041">
        <ele>7.8000001907349</ele>
        <time>2022-07-31T08:09:35.000Z</time>
      </trkpt>
      <trkpt lat="47.28492" lon="-2.28042">
        <ele>7.8000001907349</ele>
        <time>2022-07-31T08:09:36.000Z</time>
      </trkpt>
      <trkpt lat="47.28494" lon="-2.28042">
        <ele>7.8000001907349</ele>
        <time>2022-07-31T08:09:37.000Z</time>
      </trkpt>
      <trkpt lat="47.28497" lon="-2.28049">
        <ele>7.8000001907349</ele>
        <time>2022-07-31T08:09:40.000Z</time>
      </trkpt>
      <trkpt lat="47.28501" lon="-2.28051">
        <ele>7.4000000953674</ele>
        <time>2022-07-31T08:09:42.000Z</time>
      </trkpt>
      <trkpt lat="47.28503" lon="-2.28051">
        <ele>7</ele>
        <time>2022-07-31T08:09:43.000Z</time>
      </trkpt>
      <trkpt lat="47.28506" lon="-2.28052">
        <ele>6.5999999046326</ele>
        <time>2022-07-31T08:09:44.000Z</time>
      </trkpt>
      <trkpt lat="47.2851" lon="-2.28053">
        <ele>6.1999998092651</ele>
        <time>2022-07-31T08:09:45.000Z</time>
      </trkpt>
      <trkpt lat="47.28513" lon="-2.28053">
        <ele>5.8000001907349</ele>
        <time>2022-07-31T08:09:46.000Z</time>
      </trkpt>
      <trkpt lat="47.2852" lon="-2.28052">
        <ele>5.1999998092651</ele>
        <time>2022-07-31T08:09:47.000Z</time>
      </trkpt>
      <trkpt lat="47.28528" lon="-2.28054">
        <ele>4.5999999046326</ele>
        <time>2022-07-31T08:09:48.000Z</time>
      </trkpt>
      <trkpt lat="47.28532" lon="-2.28055">
        <ele>4.1999998092651</ele>
        <time>2022-07-31T08:09:49.000Z</time>
      </trkpt>
      <trkpt lat="47.28539" lon="-2.28057">
        <ele>3.5999999046326</ele>
        <time>2022-07-31T08:09:50.000Z</time>
      </trkpt>
      <trkpt lat="47.28544" lon="-2.28056">
        <ele>3.2000000476837</ele>
        <time>2022-07-31T08:09:51.000Z</time>
      </trkpt>
      <trkpt lat="47.28549" lon="-2.28055">
        <ele>2.5999999046326</ele>
        <time>2022-07-31T08:09:52.000Z</time>
      </trkpt>
      <trkpt lat="47.28552" lon="-2.28053">
        <ele>2.2000000476837</ele>
        <time>2022-07-31T08:09:53.000Z</time>
      </trkpt>
      <trkpt lat="47.28559" lon="-2.28052">
        <ele>1.6000000238419</ele>
        <time>2022-07-31T08:09:54.000Z</time>
      </trkpt>
      <trkpt lat="47.28569" lon="-2.28045">
        <ele>1.6000000238419</ele>
        <time>2022-07-31T08:09:56.000Z</time>
      </trkpt>
      <trkpt lat="47.28574" lon="-2.28041">
        <ele>1.6000000238419</ele>
        <time>2022-07-31T08:09:57.000Z</time>
      </trkpt>
      <trkpt lat="47.28585" lon="-2.28031">
        <ele>1.6000000238419</ele>
        <time>2022-07-31T08:10:01.000Z</time>
      </trkpt>
      <trkpt lat="47.28594" lon="-2.28016">
        <ele>1.6000000238419</ele>
        <time>2022-07-31T08:10:04.000Z</time>
      </trkpt>
      <trkpt lat="47.28597" lon="-2.2801">
        <ele>1.6000000238419</ele>
        <time>2022-07-31T08:10:05.000Z</time>
      </trkpt>
      <trkpt lat="47.28604" lon="-2.27988">
        <ele>1.6000000238419</ele>
        <time>2022-07-31T08:10:08.000Z</time>
      </trkpt>
      <trkpt lat="47.28605" lon="-2.27981">
        <ele>1.6000000238419</ele>
        <time>2022-07-31T08:10:09.000Z</time>
      </trkpt>
      <trkpt lat="47.28609" lon="-2.27968">
        <ele>1.6000000238419</ele>
        <time>2022-07-31T08:10:11.000Z</time>
      </trkpt>
      <trkpt lat="47.28617" lon="-2.27957">
        <ele>1.6000000238419</ele>
        <time>2022-07-31T08:10:13.000Z</time>
      </trkpt>
      <trkpt lat="47.28622" lon="-2.27953">
        <ele>1.2000000476837</ele>
        <time>2022-07-31T08:10:16.000Z</time>
      </trkpt>
      <trkpt lat="47.28622" lon="-2.27953">
        <ele>0.80000001192093</ele>
        <time>2022-07-31T08:10:17.000Z</time>
      </trkpt>
      <trkpt lat="47.28622" lon="-2.27953">
        <ele>0.40000000596046</ele>
        <time>2022-07-31T08:10:18.000Z</time>
      </trkpt>
      <trkpt lat="47.28624" lon="-2.27949">
        <ele>-0.40000000596046</ele>
        <time>2022-07-31T08:12:25.000Z</time>
      </trkpt>
      <trkpt lat="47.28624" lon="-2.27946">
        <ele>-0.40000000596046</ele>
        <time>2022-07-31T08:12:26.000Z</time>
      </trkpt>
      <trkpt lat="47.28626" lon="-2.2793">
        <ele>-0.40000000596046</ele>
        <time>2022-07-31T08:12:30.000Z</time>
      </trkpt>
      <trkpt lat="47.2863" lon="-2.27903">
        <ele>-0.40000000596046</ele>
        <time>2022-07-31T08:12:35.000Z</time>
      </trkpt>
      <trkpt lat="47.28636" lon="-2.27864">
        <ele>-0.40000000596046</ele>
        <time>2022-07-31T08:12:41.000Z</time>
      </trkpt>
      <trkpt lat="47.28644" lon="-2.27819">
        <ele>-0.40000000596046</ele>
        <time>2022-07-31T08:12:48.000Z</time>
      </trkpt>
      <trkpt lat="47.28645" lon="-2.27812">
        <ele>-0.40000000596046</ele>
        <time>2022-07-31T08:12:49.000Z</time>
      </trkpt>
      <trkpt lat="47.28654" lon="-2.27777">
        <ele>-0.40000000596046</ele>
        <time>2022-07-31T08:12:54.000Z</time>
      </trkpt>
      <trkpt lat="47.28659" lon="-2.27763">
        <ele>-0.40000000596046</ele>
        <time>2022-07-31T08:12:56.000Z</time>
      </trkpt>
      <trkpt lat="47.28666" lon="-2.2775">
        <ele>-0.40000000596046</ele>
        <time>2022-07-31T08:12:58.000Z</time>
      </trkpt>
      <trkpt lat="47.2867" lon="-2.27744">
        <ele>-0.40000000596046</ele>
        <time>2022-07-31T08:12:59.000Z</time>
      </trkpt>
      <trkpt lat="47.28691" lon="-2.27706">
        <ele>-0.40000000596046</ele>
        <time>2022-07-31T08:13:05.000Z</time>
      </trkpt>
      <trkpt lat="47.28716" lon="-2.27662">
        <ele>-0.40000000596046</ele>
        <time>2022-07-31T08:13:12.000Z</time>
      </trkpt>
      <trkpt lat="47.28731" lon="-2.27637">
        <ele>-0.80000001192093</ele>
        <time>2022-07-31T08:13:16.000Z</time>
      </trkpt>
      <trkpt lat="47.28736" lon="-2.27631">
        <ele>-1.3999999761581</ele>
        <time>2022-07-31T08:13:17.000Z</time>
      </trkpt>
      <trkpt lat="47.2874" lon="-2.27625">
        <ele>-1.7999999523163</ele>
        <time>2022-07-31T08:13:18.000Z</time>
      </trkpt>
      <trkpt lat="47.28744" lon="-2.27619">
        <ele>-2.5999999046326</ele>
        <time>2022-07-31T08:13:19.000Z</time>
      </trkpt>
      <trkpt lat="47.28769" lon="-2.27585">
        <ele>-2.5999999046326</ele>
        <time>2022-07-31T08:13:25.000Z</time>
      </trkpt>
      <trkpt lat="47.28789" lon="-2.2756">
        <ele>-2.5999999046326</ele>
        <time>2022-07-31T08:13:30.000Z</time>
      </trkpt>
      <trkpt lat="47.28798" lon="-2.27548">
        <ele>-2.5999999046326</ele>
        <time>2022-07-31T08:13:34.000Z</time>
      </trkpt>
      <trkpt lat="47.28811" lon="-2.27538">
        <ele>-2.5999999046326</ele>
        <time>2022-07-31T08:13:37.000Z</time>
      </trkpt>
      <trkpt lat="47.28816" lon="-2.27537">
        <ele>-2.5999999046326</ele>
        <time>2022-07-31T08:13:38.000Z</time>
      </trkpt>
      <trkpt lat="47.28855" lon="-2.2753">
        <ele>-2.5999999046326</ele>
        <time>2022-07-31T08:13:46.000Z</time>
      </trkpt>
      <trkpt lat="47.28886" lon="-2.27524">
        <ele>-2.5999999046326</ele>
        <time>2022-07-31T08:13:52.000Z</time>
      </trkpt>
      <trkpt lat="47.28916" lon="-2.27521">
        <ele>-2.5999999046326</ele>
        <time>2022-07-31T08:13:57.000Z</time>
      </trkpt>
      <trkpt lat="47.28955" lon="-2.27518">
        <ele>-2.5999999046326</ele>
        <time>2022-07-31T08:14:03.000Z</time>
      </trkpt>
      <trkpt lat="47.28986" lon="-2.27518">
        <ele>-2.5999999046326</ele>
        <time>2022-07-31T08:14:08.000Z</time>
      </trkpt>
      <trkpt lat="47.29031" lon="-2.27519">
        <ele>-2.5999999046326</ele>
        <time>2022-07-31T08:14:15.000Z</time>
      </trkpt>
      <trkpt lat="47.29076" lon="-2.27524">
        <ele>-2.5999999046326</ele>
        <time>2022-07-31T08:14:22.000Z</time>
      </trkpt>
      <trkpt lat="47.29088" lon="-2.27527">
        <ele>-2.5999999046326</ele>
        <time>2022-07-31T08:14:24.000Z</time>
      </trkpt>
      <trkpt lat="47.29098" lon="-2.27527">
        <ele>-2.5999999046326</ele>
        <time>2022-07-31T08:14:26.000Z</time>
      </trkpt>
      <trkpt lat="47.29102" lon="-2.27525">
        <ele>-2.5999999046326</ele>
        <time>2022-07-31T08:14:27.000Z</time>
      </trkpt>
      <trkpt lat="47.29105" lon="-2.27507">
        <ele>-2.5999999046326</ele>
        <time>2022-07-31T08:14:30.000Z</time>
      </trkpt>
      <trkpt lat="47.29104" lon="-2.27493">
        <ele>-2.5999999046326</ele>
        <time>2022-07-31T08:14:32.000Z</time>
      </trkpt>
      <trkpt lat="47.29106" lon="-2.27453">
        <ele>-2.5999999046326</ele>
        <time>2022-07-31T08:14:37.000Z</time>
      </trkpt>
      <trkpt lat="47.29107" lon="-2.27417">
        <ele>-2.5999999046326</ele>
        <time>2022-07-31T08:14:41.000Z</time>
      </trkpt>
      <trkpt lat="47.29106" lon="-2.27408">
        <ele>-2.5999999046326</ele>
        <time>2022-07-31T08:14:42.000Z</time>
      </trkpt>
      <trkpt lat="47.291" lon="-2.27376">
        <ele>-2.5999999046326</ele>
        <time>2022-07-31T08:14:46.000Z</time>
      </trkpt>
      <trkpt lat="47.29099" lon="-2.2737">
        <ele>-3</ele>
        <time>2022-07-31T08:14:47.000Z</time>
      </trkpt>
      <trkpt lat="47.29097" lon="-2.27365">
        <ele>-3.4000000953674</ele>
        <time>2022-07-31T08:14:48.000Z</time>
      </trkpt>
      <trkpt lat="47.29095" lon="-2.27362">
        <ele>-3.7999999523163</ele>
        <time>2022-07-31T08:14:49.000Z</time>
      </trkpt>
      <trkpt lat="47.29093" lon="-2.2736">
        <ele>-4.1999998092651</ele>
        <time>2022-07-31T08:14:50.000Z</time>
      </trkpt>
      <trkpt lat="47.29092" lon="-2.27355">
        <ele>-4.5999999046326</ele>
        <time>2022-07-31T08:14:51.000Z</time>
      </trkpt>
      <trkpt lat="47.29092" lon="-2.27346">
        <ele>-4.5999999046326</ele>
        <time>2022-07-31T08:14:53.000Z</time>
      </trkpt>
      <trkpt lat="47.29094" lon="-2.27325">
        <ele>-4.5999999046326</ele>
        <time>2022-07-31T08:14:57.000Z</time>
      </trkpt>
      <trkpt lat="47.29096" lon="-2.27313">
        <ele>-4.5999999046326</ele>
        <time>2022-07-31T08:14:59.000Z</time>
      </trkpt>
      <trkpt lat="47.29098" lon="-2.27302">
        <ele>-4.5999999046326</ele>
        <time>2022-07-31T08:15:01.000Z</time>
      </trkpt>
      <trkpt lat="47.29101" lon="-2.27289">
        <ele>-4.5999999046326</ele>
        <time>2022-07-31T08:15:03.000Z</time>
      </trkpt>
      <trkpt lat="47.29101" lon="-2.27277">
        <ele>-4.5999999046326</ele>
        <time>2022-07-31T08:15:05.000Z</time>
      </trkpt>
      <trkpt lat="47.29106" lon="-2.27252">
        <ele>-4.5999999046326</ele>
        <time>2022-07-31T08:15:09.000Z</time>
      </trkpt>
      <trkpt lat="47.29109" lon="-2.2723">
        <ele>-4.5999999046326</ele>
        <time>2022-07-31T08:15:13.000Z</time>
      </trkpt>
      <trkpt lat="47.29112" lon="-2.27218">
        <ele>-4.5999999046326</ele>
        <time>2022-07-31T08:15:17.000Z</time>
      </trkpt>
      <trkpt lat="47.29111" lon="-2.27213">
        <ele>-4.5999999046326</ele>
        <time>2022-07-31T08:15:21.000Z</time>
      </trkpt>
      <trkpt lat="47.29109" lon="-2.27213">
        <ele>-4.5999999046326</ele>
        <time>2022-07-31T08:15:22.000Z</time>
      </trkpt>
      <trkpt lat="47.29103" lon="-2.27212">
        <ele>-4.5999999046326</ele>
        <time>2022-07-31T08:15:25.000Z</time>
      </trkpt>
      <trkpt lat="47.29094" lon="-2.27211">
        <ele>-4.5999999046326</ele>
        <time>2022-07-31T08:15:28.000Z</time>
      </trkpt>
      <trkpt lat="47.29086" lon="-2.27209">
        <ele>-4.5999999046326</ele>
        <time>2022-07-31T08:15:30.000Z</time>
      </trkpt>
      <trkpt lat="47.29079" lon="-2.27203">
        <ele>-4.5999999046326</ele>
        <time>2022-07-31T08:15:32.000Z</time>
      </trkpt>
      <trkpt lat="47.29071" lon="-2.27197">
        <ele>-4.5999999046326</ele>
        <time>2022-07-31T08:15:35.000Z</time>
      </trkpt>
      <trkpt lat="47.29063" lon="-2.27178">
        <ele>-4.5999999046326</ele>
        <time>2022-07-31T08:15:39.000Z</time>
      </trkpt>
      <trkpt lat="47.29059" lon="-2.27172">
        <ele>-4.5999999046326</ele>
        <time>2022-07-31T08:15:40.000Z</time>
      </trkpt>
      <trkpt lat="47.29045" lon="-2.27157">
        <ele>-4.5999999046326</ele>
        <time>2022-07-31T08:15:43.000Z</time>
      </trkpt>
      <trkpt lat="47.2904" lon="-2.27153">
        <ele>-4.5999999046326</ele>
        <time>2022-07-31T08:15:44.000Z</time>
      </trkpt>
      <trkpt lat="47.29031" lon="-2.27139">
        <ele>-4.5999999046326</ele>
        <time>2022-07-31T08:15:47.000Z</time>
      </trkpt>
      <trkpt lat="47.29029" lon="-2.27132">
        <ele>-4.5999999046326</ele>
        <time>2022-07-31T08:15:48.000Z</time>
      </trkpt>
      <trkpt lat="47.29029" lon="-2.27121">
        <ele>-4.5999999046326</ele>
        <time>2022-07-31T08:15:50.000Z</time>
      </trkpt>
      <trkpt lat="47.29038" lon="-2.27111">
        <ele>-4.5999999046326</ele>
        <time>2022-07-31T08:15:53.000Z</time>
      </trkpt>
      <trkpt lat="47.29045" lon="-2.27108">
        <ele>-4.5999999046326</ele>
        <time>2022-07-31T08:15:55.000Z</time>
      </trkpt>
      <trkpt lat="47.29048" lon="-2.27104">
        <ele>-4.5999999046326</ele>
        <time>2022-07-31T08:15:56.000Z</time>
      </trkpt>
      <trkpt lat="47.29053" lon="-2.27095">
        <ele>-4.5999999046326</ele>
        <time>2022-07-31T08:15:58.000Z</time>
      </trkpt>
      <trkpt lat="47.29057" lon="-2.27075">
        <ele>-4.5999999046326</ele>
        <time>2022-07-31T08:16:01.000Z</time>
      </trkpt>
      <trkpt lat="47.29058" lon="-2.2707">
        <ele>-4.5999999046326</ele>
        <time>2022-07-31T08:16:02.000Z</time>
      </trkpt>
      <trkpt lat="47.29057" lon="-2.27058">
        <ele>-4.5999999046326</ele>
        <time>2022-07-31T08:16:05.000Z</time>
      </trkpt>
      <trkpt lat="47.29057" lon="-2.27057">
        <ele>-4.5999999046326</ele>
        <time>2022-07-31T08:16:06.000Z</time>
      </trkpt>
      <trkpt lat="47.29056" lon="-2.27052">
        <ele>-4.5999999046326</ele>
        <time>2022-07-31T08:16:08.000Z</time>
      </trkpt>
      <trkpt lat="47.29054" lon="-2.27042">
        <ele>-4.5999999046326</ele>
        <time>2022-07-31T08:16:10.000Z</time>
      </trkpt>
      <trkpt lat="47.29053" lon="-2.27029">
        <ele>-4.5999999046326</ele>
        <time>2022-07-31T08:16:12.000Z</time>
      </trkpt>
      <trkpt lat="47.29054" lon="-2.27014">
        <ele>-4.5999999046326</ele>
        <time>2022-07-31T08:16:14.000Z</time>
      </trkpt>
      <trkpt lat="47.29054" lon="-2.27007">
        <ele>-4.5999999046326</ele>
        <time>2022-07-31T08:16:15.000Z</time>
      </trkpt>
      <trkpt lat="47.29056" lon="-2.26972">
        <ele>-4.5999999046326</ele>
        <time>2022-07-31T08:16:19.000Z</time>
      </trkpt>
      <trkpt lat="47.29059" lon="-2.26906">
        <ele>-4.5999999046326</ele>
        <time>2022-07-31T08:16:26.000Z</time>
      </trkpt>
      <trkpt lat="47.29061" lon="-2.26848">
        <ele>-4.5999999046326</ele>
        <time>2022-07-31T08:16:32.000Z</time>
      </trkpt>
      <trkpt lat="47.29061" lon="-2.26789">
        <ele>-4.5999999046326</ele>
        <time>2022-07-31T08:16:38.000Z</time>
      </trkpt>
      <trkpt lat="47.29054" lon="-2.26731">
        <ele>-4.5999999046326</ele>
        <time>2022-07-31T08:16:45.000Z</time>
      </trkpt>
      <trkpt lat="47.29053" lon="-2.26723">
        <ele>-4.1999998092651</ele>
        <time>2022-07-31T08:16:46.000Z</time>
      </trkpt>
      <trkpt lat="47.29052" lon="-2.26715">
        <ele>-3.7999999523163</ele>
        <time>2022-07-31T08:16:47.000Z</time>
      </trkpt>
      <trkpt lat="47.29051" lon="-2.26708">
        <ele>-3.2000000476837</ele>
        <time>2022-07-31T08:16:48.000Z</time>
      </trkpt>
      <trkpt lat="47.2905" lon="-2.26699">
        <ele>-2.7999999523163</ele>
        <time>2022-07-31T08:16:50.000Z</time>
      </trkpt>
      <trkpt lat="47.2905" lon="-2.26691">
        <ele>-2.4000000953674</ele>
        <time>2022-07-31T08:16:51.000Z</time>
      </trkpt>
      <trkpt lat="47.29049" lon="-2.26677">
        <ele>-2</ele>
        <time>2022-07-31T08:16:53.000Z</time>
      </trkpt>
      <trkpt lat="47.29049" lon="-2.2667">
        <ele>-1.6000000238419</ele>
        <time>2022-07-31T08:16:54.000Z</time>
      </trkpt>
      <trkpt lat="47.29049" lon="-2.26662">
        <ele>-1</ele>
        <time>2022-07-31T08:16:55.000Z</time>
      </trkpt>
      <trkpt lat="47.29048" lon="-2.26654">
        <ele>-0.60000002384186</ele>
        <time>2022-07-31T08:16:56.000Z</time>
      </trkpt>
      <trkpt lat="47.29048" lon="-2.26647">
        <ele>-0.20000000298023</ele>
        <time>2022-07-31T08:16:57.000Z</time>
      </trkpt>
      <trkpt lat="47.29047" lon="-2.26632">
        <ele>-0.20000000298023</ele>
        <time>2022-07-31T08:16:59.000Z</time>
      </trkpt>
      <trkpt lat="47.29045" lon="-2.26613">
        <ele>0.20000000298023</ele>
        <time>2022-07-31T08:17:02.000Z</time>
      </trkpt>
      <trkpt lat="47.29045" lon="-2.26607">
        <ele>0.60000002384186</ele>
        <time>2022-07-31T08:17:03.000Z</time>
      </trkpt>
      <trkpt lat="47.29044" lon="-2.26602">
        <ele>1</ele>
        <time>2022-07-31T08:17:04.000Z</time>
      </trkpt>
      <trkpt lat="47.29044" lon="-2.26597">
        <ele>1.3999999761581</ele>
        <time>2022-07-31T08:17:05.000Z</time>
      </trkpt>
      <trkpt lat="47.29043" lon="-2.26594">
        <ele>1.7999999523163</ele>
        <time>2022-07-31T08:17:06.000Z</time>
      </trkpt>
      <trkpt lat="47.29039" lon="-2.26567">
        <ele>1.7999999523163</ele>
        <time>2022-07-31T08:17:11.000Z</time>
      </trkpt>
      <trkpt lat="47.29029" lon="-2.26522">
        <ele>1.7999999523163</ele>
        <time>2022-07-31T08:17:17.000Z</time>
      </trkpt>
      <trkpt lat="47.29018" lon="-2.26459">
        <ele>1.7999999523163</ele>
        <time>2022-07-31T08:17:25.000Z</time>
      </trkpt>
      <trkpt lat="47.29014" lon="-2.26418">
        <ele>2.2000000476837</ele>
        <time>2022-07-31T08:17:31.000Z</time>
      </trkpt>
      <trkpt lat="47.29013" lon="-2.26412">
        <ele>2.7999999523163</ele>
        <time>2022-07-31T08:17:32.000Z</time>
      </trkpt>
      <trkpt lat="47.29013" lon="-2.26405">
        <ele>3.2000000476837</ele>
        <time>2022-07-31T08:17:33.000Z</time>
      </trkpt>
      <trkpt lat="47.29013" lon="-2.26399">
        <ele>3.5999999046326</ele>
        <time>2022-07-31T08:17:34.000Z</time>
      </trkpt>
      <trkpt lat="47.29013" lon="-2.26392">
        <ele>4.1999998092651</ele>
        <time>2022-07-31T08:17:35.000Z</time>
      </trkpt>
      <trkpt lat="47.29014" lon="-2.26386">
        <ele>4.1999998092651</ele>
        <time>2022-07-31T08:17:36.000Z</time>
      </trkpt>
      <trkpt lat="47.29016" lon="-2.2638">
        <ele>4.1999998092651</ele>
        <time>2022-07-31T08:17:37.000Z</time>
      </trkpt>
      <trkpt lat="47.29028" lon="-2.26359">
        <ele>4.1999998092651</ele>
        <time>2022-07-31T08:17:42.000Z</time>
      </trkpt>
      <trkpt lat="47.29035" lon="-2.26353">
        <ele>4.1999998092651</ele>
        <time>2022-07-31T08:17:44.000Z</time>
      </trkpt>
      <trkpt lat="47.29048" lon="-2.26341">
        <ele>4.1999998092651</ele>
        <time>2022-07-31T08:17:48.000Z</time>
      </trkpt>
      <trkpt lat="47.29065" lon="-2.26315">
        <ele>4.1999998092651</ele>
        <time>2022-07-31T08:17:55.000Z</time>
      </trkpt>
      <trkpt lat="47.29072" lon="-2.26288">
        <ele>4.1999998092651</ele>
        <time>2022-07-31T08:18:01.000Z</time>
      </trkpt>
      <trkpt lat="47.29081" lon="-2.26244">
        <ele>4.1999998092651</ele>
        <time>2022-07-31T08:18:09.000Z</time>
      </trkpt>
      <trkpt lat="47.29087" lon="-2.26206">
        <ele>4.1999998092651</ele>
        <time>2022-07-31T08:18:16.000Z</time>
      </trkpt>
      <trkpt lat="47.29094" lon="-2.26166">
        <ele>4.1999998092651</ele>
        <time>2022-07-31T08:18:24.000Z</time>
      </trkpt>
      <trkpt lat="47.291" lon="-2.26124">
        <ele>4.1999998092651</ele>
        <time>2022-07-31T08:18:33.000Z</time>
      </trkpt>
      <trkpt lat="47.29103" lon="-2.26088">
        <ele>4.1999998092651</ele>
        <time>2022-07-31T08:18:40.000Z</time>
      </trkpt>
      <trkpt lat="47.29104" lon="-2.26082">
        <ele>4.1999998092651</ele>
        <time>2022-07-31T08:18:41.000Z</time>
      </trkpt>
      <trkpt lat="47.29104" lon="-2.26069">
        <ele>4.1999998092651</ele>
        <time>2022-07-31T08:18:43.000Z</time>
      </trkpt>
      <trkpt lat="47.291" lon="-2.26058">
        <ele>4.1999998092651</ele>
        <time>2022-07-31T08:18:45.000Z</time>
      </trkpt>
      <trkpt lat="47.29098" lon="-2.26047">
        <ele>4.1999998092651</ele>
        <time>2022-07-31T08:18:47.000Z</time>
      </trkpt>
      <trkpt lat="47.29095" lon="-2.26032">
        <ele>4.1999998092651</ele>
        <time>2022-07-31T08:18:50.000Z</time>
      </trkpt>
      <trkpt lat="47.29091" lon="-2.26021">
        <ele>4.1999998092651</ele>
        <time>2022-07-31T08:18:52.000Z</time>
      </trkpt>
      <trkpt lat="47.29088" lon="-2.26004">
        <ele>4.1999998092651</ele>
        <time>2022-07-31T08:18:55.000Z</time>
      </trkpt>
      <trkpt lat="47.29095" lon="-2.25988">
        <ele>4.1999998092651</ele>
        <time>2022-07-31T08:18:58.000Z</time>
      </trkpt>
      <trkpt lat="47.29117" lon="-2.25972">
        <ele>4.1999998092651</ele>
        <time>2022-07-31T08:19:03.000Z</time>
      </trkpt>
      <trkpt lat="47.29122" lon="-2.25972">
        <ele>3.5999999046326</ele>
        <time>2022-07-31T08:19:04.000Z</time>
      </trkpt>
      <trkpt lat="47.29128" lon="-2.25972">
        <ele>2.7999999523163</ele>
        <time>2022-07-31T08:19:05.000Z</time>
      </trkpt>
      <trkpt lat="47.29134" lon="-2.25973">
        <ele>2.4000000953674</ele>
        <time>2022-07-31T08:19:06.000Z</time>
      </trkpt>
      <trkpt lat="47.2914" lon="-2.25974">
        <ele>2</ele>
        <time>2022-07-31T08:19:07.000Z</time>
      </trkpt>
      <trkpt lat="47.29156" lon="-2.25979">
        <ele>2</ele>
        <time>2022-07-31T08:19:10.000Z</time>
      </trkpt>
      <trkpt lat="47.29172" lon="-2.25979">
        <ele>2</ele>
        <time>2022-07-31T08:19:13.000Z</time>
      </trkpt>
      <trkpt lat="47.29181" lon="-2.25977">
        <ele>2</ele>
        <time>2022-07-31T08:19:15.000Z</time>
      </trkpt>
      <trkpt lat="47.29197" lon="-2.25975">
        <ele>2</ele>
        <time>2022-07-31T08:19:19.000Z</time>
      </trkpt>
      <trkpt lat="47.29217" lon="-2.2597">
        <ele>2</ele>
        <time>2022-07-31T08:19:24.000Z</time>
      </trkpt>
      <trkpt lat="47.2922" lon="-2.25967">
        <ele>2</ele>
        <time>2022-07-31T08:19:25.000Z</time>
      </trkpt>
      <trkpt lat="47.29234" lon="-2.25957">
        <ele>2</ele>
        <time>2022-07-31T08:19:30.000Z</time>
      </trkpt>
      <trkpt lat="47.29257" lon="-2.25948">
        <ele>2</ele>
        <time>2022-07-31T08:19:36.000Z</time>
      </trkpt>
      <trkpt lat="47.29274" lon="-2.25939">
        <ele>2</ele>
        <time>2022-07-31T08:19:41.000Z</time>
      </trkpt>
      <trkpt lat="47.29288" lon="-2.25929">
        <ele>2</ele>
        <time>2022-07-31T08:19:46.000Z</time>
      </trkpt>
      <trkpt lat="47.293" lon="-2.25911">
        <ele>2</ele>
        <time>2022-07-31T08:19:52.000Z</time>
      </trkpt>
      <trkpt lat="47.29294" lon="-2.25898">
        <ele>2</ele>
        <time>2022-07-31T08:19:56.000Z</time>
      </trkpt>
      <trkpt lat="47.29289" lon="-2.25876">
        <ele>2</ele>
        <time>2022-07-31T08:20:01.000Z</time>
      </trkpt>
      <trkpt lat="47.29291" lon="-2.25862">
        <ele>2</ele>
        <time>2022-07-31T08:20:05.000Z</time>
      </trkpt>
      <trkpt lat="47.29292" lon="-2.25863">
        <ele>2</ele>
        <time>2022-07-31T08:20:06.000Z</time>
      </trkpt>
      <trkpt lat="47.29301" lon="-2.25868">
        <ele>2</ele>
        <time>2022-07-31T08:20:10.000Z</time>
      </trkpt>
      <trkpt lat="47.29313" lon="-2.25882">
        <ele>2</ele>
        <time>2022-07-31T08:20:14.000Z</time>
      </trkpt>
      <trkpt lat="47.29316" lon="-2.25883">
        <ele>2</ele>
        <time>2022-07-31T08:20:15.000Z</time>
      </trkpt>
      <trkpt lat="47.29317" lon="-2.25878">
        <ele>2</ele>
        <time>2022-07-31T08:20:17.000Z</time>
      </trkpt>
      <trkpt lat="47.2931" lon="-2.25858">
        <ele>2</ele>
        <time>2022-07-31T08:20:23.000Z</time>
      </trkpt>
      <trkpt lat="47.29309" lon="-2.25849">
        <ele>2</ele>
        <time>2022-07-31T08:20:27.000Z</time>
      </trkpt>
      <trkpt lat="47.29312" lon="-2.25846">
        <ele>2</ele>
        <time>2022-07-31T08:20:30.000Z</time>
      </trkpt>
      <trkpt lat="47.29313" lon="-2.25846">
        <ele>2</ele>
        <time>2022-07-31T08:20:32.000Z</time>
      </trkpt>
      <trkpt lat="47.29324" lon="-2.25864">
        <ele>2</ele>
        <time>2022-07-31T08:23:05.000Z</time>
      </trkpt>
      <trkpt lat="47.29326" lon="-2.25872">
        <ele>2</ele>
        <time>2022-07-31T08:23:07.000Z</time>
      </trkpt>
      <trkpt lat="47.29334" lon="-2.25876">
        <ele>2</ele>
        <time>2022-07-31T08:23:10.000Z</time>
      </trkpt>
      <trkpt lat="47.29341" lon="-2.25876">
        <ele>1.2000000476837</ele>
        <time>2022-07-31T08:23:13.000Z</time>
      </trkpt>
      <trkpt lat="47.29342" lon="-2.25875">
        <ele>0.80000001192093</ele>
        <time>2022-07-31T08:23:14.000Z</time>
      </trkpt>
      <trkpt lat="47.29345" lon="-2.25874">
        <ele>0.40000000596046</ele>
        <time>2022-07-31T08:23:15.000Z</time>
      </trkpt>
      <trkpt lat="47.29346" lon="-2.25873">
        <ele>20.6</ele>
        <time>2022-07-31T08:23:16.000Z</time>
      </trkpt>
      <trkpt lat="47.29348" lon="-2.25872">
        <ele>20.6</ele>
        <time>2022-07-31T08:23:19.000Z</time>
      </trkpt>
      <trkpt lat="47.29354" lon="-2.25872">
        <ele>20.3</ele>
        <time>2022-07-31T08:23:22.000Z</time>
      </trkpt>
      <trkpt lat="47.29355" lon="-2.25867">
        <ele>20.3</ele>
        <time>2022-07-31T08:24:02.000Z</time>
      </trkpt>
      <trkpt lat="47.29355" lon="-2.25866">
        <ele>20.4</ele>
        <time>2022-07-31T08:24:03.000Z</time>
      </trkpt>
      <trkpt lat="47.29355" lon="-2.25858">
        <ele>20.5</ele>
        <time>2022-07-31T08:24:07.000Z</time>
      </trkpt>
      <trkpt lat="47.29357" lon="-2.25852">
        <ele>20.6</ele>
        <time>2022-07-31T08:24:09.000Z</time>
      </trkpt>
      <trkpt lat="47.29358" lon="-2.25849">
        <ele>20.6</ele>
        <time>2022-07-31T08:24:10.000Z</time>
      </trkpt>
      <trkpt lat="47.29363" lon="-2.25831">
        <ele>20.8</ele>
        <time>2022-07-31T08:24:14.000Z</time>
      </trkpt>
      <trkpt lat="47.29359" lon="-2.25818">
        <ele>20.5</ele>
        <time>2022-07-31T08:24:18.000Z</time>
      </trkpt>
      <trkpt lat="47.29358" lon="-2.25814">
        <ele>20.5</ele>
        <time>2022-07-31T08:24:19.000Z</time>
      </trkpt>
      <trkpt lat="47.2936" lon="-2.25806">
        <ele>20.1</ele>
        <time>2022-07-31T08:24:22.000Z</time>
      </trkpt>
      <trkpt lat="47.29362" lon="-2.25796">
        <ele>20</ele>
        <time>2022-07-31T08:24:25.000Z</time>
      </trkpt>
      <trkpt lat="47.29362" lon="-2.25788">
        <ele>20</ele>
        <time>2022-07-31T08:24:28.000Z</time>
      </trkpt>
      <trkpt lat="47.29364" lon="-2.25783">
        <ele>19.9</ele>
        <time>2022-07-31T08:24:30.000Z</time>
      </trkpt>
      <trkpt lat="47.29366" lon="-2.25782">
        <ele>19.8</ele>
        <time>2022-07-31T08:24:31.000Z</time>
      </trkpt>
      <trkpt lat="47.2937" lon="-2.25776">
        <ele>19.8</ele>
        <time>2022-07-31T08:24:33.000Z</time>
      </trkpt>
      <trkpt lat="47.29382" lon="-2.25763">
        <ele>19.8</ele>
        <time>2022-07-31T08:24:38.000Z</time>
      </trkpt>
      <trkpt lat="47.29392" lon="-2.25763">
        <ele>19.4</ele>
        <time>2022-07-31T08:24:42.000Z</time>
      </trkpt>
      <trkpt lat="47.29394" lon="-2.25763">
        <ele>19.3</ele>
        <time>2022-07-31T08:24:43.000Z</time>
      </trkpt>
      <trkpt lat="47.29405" lon="-2.25769">
        <ele>-0.40000000596046</ele>
        <time>2022-07-31T08:24:48.000Z</time>
      </trkpt>
      <trkpt lat="47.29407" lon="-2.2577">
        <ele>-0.80000001192093</ele>
        <time>2022-07-31T08:24:49.000Z</time>
      </trkpt>
      <trkpt lat="47.29408" lon="-2.25771">
        <ele>-1.2000000476837</ele>
        <time>2022-07-31T08:24:50.000Z</time>
      </trkpt>
      <trkpt lat="47.29409" lon="-2.25772">
        <ele>-1.7999999523163</ele>
        <time>2022-07-31T08:24:51.000Z</time>
      </trkpt>
      <trkpt lat="47.2941" lon="-2.25775">
        <ele>-2.2000000476837</ele>
        <time>2022-07-31T08:24:52.000Z</time>
      </trkpt>
      <trkpt lat="47.29411" lon="-2.25777">
        <ele>-2.2000000476837</ele>
        <time>2022-07-31T08:24:53.000Z</time>
      </trkpt>
      <trkpt lat="47.29411" lon="-2.25779">
        <ele>-2.2000000476837</ele>
        <time>2022-07-31T08:24:54.000Z</time>
      </trkpt>
      <trkpt lat="47.29416" lon="-2.25783">
        <ele>-2.2000000476837</ele>
        <time>2022-07-31T08:24:57.000Z</time>
      </trkpt>
      <trkpt lat="47.29419" lon="-2.25785">
        <ele>-2.2000000476837</ele>
        <time>2022-07-31T08:25:13.000Z</time>
      </trkpt>
      <trkpt lat="47.29424" lon="-2.25788">
        <ele>-2.2000000476837</ele>
        <time>2022-07-31T08:25:15.000Z</time>
      </trkpt>
      <trkpt lat="47.29427" lon="-2.25792">
        <ele>-2.5999999046326</ele>
        <time>2022-07-31T08:25:17.000Z</time>
      </trkpt>
      <trkpt lat="47.29428" lon="-2.25793">
        <ele>-3</ele>
        <time>2022-07-31T08:25:18.000Z</time>
      </trkpt>
      <trkpt lat="47.2943" lon="-2.25794">
        <ele>-3.4000000953674</ele>
        <time>2022-07-31T08:25:19.000Z</time>
      </trkpt>
      <trkpt lat="47.29433" lon="-2.25814">
        <ele>-4.4000000953674</ele>
        <time>2022-07-31T08:25:35.000Z</time>
      </trkpt>
      <trkpt lat="47.29433" lon="-2.25822">
        <ele>-4.4000000953674</ele>
        <time>2022-07-31T08:25:37.000Z</time>
      </trkpt>
      <trkpt lat="47.2943" lon="-2.25841">
        <ele>-4.4000000953674</ele>
        <time>2022-07-31T08:25:42.000Z</time>
      </trkpt>
      <trkpt lat="47.29428" lon="-2.25847">
        <ele>-4.4000000953674</ele>
        <time>2022-07-31T08:25:44.000Z</time>
      </trkpt>
      <trkpt lat="47.29429" lon="-2.25854">
        <ele>-4.4000000953674</ele>
        <time>2022-07-31T08:25:46.000Z</time>
      </trkpt>
      <trkpt lat="47.29436" lon="-2.25865">
        <ele>-4.4000000953674</ele>
        <time>2022-07-31T08:25:49.000Z</time>
      </trkpt>
      <trkpt lat="47.29445" lon="-2.25893">
        <ele>-4.4000000953674</ele>
        <time>2022-07-31T08:25:54.000Z</time>
      </trkpt>
      <trkpt lat="47.29445" lon="-2.2591">
        <ele>-4.4000000953674</ele>
        <time>2022-07-31T08:25:58.000Z</time>
      </trkpt>
      <trkpt lat="47.29444" lon="-2.25913">
        <ele>-4.4000000953674</ele>
        <time>2022-07-31T08:25:59.000Z</time>
      </trkpt>
      <trkpt lat="47.29434" lon="-2.25919">
        <ele>-4.4000000953674</ele>
        <time>2022-07-31T08:26:02.000Z</time>
      </trkpt>
      <trkpt lat="47.29415" lon="-2.25944">
        <ele>-4.4000000953674</ele>
        <time>2022-07-31T08:26:07.000Z</time>
      </trkpt>
      <trkpt lat="47.29406" lon="-2.25943">
        <ele>-4</ele>
        <time>2022-07-31T08:26:10.000Z</time>
      </trkpt>
      <trkpt lat="47.29404" lon="-2.25944">
        <ele>-3.5999999046326</ele>
        <time>2022-07-31T08:26:11.000Z</time>
      </trkpt>
      <trkpt lat="47.29403" lon="-2.25944">
        <ele>-3.2000000476837</ele>
        <time>2022-07-31T08:26:12.000Z</time>
      </trkpt>
      <trkpt lat="47.29402" lon="-2.25949">
        <ele>-2.5999999046326</ele>
        <time>2022-07-31T08:26:13.000Z</time>
      </trkpt>
      <trkpt lat="47.29404" lon="-2.25956">
        <ele>-2.2000000476837</ele>
        <time>2022-07-31T08:26:14.000Z</time>
      </trkpt>
      <trkpt lat="47.29401" lon="-2.25987">
        <ele>-2.2000000476837</ele>
        <time>2022-07-31T08:26:18.000Z</time>
      </trkpt>
      <trkpt lat="47.294" lon="-2.26002">
        <ele>-2.2000000476837</ele>
        <time>2022-07-31T08:26:20.000Z</time>
      </trkpt>
      <trkpt lat="47.29399" lon="-2.26008">
        <ele>-2.5999999046326</ele>
        <time>2022-07-31T08:26:21.000Z</time>
      </trkpt>
      <trkpt lat="47.29398" lon="-2.26016">
        <ele>-3.2000000476837</ele>
        <time>2022-07-31T08:26:22.000Z</time>
      </trkpt>
      <trkpt lat="47.29399" lon="-2.26022">
        <ele>-3.5999999046326</ele>
        <time>2022-07-31T08:26:23.000Z</time>
      </trkpt>
      <trkpt lat="47.29402" lon="-2.26027">
        <ele>-4</ele>
        <time>2022-07-31T08:26:24.000Z</time>
      </trkpt>
      <trkpt lat="47.29404" lon="-2.26031">
        <ele>-4.4000000953674</ele>
        <time>2022-07-31T08:26:25.000Z</time>
      </trkpt>
      <trkpt lat="47.29408" lon="-2.26041">
        <ele>-4.4000000953674</ele>
        <time>2022-07-31T08:26:27.000Z</time>
      </trkpt>
      <trkpt lat="47.29415" lon="-2.26056">
        <ele>-4.4000000953674</ele>
        <time>2022-07-31T08:26:30.000Z</time>
      </trkpt>
      <trkpt lat="47.29421" lon="-2.2609">
        <ele>-4.4000000953674</ele>
        <time>2022-07-31T08:26:35.000Z</time>
      </trkpt>
      <trkpt lat="47.29418" lon="-2.26117">
        <ele>-4.4000000953674</ele>
        <time>2022-07-31T08:26:39.000Z</time>
      </trkpt>
      <trkpt lat="47.29417" lon="-2.26124">
        <ele>-4.4000000953674</ele>
        <time>2022-07-31T08:26:40.000Z</time>
      </trkpt>
      <trkpt lat="47.29417" lon="-2.26135">
        <ele>-4.4000000953674</ele>
        <time>2022-07-31T08:26:42.000Z</time>
      </trkpt>
      <trkpt lat="47.29408" lon="-2.26149">
        <ele>-4</ele>
        <time>2022-07-31T08:26:45.000Z</time>
      </trkpt>
      <trkpt lat="47.29403" lon="-2.26151">
        <ele>-3.4000000953674</ele>
        <time>2022-07-31T08:26:46.000Z</time>
      </trkpt>
      <trkpt lat="47.294" lon="-2.26152">
        <ele>-3</ele>
        <time>2022-07-31T08:26:47.000Z</time>
      </trkpt>
      <trkpt lat="47.29396" lon="-2.26153">
        <ele>-2.5999999046326</ele>
        <time>2022-07-31T08:26:48.000Z</time>
      </trkpt>
      <trkpt lat="47.29392" lon="-2.26153">
        <ele>-2</ele>
        <time>2022-07-31T08:26:49.000Z</time>
      </trkpt>
      <trkpt lat="47.29389" lon="-2.26153">
        <ele>-2</ele>
        <time>2022-07-31T08:26:50.000Z</time>
      </trkpt>
      <trkpt lat="47.29379" lon="-2.26154">
        <ele>-2</ele>
        <time>2022-07-31T08:26:54.000Z</time>
      </trkpt>
      <trkpt lat="47.29376" lon="-2.26154">
        <ele>-2</ele>
        <time>2022-07-31T08:26:55.000Z</time>
      </trkpt>
      <trkpt lat="47.29373" lon="-2.26156">
        <ele>-1.2000000476837</ele>
        <time>2022-07-31T08:26:56.000Z</time>
      </trkpt>
      <trkpt lat="47.29371" lon="-2.26159">
        <ele>-0.80000001192093</ele>
        <time>2022-07-31T08:26:57.000Z</time>
      </trkpt>
      <trkpt lat="47.29368" lon="-2.26161">
        <ele>-0.40000000596046</ele>
        <time>2022-07-31T08:26:58.000Z</time>
      </trkpt>
      <trkpt lat="47.29365" lon="-2.26162">
        <ele>21.5</ele>
        <time>2022-07-31T08:26:59.000Z</time>
      </trkpt>
      <trkpt lat="47.29353" lon="-2.26162">
        <ele>22.2</ele>
        <time>2022-07-31T08:27:03.000Z</time>
      </trkpt>
      <trkpt lat="47.29346" lon="-2.26165">
        <ele>22.5</ele>
        <time>2022-07-31T08:27:06.000Z</time>
      </trkpt>
      <trkpt lat="47.29342" lon="-2.26166">
        <ele>22.7</ele>
        <time>2022-07-31T08:27:08.000Z</time>
      </trkpt>
      <trkpt lat="47.29334" lon="-2.26168">
        <ele>23</ele>
        <time>2022-07-31T08:27:14.000Z</time>
      </trkpt>
      <trkpt lat="47.29332" lon="-2.26168">
        <ele>23</ele>
        <time>2022-07-31T08:27:16.000Z</time>
      </trkpt>
      <trkpt lat="47.2932" lon="-2.26175">
        <ele>2</ele>
        <time>2022-07-31T08:27:26.000Z</time>
      </trkpt>
      <trkpt lat="47.29319" lon="-2.26178">
        <ele>2</ele>
        <time>2022-07-31T08:27:28.000Z</time>
      </trkpt>
      <trkpt lat="47.29317" lon="-2.26179">
        <ele>2</ele>
        <time>2022-07-31T08:27:29.000Z</time>
      </trkpt>
      <trkpt lat="47.2931" lon="-2.2618">
        <ele>2</ele>
        <time>2022-07-31T08:27:32.000Z</time>
      </trkpt>
      <trkpt lat="47.29307" lon="-2.26179">
        <ele>2</ele>
        <time>2022-07-31T08:27:33.000Z</time>
      </trkpt>
      <trkpt lat="47.29291" lon="-2.26181">
        <ele>2</ele>
        <time>2022-07-31T08:27:38.000Z</time>
      </trkpt>
      <trkpt lat="47.2928" lon="-2.26178">
        <ele>2</ele>
        <time>2022-07-31T08:27:42.000Z</time>
      </trkpt>
      <trkpt lat="47.29268" lon="-2.26174">
        <ele>2</ele>
        <time>2022-07-31T08:27:46.000Z</time>
      </trkpt>
      <trkpt lat="47.29259" lon="-2.26158">
        <ele>2</ele>
        <time>2022-07-31T08:27:50.000Z</time>
      </trkpt>
      <trkpt lat="47.29253" lon="-2.2614">
        <ele>2</ele>
        <time>2022-07-31T08:27:54.000Z</time>
      </trkpt>
      <trkpt lat="47.2924" lon="-2.26114">
        <ele>2</ele>
        <time>2022-07-31T08:28:00.000Z</time>
      </trkpt>
      <trkpt lat="47.29238" lon="-2.26097">
        <ele>2</ele>
        <time>2022-07-31T08:28:04.000Z</time>
      </trkpt>
      <trkpt lat="47.29239" lon="-2.26095">
        <ele>2</ele>
        <time>2022-07-31T08:28:05.000Z</time>
      </trkpt>
      <trkpt lat="47.29243" lon="-2.2609">
        <ele>2</ele>
        <time>2022-07-31T08:28:08.000Z</time>
      </trkpt>
      <trkpt lat="47.29246" lon="-2.26087">
        <ele>2</ele>
        <time>2022-07-31T08:28:10.000Z</time>
      </trkpt>
      <trkpt lat="47.2926" lon="-2.26081">
        <ele>2</ele>
        <time>2022-07-31T08:28:17.000Z</time>
      </trkpt>
      <trkpt lat="47.29269" lon="-2.26068">
        <ele>2</ele>
        <time>2022-07-31T08:28:24.000Z</time>
      </trkpt>
      <trkpt lat="47.29271" lon="-2.26053">
        <ele>2</ele>
        <time>2022-07-31T08:28:28.000Z</time>
      </trkpt>
      <trkpt lat="47.2927" lon="-2.26044">
        <ele>2</ele>
        <time>2022-07-31T08:28:30.000Z</time>
      </trkpt>
      <trkpt lat="47.29263" lon="-2.26014">
        <ele>2</ele>
        <time>2022-07-31T08:28:36.000Z</time>
      </trkpt>
      <trkpt lat="47.29263" lon="-2.26003">
        <ele>2</ele>
        <time>2022-07-31T08:28:39.000Z</time>
      </trkpt>
      <trkpt lat="47.29265" lon="-2.26">
        <ele>2</ele>
        <time>2022-07-31T08:28:40.000Z</time>
      </trkpt>
      <trkpt lat="47.29274" lon="-2.25988">
        <ele>2</ele>
        <time>2022-07-31T08:28:46.000Z</time>
      </trkpt>
      <trkpt lat="47.2928" lon="-2.2598">
        <ele>1.6000000238419</ele>
        <time>2022-07-31T08:28:49.000Z</time>
      </trkpt>
      <trkpt lat="47.29282" lon="-2.25979">
        <ele>1.2000000476837</ele>
        <time>2022-07-31T08:28:50.000Z</time>
      </trkpt>
      <trkpt lat="47.29284" lon="-2.25977">
        <ele>0.80000001192093</ele>
        <time>2022-07-31T08:28:51.000Z</time>
      </trkpt>
      <trkpt lat="47.29286" lon="-2.25977">
        <ele>0.40000000596046</ele>
        <time>2022-07-31T08:28:52.000Z</time>
      </trkpt>
      <trkpt lat="47.29292" lon="-2.25975">
        <ele>21</ele>
        <time>2022-07-31T08:28:53.000Z</time>
      </trkpt>
      <trkpt lat="47.29301" lon="-2.2597">
        <ele>21</ele>
        <time>2022-07-31T08:28:55.000Z</time>
      </trkpt>
      <trkpt lat="47.29312" lon="-2.2597">
        <ele>20.8</ele>
        <time>2022-07-31T08:28:58.000Z</time>
      </trkpt>
      <trkpt lat="47.29315" lon="-2.25972">
        <ele>20.7</ele>
        <time>2022-07-31T08:28:59.000Z</time>
      </trkpt>
      <trkpt lat="47.29338" lon="-2.25977">
        <ele>19.9</ele>
        <time>2022-07-31T08:29:04.000Z</time>
      </trkpt>
      <trkpt lat="47.29353" lon="-2.25964">
        <ele>20</ele>
        <time>2022-07-31T08:29:07.000Z</time>
      </trkpt>
      <trkpt lat="47.29368" lon="-2.25955">
        <ele>19.8</ele>
        <time>2022-07-31T08:29:11.000Z</time>
      </trkpt>
      <trkpt lat="47.29389" lon="-2.25958">
        <ele>-0.40000000596046</ele>
        <time>2022-07-31T08:29:15.000Z</time>
      </trkpt>
      <trkpt lat="47.29396" lon="-2.2596">
        <ele>-0.80000001192093</ele>
        <time>2022-07-31T08:29:16.000Z</time>
      </trkpt>
      <trkpt lat="47.29401" lon="-2.2596">
        <ele>-1.2000000476837</ele>
        <time>2022-07-31T08:29:17.000Z</time>
      </trkpt>
      <trkpt lat="47.29407" lon="-2.25958">
        <ele>-1.6000000238419</ele>
        <time>2022-07-31T08:29:18.000Z</time>
      </trkpt>
      <trkpt lat="47.29411" lon="-2.25956">
        <ele>-2</ele>
        <time>2022-07-31T08:29:19.000Z</time>
      </trkpt>
      <trkpt lat="47.2942" lon="-2.25953">
        <ele>-2</ele>
        <time>2022-07-31T08:29:21.000Z</time>
      </trkpt>
      <trkpt lat="47.2943" lon="-2.25946">
        <ele>-2</ele>
        <time>2022-07-31T08:29:23.000Z</time>
      </trkpt>
      <trkpt lat="47.29434" lon="-2.25942">
        <ele>-3</ele>
        <time>2022-07-31T08:29:24.000Z</time>
      </trkpt>
      <trkpt lat="47.29438" lon="-2.25937">
        <ele>-3.4000000953674</ele>
        <time>2022-07-31T08:29:25.000Z</time>
      </trkpt>
      <trkpt lat="47.2944" lon="-2.25929">
        <ele>-3.7999999523163</ele>
        <time>2022-07-31T08:29:26.000Z</time>
      </trkpt>
      <trkpt lat="47.2944" lon="-2.25922">
        <ele>-4.1999998092651</ele>
        <time>2022-07-31T08:29:27.000Z</time>
      </trkpt>
      <trkpt lat="47.29437" lon="-2.25902">
        <ele>-4.1999998092651</ele>
        <time>2022-07-31T08:29:30.000Z</time>
      </trkpt>
      <trkpt lat="47.2943" lon="-2.25876">
        <ele>-4.1999998092651</ele>
        <time>2022-07-31T08:29:34.000Z</time>
      </trkpt>
      <trkpt lat="47.29427" lon="-2.25871">
        <ele>-4.1999998092651</ele>
        <time>2022-07-31T08:29:35.000Z</time>
      </trkpt>
      <trkpt lat="47.29427" lon="-2.25857">
        <ele>-4.1999998092651</ele>
        <time>2022-07-31T08:29:38.000Z</time>
      </trkpt>
      <trkpt lat="47.29431" lon="-2.25839">
        <ele>-4.1999998092651</ele>
        <time>2022-07-31T08:29:41.000Z</time>
      </trkpt>
      <trkpt lat="47.29432" lon="-2.25832">
        <ele>-4.1999998092651</ele>
        <time>2022-07-31T08:29:42.000Z</time>
      </trkpt>
      <trkpt lat="47.29432" lon="-2.25815">
        <ele>-4.1999998092651</ele>
        <time>2022-07-31T08:29:44.000Z</time>
      </trkpt>
      <trkpt lat="47.29427" lon="-2.25806">
        <ele>-4.1999998092651</ele>
        <time>2022-07-31T08:29:46.000Z</time>
      </trkpt>
      <trkpt lat="47.29428" lon="-2.25792">
        <ele>-4.1999998092651</ele>
        <time>2022-07-31T08:29:49.000Z</time>
      </trkpt>
      <trkpt lat="47.29434" lon="-2.2579">
        <ele>-4.1999998092651</ele>
        <time>2022-07-31T08:29:52.000Z</time>
      </trkpt>
      <trkpt lat="47.29439" lon="-2.25778">
        <ele>-4.1999998092651</ele>
        <time>2022-07-31T08:29:55.000Z</time>
      </trkpt>
      <trkpt lat="47.29438" lon="-2.2577">
        <ele>-4.1999998092651</ele>
        <time>2022-07-31T08:29:57.000Z</time>
      </trkpt>
      <trkpt lat="47.29437" lon="-2.25759">
        <ele>-4.1999998092651</ele>
        <time>2022-07-31T08:29:59.000Z</time>
      </trkpt>
      <trkpt lat="47.29431" lon="-2.25731">
        <ele>-3.7999999523163</ele>
        <time>2022-07-31T08:30:04.000Z</time>
      </trkpt>
      <trkpt lat="47.2943" lon="-2.25726">
        <ele>-3.4000000953674</ele>
        <time>2022-07-31T08:30:05.000Z</time>
      </trkpt>
      <trkpt lat="47.29429" lon="-2.25721">
        <ele>-2.7999999523163</ele>
        <time>2022-07-31T08:30:06.000Z</time>
      </trkpt>
      <trkpt lat="47.29427" lon="-2.25715">
        <ele>-2.4000000953674</ele>
        <time>2022-07-31T08:30:07.000Z</time>
      </trkpt>
      <trkpt lat="47.29426" lon="-2.25711">
        <ele>-2</ele>
        <time>2022-07-31T08:30:08.000Z</time>
      </trkpt>
      <trkpt lat="47.29424" lon="-2.25701">
        <ele>-1.6000000238419</ele>
        <time>2022-07-31T08:30:10.000Z</time>
      </trkpt>
      <trkpt lat="47.29423" lon="-2.25696">
        <ele>-1.2000000476837</ele>
        <time>2022-07-31T08:30:11.000Z</time>
      </trkpt>
      <trkpt lat="47.2942" lon="-2.25691">
        <ele>-0.60000002384186</ele>
        <time>2022-07-31T08:30:12.000Z</time>
      </trkpt>
      <trkpt lat="47.29419" lon="-2.25686">
        <ele>0.20000000298023</ele>
        <time>2022-07-31T08:30:13.000Z</time>
      </trkpt>
      <trkpt lat="47.29407" lon="-2.25671">
        <ele>0.20000000298023</ele>
        <time>2022-07-31T08:30:18.000Z</time>
      </trkpt>
      <trkpt lat="47.29399" lon="-2.25664">
        <ele>0.60000002384186</ele>
        <time>2022-07-31T08:30:22.000Z</time>
      </trkpt>
      <trkpt lat="47.29398" lon="-2.25661">
        <ele>1</ele>
        <time>2022-07-31T08:30:23.000Z</time>
      </trkpt>
      <trkpt lat="47.29396" lon="-2.2566">
        <ele>1.3999999761581</ele>
        <time>2022-07-31T08:30:24.000Z</time>
      </trkpt>
      <trkpt lat="47.29394" lon="-2.25659">
        <ele>1.7999999523163</ele>
        <time>2022-07-31T08:30:25.000Z</time>
      </trkpt>
      <trkpt lat="47.29393" lon="-2.25656">
        <ele>2.2000000476837</ele>
        <time>2022-07-31T08:30:26.000Z</time>
      </trkpt>
      <trkpt lat="47.2939" lon="-2.25649">
        <ele>2.2000000476837</ele>
        <time>2022-07-31T08:30:29.000Z</time>
      </trkpt>
      <trkpt lat="47.2939" lon="-2.25647">
        <ele>2.2000000476837</ele>
        <time>2022-07-31T08:30:30.000Z</time>
      </trkpt>
      <trkpt lat="47.29388" lon="-2.25641">
        <ele>2.2000000476837</ele>
        <time>2022-07-31T08:30:34.000Z</time>
      </trkpt>
      <trkpt lat="47.29388" lon="-2.25638">
        <ele>2.2000000476837</ele>
        <time>2022-07-31T08:30:36.000Z</time>
      </trkpt>
      <trkpt lat="47.29389" lon="-2.25637">
        <ele>2.2000000476837</ele>
        <time>2022-07-31T08:30:37.000Z</time>
      </trkpt>
      <trkpt lat="47.294" lon="-2.2563">
        <ele>2.2000000476837</ele>
        <time>2022-07-31T08:30:42.000Z</time>
      </trkpt>
      <trkpt lat="47.29415" lon="-2.25623">
        <ele>2.2000000476837</ele>
        <time>2022-07-31T08:30:46.000Z</time>
      </trkpt>
      <trkpt lat="47.2942" lon="-2.25621">
        <ele>2.2000000476837</ele>
        <time>2022-07-31T08:30:47.000Z</time>
      </trkpt>
      <trkpt lat="47.29448" lon="-2.25609">
        <ele>2.2000000476837</ele>
        <time>2022-07-31T08:30:53.000Z</time>
      </trkpt>
      <trkpt lat="47.29486" lon="-2.25591">
        <ele>2.2000000476837</ele>
        <time>2022-07-31T08:31:00.000Z</time>
      </trkpt>
      <trkpt lat="47.29532" lon="-2.25561">
        <ele>2.2000000476837</ele>
        <time>2022-07-31T08:31:08.000Z</time>
      </trkpt>
      <trkpt lat="47.29569" lon="-2.25534">
        <ele>1.7999999523163</ele>
        <time>2022-07-31T08:31:14.000Z</time>
      </trkpt>
      <trkpt lat="47.29574" lon="-2.25528">
        <ele>1.2000000476837</ele>
        <time>2022-07-31T08:31:15.000Z</time>
      </trkpt>
      <trkpt lat="47.29579" lon="-2.25519">
        <ele>0.80000001192093</ele>
        <time>2022-07-31T08:31:16.000Z</time>
      </trkpt>
      <trkpt lat="47.29582" lon="-2.25511">
        <ele>0.40000000596046</ele>
        <time>2022-07-31T08:31:17.000Z</time>
      </trkpt>
      <trkpt lat="47.29584" lon="-2.25502">
        <ele>20</ele>
        <time>2022-07-31T08:31:18.000Z</time>
      </trkpt>
      <trkpt lat="47.29585" lon="-2.25463">
        <ele>19.6</ele>
        <time>2022-07-31T08:31:22.000Z</time>
      </trkpt>
      <trkpt lat="47.29585" lon="-2.25453">
        <ele>19.3</ele>
        <time>2022-07-31T08:31:23.000Z</time>
      </trkpt>
      <trkpt lat="47.29583" lon="-2.25424">
        <ele>18.3</ele>
        <time>2022-07-31T08:31:26.000Z</time>
      </trkpt>
      <trkpt lat="47.29581" lon="-2.25402">
        <ele>-0.40000000596046</ele>
        <time>2022-07-31T08:31:28.000Z</time>
      </trkpt>
      <trkpt lat="47.29579" lon="-2.25392">
        <ele>-0.80000001192093</ele>
        <time>2022-07-31T08:31:29.000Z</time>
      </trkpt>
      <trkpt lat="47.29576" lon="-2.25381">
        <ele>-1.2000000476837</ele>
        <time>2022-07-31T08:31:30.000Z</time>
      </trkpt>
      <trkpt lat="47.29573" lon="-2.2537">
        <ele>-1.6000000238419</ele>
        <time>2022-07-31T08:31:31.000Z</time>
      </trkpt>
      <trkpt lat="47.29569" lon="-2.2536">
        <ele>-2</ele>
        <time>2022-07-31T08:31:32.000Z</time>
      </trkpt>
      <trkpt lat="47.29565" lon="-2.2535">
        <ele>-2</ele>
        <time>2022-07-31T08:31:33.000Z</time>
      </trkpt>
      <trkpt lat="47.29542" lon="-2.25292">
        <ele>-2</ele>
        <time>2022-07-31T08:31:39.000Z</time>
      </trkpt>
      <trkpt lat="47.2954" lon="-2.25281">
        <ele>-2.5999999046326</ele>
        <time>2022-07-31T08:31:40.000Z</time>
      </trkpt>
      <trkpt lat="47.29539" lon="-2.25269">
        <ele>-3</ele>
        <time>2022-07-31T08:31:41.000Z</time>
      </trkpt>
      <trkpt lat="47.29538" lon="-2.25257">
        <ele>-3.4000000953674</ele>
        <time>2022-07-31T08:31:42.000Z</time>
      </trkpt>
      <trkpt lat="47.29539" lon="-2.25246">
        <ele>-3.7999999523163</ele>
        <time>2022-07-31T08:31:43.000Z</time>
      </trkpt>
      <trkpt lat="47.2954" lon="-2.25237">
        <ele>-4.1999998092651</ele>
        <time>2022-07-31T08:31:44.000Z</time>
      </trkpt>
      <trkpt lat="47.29542" lon="-2.25227">
        <ele>-4.1999998092651</ele>
        <time>2022-07-31T08:31:45.000Z</time>
      </trkpt>
      <trkpt lat="47.29544" lon="-2.25217">
        <ele>-4.1999998092651</ele>
        <time>2022-07-31T08:31:46.000Z</time>
      </trkpt>
      <trkpt lat="47.2955" lon="-2.25186">
        <ele>-4.1999998092651</ele>
        <time>2022-07-31T08:31:50.000Z</time>
      </trkpt>
      <trkpt lat="47.2954" lon="-2.25177">
        <ele>-4.1999998092651</ele>
        <time>2022-07-31T08:31:53.000Z</time>
      </trkpt>
      <trkpt lat="47.29531" lon="-2.25182">
        <ele>-4.1999998092651</ele>
        <time>2022-07-31T08:31:55.000Z</time>
      </trkpt>
      <trkpt lat="47.29525" lon="-2.25184">
        <ele>-4.1999998092651</ele>
        <time>2022-07-31T08:31:56.000Z</time>
      </trkpt>
      <trkpt lat="47.29515" lon="-2.25188">
        <ele>-4.5999999046326</ele>
        <time>2022-07-31T08:31:58.000Z</time>
      </trkpt>
      <trkpt lat="47.29508" lon="-2.2519">
        <ele>-5</ele>
        <time>2022-07-31T08:31:59.000Z</time>
      </trkpt>
      <trkpt lat="47.295" lon="-2.25193">
        <ele>-5.4000000953674</ele>
        <time>2022-07-31T08:32:00.000Z</time>
      </trkpt>
      <trkpt lat="47.29493" lon="-2.25195">
        <ele>-5.8000001907349</ele>
        <time>2022-07-31T08:32:01.000Z</time>
      </trkpt>
      <trkpt lat="47.29486" lon="-2.25197">
        <ele>-6.1999998092651</ele>
        <time>2022-07-31T08:32:02.000Z</time>
      </trkpt>
      <trkpt lat="47.29439" lon="-2.25209">
        <ele>-6.1999998092651</ele>
        <time>2022-07-31T08:32:08.000Z</time>
      </trkpt>
      <trkpt lat="47.29417" lon="-2.25216">
        <ele>-6.5999999046326</ele>
        <time>2022-07-31T08:32:11.000Z</time>
      </trkpt>
      <trkpt lat="47.2941" lon="-2.25215">
        <ele>-7</ele>
        <time>2022-07-31T08:32:12.000Z</time>
      </trkpt>
      <trkpt lat="47.29403" lon="-2.25213">
        <ele>-7.4000000953674</ele>
        <time>2022-07-31T08:32:13.000Z</time>
      </trkpt>
      <trkpt lat="47.29396" lon="-2.25212">
        <ele>-7.8000001907349</ele>
        <time>2022-07-31T08:32:14.000Z</time>
      </trkpt>
      <trkpt lat="47.29389" lon="-2.25209">
        <ele>-8.3999996185303</ele>
        <time>2022-07-31T08:32:15.000Z</time>
      </trkpt>
      <trkpt lat="47.29376" lon="-2.25207">
        <ele>-8.3999996185303</ele>
        <time>2022-07-31T08:32:17.000Z</time>
      </trkpt>
      <trkpt lat="47.29333" lon="-2.25197">
        <ele>-8.3999996185303</ele>
        <time>2022-07-31T08:32:23.000Z</time>
      </trkpt>
      <trkpt lat="47.29316" lon="-2.25198">
        <ele>-8.3999996185303</ele>
        <time>2022-07-31T08:32:26.000Z</time>
      </trkpt>
      <trkpt lat="47.29312" lon="-2.25192">
        <ele>-8.3999996185303</ele>
        <time>2022-07-31T08:32:27.000Z</time>
      </trkpt>
      <trkpt lat="47.29308" lon="-2.25168">
        <ele>-8.3999996185303</ele>
        <time>2022-07-31T08:32:30.000Z</time>
      </trkpt>
      <trkpt lat="47.29307" lon="-2.2516">
        <ele>-8.3999996185303</ele>
        <time>2022-07-31T08:32:31.000Z</time>
      </trkpt>
      <trkpt lat="47.29306" lon="-2.25152">
        <ele>-8.3999996185303</ele>
        <time>2022-07-31T08:32:32.000Z</time>
      </trkpt>
      <trkpt lat="47.29301" lon="-2.2513">
        <ele>-8.3999996185303</ele>
        <time>2022-07-31T08:32:35.000Z</time>
      </trkpt>
      <trkpt lat="47.29297" lon="-2.25106">
        <ele>-8.3999996185303</ele>
        <time>2022-07-31T08:32:38.000Z</time>
      </trkpt>
      <trkpt lat="47.29292" lon="-2.25083">
        <ele>-8.3999996185303</ele>
        <time>2022-07-31T08:32:41.000Z</time>
      </trkpt>
      <trkpt lat="47.29286" lon="-2.25059">
        <ele>-8</ele>
        <time>2022-07-31T08:32:44.000Z</time>
      </trkpt>
      <trkpt lat="47.29283" lon="-2.25052">
        <ele>-7.4000000953674</ele>
        <time>2022-07-31T08:32:45.000Z</time>
      </trkpt>
      <trkpt lat="47.29281" lon="-2.25046">
        <ele>-7</ele>
        <time>2022-07-31T08:32:46.000Z</time>
      </trkpt>
      <trkpt lat="47.29278" lon="-2.25037">
        <ele>-6.5999999046326</ele>
        <time>2022-07-31T08:32:47.000Z</time>
      </trkpt>
      <trkpt lat="47.29276" lon="-2.25029">
        <ele>-6.1999998092651</ele>
        <time>2022-07-31T08:32:48.000Z</time>
      </trkpt>
      <trkpt lat="47.29274" lon="-2.25021">
        <ele>-6.1999998092651</ele>
        <time>2022-07-31T08:32:49.000Z</time>
      </trkpt>
      <trkpt lat="47.29268" lon="-2.24998">
        <ele>-6.1999998092651</ele>
        <time>2022-07-31T08:32:52.000Z</time>
      </trkpt>
      <trkpt lat="47.29265" lon="-2.24982">
        <ele>-6.1999998092651</ele>
        <time>2022-07-31T08:32:54.000Z</time>
      </trkpt>
      <trkpt lat="47.29261" lon="-2.24958">
        <ele>-6.1999998092651</ele>
        <time>2022-07-31T08:32:57.000Z</time>
      </trkpt>
      <trkpt lat="47.29259" lon="-2.24938">
        <ele>-6.1999998092651</ele>
        <time>2022-07-31T08:33:00.000Z</time>
      </trkpt>
      <trkpt lat="47.2926" lon="-2.24933">
        <ele>-6.1999998092651</ele>
        <time>2022-07-31T08:33:01.000Z</time>
      </trkpt>
      <trkpt lat="47.29264" lon="-2.2492">
        <ele>-6.1999998092651</ele>
        <time>2022-07-31T08:33:05.000Z</time>
      </trkpt>
      <trkpt lat="47.29267" lon="-2.24918">
        <ele>-6.1999998092651</ele>
        <time>2022-07-31T08:33:06.000Z</time>
      </trkpt>
      <trkpt lat="47.29273" lon="-2.24918">
        <ele>-6.1999998092651</ele>
        <time>2022-07-31T08:33:08.000Z</time>
      </trkpt>
      <trkpt lat="47.29303" lon="-2.24916">
        <ele>-6.1999998092651</ele>
        <time>2022-07-31T08:33:17.000Z</time>
      </trkpt>
      <trkpt lat="47.29331" lon="-2.24915">
        <ele>-6.1999998092651</ele>
        <time>2022-07-31T08:33:24.000Z</time>
      </trkpt>
      <trkpt lat="47.29359" lon="-2.24916">
        <ele>-6.1999998092651</ele>
        <time>2022-07-31T08:33:29.000Z</time>
      </trkpt>
      <trkpt lat="47.29373" lon="-2.24914">
        <ele>-6.8000001907349</ele>
        <time>2022-07-31T08:33:31.000Z</time>
      </trkpt>
      <trkpt lat="47.2938" lon="-2.24913">
        <ele>-7.1999998092651</ele>
        <time>2022-07-31T08:33:32.000Z</time>
      </trkpt>
      <trkpt lat="47.29388" lon="-2.24913">
        <ele>-7.5999999046326</ele>
        <time>2022-07-31T08:33:33.000Z</time>
      </trkpt>
      <trkpt lat="47.29395" lon="-2.24913">
        <ele>-8</ele>
        <time>2022-07-31T08:33:34.000Z</time>
      </trkpt>
      <trkpt lat="47.29403" lon="-2.24913">
        <ele>-8.6000003814697</ele>
        <time>2022-07-31T08:33:35.000Z</time>
      </trkpt>
      <trkpt lat="47.29425" lon="-2.24913">
        <ele>-9</ele>
        <time>2022-07-31T08:33:38.000Z</time>
      </trkpt>
      <trkpt lat="47.29433" lon="-2.24912">
        <ele>-9.3999996185303</ele>
        <time>2022-07-31T08:33:39.000Z</time>
      </trkpt>
      <trkpt lat="47.29441" lon="-2.24912">
        <ele>-9.8000001907349</ele>
        <time>2022-07-31T08:33:40.000Z</time>
      </trkpt>
      <trkpt lat="47.29449" lon="-2.24913">
        <ele>-10.39999961853</ele>
        <time>2022-07-31T08:33:41.000Z</time>
      </trkpt>
      <trkpt lat="47.29457" lon="-2.24915">
        <ele>-10.800000190735</ele>
        <time>2022-07-31T08:33:42.000Z</time>
      </trkpt>
      <trkpt lat="47.29485" lon="-2.24929">
        <ele>-10.800000190735</ele>
        <time>2022-07-31T08:33:46.000Z</time>
      </trkpt>
      <trkpt lat="47.29493" lon="-2.24928">
        <ele>-11.199999809265</ele>
        <time>2022-07-31T08:33:47.000Z</time>
      </trkpt>
      <trkpt lat="47.295" lon="-2.24926">
        <ele>-11.60000038147</ele>
        <time>2022-07-31T08:33:48.000Z</time>
      </trkpt>
      <trkpt lat="47.29507" lon="-2.24923">
        <ele>-12</ele>
        <time>2022-07-31T08:33:49.000Z</time>
      </trkpt>
      <trkpt lat="47.29513" lon="-2.24917">
        <ele>-12.39999961853</ele>
        <time>2022-07-31T08:33:50.000Z</time>
      </trkpt>
      <trkpt lat="47.29515" lon="-2.24908">
        <ele>-12.800000190735</ele>
        <time>2022-07-31T08:33:51.000Z</time>
      </trkpt>
      <trkpt lat="47.29512" lon="-2.24884">
        <ele>-12.800000190735</ele>
        <time>2022-07-31T08:33:54.000Z</time>
      </trkpt>
      <trkpt lat="47.29508" lon="-2.24868">
        <ele>-12.800000190735</ele>
        <time>2022-07-31T08:33:56.000Z</time>
      </trkpt>
      <trkpt lat="47.29501" lon="-2.24846">
        <ele>-12.800000190735</ele>
        <time>2022-07-31T08:33:59.000Z</time>
      </trkpt>
      <trkpt lat="47.29498" lon="-2.24838">
        <ele>-12.800000190735</ele>
        <time>2022-07-31T08:34:00.000Z</time>
      </trkpt>
      <trkpt lat="47.29492" lon="-2.24823">
        <ele>-12.800000190735</ele>
        <time>2022-07-31T08:34:02.000Z</time>
      </trkpt>
      <trkpt lat="47.29489" lon="-2.24816">
        <ele>-12.800000190735</ele>
        <time>2022-07-31T08:34:03.000Z</time>
      </trkpt>
      <trkpt lat="47.29476" lon="-2.24783">
        <ele>-12.800000190735</ele>
        <time>2022-07-31T08:34:08.000Z</time>
      </trkpt>
      <trkpt lat="47.29468" lon="-2.24759">
        <ele>-12.800000190735</ele>
        <time>2022-07-31T08:34:12.000Z</time>
      </trkpt>
      <trkpt lat="47.29465" lon="-2.24754">
        <ele>-12.800000190735</ele>
        <time>2022-07-31T08:34:13.000Z</time>
      </trkpt>
      <trkpt lat="47.29452" lon="-2.24731">
        <ele>-12.800000190735</ele>
        <time>2022-07-31T08:34:17.000Z</time>
      </trkpt>
      <trkpt lat="47.29449" lon="-2.24723">
        <ele>-12.39999961853</ele>
        <time>2022-07-31T08:34:18.000Z</time>
      </trkpt>
      <trkpt lat="47.29445" lon="-2.24716">
        <ele>-12</ele>
        <time>2022-07-31T08:34:19.000Z</time>
      </trkpt>
      <trkpt lat="47.29442" lon="-2.24709">
        <ele>-11.60000038147</ele>
        <time>2022-07-31T08:34:20.000Z</time>
      </trkpt>
      <trkpt lat="47.29438" lon="-2.24702">
        <ele>-11.199999809265</ele>
        <time>2022-07-31T08:34:21.000Z</time>
      </trkpt>
      <trkpt lat="47.29434" lon="-2.24695">
        <ele>-10.800000190735</ele>
        <time>2022-07-31T08:34:22.000Z</time>
      </trkpt>
      <trkpt lat="47.29429" lon="-2.2469">
        <ele>-10.800000190735</ele>
        <time>2022-07-31T08:34:23.000Z</time>
      </trkpt>
      <trkpt lat="47.29418" lon="-2.24682">
        <ele>-10.800000190735</ele>
        <time>2022-07-31T08:34:25.000Z</time>
      </trkpt>
      <trkpt lat="47.29408" lon="-2.24679">
        <ele>-10.800000190735</ele>
        <time>2022-07-31T08:34:27.000Z</time>
      </trkpt>
      <trkpt lat="47.29393" lon="-2.24675">
        <ele>-10.800000190735</ele>
        <time>2022-07-31T08:34:30.000Z</time>
      </trkpt>
      <trkpt lat="47.29384" lon="-2.24673">
        <ele>-10.800000190735</ele>
        <time>2022-07-31T08:34:32.000Z</time>
      </trkpt>
      <trkpt lat="47.29361" lon="-2.24674">
        <ele>-10.800000190735</ele>
        <time>2022-07-31T08:34:38.000Z</time>
      </trkpt>
      <trkpt lat="47.29343" lon="-2.24679">
        <ele>-10.800000190735</ele>
        <time>2022-07-31T08:34:43.000Z</time>
      </trkpt>
      <trkpt lat="47.29325" lon="-2.24683">
        <ele>-10.800000190735</ele>
        <time>2022-07-31T08:34:49.000Z</time>
      </trkpt>
      <trkpt lat="47.29322" lon="-2.24684">
        <ele>-10.39999961853</ele>
        <time>2022-07-31T08:34:50.000Z</time>
      </trkpt>
      <trkpt lat="47.29319" lon="-2.24685">
        <ele>-10</ele>
        <time>2022-07-31T08:34:51.000Z</time>
      </trkpt>
      <trkpt lat="47.29316" lon="-2.24686">
        <ele>-9.6000003814697</ele>
        <time>2022-07-31T08:34:52.000Z</time>
      </trkpt>
      <trkpt lat="47.29313" lon="-2.24686">
        <ele>-9.1999998092651</ele>
        <time>2022-07-31T08:34:53.000Z</time>
      </trkpt>
      <trkpt lat="47.29311" lon="-2.24686">
        <ele>-8.8000001907349</ele>
        <time>2022-07-31T08:34:54.000Z</time>
      </trkpt>
      <trkpt lat="47.29306" lon="-2.24681">
        <ele>-8.8000001907349</ele>
        <time>2022-07-31T08:34:56.000Z</time>
      </trkpt>
      <trkpt lat="47.29304" lon="-2.24677">
        <ele>-8.8000001907349</ele>
        <time>2022-07-31T08:34:57.000Z</time>
      </trkpt>
      <trkpt lat="47.29301" lon="-2.24658">
        <ele>-8.8000001907349</ele>
        <time>2022-07-31T08:35:00.000Z</time>
      </trkpt>
      <trkpt lat="47.29301" lon="-2.24651">
        <ele>-8.8000001907349</ele>
        <time>2022-07-31T08:35:01.000Z</time>
      </trkpt>
      <trkpt lat="47.29302" lon="-2.24619">
        <ele>-8.8000001907349</ele>
        <time>2022-07-31T08:35:05.000Z</time>
      </trkpt>
      <trkpt lat="47.29303" lon="-2.24602">
        <ele>-8.8000001907349</ele>
        <time>2022-07-31T08:35:07.000Z</time>
      </trkpt>
      <trkpt lat="47.29301" lon="-2.24586">
        <ele>-8.8000001907349</ele>
        <time>2022-07-31T08:35:09.000Z</time>
      </trkpt>
      <trkpt lat="47.29298" lon="-2.24554">
        <ele>-8.8000001907349</ele>
        <time>2022-07-31T08:35:13.000Z</time>
      </trkpt>
      <trkpt lat="47.29295" lon="-2.245">
        <ele>-8.8000001907349</ele>
        <time>2022-07-31T08:35:20.000Z</time>
      </trkpt>
      <trkpt lat="47.29295" lon="-2.24486">
        <ele>-8.8000001907349</ele>
        <time>2022-07-31T08:35:22.000Z</time>
      </trkpt>
      <trkpt lat="47.29295" lon="-2.24468">
        <ele>-8.8000001907349</ele>
        <time>2022-07-31T08:35:25.000Z</time>
      </trkpt>
      <trkpt lat="47.29308" lon="-2.24448">
        <ele>-8.8000001907349</ele>
        <time>2022-07-31T08:35:29.000Z</time>
      </trkpt>
      <trkpt lat="47.29333" lon="-2.24422">
        <ele>-8.8000001907349</ele>
        <time>2022-07-31T08:35:34.000Z</time>
      </trkpt>
      <trkpt lat="47.29374" lon="-2.24376">
        <ele>-8.8000001907349</ele>
        <time>2022-07-31T08:35:42.000Z</time>
      </trkpt>
      <trkpt lat="47.29422" lon="-2.24329">
        <ele>-8.8000001907349</ele>
        <time>2022-07-31T08:35:51.000Z</time>
      </trkpt>
      <trkpt lat="47.29434" lon="-2.2432">
        <ele>-8.8000001907349</ele>
        <time>2022-07-31T08:35:53.000Z</time>
      </trkpt>
      <trkpt lat="47.29446" lon="-2.24315">
        <ele>-8.8000001907349</ele>
        <time>2022-07-31T08:35:55.000Z</time>
      </trkpt>
      <trkpt lat="47.29452" lon="-2.24313">
        <ele>-9.1999998092651</ele>
        <time>2022-07-31T08:35:56.000Z</time>
      </trkpt>
      <trkpt lat="47.29458" lon="-2.24312">
        <ele>-9.6000003814697</ele>
        <time>2022-07-31T08:35:57.000Z</time>
      </trkpt>
      <trkpt lat="47.29465" lon="-2.2431">
        <ele>-10</ele>
        <time>2022-07-31T08:35:58.000Z</time>
      </trkpt>
      <trkpt lat="47.29471" lon="-2.24308">
        <ele>-10.39999961853</ele>
        <time>2022-07-31T08:35:59.000Z</time>
      </trkpt>
      <trkpt lat="47.29478" lon="-2.24306">
        <ele>-10.800000190735</ele>
        <time>2022-07-31T08:36:00.000Z</time>
      </trkpt>
      <trkpt lat="47.29492" lon="-2.24301">
        <ele>-10.800000190735</ele>
        <time>2022-07-31T08:36:02.000Z</time>
      </trkpt>
      <trkpt lat="47.29505" lon="-2.24295">
        <ele>-11.39999961853</ele>
        <time>2022-07-31T08:36:04.000Z</time>
      </trkpt>
      <trkpt lat="47.29513" lon="-2.24292">
        <ele>-11.800000190735</ele>
        <time>2022-07-31T08:36:05.000Z</time>
      </trkpt>
      <trkpt lat="47.29521" lon="-2.24288">
        <ele>-12.199999809265</ele>
        <time>2022-07-31T08:36:06.000Z</time>
      </trkpt>
      <trkpt lat="47.29528" lon="-2.24285">
        <ele>-12.60000038147</ele>
        <time>2022-07-31T08:36:07.000Z</time>
      </trkpt>
      <trkpt lat="47.29535" lon="-2.24283">
        <ele>-13</ele>
        <time>2022-07-31T08:36:08.000Z</time>
      </trkpt>
      <trkpt lat="47.29541" lon="-2.24283">
        <ele>-13.39999961853</ele>
        <time>2022-07-31T08:36:09.000Z</time>
      </trkpt>
      <trkpt lat="47.29545" lon="-2.24285">
        <ele>-13.800000190735</ele>
        <time>2022-07-31T08:36:10.000Z</time>
      </trkpt>
      <trkpt lat="47.29548" lon="-2.24287">
        <ele>-14.39999961853</ele>
        <time>2022-07-31T08:36:11.000Z</time>
      </trkpt>
      <trkpt lat="47.2955" lon="-2.24289">
        <ele>-14.800000190735</ele>
        <time>2022-07-31T08:36:12.000Z</time>
      </trkpt>
      <trkpt lat="47.29552" lon="-2.24291">
        <ele>-15.199999809265</ele>
        <time>2022-07-31T08:36:13.000Z</time>
      </trkpt>
      <trkpt lat="47.29555" lon="-2.24293">
        <ele>-15.199999809265</ele>
        <time>2022-07-31T08:36:14.000Z</time>
      </trkpt>
      <trkpt lat="47.29572" lon="-2.2431">
        <ele>-15.199999809265</ele>
        <time>2022-07-31T08:36:19.000Z</time>
      </trkpt>
      <trkpt lat="47.29576" lon="-2.24313">
        <ele>-15.199999809265</ele>
        <time>2022-07-31T08:36:20.000Z</time>
      </trkpt>
      <trkpt lat="47.29589" lon="-2.24315">
        <ele>-15.199999809265</ele>
        <time>2022-07-31T08:36:23.000Z</time>
      </trkpt>
      <trkpt lat="47.2961" lon="-2.2431">
        <ele>-15.199999809265</ele>
        <time>2022-07-31T08:36:27.000Z</time>
      </trkpt>
      <trkpt lat="47.29616" lon="-2.24309">
        <ele>-15.199999809265</ele>
        <time>2022-07-31T08:36:28.000Z</time>
      </trkpt>
      <trkpt lat="47.29645" lon="-2.24298">
        <ele>-14.800000190735</ele>
        <time>2022-07-31T08:36:33.000Z</time>
      </trkpt>
      <trkpt lat="47.2965" lon="-2.24296">
        <ele>-14.39999961853</ele>
        <time>2022-07-31T08:36:34.000Z</time>
      </trkpt>
      <trkpt lat="47.29655" lon="-2.24292">
        <ele>-14</ele>
        <time>2022-07-31T08:36:35.000Z</time>
      </trkpt>
      <trkpt lat="47.29661" lon="-2.24289">
        <ele>-13.60000038147</ele>
        <time>2022-07-31T08:36:36.000Z</time>
      </trkpt>
      <trkpt lat="47.29666" lon="-2.24285">
        <ele>-13.199999809265</ele>
        <time>2022-07-31T08:36:37.000Z</time>
      </trkpt>
      <trkpt lat="47.29677" lon="-2.24279">
        <ele>-13.199999809265</ele>
        <time>2022-07-31T08:36:39.000Z</time>
      </trkpt>
      <trkpt lat="47.29703" lon="-2.24265">
        <ele>-12.800000190735</ele>
        <time>2022-07-31T08:36:44.000Z</time>
      </trkpt>
      <trkpt lat="47.29708" lon="-2.24263">
        <ele>-12.39999961853</ele>
        <time>2022-07-31T08:36:45.000Z</time>
      </trkpt>
      <trkpt lat="47.29714" lon="-2.2426">
        <ele>-12</ele>
        <time>2022-07-31T08:36:46.000Z</time>
      </trkpt>
      <trkpt lat="47.29719" lon="-2.24257">
        <ele>-11.60000038147</ele>
        <time>2022-07-31T08:36:47.000Z</time>
      </trkpt>
      <trkpt lat="47.29724" lon="-2.24254">
        <ele>-11.199999809265</ele>
        <time>2022-07-31T08:36:48.000Z</time>
      </trkpt>
      <trkpt lat="47.29744" lon="-2.24243">
        <ele>-11.199999809265</ele>
        <time>2022-07-31T08:36:52.000Z</time>
      </trkpt>
      <trkpt lat="47.29749" lon="-2.24241">
        <ele>-10.800000190735</ele>
        <time>2022-07-31T08:36:53.000Z</time>
      </trkpt>
      <trkpt lat="47.29755" lon="-2.24238">
        <ele>-10.39999961853</ele>
        <time>2022-07-31T08:36:54.000Z</time>
      </trkpt>
      <trkpt lat="47.2976" lon="-2.24235">
        <ele>-9.8000001907349</ele>
        <time>2022-07-31T08:36:55.000Z</time>
      </trkpt>
      <trkpt lat="47.29765" lon="-2.24233">
        <ele>-9.3999996185303</ele>
        <time>2022-07-31T08:36:56.000Z</time>
      </trkpt>
      <trkpt lat="47.29769" lon="-2.2423">
        <ele>-9</ele>
        <time>2022-07-31T08:36:57.000Z</time>
      </trkpt>
      <trkpt lat="47.29774" lon="-2.24227">
        <ele>-9</ele>
        <time>2022-07-31T08:36:58.000Z</time>
      </trkpt>
      <trkpt lat="47.29784" lon="-2.24223">
        <ele>-9</ele>
        <time>2022-07-31T08:37:00.000Z</time>
      </trkpt>
      <trkpt lat="47.29788" lon="-2.24221">
        <ele>-8.6000003814697</ele>
        <time>2022-07-31T08:37:01.000Z</time>
      </trkpt>
      <trkpt lat="47.29793" lon="-2.24219">
        <ele>-8.1999998092651</ele>
        <time>2022-07-31T08:37:02.000Z</time>
      </trkpt>
      <trkpt lat="47.29797" lon="-2.24218">
        <ele>-7.8000001907349</ele>
        <time>2022-07-31T08:37:03.000Z</time>
      </trkpt>
      <trkpt lat="47.29802" lon="-2.24216">
        <ele>-7.4000000953674</ele>
        <time>2022-07-31T08:37:04.000Z</time>
      </trkpt>
      <trkpt lat="47.29807" lon="-2.24217">
        <ele>-7</ele>
        <time>2022-07-31T08:37:05.000Z</time>
      </trkpt>
      <trkpt lat="47.29816" lon="-2.24222">
        <ele>-7</ele>
        <time>2022-07-31T08:37:07.000Z</time>
      </trkpt>
      <trkpt lat="47.29824" lon="-2.24227">
        <ele>-7</ele>
        <time>2022-07-31T08:37:09.000Z</time>
      </trkpt>
      <trkpt lat="47.29828" lon="-2.2423">
        <ele>-6.5999999046326</ele>
        <time>2022-07-31T08:37:10.000Z</time>
      </trkpt>
      <trkpt lat="47.29832" lon="-2.24233">
        <ele>-6.1999998092651</ele>
        <time>2022-07-31T08:37:11.000Z</time>
      </trkpt>
      <trkpt lat="47.29836" lon="-2.24235">
        <ele>-5.8000001907349</ele>
        <time>2022-07-31T08:37:12.000Z</time>
      </trkpt>
      <trkpt lat="47.2984" lon="-2.24237">
        <ele>-5.4000000953674</ele>
        <time>2022-07-31T08:37:13.000Z</time>
      </trkpt>
      <trkpt lat="47.29844" lon="-2.24239">
        <ele>-5</ele>
        <time>2022-07-31T08:37:14.000Z</time>
      </trkpt>
      <trkpt lat="47.29854" lon="-2.24242">
        <ele>-5</ele>
        <time>2022-07-31T08:37:16.000Z</time>
      </trkpt>
      <trkpt lat="47.29864" lon="-2.24247">
        <ele>-5</ele>
        <time>2022-07-31T08:37:18.000Z</time>
      </trkpt>
      <trkpt lat="47.29888" lon="-2.24263">
        <ele>-5</ele>
        <time>2022-07-31T08:37:23.000Z</time>
      </trkpt>
      <trkpt lat="47.29893" lon="-2.24267">
        <ele>-5</ele>
        <time>2022-07-31T08:37:24.000Z</time>
      </trkpt>
      <trkpt lat="47.29922" lon="-2.24287">
        <ele>-5</ele>
        <time>2022-07-31T08:37:30.000Z</time>
      </trkpt>
      <trkpt lat="47.29931" lon="-2.24292">
        <ele>-5</ele>
        <time>2022-07-31T08:37:32.000Z</time>
      </trkpt>
      <trkpt lat="47.29938" lon="-2.24299">
        <ele>-5</ele>
        <time>2022-07-31T08:37:34.000Z</time>
      </trkpt>
      <trkpt lat="47.29941" lon="-2.24305">
        <ele>-5</ele>
        <time>2022-07-31T08:37:36.000Z</time>
      </trkpt>
      <trkpt lat="47.29943" lon="-2.24309">
        <ele>-5</ele>
        <time>2022-07-31T08:37:38.000Z</time>
      </trkpt>
      <trkpt lat="47.29947" lon="-2.24313">
        <ele>-5</ele>
        <time>2022-07-31T08:37:43.000Z</time>
      </trkpt>
      <trkpt lat="47.29952" lon="-2.24318">
        <ele>-5</ele>
        <time>2022-07-31T08:38:48.000Z</time>
      </trkpt>
      <trkpt lat="47.29957" lon="-2.24324">
        <ele>-5</ele>
        <time>2022-07-31T08:38:50.000Z</time>
      </trkpt>
      <trkpt lat="47.29973" lon="-2.24345">
        <ele>-5</ele>
        <time>2022-07-31T08:38:55.000Z</time>
      </trkpt>
      <trkpt lat="47.29991" lon="-2.24357">
        <ele>-5</ele>
        <time>2022-07-31T08:39:00.000Z</time>
      </trkpt>
      <trkpt lat="47.29994" lon="-2.24353">
        <ele>-5</ele>
        <time>2022-07-31T08:39:01.000Z</time>
      </trkpt>
      <trkpt lat="47.29998" lon="-2.24341">
        <ele>-5</ele>
        <time>2022-07-31T08:39:04.000Z</time>
      </trkpt>
      <trkpt lat="47.30002" lon="-2.24333">
        <ele>-5</ele>
        <time>2022-07-31T08:39:06.000Z</time>
      </trkpt>
      <trkpt lat="47.30008" lon="-2.24314">
        <ele>-5</ele>
        <time>2022-07-31T08:39:10.000Z</time>
      </trkpt>
      <trkpt lat="47.30014" lon="-2.24297">
        <ele>-5</ele>
        <time>2022-07-31T08:39:14.000Z</time>
      </trkpt>
      <trkpt lat="47.30014" lon="-2.24287">
        <ele>-5</ele>
        <time>2022-07-31T08:39:18.000Z</time>
      </trkpt>
      <trkpt lat="47.30017" lon="-2.24274">
        <ele>-5</ele>
        <time>2022-07-31T08:39:22.000Z</time>
      </trkpt>
      <trkpt lat="47.30016" lon="-2.24263">
        <ele>-5</ele>
        <time>2022-07-31T08:39:26.000Z</time>
      </trkpt>
      <trkpt lat="47.30019" lon="-2.24253">
        <ele>-5</ele>
        <time>2022-07-31T08:39:29.000Z</time>
      </trkpt>
      <trkpt lat="47.30018" lon="-2.2423">
        <ele>-5</ele>
        <time>2022-07-31T08:39:33.000Z</time>
      </trkpt>
      <trkpt lat="47.30019" lon="-2.24212">
        <ele>-5</ele>
        <time>2022-07-31T08:39:37.000Z</time>
      </trkpt>
      <trkpt lat="47.30018" lon="-2.242">
        <ele>-5.4000000953674</ele>
        <time>2022-07-31T08:39:40.000Z</time>
      </trkpt>
      <trkpt lat="47.30016" lon="-2.24197">
        <ele>-6</ele>
        <time>2022-07-31T08:39:41.000Z</time>
      </trkpt>
      <trkpt lat="47.30015" lon="-2.24195">
        <ele>-6.4000000953674</ele>
        <time>2022-07-31T08:39:42.000Z</time>
      </trkpt>
      <trkpt lat="47.30014" lon="-2.24193">
        <ele>-6.8000001907349</ele>
        <time>2022-07-31T08:39:43.000Z</time>
      </trkpt>
      <trkpt lat="47.30013" lon="-2.2419">
        <ele>-7.4000000953674</ele>
        <time>2022-07-31T08:39:44.000Z</time>
      </trkpt>
      <trkpt lat="47.30011" lon="-2.24188">
        <ele>-7.4000000953674</ele>
        <time>2022-07-31T08:39:45.000Z</time>
      </trkpt>
      <trkpt lat="47.30009" lon="-2.24185">
        <ele>-7.8000001907349</ele>
        <time>2022-07-31T08:39:46.000Z</time>
      </trkpt>
      <trkpt lat="47.30007" lon="-2.24183">
        <ele>-8.1999998092651</ele>
        <time>2022-07-31T08:39:47.000Z</time>
      </trkpt>
      <trkpt lat="47.30006" lon="-2.24181">
        <ele>-8.8000001907349</ele>
        <time>2022-07-31T08:39:48.000Z</time>
      </trkpt>
      <trkpt lat="47.30006" lon="-2.24178">
        <ele>-9.1999998092651</ele>
        <time>2022-07-31T08:39:49.000Z</time>
      </trkpt>
      <trkpt lat="47.30005" lon="-2.24174">
        <ele>-9.6000003814697</ele>
        <time>2022-07-31T08:39:50.000Z</time>
      </trkpt>
      <trkpt lat="47.30005" lon="-2.2417">
        <ele>-9.6000003814697</ele>
        <time>2022-07-31T08:39:52.000Z</time>
      </trkpt>
      <trkpt lat="47.30005" lon="-2.2416">
        <ele>-9.6000003814697</ele>
        <time>2022-07-31T08:40:18.000Z</time>
      </trkpt>
      <trkpt lat="47.30009" lon="-2.24157">
        <ele>-9.6000003814697</ele>
        <time>2022-07-31T08:40:20.000Z</time>
      </trkpt>
      <trkpt lat="47.30009" lon="-2.24155">
        <ele>-9.6000003814697</ele>
        <time>2022-07-31T08:40:22.000Z</time>
      </trkpt>
      <trkpt lat="47.30014" lon="-2.24152">
        <ele>-9.6000003814697</ele>
        <time>2022-07-31T08:40:46.000Z</time>
      </trkpt>
      <trkpt lat="47.30017" lon="-2.24152">
        <ele>-9.6000003814697</ele>
        <time>2022-07-31T08:40:50.000Z</time>
      </trkpt>
      <trkpt lat="47.30023" lon="-2.24144">
        <ele>-9.6000003814697</ele>
        <time>2022-07-31T08:40:55.000Z</time>
      </trkpt>
      <trkpt lat="47.30027" lon="-2.24139">
        <ele>-9.6000003814697</ele>
        <time>2022-07-31T08:40:59.000Z</time>
      </trkpt>
      <trkpt lat="47.30028" lon="-2.24138">
        <ele>-9.6000003814697</ele>
        <time>2022-07-31T08:41:00.000Z</time>
      </trkpt>
      <trkpt lat="47.30032" lon="-2.24137">
        <ele>-9.6000003814697</ele>
        <time>2022-07-31T08:41:05.000Z</time>
      </trkpt>
      <trkpt lat="47.30034" lon="-2.24139">
        <ele>-9.6000003814697</ele>
        <time>2022-07-31T08:41:06.000Z</time>
      </trkpt>
      <trkpt lat="47.30034" lon="-2.2414">
        <ele>-9.6000003814697</ele>
        <time>2022-07-31T08:41:08.000Z</time>
      </trkpt>
      <trkpt lat="47.30039" lon="-2.24136">
        <ele>-9.6000003814697</ele>
        <time>2022-07-31T08:41:30.000Z</time>
      </trkpt>
      <trkpt lat="47.30047" lon="-2.24129">
        <ele>-9.6000003814697</ele>
        <time>2022-07-31T08:41:34.000Z</time>
      </trkpt>
      <trkpt lat="47.3006" lon="-2.2412">
        <ele>-9.6000003814697</ele>
        <time>2022-07-31T08:41:38.000Z</time>
      </trkpt>
      <trkpt lat="47.30065" lon="-2.24117">
        <ele>-9.6000003814697</ele>
        <time>2022-07-31T08:41:39.000Z</time>
      </trkpt>
      <trkpt lat="47.30083" lon="-2.24108">
        <ele>-9.6000003814697</ele>
        <time>2022-07-31T08:41:43.000Z</time>
      </trkpt>
      <trkpt lat="47.30096" lon="-2.24099">
        <ele>-9.6000003814697</ele>
        <time>2022-07-31T08:41:46.000Z</time>
      </trkpt>
      <trkpt lat="47.30102" lon="-2.24095">
        <ele>-9.6000003814697</ele>
        <time>2022-07-31T08:41:47.000Z</time>
      </trkpt>
      <trkpt lat="47.30153" lon="-2.24069">
        <ele>-9.6000003814697</ele>
        <time>2022-07-31T08:41:54.000Z</time>
      </trkpt>
      <trkpt lat="47.3019" lon="-2.2406">
        <ele>-9.6000003814697</ele>
        <time>2022-07-31T08:42:00.000Z</time>
      </trkpt>
      <trkpt lat="47.30223" lon="-2.24059">
        <ele>-9.6000003814697</ele>
        <time>2022-07-31T08:42:05.000Z</time>
      </trkpt>
      <trkpt lat="47.30229" lon="-2.2406">
        <ele>-9.6000003814697</ele>
        <time>2022-07-31T08:42:06.000Z</time>
      </trkpt>
      <trkpt lat="47.30257" lon="-2.24063">
        <ele>-9.6000003814697</ele>
        <time>2022-07-31T08:42:11.000Z</time>
      </trkpt>
      <trkpt lat="47.30263" lon="-2.24062">
        <ele>-9.6000003814697</ele>
        <time>2022-07-31T08:42:12.000Z</time>
      </trkpt>
      <trkpt lat="47.30276" lon="-2.24049">
        <ele>-9.6000003814697</ele>
        <time>2022-07-31T08:42:15.000Z</time>
      </trkpt>
      <trkpt lat="47.30276" lon="-2.24041">
        <ele>-10.199999809265</ele>
        <time>2022-07-31T08:42:16.000Z</time>
      </trkpt>
      <trkpt lat="47.30276" lon="-2.24033">
        <ele>-10.60000038147</ele>
        <time>2022-07-31T08:42:17.000Z</time>
      </trkpt>
      <trkpt lat="47.30276" lon="-2.24025">
        <ele>-11</ele>
        <time>2022-07-31T08:42:18.000Z</time>
      </trkpt>
      <trkpt lat="47.30276" lon="-2.24016">
        <ele>-11.39999961853</ele>
        <time>2022-07-31T08:42:19.000Z</time>
      </trkpt>
      <trkpt lat="47.30275" lon="-2.24007">
        <ele>-11.800000190735</ele>
        <time>2022-07-31T08:42:20.000Z</time>
      </trkpt>
      <trkpt lat="47.30273" lon="-2.23997">
        <ele>-12.199999809265</ele>
        <time>2022-07-31T08:42:21.000Z</time>
      </trkpt>
      <trkpt lat="47.3027" lon="-2.23987">
        <ele>-12.60000038147</ele>
        <time>2022-07-31T08:42:22.000Z</time>
      </trkpt>
      <trkpt lat="47.30268" lon="-2.23977">
        <ele>-13.199999809265</ele>
        <time>2022-07-31T08:42:23.000Z</time>
      </trkpt>
      <trkpt lat="47.30266" lon="-2.23967">
        <ele>-13.60000038147</ele>
        <time>2022-07-31T08:42:24.000Z</time>
      </trkpt>
      <trkpt lat="47.30264" lon="-2.23957">
        <ele>-14</ele>
        <time>2022-07-31T08:42:25.000Z</time>
      </trkpt>
      <trkpt lat="47.3026" lon="-2.23937">
        <ele>-14.39999961853</ele>
        <time>2022-07-31T08:42:27.000Z</time>
      </trkpt>
      <trkpt lat="47.30258" lon="-2.23927">
        <ele>-14.800000190735</ele>
        <time>2022-07-31T08:42:28.000Z</time>
      </trkpt>
      <trkpt lat="47.30258" lon="-2.23917">
        <ele>-15.39999961853</ele>
        <time>2022-07-31T08:42:29.000Z</time>
      </trkpt>
      <trkpt lat="47.30259" lon="-2.23908">
        <ele>-15.800000190735</ele>
        <time>2022-07-31T08:42:30.000Z</time>
      </trkpt>
      <trkpt lat="47.3026" lon="-2.23901">
        <ele>-16.200000762939</ele>
        <time>2022-07-31T08:42:31.000Z</time>
      </trkpt>
      <trkpt lat="47.3027" lon="-2.23894">
        <ele>-16.200000762939</ele>
        <time>2022-07-31T08:42:34.000Z</time>
      </trkpt>
      <trkpt lat="47.30275" lon="-2.23893">
        <ele>-16.200000762939</ele>
        <time>2022-07-31T08:42:37.000Z</time>
      </trkpt>
      <trkpt lat="47.30278" lon="-2.23892">
        <ele>-16.200000762939</ele>
        <time>2022-07-31T08:44:48.000Z</time>
      </trkpt>
      <trkpt lat="47.30293" lon="-2.23886">
        <ele>-16.200000762939</ele>
        <time>2022-07-31T08:44:53.000Z</time>
      </trkpt>
      <trkpt lat="47.30318" lon="-2.23876">
        <ele>-16.200000762939</ele>
        <time>2022-07-31T08:44:58.000Z</time>
      </trkpt>
      <trkpt lat="47.30322" lon="-2.23873">
        <ele>-16.200000762939</ele>
        <time>2022-07-31T08:44:59.000Z</time>
      </trkpt>
      <trkpt lat="47.30337" lon="-2.23865">
        <ele>-16.200000762939</ele>
        <time>2022-07-31T08:45:02.000Z</time>
      </trkpt>
      <trkpt lat="47.30347" lon="-2.23861">
        <ele>-16.200000762939</ele>
        <time>2022-07-31T08:45:04.000Z</time>
      </trkpt>
      <trkpt lat="47.30369" lon="-2.23856">
        <ele>-16.200000762939</ele>
        <time>2022-07-31T08:45:08.000Z</time>
      </trkpt>
      <trkpt lat="47.30411" lon="-2.23849">
        <ele>-16.200000762939</ele>
        <time>2022-07-31T08:45:16.000Z</time>
      </trkpt>
      <trkpt lat="47.30451" lon="-2.23843">
        <ele>-16.200000762939</ele>
        <time>2022-07-31T08:45:23.000Z</time>
      </trkpt>
      <trkpt lat="47.30491" lon="-2.23842">
        <ele>-16.200000762939</ele>
        <time>2022-07-31T08:45:30.000Z</time>
      </trkpt>
      <trkpt lat="47.30496" lon="-2.23846">
        <ele>-16.200000762939</ele>
        <time>2022-07-31T08:45:31.000Z</time>
      </trkpt>
      <trkpt lat="47.30508" lon="-2.23862">
        <ele>-16.200000762939</ele>
        <time>2022-07-31T08:45:34.000Z</time>
      </trkpt>
      <trkpt lat="47.30511" lon="-2.23868">
        <ele>-16.200000762939</ele>
        <time>2022-07-31T08:45:35.000Z</time>
      </trkpt>
      <trkpt lat="47.30526" lon="-2.2389">
        <ele>-16.200000762939</ele>
        <time>2022-07-31T08:45:39.000Z</time>
      </trkpt>
      <trkpt lat="47.30534" lon="-2.23901">
        <ele>-16.200000762939</ele>
        <time>2022-07-31T08:45:41.000Z</time>
      </trkpt>
      <trkpt lat="47.30549" lon="-2.23921">
        <ele>-16.200000762939</ele>
        <time>2022-07-31T08:45:45.000Z</time>
      </trkpt>
      <trkpt lat="47.30552" lon="-2.23935">
        <ele>-16.200000762939</ele>
        <time>2022-07-31T08:45:47.000Z</time>
      </trkpt>
      <trkpt lat="47.30545" lon="-2.23953">
        <ele>-16.200000762939</ele>
        <time>2022-07-31T08:45:50.000Z</time>
      </trkpt>
      <trkpt lat="47.30533" lon="-2.23964">
        <ele>-16.200000762939</ele>
        <time>2022-07-31T08:45:53.000Z</time>
      </trkpt>
      <trkpt lat="47.3053" lon="-2.23968">
        <ele>-16.200000762939</ele>
        <time>2022-07-31T08:45:54.000Z</time>
      </trkpt>
      <trkpt lat="47.30511" lon="-2.23994">
        <ele>-15.800000190735</ele>
        <time>2022-07-31T08:46:00.000Z</time>
      </trkpt>
      <trkpt lat="47.30508" lon="-2.23999">
        <ele>-15.199999809265</ele>
        <time>2022-07-31T08:46:01.000Z</time>
      </trkpt>
      <trkpt lat="47.30506" lon="-2.24003">
        <ele>-14.800000190735</ele>
        <time>2022-07-31T08:46:02.000Z</time>
      </trkpt>
      <trkpt lat="47.30504" lon="-2.24008">
        <ele>-14.39999961853</ele>
        <time>2022-07-31T08:46:03.000Z</time>
      </trkpt>
      <trkpt lat="47.30501" lon="-2.24012">
        <ele>-14</ele>
        <time>2022-07-31T08:46:04.000Z</time>
      </trkpt>
      <trkpt lat="47.30499" lon="-2.24017">
        <ele>-14</ele>
        <time>2022-07-31T08:46:05.000Z</time>
      </trkpt>
      <trkpt lat="47.30493" lon="-2.24023">
        <ele>-13.60000038147</ele>
        <time>2022-07-31T08:46:07.000Z</time>
      </trkpt>
      <trkpt lat="47.30491" lon="-2.24026">
        <ele>-13</ele>
        <time>2022-07-31T08:46:08.000Z</time>
      </trkpt>
      <trkpt lat="47.30488" lon="-2.24029">
        <ele>-12.60000038147</ele>
        <time>2022-07-31T08:46:09.000Z</time>
      </trkpt>
      <trkpt lat="47.30485" lon="-2.24031">
        <ele>-12.199999809265</ele>
        <time>2022-07-31T08:46:10.000Z</time>
      </trkpt>
      <trkpt lat="47.30483" lon="-2.24033">
        <ele>-11.800000190735</ele>
        <time>2022-07-31T08:46:11.000Z</time>
      </trkpt>
      <trkpt lat="47.30481" lon="-2.24035">
        <ele>-11.800000190735</ele>
        <time>2022-07-31T08:46:12.000Z</time>
      </trkpt>
      <trkpt lat="47.30478" lon="-2.24037">
        <ele>-11.39999961853</ele>
        <time>2022-07-31T08:46:13.000Z</time>
      </trkpt>
      <trkpt lat="47.30476" lon="-2.24038">
        <ele>-10.800000190735</ele>
        <time>2022-07-31T08:46:14.000Z</time>
      </trkpt>
      <trkpt lat="47.30473" lon="-2.24039">
        <ele>-10.39999961853</ele>
        <time>2022-07-31T08:46:15.000Z</time>
      </trkpt>
      <trkpt lat="47.3047" lon="-2.2404">
        <ele>-10</ele>
        <time>2022-07-31T08:46:16.000Z</time>
      </trkpt>
      <trkpt lat="47.30467" lon="-2.24041">
        <ele>-9.6000003814697</ele>
        <time>2022-07-31T08:46:17.000Z</time>
      </trkpt>
      <trkpt lat="47.30465" lon="-2.24044">
        <ele>-9.6000003814697</ele>
        <time>2022-07-31T08:46:18.000Z</time>
      </trkpt>
      <trkpt lat="47.3046" lon="-2.24045">
        <ele>-9.6000003814697</ele>
        <time>2022-07-31T08:46:19.000Z</time>
      </trkpt>
      <trkpt lat="47.30456" lon="-2.2405">
        <ele>-9.6000003814697</ele>
        <time>2022-07-31T08:46:21.000Z</time>
      </trkpt>
      <trkpt lat="47.30448" lon="-2.24058">
        <ele>-9.6000003814697</ele>
        <time>2022-07-31T08:46:24.000Z</time>
      </trkpt>
      <trkpt lat="47.30445" lon="-2.24061">
        <ele>-9.1999998092651</ele>
        <time>2022-07-31T08:46:25.000Z</time>
      </trkpt>
      <trkpt lat="47.30442" lon="-2.24063">
        <ele>-8.8000001907349</ele>
        <time>2022-07-31T08:46:26.000Z</time>
      </trkpt>
      <trkpt lat="47.30441" lon="-2.24067">
        <ele>-8.3999996185303</ele>
        <time>2022-07-31T08:46:27.000Z</time>
      </trkpt>
      <trkpt lat="47.30438" lon="-2.2407">
        <ele>-8</ele>
        <time>2022-07-31T08:46:28.000Z</time>
      </trkpt>
      <trkpt lat="47.30437" lon="-2.24073">
        <ele>-7.5999999046326</ele>
        <time>2022-07-31T08:46:29.000Z</time>
      </trkpt>
      <trkpt lat="47.3043" lon="-2.24081">
        <ele>-7.5999999046326</ele>
        <time>2022-07-31T08:46:32.000Z</time>
      </trkpt>
      <trkpt lat="47.30421" lon="-2.2409">
        <ele>-7.1999998092651</ele>
        <time>2022-07-31T08:46:36.000Z</time>
      </trkpt>
      <trkpt lat="47.30419" lon="-2.24093">
        <ele>-6.8000001907349</ele>
        <time>2022-07-31T08:46:37.000Z</time>
      </trkpt>
      <trkpt lat="47.30416" lon="-2.24096">
        <ele>-6.4000000953674</ele>
        <time>2022-07-31T08:46:38.000Z</time>
      </trkpt>
      <trkpt lat="47.30415" lon="-2.24099">
        <ele>-6</ele>
        <time>2022-07-31T08:46:39.000Z</time>
      </trkpt>
      <trkpt lat="47.30411" lon="-2.24102">
        <ele>-5.5999999046326</ele>
        <time>2022-07-31T08:46:40.000Z</time>
      </trkpt>
      <trkpt lat="47.30408" lon="-2.24104">
        <ele>-5.5999999046326</ele>
        <time>2022-07-31T08:46:41.000Z</time>
      </trkpt>
      <trkpt lat="47.30404" lon="-2.24108">
        <ele>-5.5999999046326</ele>
        <time>2022-07-31T08:46:43.000Z</time>
      </trkpt>
      <trkpt lat="47.30394" lon="-2.24118">
        <ele>-5.5999999046326</ele>
        <time>2022-07-31T08:46:46.000Z</time>
      </trkpt>
      <trkpt lat="47.30387" lon="-2.24125">
        <ele>-5.1999998092651</ele>
        <time>2022-07-31T08:46:48.000Z</time>
      </trkpt>
      <trkpt lat="47.30382" lon="-2.24129">
        <ele>-4.8000001907349</ele>
        <time>2022-07-31T08:46:49.000Z</time>
      </trkpt>
      <trkpt lat="47.30378" lon="-2.24133">
        <ele>-4.4000000953674</ele>
        <time>2022-07-31T08:46:50.000Z</time>
      </trkpt>
      <trkpt lat="47.30374" lon="-2.24139">
        <ele>-3.7999999523163</ele>
        <time>2022-07-31T08:46:51.000Z</time>
      </trkpt>
      <trkpt lat="47.30369" lon="-2.24145">
        <ele>-3.4000000953674</ele>
        <time>2022-07-31T08:46:52.000Z</time>
      </trkpt>
      <trkpt lat="47.30357" lon="-2.24163">
        <ele>-3.4000000953674</ele>
        <time>2022-07-31T08:46:55.000Z</time>
      </trkpt>
      <trkpt lat="47.3035" lon="-2.24177">
        <ele>-3.4000000953674</ele>
        <time>2022-07-31T08:46:57.000Z</time>
      </trkpt>
      <trkpt lat="47.3035" lon="-2.24194">
        <ele>-3.4000000953674</ele>
        <time>2022-07-31T08:46:59.000Z</time>
      </trkpt>
      <trkpt lat="47.30352" lon="-2.242">
        <ele>-3.7999999523163</ele>
        <time>2022-07-31T08:47:00.000Z</time>
      </trkpt>
      <trkpt lat="47.30356" lon="-2.24206">
        <ele>-4.4000000953674</ele>
        <time>2022-07-31T08:47:01.000Z</time>
      </trkpt>
      <trkpt lat="47.30359" lon="-2.2421">
        <ele>-4.8000001907349</ele>
        <time>2022-07-31T08:47:02.000Z</time>
      </trkpt>
      <trkpt lat="47.30363" lon="-2.24214">
        <ele>-5.1999998092651</ele>
        <time>2022-07-31T08:47:03.000Z</time>
      </trkpt>
      <trkpt lat="47.30367" lon="-2.24219">
        <ele>-5.5999999046326</ele>
        <time>2022-07-31T08:47:04.000Z</time>
      </trkpt>
      <trkpt lat="47.30379" lon="-2.24234">
        <ele>-5.5999999046326</ele>
        <time>2022-07-31T08:47:08.000Z</time>
      </trkpt>
      <trkpt lat="47.30391" lon="-2.24248">
        <ele>-5.5999999046326</ele>
        <time>2022-07-31T08:47:11.000Z</time>
      </trkpt>
      <trkpt lat="47.30404" lon="-2.24261">
        <ele>-5.5999999046326</ele>
        <time>2022-07-31T08:47:14.000Z</time>
      </trkpt>
      <trkpt lat="47.30413" lon="-2.24268">
        <ele>-5.5999999046326</ele>
        <time>2022-07-31T08:47:16.000Z</time>
      </trkpt>
      <trkpt lat="47.30428" lon="-2.24274">
        <ele>-5.5999999046326</ele>
        <time>2022-07-31T08:47:19.000Z</time>
      </trkpt>
      <trkpt lat="47.30459" lon="-2.24282">
        <ele>-5.5999999046326</ele>
        <time>2022-07-31T08:47:24.000Z</time>
      </trkpt>
      <trkpt lat="47.30483" lon="-2.24294">
        <ele>-5.5999999046326</ele>
        <time>2022-07-31T08:47:28.000Z</time>
      </trkpt>
      <trkpt lat="47.30509" lon="-2.24314">
        <ele>-5.5999999046326</ele>
        <time>2022-07-31T08:47:33.000Z</time>
      </trkpt>
      <trkpt lat="47.30538" lon="-2.24344">
        <ele>-5.5999999046326</ele>
        <time>2022-07-31T08:47:40.000Z</time>
      </trkpt>
      <trkpt lat="47.30542" lon="-2.24346">
        <ele>-5.5999999046326</ele>
        <time>2022-07-31T08:47:41.000Z</time>
      </trkpt>
      <trkpt lat="47.30546" lon="-2.24344">
        <ele>-5.5999999046326</ele>
        <time>2022-07-31T08:47:43.000Z</time>
      </trkpt>
      <trkpt lat="47.30549" lon="-2.24345">
        <ele>-5.5999999046326</ele>
        <time>2022-07-31T08:47:47.000Z</time>
      </trkpt>
      <trkpt lat="47.30552" lon="-2.2435">
        <ele>-3.4000000953674</ele>
        <time>2022-07-31T08:58:40.000Z</time>
      </trkpt>
      <trkpt lat="47.30553" lon="-2.24355">
        <ele>-3.4000000953674</ele>
        <time>2022-07-31T08:58:42.000Z</time>
      </trkpt>
      <trkpt lat="47.30565" lon="-2.24369">
        <ele>-3.4000000953674</ele>
        <time>2022-07-31T08:58:46.000Z</time>
      </trkpt>
      <trkpt lat="47.30585" lon="-2.24392">
        <ele>-3.4000000953674</ele>
        <time>2022-07-31T08:58:51.000Z</time>
      </trkpt>
      <trkpt lat="47.30598" lon="-2.24407">
        <ele>-3.4000000953674</ele>
        <time>2022-07-31T08:58:54.000Z</time>
      </trkpt>
      <trkpt lat="47.30607" lon="-2.24414">
        <ele>-3.4000000953674</ele>
        <time>2022-07-31T08:58:56.000Z</time>
      </trkpt>
      <trkpt lat="47.30615" lon="-2.24417">
        <ele>-3.7999999523163</ele>
        <time>2022-07-31T08:58:58.000Z</time>
      </trkpt>
      <trkpt lat="47.3062" lon="-2.24419">
        <ele>-4.1999998092651</ele>
        <time>2022-07-31T08:58:59.000Z</time>
      </trkpt>
      <trkpt lat="47.30624" lon="-2.24421">
        <ele>-4.5999999046326</ele>
        <time>2022-07-31T08:59:00.000Z</time>
      </trkpt>
      <trkpt lat="47.30627" lon="-2.24424">
        <ele>-5</ele>
        <time>2022-07-31T08:59:01.000Z</time>
      </trkpt>
      <trkpt lat="47.30631" lon="-2.24427">
        <ele>-5.5999999046326</ele>
        <time>2022-07-31T08:59:02.000Z</time>
      </trkpt>
      <trkpt lat="47.30632" lon="-2.24432">
        <ele>-5.5999999046326</ele>
        <time>2022-07-31T08:59:03.000Z</time>
      </trkpt>
      <trkpt lat="47.30633" lon="-2.24445">
        <ele>-6</ele>
        <time>2022-07-31T08:59:05.000Z</time>
      </trkpt>
      <trkpt lat="47.30633" lon="-2.24451">
        <ele>-6.4000000953674</ele>
        <time>2022-07-31T08:59:06.000Z</time>
      </trkpt>
      <trkpt lat="47.30632" lon="-2.2446">
        <ele>-6.8000001907349</ele>
        <time>2022-07-31T08:59:07.000Z</time>
      </trkpt>
      <trkpt lat="47.3063" lon="-2.24469">
        <ele>-7.1999998092651</ele>
        <time>2022-07-31T08:59:08.000Z</time>
      </trkpt>
      <trkpt lat="47.30629" lon="-2.24478">
        <ele>-7.5999999046326</ele>
        <time>2022-07-31T08:59:09.000Z</time>
      </trkpt>
      <trkpt lat="47.30626" lon="-2.24499">
        <ele>-8</ele>
        <time>2022-07-31T08:59:11.000Z</time>
      </trkpt>
      <trkpt lat="47.30625" lon="-2.2451">
        <ele>-8.6000003814697</ele>
        <time>2022-07-31T08:59:12.000Z</time>
      </trkpt>
      <trkpt lat="47.30624" lon="-2.24522">
        <ele>-9</ele>
        <time>2022-07-31T08:59:13.000Z</time>
      </trkpt>
      <trkpt lat="47.30622" lon="-2.24533">
        <ele>-9.3999996185303</ele>
        <time>2022-07-31T08:59:14.000Z</time>
      </trkpt>
      <trkpt lat="47.30621" lon="-2.24545">
        <ele>-10.39999961853</ele>
        <time>2022-07-31T08:59:15.000Z</time>
      </trkpt>
      <trkpt lat="47.30619" lon="-2.24558">
        <ele>-10.800000190735</ele>
        <time>2022-07-31T08:59:16.000Z</time>
      </trkpt>
      <trkpt lat="47.30617" lon="-2.24571">
        <ele>-11.199999809265</ele>
        <time>2022-07-31T08:59:17.000Z</time>
      </trkpt>
      <trkpt lat="47.30616" lon="-2.24584">
        <ele>-11.800000190735</ele>
        <time>2022-07-31T08:59:18.000Z</time>
      </trkpt>
      <trkpt lat="47.30615" lon="-2.24597">
        <ele>-12.199999809265</ele>
        <time>2022-07-31T08:59:19.000Z</time>
      </trkpt>
      <trkpt lat="47.30616" lon="-2.2461">
        <ele>-12.199999809265</ele>
        <time>2022-07-31T08:59:20.000Z</time>
      </trkpt>
      <trkpt lat="47.30618" lon="-2.24622">
        <ele>-12.60000038147</ele>
        <time>2022-07-31T08:59:21.000Z</time>
      </trkpt>
      <trkpt lat="47.3062" lon="-2.24633">
        <ele>-13.199999809265</ele>
        <time>2022-07-31T08:59:22.000Z</time>
      </trkpt>
      <trkpt lat="47.30623" lon="-2.24645">
        <ele>-13.60000038147</ele>
        <time>2022-07-31T08:59:23.000Z</time>
      </trkpt>
      <trkpt lat="47.30627" lon="-2.24655">
        <ele>-14</ele>
        <time>2022-07-31T08:59:24.000Z</time>
      </trkpt>
      <trkpt lat="47.3063" lon="-2.24666">
        <ele>-14.60000038147</ele>
        <time>2022-07-31T08:59:25.000Z</time>
      </trkpt>
      <trkpt lat="47.30637" lon="-2.24687">
        <ele>-14.60000038147</ele>
        <time>2022-07-31T08:59:27.000Z</time>
      </trkpt>
      <trkpt lat="47.30662" lon="-2.24757">
        <ele>-14.60000038147</ele>
        <time>2022-07-31T08:59:34.000Z</time>
      </trkpt>
      <trkpt lat="47.30671" lon="-2.24774">
        <ele>-14.60000038147</ele>
        <time>2022-07-31T08:59:36.000Z</time>
      </trkpt>
      <trkpt lat="47.30682" lon="-2.24788">
        <ele>-14.60000038147</ele>
        <time>2022-07-31T08:59:38.000Z</time>
      </trkpt>
      <trkpt lat="47.30699" lon="-2.24809">
        <ele>-14.60000038147</ele>
        <time>2022-07-31T08:59:41.000Z</time>
      </trkpt>
      <trkpt lat="47.30708" lon="-2.24824">
        <ele>-14.60000038147</ele>
        <time>2022-07-31T08:59:43.000Z</time>
      </trkpt>
      <trkpt lat="47.30726" lon="-2.24854">
        <ele>-14.60000038147</ele>
        <time>2022-07-31T08:59:47.000Z</time>
      </trkpt>
      <trkpt lat="47.30742" lon="-2.24874">
        <ele>-14.60000038147</ele>
        <time>2022-07-31T08:59:50.000Z</time>
      </trkpt>
      <trkpt lat="47.30747" lon="-2.24879">
        <ele>-14.60000038147</ele>
        <time>2022-07-31T08:59:51.000Z</time>
      </trkpt>
      <trkpt lat="47.3078" lon="-2.24898">
        <ele>-14.60000038147</ele>
        <time>2022-07-31T08:59:56.000Z</time>
      </trkpt>
      <trkpt lat="47.308" lon="-2.24908">
        <ele>-14.60000038147</ele>
        <time>2022-07-31T08:59:59.000Z</time>
      </trkpt>
      <trkpt lat="47.3082" lon="-2.24913">
        <ele>-14.60000038147</ele>
        <time>2022-07-31T09:00:02.000Z</time>
      </trkpt>
      <trkpt lat="47.30832" lon="-2.24913">
        <ele>-14.60000038147</ele>
        <time>2022-07-31T09:00:04.000Z</time>
      </trkpt>
      <trkpt lat="47.30844" lon="-2.24909">
        <ele>-14.60000038147</ele>
        <time>2022-07-31T09:00:06.000Z</time>
      </trkpt>
      <trkpt lat="47.3086" lon="-2.24893">
        <ele>-14.60000038147</ele>
        <time>2022-07-31T09:00:09.000Z</time>
      </trkpt>
      <trkpt lat="47.30865" lon="-2.24887">
        <ele>-14.60000038147</ele>
        <time>2022-07-31T09:00:10.000Z</time>
      </trkpt>
      <trkpt lat="47.30905" lon="-2.24834">
        <ele>-14.60000038147</ele>
        <time>2022-07-31T09:00:18.000Z</time>
      </trkpt>
      <trkpt lat="47.30942" lon="-2.24786">
        <ele>-14.60000038147</ele>
        <time>2022-07-31T09:00:26.000Z</time>
      </trkpt>
      <trkpt lat="47.3096" lon="-2.24767">
        <ele>-14.60000038147</ele>
        <time>2022-07-31T09:00:30.000Z</time>
      </trkpt>
      <trkpt lat="47.30965" lon="-2.24764">
        <ele>-14.60000038147</ele>
        <time>2022-07-31T09:00:31.000Z</time>
      </trkpt>
      <trkpt lat="47.30996" lon="-2.24754">
        <ele>-14.60000038147</ele>
        <time>2022-07-31T09:00:36.000Z</time>
      </trkpt>
      <trkpt lat="47.31034" lon="-2.24757">
        <ele>-14.60000038147</ele>
        <time>2022-07-31T09:00:42.000Z</time>
      </trkpt>
      <trkpt lat="47.3104" lon="-2.2476">
        <ele>-14.60000038147</ele>
        <time>2022-07-31T09:00:43.000Z</time>
      </trkpt>
      <trkpt lat="47.31064" lon="-2.2477">
        <ele>-14.60000038147</ele>
        <time>2022-07-31T09:00:47.000Z</time>
      </trkpt>
      <trkpt lat="47.31088" lon="-2.24773">
        <ele>-14.60000038147</ele>
        <time>2022-07-31T09:00:51.000Z</time>
      </trkpt>
      <trkpt lat="47.31094" lon="-2.24772">
        <ele>-14.60000038147</ele>
        <time>2022-07-31T09:00:52.000Z</time>
      </trkpt>
      <trkpt lat="47.31116" lon="-2.24767">
        <ele>-14.60000038147</ele>
        <time>2022-07-31T09:00:56.000Z</time>
      </trkpt>
      <trkpt lat="47.31126" lon="-2.24758">
        <ele>-14.60000038147</ele>
        <time>2022-07-31T09:00:58.000Z</time>
      </trkpt>
      <trkpt lat="47.31146" lon="-2.24741">
        <ele>-14.60000038147</ele>
        <time>2022-07-31T09:01:03.000Z</time>
      </trkpt>
      <trkpt lat="47.31167" lon="-2.24718">
        <ele>-14.60000038147</ele>
        <time>2022-07-31T09:01:08.000Z</time>
      </trkpt>
      <trkpt lat="47.3118" lon="-2.24701">
        <ele>-14.60000038147</ele>
        <time>2022-07-31T09:01:11.000Z</time>
      </trkpt>
      <trkpt lat="47.3119" lon="-2.24683">
        <ele>-14.60000038147</ele>
        <time>2022-07-31T09:01:14.000Z</time>
      </trkpt>
      <trkpt lat="47.31193" lon="-2.24679">
        <ele>-14.60000038147</ele>
        <time>2022-07-31T09:01:15.000Z</time>
      </trkpt>
      <trkpt lat="47.31201" lon="-2.2467">
        <ele>-14.60000038147</ele>
        <time>2022-07-31T09:01:18.000Z</time>
      </trkpt>
      <trkpt lat="47.31204" lon="-2.24667">
        <ele>-14.60000038147</ele>
        <time>2022-07-31T09:01:19.000Z</time>
      </trkpt>
      <trkpt lat="47.31217" lon="-2.24655">
        <ele>-14.60000038147</ele>
        <time>2022-07-31T09:01:23.000Z</time>
      </trkpt>
      <trkpt lat="47.31232" lon="-2.24639">
        <ele>-14.60000038147</ele>
        <time>2022-07-31T09:01:27.000Z</time>
      </trkpt>
      <trkpt lat="47.31237" lon="-2.24631">
        <ele>-14.60000038147</ele>
        <time>2022-07-31T09:01:29.000Z</time>
      </trkpt>
      <trkpt lat="47.31246" lon="-2.2462">
        <ele>-14.60000038147</ele>
        <time>2022-07-31T09:01:32.000Z</time>
      </trkpt>
      <trkpt lat="47.31254" lon="-2.24612">
        <ele>-14.60000038147</ele>
        <time>2022-07-31T09:01:34.000Z</time>
      </trkpt>
      <trkpt lat="47.31258" lon="-2.24608">
        <ele>-14.60000038147</ele>
        <time>2022-07-31T09:01:35.000Z</time>
      </trkpt>
      <trkpt lat="47.3127" lon="-2.24596">
        <ele>-14.60000038147</ele>
        <time>2022-07-31T09:01:38.000Z</time>
      </trkpt>
      <trkpt lat="47.31274" lon="-2.24592">
        <ele>-14.60000038147</ele>
        <time>2022-07-31T09:01:39.000Z</time>
      </trkpt>
      <trkpt lat="47.31278" lon="-2.24588">
        <ele>-14.60000038147</ele>
        <time>2022-07-31T09:01:40.000Z</time>
      </trkpt>
      <trkpt lat="47.31293" lon="-2.24574">
        <ele>-14.60000038147</ele>
        <time>2022-07-31T09:01:44.000Z</time>
      </trkpt>
      <trkpt lat="47.31297" lon="-2.2457">
        <ele>-14.60000038147</ele>
        <time>2022-07-31T09:01:45.000Z</time>
      </trkpt>
      <trkpt lat="47.31313" lon="-2.24553">
        <ele>-14.60000038147</ele>
        <time>2022-07-31T09:01:49.000Z</time>
      </trkpt>
      <trkpt lat="47.31338" lon="-2.24532">
        <ele>-14.60000038147</ele>
        <time>2022-07-31T09:01:54.000Z</time>
      </trkpt>
      <trkpt lat="47.31366" lon="-2.245">
        <ele>-14.60000038147</ele>
        <time>2022-07-31T09:02:00.000Z</time>
      </trkpt>
      <trkpt lat="47.31407" lon="-2.2446">
        <ele>-14.60000038147</ele>
        <time>2022-07-31T09:02:08.000Z</time>
      </trkpt>
      <trkpt lat="47.3144" lon="-2.24422">
        <ele>-14.60000038147</ele>
        <time>2022-07-31T09:02:15.000Z</time>
      </trkpt>
      <trkpt lat="47.31463" lon="-2.24395">
        <ele>-14.60000038147</ele>
        <time>2022-07-31T09:02:20.000Z</time>
      </trkpt>
      <trkpt lat="47.31484" lon="-2.24387">
        <ele>-14.60000038147</ele>
        <time>2022-07-31T09:02:24.000Z</time>
      </trkpt>
      <trkpt lat="47.31493" lon="-2.24383">
        <ele>-14.60000038147</ele>
        <time>2022-07-31T09:02:26.000Z</time>
      </trkpt>
      <trkpt lat="47.31502" lon="-2.24381">
        <ele>-14.60000038147</ele>
        <time>2022-07-31T09:02:28.000Z</time>
      </trkpt>
      <trkpt lat="47.31509" lon="-2.24369">
        <ele>-14.60000038147</ele>
        <time>2022-07-31T09:02:31.000Z</time>
      </trkpt>
      <trkpt lat="47.31504" lon="-2.24356">
        <ele>-14.60000038147</ele>
        <time>2022-07-31T09:02:34.000Z</time>
      </trkpt>
      <trkpt lat="47.31492" lon="-2.24337">
        <ele>-14.60000038147</ele>
        <time>2022-07-31T09:02:39.000Z</time>
      </trkpt>
      <trkpt lat="47.31486" lon="-2.24331">
        <ele>-14.60000038147</ele>
        <time>2022-07-31T09:02:41.000Z</time>
      </trkpt>
      <trkpt lat="47.31483" lon="-2.24327">
        <ele>-14.60000038147</ele>
        <time>2022-07-31T09:02:42.000Z</time>
      </trkpt>
      <trkpt lat="47.31482" lon="-2.24323">
        <ele>-14.60000038147</ele>
        <time>2022-07-31T09:02:43.000Z</time>
      </trkpt>
      <trkpt lat="47.31485" lon="-2.24313">
        <ele>-14.60000038147</ele>
        <time>2022-07-31T09:02:45.000Z</time>
      </trkpt>
      <trkpt lat="47.31491" lon="-2.24294">
        <ele>-14.60000038147</ele>
        <time>2022-07-31T09:02:48.000Z</time>
      </trkpt>
      <trkpt lat="47.31499" lon="-2.24281">
        <ele>-14.60000038147</ele>
        <time>2022-07-31T09:02:51.000Z</time>
      </trkpt>
      <trkpt lat="47.3152" lon="-2.24277">
        <ele>-14.60000038147</ele>
        <time>2022-07-31T09:02:55.000Z</time>
      </trkpt>
      <trkpt lat="47.31525" lon="-2.24277">
        <ele>-14.60000038147</ele>
        <time>2022-07-31T09:02:56.000Z</time>
      </trkpt>
      <trkpt lat="47.31533" lon="-2.24281">
        <ele>-14.60000038147</ele>
        <time>2022-07-31T09:02:58.000Z</time>
      </trkpt>
      <trkpt lat="47.31538" lon="-2.24283">
        <ele>-14.60000038147</ele>
        <time>2022-07-31T09:02:59.000Z</time>
      </trkpt>
      <trkpt lat="47.31546" lon="-2.24289">
        <ele>-14.60000038147</ele>
        <time>2022-07-31T09:03:01.000Z</time>
      </trkpt>
      <trkpt lat="47.31549" lon="-2.24295">
        <ele>-14.60000038147</ele>
        <time>2022-07-31T09:03:02.000Z</time>
      </trkpt>
      <trkpt lat="47.31563" lon="-2.2432">
        <ele>-14.60000038147</ele>
        <time>2022-07-31T09:03:07.000Z</time>
      </trkpt>
      <trkpt lat="47.31583" lon="-2.24337">
        <ele>-14.60000038147</ele>
        <time>2022-07-31T09:03:12.000Z</time>
      </trkpt>
      <trkpt lat="47.31596" lon="-2.24352">
        <ele>-14.60000038147</ele>
        <time>2022-07-31T09:03:16.000Z</time>
      </trkpt>
      <trkpt lat="47.31607" lon="-2.24362">
        <ele>-14.60000038147</ele>
        <time>2022-07-31T09:03:20.000Z</time>
      </trkpt>
      <trkpt lat="47.31616" lon="-2.24372">
        <ele>-14.60000038147</ele>
        <time>2022-07-31T09:03:24.000Z</time>
      </trkpt>
      <trkpt lat="47.31625" lon="-2.24387">
        <ele>-14.60000038147</ele>
        <time>2022-07-31T09:03:28.000Z</time>
      </trkpt>
      <trkpt lat="47.31631" lon="-2.24393">
        <ele>-14.60000038147</ele>
        <time>2022-07-31T09:03:32.000Z</time>
      </trkpt>
      <trkpt lat="47.31637" lon="-2.24403">
        <ele>-14.60000038147</ele>
        <time>2022-07-31T09:03:37.000Z</time>
      </trkpt>
      <trkpt lat="47.31644" lon="-2.24408">
        <ele>-14.60000038147</ele>
        <time>2022-07-31T09:03:42.000Z</time>
      </trkpt>
      <trkpt lat="47.31646" lon="-2.2441">
        <ele>-14.60000038147</ele>
        <time>2022-07-31T09:03:44.000Z</time>
      </trkpt>
      <trkpt lat="47.31649" lon="-2.24414">
        <ele>-14.60000038147</ele>
        <time>2022-07-31T09:03:53.000Z</time>
      </trkpt>
      <trkpt lat="47.31652" lon="-2.24419">
        <ele>-14.60000038147</ele>
        <time>2022-07-31T09:03:55.000Z</time>
      </trkpt>
      <trkpt lat="47.31664" lon="-2.24431">
        <ele>-14.60000038147</ele>
        <time>2022-07-31T09:03:59.000Z</time>
      </trkpt>
      <trkpt lat="47.31665" lon="-2.24435">
        <ele>-15</ele>
        <time>2022-07-31T09:04:00.000Z</time>
      </trkpt>
      <trkpt lat="47.31665" lon="-2.24438">
        <ele>-15.39999961853</ele>
        <time>2022-07-31T09:04:01.000Z</time>
      </trkpt>
      <trkpt lat="47.31663" lon="-2.2444">
        <ele>-15.800000190735</ele>
        <time>2022-07-31T09:04:02.000Z</time>
      </trkpt>
      <trkpt lat="47.31661" lon="-2.24443">
        <ele>-16.200000762939</ele>
        <time>2022-07-31T09:04:03.000Z</time>
      </trkpt>
      <trkpt lat="47.31659" lon="-2.24447">
        <ele>-16.60000038147</ele>
        <time>2022-07-31T09:04:04.000Z</time>
      </trkpt>
      <trkpt lat="47.31653" lon="-2.24451">
        <ele>-16.60000038147</ele>
        <time>2022-07-31T09:04:06.000Z</time>
      </trkpt>
      <trkpt lat="47.31646" lon="-2.24454">
        <ele>-16.60000038147</ele>
        <time>2022-07-31T09:04:08.000Z</time>
      </trkpt>
      <trkpt lat="47.31638" lon="-2.2446">
        <ele>-16.60000038147</ele>
        <time>2022-07-31T09:04:11.000Z</time>
      </trkpt>
      <trkpt lat="47.31636" lon="-2.24467">
        <ele>-16.60000038147</ele>
        <time>2022-07-31T09:04:14.000Z</time>
      </trkpt>
      <trkpt lat="47.31633" lon="-2.24469">
        <ele>-16.60000038147</ele>
        <time>2022-07-31T09:04:15.000Z</time>
      </trkpt>
      <trkpt lat="47.31628" lon="-2.24471">
        <ele>-16.60000038147</ele>
        <time>2022-07-31T09:04:17.000Z</time>
      </trkpt>
      <trkpt lat="47.31619" lon="-2.24476">
        <ele>-16.60000038147</ele>
        <time>2022-07-31T09:04:21.000Z</time>
      </trkpt>
      <trkpt lat="47.3162" lon="-2.24488">
        <ele>-16.60000038147</ele>
        <time>2022-07-31T09:04:25.000Z</time>
      </trkpt>
      <trkpt lat="47.31618" lon="-2.24499">
        <ele>-16.60000038147</ele>
        <time>2022-07-31T09:04:29.000Z</time>
      </trkpt>
      <trkpt lat="47.31606" lon="-2.24504">
        <ele>-16.60000038147</ele>
        <time>2022-07-31T09:04:33.000Z</time>
      </trkpt>
      <trkpt lat="47.31595" lon="-2.24496">
        <ele>-16.60000038147</ele>
        <time>2022-07-31T09:04:37.000Z</time>
      </trkpt>
      <trkpt lat="47.31593" lon="-2.24492">
        <ele>-16.60000038147</ele>
        <time>2022-07-31T09:04:38.000Z</time>
      </trkpt>
      <trkpt lat="47.31587" lon="-2.24487">
        <ele>-16.60000038147</ele>
        <time>2022-07-31T09:04:41.000Z</time>
      </trkpt>
      <trkpt lat="47.31576" lon="-2.24491">
        <ele>-16.60000038147</ele>
        <time>2022-07-31T09:04:46.000Z</time>
      </trkpt>
      <trkpt lat="47.3157" lon="-2.24483">
        <ele>-16.60000038147</ele>
        <time>2022-07-31T09:04:49.000Z</time>
      </trkpt>
      <trkpt lat="47.3156" lon="-2.24473">
        <ele>-16.60000038147</ele>
        <time>2022-07-31T09:04:52.000Z</time>
      </trkpt>
      <trkpt lat="47.31556" lon="-2.2447">
        <ele>-16.60000038147</ele>
        <time>2022-07-31T09:04:53.000Z</time>
      </trkpt>
      <trkpt lat="47.31546" lon="-2.24459">
        <ele>-16.60000038147</ele>
        <time>2022-07-31T09:04:56.000Z</time>
      </trkpt>
      <trkpt lat="47.31544" lon="-2.24454">
        <ele>-16.60000038147</ele>
        <time>2022-07-31T09:04:57.000Z</time>
      </trkpt>
      <trkpt lat="47.31543" lon="-2.24436">
        <ele>-16.60000038147</ele>
        <time>2022-07-31T09:05:00.000Z</time>
      </trkpt>
      <trkpt lat="47.3154" lon="-2.24425">
        <ele>-16.60000038147</ele>
        <time>2022-07-31T09:05:02.000Z</time>
      </trkpt>
      <trkpt lat="47.31528" lon="-2.24406">
        <ele>-16.60000038147</ele>
        <time>2022-07-31T09:05:07.000Z</time>
      </trkpt>
      <trkpt lat="47.31527" lon="-2.24404">
        <ele>-16.60000038147</ele>
        <time>2022-07-31T09:05:08.000Z</time>
      </trkpt>
      <trkpt lat="47.31524" lon="-2.24399">
        <ele>-16.60000038147</ele>
        <time>2022-07-31T09:05:11.000Z</time>
      </trkpt>
      <trkpt lat="47.31523" lon="-2.24395">
        <ele>-16.60000038147</ele>
        <time>2022-07-31T09:05:14.000Z</time>
      </trkpt>
      <trkpt lat="47.31519" lon="-2.24391">
        <ele>-16.60000038147</ele>
        <time>2022-07-31T09:06:14.000Z</time>
      </trkpt>
      <trkpt lat="47.31517" lon="-2.24391">
        <ele>-16.60000038147</ele>
        <time>2022-07-31T09:06:15.000Z</time>
      </trkpt>
      <trkpt lat="47.31503" lon="-2.24391">
        <ele>-16.60000038147</ele>
        <time>2022-07-31T09:06:20.000Z</time>
      </trkpt>
      <trkpt lat="47.315" lon="-2.24391">
        <ele>-16.60000038147</ele>
        <time>2022-07-31T09:06:21.000Z</time>
      </trkpt>
      <trkpt lat="47.31491" lon="-2.24395">
        <ele>-16.60000038147</ele>
        <time>2022-07-31T09:06:24.000Z</time>
      </trkpt>
      <trkpt lat="47.31475" lon="-2.24399">
        <ele>-16.60000038147</ele>
        <time>2022-07-31T09:06:28.000Z</time>
      </trkpt>
      <trkpt lat="47.31469" lon="-2.24401">
        <ele>-16.60000038147</ele>
        <time>2022-07-31T09:06:29.000Z</time>
      </trkpt>
      <trkpt lat="47.31461" lon="-2.2441">
        <ele>-16.60000038147</ele>
        <time>2022-07-31T09:06:31.000Z</time>
      </trkpt>
      <trkpt lat="47.31443" lon="-2.24426">
        <ele>-16.60000038147</ele>
        <time>2022-07-31T09:06:35.000Z</time>
      </trkpt>
      <trkpt lat="47.31434" lon="-2.24435">
        <ele>-16.60000038147</ele>
        <time>2022-07-31T09:06:37.000Z</time>
      </trkpt>
      <trkpt lat="47.3141" lon="-2.24458">
        <ele>-16.60000038147</ele>
        <time>2022-07-31T09:06:42.000Z</time>
      </trkpt>
      <trkpt lat="47.31377" lon="-2.24489">
        <ele>-16.60000038147</ele>
        <time>2022-07-31T09:06:49.000Z</time>
      </trkpt>
      <trkpt lat="47.31343" lon="-2.24527">
        <ele>-16.60000038147</ele>
        <time>2022-07-31T09:06:57.000Z</time>
      </trkpt>
      <trkpt lat="47.31317" lon="-2.2455">
        <ele>-16.60000038147</ele>
        <time>2022-07-31T09:07:03.000Z</time>
      </trkpt>
      <trkpt lat="47.31314" lon="-2.24555">
        <ele>-16.60000038147</ele>
        <time>2022-07-31T09:07:04.000Z</time>
      </trkpt>
      <trkpt lat="47.31282" lon="-2.24588">
        <ele>-16.60000038147</ele>
        <time>2022-07-31T09:07:12.000Z</time>
      </trkpt>
      <trkpt lat="47.31257" lon="-2.24613">
        <ele>-16.60000038147</ele>
        <time>2022-07-31T09:07:18.000Z</time>
      </trkpt>
      <trkpt lat="47.3125" lon="-2.24621">
        <ele>-16.60000038147</ele>
        <time>2022-07-31T09:07:20.000Z</time>
      </trkpt>
      <trkpt lat="47.31238" lon="-2.24635">
        <ele>-16.60000038147</ele>
        <time>2022-07-31T09:07:23.000Z</time>
      </trkpt>
      <trkpt lat="47.31235" lon="-2.24641">
        <ele>-16.60000038147</ele>
        <time>2022-07-31T09:07:24.000Z</time>
      </trkpt>
      <trkpt lat="47.3123" lon="-2.24646">
        <ele>-16.60000038147</ele>
        <time>2022-07-31T09:07:25.000Z</time>
      </trkpt>
      <trkpt lat="47.31215" lon="-2.2466">
        <ele>-16.60000038147</ele>
        <time>2022-07-31T09:07:28.000Z</time>
      </trkpt>
      <trkpt lat="47.31178" lon="-2.24705">
        <ele>-16.60000038147</ele>
        <time>2022-07-31T09:07:36.000Z</time>
      </trkpt>
      <trkpt lat="47.31175" lon="-2.24728">
        <ele>-16.60000038147</ele>
        <time>2022-07-31T09:07:39.000Z</time>
      </trkpt>
      <trkpt lat="47.31165" lon="-2.24745">
        <ele>-16.60000038147</ele>
        <time>2022-07-31T09:07:42.000Z</time>
      </trkpt>
      <trkpt lat="47.3115" lon="-2.24768">
        <ele>-16.60000038147</ele>
        <time>2022-07-31T09:07:46.000Z</time>
      </trkpt>
      <trkpt lat="47.31146" lon="-2.24773">
        <ele>-16.60000038147</ele>
        <time>2022-07-31T09:07:47.000Z</time>
      </trkpt>
      <trkpt lat="47.31136" lon="-2.24776">
        <ele>-16.60000038147</ele>
        <time>2022-07-31T09:07:49.000Z</time>
      </trkpt>
      <trkpt lat="47.31132" lon="-2.24786">
        <ele>-17.200000762939</ele>
        <time>2022-07-31T09:07:51.000Z</time>
      </trkpt>
      <trkpt lat="47.31132" lon="-2.24794">
        <ele>-17.60000038147</ele>
        <time>2022-07-31T09:07:52.000Z</time>
      </trkpt>
      <trkpt lat="47.31133" lon="-2.24801">
        <ele>-18.39999961853</ele>
        <time>2022-07-31T09:07:53.000Z</time>
      </trkpt>
      <trkpt lat="47.31135" lon="-2.24809">
        <ele>-18.799999237061</ele>
        <time>2022-07-31T09:07:54.000Z</time>
      </trkpt>
      <trkpt lat="47.31137" lon="-2.24816">
        <ele>-18.799999237061</ele>
        <time>2022-07-31T09:07:55.000Z</time>
      </trkpt>
      <trkpt lat="47.31139" lon="-2.24824">
        <ele>-18.799999237061</ele>
        <time>2022-07-31T09:07:56.000Z</time>
      </trkpt>
      <trkpt lat="47.31149" lon="-2.24855">
        <ele>-18.799999237061</ele>
        <time>2022-07-31T09:08:00.000Z</time>
      </trkpt>
      <trkpt lat="47.31154" lon="-2.24879">
        <ele>-18.799999237061</ele>
        <time>2022-07-31T09:08:03.000Z</time>
      </trkpt>
      <trkpt lat="47.31157" lon="-2.24904">
        <ele>-18.799999237061</ele>
        <time>2022-07-31T09:08:06.000Z</time>
      </trkpt>
      <trkpt lat="47.31166" lon="-2.24975">
        <ele>-18.799999237061</ele>
        <time>2022-07-31T09:08:14.000Z</time>
      </trkpt>
      <trkpt lat="47.3118" lon="-2.24989">
        <ele>-18.799999237061</ele>
        <time>2022-07-31T09:08:17.000Z</time>
      </trkpt>
      <trkpt lat="47.31201" lon="-2.25012">
        <ele>-18.799999237061</ele>
        <time>2022-07-31T09:08:21.000Z</time>
      </trkpt>
      <trkpt lat="47.31207" lon="-2.25028">
        <ele>-18.799999237061</ele>
        <time>2022-07-31T09:08:23.000Z</time>
      </trkpt>
      <trkpt lat="47.31216" lon="-2.25054">
        <ele>-18.799999237061</ele>
        <time>2022-07-31T09:08:26.000Z</time>
      </trkpt>
      <trkpt lat="47.31232" lon="-2.25096">
        <ele>-18.799999237061</ele>
        <time>2022-07-31T09:08:31.000Z</time>
      </trkpt>
      <trkpt lat="47.31235" lon="-2.25104">
        <ele>-18.799999237061</ele>
        <time>2022-07-31T09:08:32.000Z</time>
      </trkpt>
      <trkpt lat="47.31259" lon="-2.25153">
        <ele>-18.799999237061</ele>
        <time>2022-07-31T09:08:38.000Z</time>
      </trkpt>
      <trkpt lat="47.31291" lon="-2.25206">
        <ele>-18.799999237061</ele>
        <time>2022-07-31T09:08:45.000Z</time>
      </trkpt>
      <trkpt lat="47.31323" lon="-2.25245">
        <ele>-18.799999237061</ele>
        <time>2022-07-31T09:08:51.000Z</time>
      </trkpt>
      <trkpt lat="47.31337" lon="-2.25267">
        <ele>-18.799999237061</ele>
        <time>2022-07-31T09:08:54.000Z</time>
      </trkpt>
      <trkpt lat="47.31344" lon="-2.25285">
        <ele>-18.799999237061</ele>
        <time>2022-07-31T09:08:56.000Z</time>
      </trkpt>
      <trkpt lat="47.31348" lon="-2.25323">
        <ele>-18.799999237061</ele>
        <time>2022-07-31T09:09:00.000Z</time>
      </trkpt>
      <trkpt lat="47.31354" lon="-2.25371">
        <ele>-18.799999237061</ele>
        <time>2022-07-31T09:09:05.000Z</time>
      </trkpt>
      <trkpt lat="47.31358" lon="-2.25379">
        <ele>-18.799999237061</ele>
        <time>2022-07-31T09:09:06.000Z</time>
      </trkpt>
      <trkpt lat="47.31376" lon="-2.25404">
        <ele>-18.799999237061</ele>
        <time>2022-07-31T09:09:10.000Z</time>
      </trkpt>
      <trkpt lat="47.31397" lon="-2.25427">
        <ele>-18.799999237061</ele>
        <time>2022-07-31T09:09:14.000Z</time>
      </trkpt>
      <trkpt lat="47.31402" lon="-2.25434">
        <ele>-18.799999237061</ele>
        <time>2022-07-31T09:09:15.000Z</time>
      </trkpt>
      <trkpt lat="47.31406" lon="-2.25442">
        <ele>-18.799999237061</ele>
        <time>2022-07-31T09:09:16.000Z</time>
      </trkpt>
      <trkpt lat="47.31416" lon="-2.25467">
        <ele>-18.799999237061</ele>
        <time>2022-07-31T09:09:19.000Z</time>
      </trkpt>
      <trkpt lat="47.31437" lon="-2.25516">
        <ele>-18.799999237061</ele>
        <time>2022-07-31T09:09:25.000Z</time>
      </trkpt>
      <trkpt lat="47.31461" lon="-2.25548">
        <ele>-18.799999237061</ele>
        <time>2022-07-31T09:09:30.000Z</time>
      </trkpt>
      <trkpt lat="47.31478" lon="-2.25563">
        <ele>-18.799999237061</ele>
        <time>2022-07-31T09:09:33.000Z</time>
      </trkpt>
      <trkpt lat="47.31489" lon="-2.25573">
        <ele>-18.799999237061</ele>
        <time>2022-07-31T09:09:35.000Z</time>
      </trkpt>
      <trkpt lat="47.31498" lon="-2.25586">
        <ele>-18.799999237061</ele>
        <time>2022-07-31T09:09:37.000Z</time>
      </trkpt>
      <trkpt lat="47.31505" lon="-2.256">
        <ele>-18.799999237061</ele>
        <time>2022-07-31T09:09:39.000Z</time>
      </trkpt>
      <trkpt lat="47.31517" lon="-2.25641">
        <ele>-18.799999237061</ele>
        <time>2022-07-31T09:09:44.000Z</time>
      </trkpt>
      <trkpt lat="47.31522" lon="-2.25665">
        <ele>-18.799999237061</ele>
        <time>2022-07-31T09:09:47.000Z</time>
      </trkpt>
      <trkpt lat="47.31528" lon="-2.25688">
        <ele>-18.799999237061</ele>
        <time>2022-07-31T09:09:50.000Z</time>
      </trkpt>
      <trkpt lat="47.31537" lon="-2.25717">
        <ele>-18.799999237061</ele>
        <time>2022-07-31T09:09:54.000Z</time>
      </trkpt>
      <trkpt lat="47.31539" lon="-2.25725">
        <ele>-18.799999237061</ele>
        <time>2022-07-31T09:09:55.000Z</time>
      </trkpt>
      <trkpt lat="47.31542" lon="-2.25769">
        <ele>-18.799999237061</ele>
        <time>2022-07-31T09:10:00.000Z</time>
      </trkpt>
      <trkpt lat="47.31547" lon="-2.25798">
        <ele>-18.799999237061</ele>
        <time>2022-07-31T09:10:03.000Z</time>
      </trkpt>
      <trkpt lat="47.31549" lon="-2.25808">
        <ele>-18.799999237061</ele>
        <time>2022-07-31T09:10:04.000Z</time>
      </trkpt>
      <trkpt lat="47.31552" lon="-2.25855">
        <ele>-18.799999237061</ele>
        <time>2022-07-31T09:10:09.000Z</time>
      </trkpt>
      <trkpt lat="47.31545" lon="-2.25888">
        <ele>-18.799999237061</ele>
        <time>2022-07-31T09:10:13.000Z</time>
      </trkpt>
      <trkpt lat="47.31526" lon="-2.25917">
        <ele>-18.799999237061</ele>
        <time>2022-07-31T09:10:17.000Z</time>
      </trkpt>
      <trkpt lat="47.31501" lon="-2.25966">
        <ele>-18.799999237061</ele>
        <time>2022-07-31T09:10:23.000Z</time>
      </trkpt>
      <trkpt lat="47.31485" lon="-2.25997">
        <ele>-18.799999237061</ele>
        <time>2022-07-31T09:10:28.000Z</time>
      </trkpt>
      <trkpt lat="47.31477" lon="-2.26009">
        <ele>-18.799999237061</ele>
        <time>2022-07-31T09:10:30.000Z</time>
      </trkpt>
      <trkpt lat="47.31468" lon="-2.26024">
        <ele>-18.799999237061</ele>
        <time>2022-07-31T09:10:32.000Z</time>
      </trkpt>
      <trkpt lat="47.31444" lon="-2.26062">
        <ele>-18.799999237061</ele>
        <time>2022-07-31T09:10:38.000Z</time>
      </trkpt>
      <trkpt lat="47.31437" lon="-2.26077">
        <ele>-18.799999237061</ele>
        <time>2022-07-31T09:10:41.000Z</time>
      </trkpt>
      <trkpt lat="47.31422" lon="-2.26112">
        <ele>-18.799999237061</ele>
        <time>2022-07-31T09:10:47.000Z</time>
      </trkpt>
      <trkpt lat="47.31411" lon="-2.2613">
        <ele>-18.799999237061</ele>
        <time>2022-07-31T09:10:50.000Z</time>
      </trkpt>
      <trkpt lat="47.31399" lon="-2.26144">
        <ele>-18.799999237061</ele>
        <time>2022-07-31T09:10:53.000Z</time>
      </trkpt>
      <trkpt lat="47.31384" lon="-2.26154">
        <ele>-18.799999237061</ele>
        <time>2022-07-31T09:10:57.000Z</time>
      </trkpt>
      <trkpt lat="47.3138" lon="-2.26156">
        <ele>-18.799999237061</ele>
        <time>2022-07-31T09:10:58.000Z</time>
      </trkpt>
      <trkpt lat="47.31376" lon="-2.26153">
        <ele>-18.799999237061</ele>
        <time>2022-07-31T09:10:59.000Z</time>
      </trkpt>
      <trkpt lat="47.31371" lon="-2.26143">
        <ele>-18.799999237061</ele>
        <time>2022-07-31T09:11:01.000Z</time>
      </trkpt>
      <trkpt lat="47.31367" lon="-2.2613">
        <ele>-18.799999237061</ele>
        <time>2022-07-31T09:11:03.000Z</time>
      </trkpt>
      <trkpt lat="47.31363" lon="-2.26117">
        <ele>-18.799999237061</ele>
        <time>2022-07-31T09:11:05.000Z</time>
      </trkpt>
      <trkpt lat="47.31358" lon="-2.26105">
        <ele>-18.799999237061</ele>
        <time>2022-07-31T09:11:07.000Z</time>
      </trkpt>
      <trkpt lat="47.31354" lon="-2.26095">
        <ele>-18.39999961853</ele>
        <time>2022-07-31T09:11:09.000Z</time>
      </trkpt>
      <trkpt lat="47.31352" lon="-2.26091">
        <ele>-17.60000038147</ele>
        <time>2022-07-31T09:11:10.000Z</time>
      </trkpt>
      <trkpt lat="47.31349" lon="-2.26085">
        <ele>-17.200000762939</ele>
        <time>2022-07-31T09:11:11.000Z</time>
      </trkpt>
      <trkpt lat="47.31346" lon="-2.26078">
        <ele>-16.799999237061</ele>
        <time>2022-07-31T09:11:12.000Z</time>
      </trkpt>
      <trkpt lat="47.31343" lon="-2.26071">
        <ele>-16.799999237061</ele>
        <time>2022-07-31T09:11:13.000Z</time>
      </trkpt>
      <trkpt lat="47.31341" lon="-2.26064">
        <ele>-16.799999237061</ele>
        <time>2022-07-31T09:11:14.000Z</time>
      </trkpt>
      <trkpt lat="47.31328" lon="-2.26032">
        <ele>-16.799999237061</ele>
        <time>2022-07-31T09:11:19.000Z</time>
      </trkpt>
      <trkpt lat="47.31326" lon="-2.26026">
        <ele>-16.799999237061</ele>
        <time>2022-07-31T09:11:20.000Z</time>
      </trkpt>
      <trkpt lat="47.31322" lon="-2.26014">
        <ele>-16.799999237061</ele>
        <time>2022-07-31T09:11:22.000Z</time>
      </trkpt>
      <trkpt lat="47.31319" lon="-2.26009">
        <ele>-16.39999961853</ele>
        <time>2022-07-31T09:11:23.000Z</time>
      </trkpt>
      <trkpt lat="47.31316" lon="-2.26004">
        <ele>-15.800000190735</ele>
        <time>2022-07-31T09:11:24.000Z</time>
      </trkpt>
      <trkpt lat="47.31313" lon="-2.26">
        <ele>-15.39999961853</ele>
        <time>2022-07-31T09:11:25.000Z</time>
      </trkpt>
      <trkpt lat="47.31308" lon="-2.25999">
        <ele>-15</ele>
        <time>2022-07-31T09:11:26.000Z</time>
      </trkpt>
      <trkpt lat="47.31303" lon="-2.25999">
        <ele>-14.60000038147</ele>
        <time>2022-07-31T09:11:27.000Z</time>
      </trkpt>
      <trkpt lat="47.31297" lon="-2.25999">
        <ele>-14.60000038147</ele>
        <time>2022-07-31T09:11:28.000Z</time>
      </trkpt>
      <trkpt lat="47.31281" lon="-2.26009">
        <ele>-14.60000038147</ele>
        <time>2022-07-31T09:11:31.000Z</time>
      </trkpt>
      <trkpt lat="47.31254" lon="-2.26026">
        <ele>-14.60000038147</ele>
        <time>2022-07-31T09:11:36.000Z</time>
      </trkpt>
      <trkpt lat="47.31228" lon="-2.26045">
        <ele>-15.199999809265</ele>
        <time>2022-07-31T09:11:41.000Z</time>
      </trkpt>
      <trkpt lat="47.31222" lon="-2.26048">
        <ele>-15.60000038147</ele>
        <time>2022-07-31T09:11:42.000Z</time>
      </trkpt>
      <trkpt lat="47.31216" lon="-2.26052">
        <ele>-16</ele>
        <time>2022-07-31T09:11:43.000Z</time>
      </trkpt>
      <trkpt lat="47.31211" lon="-2.26055">
        <ele>-16.39999961853</ele>
        <time>2022-07-31T09:11:44.000Z</time>
      </trkpt>
      <trkpt lat="47.31206" lon="-2.26059">
        <ele>-16.799999237061</ele>
        <time>2022-07-31T09:11:45.000Z</time>
      </trkpt>
      <trkpt lat="47.31201" lon="-2.26061">
        <ele>-16.799999237061</ele>
        <time>2022-07-31T09:11:46.000Z</time>
      </trkpt>
      <trkpt lat="47.31196" lon="-2.26061">
        <ele>-16.799999237061</ele>
        <time>2022-07-31T09:11:47.000Z</time>
      </trkpt>
      <trkpt lat="47.31186" lon="-2.26058">
        <ele>-16.799999237061</ele>
        <time>2022-07-31T09:11:49.000Z</time>
      </trkpt>
      <trkpt lat="47.31174" lon="-2.26052">
        <ele>-16.799999237061</ele>
        <time>2022-07-31T09:11:51.000Z</time>
      </trkpt>
      <trkpt lat="47.31158" lon="-2.26041">
        <ele>-16.799999237061</ele>
        <time>2022-07-31T09:11:54.000Z</time>
      </trkpt>
      <trkpt lat="47.31127" lon="-2.26024">
        <ele>-16.799999237061</ele>
        <time>2022-07-31T09:12:00.000Z</time>
      </trkpt>
      <trkpt lat="47.311" lon="-2.26009">
        <ele>-16.799999237061</ele>
        <time>2022-07-31T09:12:05.000Z</time>
      </trkpt>
      <trkpt lat="47.31094" lon="-2.26008">
        <ele>-16.799999237061</ele>
        <time>2022-07-31T09:12:06.000Z</time>
      </trkpt>
      <trkpt lat="47.31082" lon="-2.26009">
        <ele>-16.39999961853</ele>
        <time>2022-07-31T09:12:08.000Z</time>
      </trkpt>
      <trkpt lat="47.31077" lon="-2.26012">
        <ele>-16</ele>
        <time>2022-07-31T09:12:09.000Z</time>
      </trkpt>
      <trkpt lat="47.31071" lon="-2.26014">
        <ele>-15.60000038147</ele>
        <time>2022-07-31T09:12:10.000Z</time>
      </trkpt>
      <trkpt lat="47.31065" lon="-2.26016">
        <ele>-15.199999809265</ele>
        <time>2022-07-31T09:12:11.000Z</time>
      </trkpt>
      <trkpt lat="47.31059" lon="-2.26017">
        <ele>-14.60000038147</ele>
        <time>2022-07-31T09:12:12.000Z</time>
      </trkpt>
      <trkpt lat="47.31036" lon="-2.26017">
        <ele>-14.60000038147</ele>
        <time>2022-07-31T09:12:16.000Z</time>
      </trkpt>
      <trkpt lat="47.31006" lon="-2.26013">
        <ele>-14.60000038147</ele>
        <time>2022-07-31T09:12:21.000Z</time>
      </trkpt>
      <trkpt lat="47.30996" lon="-2.26014">
        <ele>-14.60000038147</ele>
        <time>2022-07-31T09:12:23.000Z</time>
      </trkpt>
      <trkpt lat="47.30975" lon="-2.26014">
        <ele>-14.60000038147</ele>
        <time>2022-07-31T09:12:27.000Z</time>
      </trkpt>
      <trkpt lat="47.30947" lon="-2.26019">
        <ele>-14.60000038147</ele>
        <time>2022-07-31T09:12:32.000Z</time>
      </trkpt>
      <trkpt lat="47.30942" lon="-2.26018">
        <ele>-14.60000038147</ele>
        <time>2022-07-31T09:12:33.000Z</time>
      </trkpt>
      <trkpt lat="47.30932" lon="-2.26019">
        <ele>-14.199999809265</ele>
        <time>2022-07-31T09:12:35.000Z</time>
      </trkpt>
      <trkpt lat="47.30927" lon="-2.26021">
        <ele>-13.800000190735</ele>
        <time>2022-07-31T09:12:36.000Z</time>
      </trkpt>
      <trkpt lat="47.30921" lon="-2.26022">
        <ele>-13.39999961853</ele>
        <time>2022-07-31T09:12:37.000Z</time>
      </trkpt>
      <trkpt lat="47.30916" lon="-2.26023">
        <ele>-13</ele>
        <time>2022-07-31T09:12:38.000Z</time>
      </trkpt>
      <trkpt lat="47.3091" lon="-2.26024">
        <ele>-12.60000038147</ele>
        <time>2022-07-31T09:12:39.000Z</time>
      </trkpt>
      <trkpt lat="47.30888" lon="-2.26025">
        <ele>-12.60000038147</ele>
        <time>2022-07-31T09:12:43.000Z</time>
      </trkpt>
      <trkpt lat="47.30878" lon="-2.26025">
        <ele>-12.60000038147</ele>
        <time>2022-07-31T09:12:45.000Z</time>
      </trkpt>
      <trkpt lat="47.30849" lon="-2.26024">
        <ele>-12.60000038147</ele>
        <time>2022-07-31T09:12:51.000Z</time>
      </trkpt>
      <trkpt lat="47.30843" lon="-2.26024">
        <ele>-12.60000038147</ele>
        <time>2022-07-31T09:12:52.000Z</time>
      </trkpt>
      <trkpt lat="47.30838" lon="-2.26023">
        <ele>-12.199999809265</ele>
        <time>2022-07-31T09:12:53.000Z</time>
      </trkpt>
      <trkpt lat="47.30833" lon="-2.26023">
        <ele>-11.800000190735</ele>
        <time>2022-07-31T09:12:54.000Z</time>
      </trkpt>
      <trkpt lat="47.30829" lon="-2.26023">
        <ele>-11.39999961853</ele>
        <time>2022-07-31T09:12:55.000Z</time>
      </trkpt>
      <trkpt lat="47.30824" lon="-2.26021">
        <ele>-11</ele>
        <time>2022-07-31T09:12:56.000Z</time>
      </trkpt>
      <trkpt lat="47.30821" lon="-2.26018">
        <ele>-10.60000038147</ele>
        <time>2022-07-31T09:12:57.000Z</time>
      </trkpt>
      <trkpt lat="47.30819" lon="-2.26014">
        <ele>-10.60000038147</ele>
        <time>2022-07-31T09:12:58.000Z</time>
      </trkpt>
      <trkpt lat="47.30813" lon="-2.26013">
        <ele>-10.199999809265</ele>
        <time>2022-07-31T09:13:01.000Z</time>
      </trkpt>
      <trkpt lat="47.3081" lon="-2.26015">
        <ele>-9.8000001907349</ele>
        <time>2022-07-31T09:13:02.000Z</time>
      </trkpt>
      <trkpt lat="47.30807" lon="-2.26018">
        <ele>-9.3999996185303</ele>
        <time>2022-07-31T09:13:03.000Z</time>
      </trkpt>
      <trkpt lat="47.30805" lon="-2.2602">
        <ele>-9</ele>
        <time>2022-07-31T09:13:04.000Z</time>
      </trkpt>
      <trkpt lat="47.30802" lon="-2.26023">
        <ele>-8.6000003814697</ele>
        <time>2022-07-31T09:13:05.000Z</time>
      </trkpt>
      <trkpt lat="47.30798" lon="-2.26026">
        <ele>-8.6000003814697</ele>
        <time>2022-07-31T09:13:06.000Z</time>
      </trkpt>
      <trkpt lat="47.30795" lon="-2.2603">
        <ele>-8.6000003814697</ele>
        <time>2022-07-31T09:13:07.000Z</time>
      </trkpt>
      <trkpt lat="47.30778" lon="-2.26042">
        <ele>-8.6000003814697</ele>
        <time>2022-07-31T09:13:11.000Z</time>
      </trkpt>
      <trkpt lat="47.30773" lon="-2.26045">
        <ele>-8.6000003814697</ele>
        <time>2022-07-31T09:13:12.000Z</time>
      </trkpt>
      <trkpt lat="47.3073" lon="-2.26066">
        <ele>-8.6000003814697</ele>
        <time>2022-07-31T09:13:19.000Z</time>
      </trkpt>
      <trkpt lat="47.30718" lon="-2.26073">
        <ele>-8.6000003814697</ele>
        <time>2022-07-31T09:13:21.000Z</time>
      </trkpt>
      <trkpt lat="47.30701" lon="-2.26081">
        <ele>-8.6000003814697</ele>
        <time>2022-07-31T09:13:24.000Z</time>
      </trkpt>
      <trkpt lat="47.30666" lon="-2.26101">
        <ele>-8.6000003814697</ele>
        <time>2022-07-31T09:13:30.000Z</time>
      </trkpt>
      <trkpt lat="47.30643" lon="-2.26114">
        <ele>-9</ele>
        <time>2022-07-31T09:13:34.000Z</time>
      </trkpt>
      <trkpt lat="47.30638" lon="-2.26117">
        <ele>-9.3999996185303</ele>
        <time>2022-07-31T09:13:35.000Z</time>
      </trkpt>
      <trkpt lat="47.30634" lon="-2.26118">
        <ele>-9.8000001907349</ele>
        <time>2022-07-31T09:13:36.000Z</time>
      </trkpt>
      <trkpt lat="47.30631" lon="-2.26123">
        <ele>-10.199999809265</ele>
        <time>2022-07-31T09:13:37.000Z</time>
      </trkpt>
      <trkpt lat="47.30629" lon="-2.2613">
        <ele>-10.60000038147</ele>
        <time>2022-07-31T09:13:38.000Z</time>
      </trkpt>
      <trkpt lat="47.30626" lon="-2.26135">
        <ele>-10.60000038147</ele>
        <time>2022-07-31T09:13:39.000Z</time>
      </trkpt>
      <trkpt lat="47.30612" lon="-2.26156">
        <ele>-10.60000038147</ele>
        <time>2022-07-31T09:13:43.000Z</time>
      </trkpt>
      <trkpt lat="47.30609" lon="-2.26162">
        <ele>-10.60000038147</ele>
        <time>2022-07-31T09:13:44.000Z</time>
      </trkpt>
      <trkpt lat="47.30596" lon="-2.26188">
        <ele>-10.60000038147</ele>
        <time>2022-07-31T09:13:48.000Z</time>
      </trkpt>
      <trkpt lat="47.30589" lon="-2.26218">
        <ele>-10.60000038147</ele>
        <time>2022-07-31T09:13:52.000Z</time>
      </trkpt>
      <trkpt lat="47.30587" lon="-2.26225">
        <ele>-10.60000038147</ele>
        <time>2022-07-31T09:13:53.000Z</time>
      </trkpt>
      <trkpt lat="47.30575" lon="-2.26266">
        <ele>-10.60000038147</ele>
        <time>2022-07-31T09:13:58.000Z</time>
      </trkpt>
      <trkpt lat="47.30561" lon="-2.26316">
        <ele>-10.60000038147</ele>
        <time>2022-07-31T09:14:04.000Z</time>
      </trkpt>
      <trkpt lat="47.30546" lon="-2.26372">
        <ele>-10.60000038147</ele>
        <time>2022-07-31T09:14:11.000Z</time>
      </trkpt>
      <trkpt lat="47.30531" lon="-2.26409">
        <ele>-10.60000038147</ele>
        <time>2022-07-31T09:14:16.000Z</time>
      </trkpt>
      <trkpt lat="47.30513" lon="-2.26447">
        <ele>-10.60000038147</ele>
        <time>2022-07-31T09:14:21.000Z</time>
      </trkpt>
      <trkpt lat="47.30498" lon="-2.26484">
        <ele>-10.60000038147</ele>
        <time>2022-07-31T09:14:26.000Z</time>
      </trkpt>
      <trkpt lat="47.30478" lon="-2.26524">
        <ele>-10.60000038147</ele>
        <time>2022-07-31T09:14:32.000Z</time>
      </trkpt>
      <trkpt lat="47.3046" lon="-2.26559">
        <ele>-10.60000038147</ele>
        <time>2022-07-31T09:14:37.000Z</time>
      </trkpt>
      <trkpt lat="47.30453" lon="-2.26573">
        <ele>-10.60000038147</ele>
        <time>2022-07-31T09:14:39.000Z</time>
      </trkpt>
      <trkpt lat="47.30446" lon="-2.26589">
        <ele>-10.60000038147</ele>
        <time>2022-07-31T09:14:41.000Z</time>
      </trkpt>
      <trkpt lat="47.30424" lon="-2.26636">
        <ele>-10.60000038147</ele>
        <time>2022-07-31T09:14:47.000Z</time>
      </trkpt>
      <trkpt lat="47.30398" lon="-2.26689">
        <ele>-10.60000038147</ele>
        <time>2022-07-31T09:14:54.000Z</time>
      </trkpt>
      <trkpt lat="47.30368" lon="-2.26743">
        <ele>-10.60000038147</ele>
        <time>2022-07-31T09:15:01.000Z</time>
      </trkpt>
      <trkpt lat="47.30349" lon="-2.26782">
        <ele>-10.60000038147</ele>
        <time>2022-07-31T09:15:06.000Z</time>
      </trkpt>
      <trkpt lat="47.30348" lon="-2.26789">
        <ele>-10.60000038147</ele>
        <time>2022-07-31T09:15:07.000Z</time>
      </trkpt>
      <trkpt lat="47.30352" lon="-2.26814">
        <ele>-10.60000038147</ele>
        <time>2022-07-31T09:15:10.000Z</time>
      </trkpt>
      <trkpt lat="47.30354" lon="-2.2684">
        <ele>-10.60000038147</ele>
        <time>2022-07-31T09:15:13.000Z</time>
      </trkpt>
      <trkpt lat="47.30356" lon="-2.26858">
        <ele>-10.60000038147</ele>
        <time>2022-07-31T09:15:15.000Z</time>
      </trkpt>
      <trkpt lat="47.30359" lon="-2.26875">
        <ele>-10.60000038147</ele>
        <time>2022-07-31T09:15:17.000Z</time>
      </trkpt>
      <trkpt lat="47.30362" lon="-2.26892">
        <ele>-10.60000038147</ele>
        <time>2022-07-31T09:15:19.000Z</time>
      </trkpt>
      <trkpt lat="47.30364" lon="-2.26902">
        <ele>-10.60000038147</ele>
        <time>2022-07-31T09:15:20.000Z</time>
      </trkpt>
      <trkpt lat="47.30366" lon="-2.26911">
        <ele>-10.60000038147</ele>
        <time>2022-07-31T09:15:21.000Z</time>
      </trkpt>
      <trkpt lat="47.3037" lon="-2.26928">
        <ele>-11</ele>
        <time>2022-07-31T09:15:23.000Z</time>
      </trkpt>
      <trkpt lat="47.30372" lon="-2.26935">
        <ele>-11.39999961853</ele>
        <time>2022-07-31T09:15:24.000Z</time>
      </trkpt>
      <trkpt lat="47.30373" lon="-2.26945">
        <ele>-12</ele>
        <time>2022-07-31T09:15:25.000Z</time>
      </trkpt>
      <trkpt lat="47.30373" lon="-2.26955">
        <ele>-12.39999961853</ele>
        <time>2022-07-31T09:15:26.000Z</time>
      </trkpt>
      <trkpt lat="47.30372" lon="-2.26964">
        <ele>-12.800000190735</ele>
        <time>2022-07-31T09:15:27.000Z</time>
      </trkpt>
      <trkpt lat="47.30375" lon="-2.27001">
        <ele>-12.800000190735</ele>
        <time>2022-07-31T09:15:31.000Z</time>
      </trkpt>
      <trkpt lat="47.30375" lon="-2.27008">
        <ele>-12.800000190735</ele>
        <time>2022-07-31T09:15:32.000Z</time>
      </trkpt>
      <trkpt lat="47.30376" lon="-2.27042">
        <ele>-12.800000190735</ele>
        <time>2022-07-31T09:15:38.000Z</time>
      </trkpt>
      <trkpt lat="47.30375" lon="-2.27045">
        <ele>-12.800000190735</ele>
        <time>2022-07-31T09:15:39.000Z</time>
      </trkpt>
      <trkpt lat="47.30378" lon="-2.27055">
        <ele>-12.800000190735</ele>
        <time>2022-07-31T09:15:43.000Z</time>
      </trkpt>
      <trkpt lat="47.30386" lon="-2.27057">
        <ele>-12.800000190735</ele>
        <time>2022-07-31T09:15:46.000Z</time>
      </trkpt>
      <trkpt lat="47.3039" lon="-2.27057">
        <ele>-12.800000190735</ele>
        <time>2022-07-31T09:15:47.000Z</time>
      </trkpt>
      <trkpt lat="47.304" lon="-2.27066">
        <ele>-12.800000190735</ele>
        <time>2022-07-31T09:15:50.000Z</time>
      </trkpt>
      <trkpt lat="47.30404" lon="-2.27071">
        <ele>-12.800000190735</ele>
        <time>2022-07-31T09:15:51.000Z</time>
      </trkpt>
      <trkpt lat="47.30412" lon="-2.27096">
        <ele>-12.800000190735</ele>
        <time>2022-07-31T09:15:55.000Z</time>
      </trkpt>
      <trkpt lat="47.30414" lon="-2.27112">
        <ele>-13.199999809265</ele>
        <time>2022-07-31T09:15:57.000Z</time>
      </trkpt>
      <trkpt lat="47.30416" lon="-2.27119">
        <ele>-13.60000038147</ele>
        <time>2022-07-31T09:15:58.000Z</time>
      </trkpt>
      <trkpt lat="47.30417" lon="-2.27126">
        <ele>-14</ele>
        <time>2022-07-31T09:15:59.000Z</time>
      </trkpt>
      <trkpt lat="47.30417" lon="-2.27134">
        <ele>-14.39999961853</ele>
        <time>2022-07-31T09:16:00.000Z</time>
      </trkpt>
      <trkpt lat="47.30417" lon="-2.27141">
        <ele>-14.800000190735</ele>
        <time>2022-07-31T09:16:01.000Z</time>
      </trkpt>
      <trkpt lat="47.3041" lon="-2.27156">
        <ele>-14.800000190735</ele>
        <time>2022-07-31T09:16:04.000Z</time>
      </trkpt>
      <trkpt lat="47.30397" lon="-2.27159">
        <ele>-14.800000190735</ele>
        <time>2022-07-31T09:16:07.000Z</time>
      </trkpt>
      <trkpt lat="47.30388" lon="-2.27162">
        <ele>-14.800000190735</ele>
        <time>2022-07-31T09:16:09.000Z</time>
      </trkpt>
      <trkpt lat="47.30373" lon="-2.27169">
        <ele>-14.800000190735</ele>
        <time>2022-07-31T09:16:12.000Z</time>
      </trkpt>
      <trkpt lat="47.30341" lon="-2.27176">
        <ele>-14.800000190735</ele>
        <time>2022-07-31T09:16:17.000Z</time>
      </trkpt>
      <trkpt lat="47.30335" lon="-2.27178">
        <ele>-14.800000190735</ele>
        <time>2022-07-31T09:16:18.000Z</time>
      </trkpt>
      <trkpt lat="47.30316" lon="-2.27183">
        <ele>-14.800000190735</ele>
        <time>2022-07-31T09:16:21.000Z</time>
      </trkpt>
      <trkpt lat="47.30288" lon="-2.27187">
        <ele>-14.800000190735</ele>
        <time>2022-07-31T09:16:26.000Z</time>
      </trkpt>
      <trkpt lat="47.30265" lon="-2.27181">
        <ele>-14.800000190735</ele>
        <time>2022-07-31T09:16:30.000Z</time>
      </trkpt>
      <trkpt lat="47.3026" lon="-2.27178">
        <ele>-14.800000190735</ele>
        <time>2022-07-31T09:16:31.000Z</time>
      </trkpt>
      <trkpt lat="47.30249" lon="-2.27173">
        <ele>-14.800000190735</ele>
        <time>2022-07-31T09:16:33.000Z</time>
      </trkpt>
      <trkpt lat="47.30243" lon="-2.27169">
        <ele>-14.39999961853</ele>
        <time>2022-07-31T09:16:34.000Z</time>
      </trkpt>
      <trkpt lat="47.30238" lon="-2.27166">
        <ele>-14</ele>
        <time>2022-07-31T09:16:35.000Z</time>
      </trkpt>
      <trkpt lat="47.30233" lon="-2.27163">
        <ele>-13.60000038147</ele>
        <time>2022-07-31T09:16:36.000Z</time>
      </trkpt>
      <trkpt lat="47.30229" lon="-2.27161">
        <ele>-13</ele>
        <time>2022-07-31T09:16:37.000Z</time>
      </trkpt>
      <trkpt lat="47.30225" lon="-2.2716">
        <ele>-12.60000038147</ele>
        <time>2022-07-31T09:16:38.000Z</time>
      </trkpt>
      <trkpt lat="47.30215" lon="-2.2716">
        <ele>-12.60000038147</ele>
        <time>2022-07-31T09:16:40.000Z</time>
      </trkpt>
      <trkpt lat="47.30199" lon="-2.27177">
        <ele>-12.60000038147</ele>
        <time>2022-07-31T09:16:43.000Z</time>
      </trkpt>
      <trkpt lat="47.30194" lon="-2.27182">
        <ele>-12.60000038147</ele>
        <time>2022-07-31T09:16:44.000Z</time>
      </trkpt>
      <trkpt lat="47.30179" lon="-2.27201">
        <ele>-12.60000038147</ele>
        <time>2022-07-31T09:16:47.000Z</time>
      </trkpt>
      <trkpt lat="47.30146" lon="-2.27241">
        <ele>-12.60000038147</ele>
        <time>2022-07-31T09:16:53.000Z</time>
      </trkpt>
      <trkpt lat="47.30106" lon="-2.27294">
        <ele>-12.60000038147</ele>
        <time>2022-07-31T09:17:01.000Z</time>
      </trkpt>
      <trkpt lat="47.30102" lon="-2.273">
        <ele>-12.60000038147</ele>
        <time>2022-07-31T09:17:02.000Z</time>
      </trkpt>
      <trkpt lat="47.30079" lon="-2.27347">
        <ele>-12.60000038147</ele>
        <time>2022-07-31T09:17:08.000Z</time>
      </trkpt>
      <trkpt lat="47.30062" lon="-2.27387">
        <ele>-12.60000038147</ele>
        <time>2022-07-31T09:17:13.000Z</time>
      </trkpt>
      <trkpt lat="47.30059" lon="-2.27394">
        <ele>-12.60000038147</ele>
        <time>2022-07-31T09:17:14.000Z</time>
      </trkpt>
      <trkpt lat="47.30051" lon="-2.27408">
        <ele>-12.60000038147</ele>
        <time>2022-07-31T09:17:16.000Z</time>
      </trkpt>
      <trkpt lat="47.30037" lon="-2.27427">
        <ele>-12.60000038147</ele>
        <time>2022-07-31T09:17:19.000Z</time>
      </trkpt>
      <trkpt lat="47.30017" lon="-2.27454">
        <ele>-12.60000038147</ele>
        <time>2022-07-31T09:17:24.000Z</time>
      </trkpt>
      <trkpt lat="47.30012" lon="-2.27465">
        <ele>-12.60000038147</ele>
        <time>2022-07-31T09:17:26.000Z</time>
      </trkpt>
      <trkpt lat="47.30004" lon="-2.27482">
        <ele>-12.60000038147</ele>
        <time>2022-07-31T09:17:29.000Z</time>
      </trkpt>
      <trkpt lat="47.29997" lon="-2.27508">
        <ele>-12.60000038147</ele>
        <time>2022-07-31T09:17:33.000Z</time>
      </trkpt>
      <trkpt lat="47.29989" lon="-2.27543">
        <ele>-12.60000038147</ele>
        <time>2022-07-31T09:17:38.000Z</time>
      </trkpt>
      <trkpt lat="47.29978" lon="-2.27581">
        <ele>-12.60000038147</ele>
        <time>2022-07-31T09:17:43.000Z</time>
      </trkpt>
      <trkpt lat="47.29969" lon="-2.27613">
        <ele>-12.60000038147</ele>
        <time>2022-07-31T09:17:47.000Z</time>
      </trkpt>
      <trkpt lat="47.29966" lon="-2.27631">
        <ele>-12.60000038147</ele>
        <time>2022-07-31T09:17:49.000Z</time>
      </trkpt>
      <trkpt lat="47.29965" lon="-2.2764">
        <ele>-12.199999809265</ele>
        <time>2022-07-31T09:17:50.000Z</time>
      </trkpt>
      <trkpt lat="47.29964" lon="-2.27649">
        <ele>-11.800000190735</ele>
        <time>2022-07-31T09:17:51.000Z</time>
      </trkpt>
      <trkpt lat="47.29963" lon="-2.27659">
        <ele>-11.39999961853</ele>
        <time>2022-07-31T09:17:52.000Z</time>
      </trkpt>
      <trkpt lat="47.29962" lon="-2.27668">
        <ele>-11</ele>
        <time>2022-07-31T09:17:53.000Z</time>
      </trkpt>
      <trkpt lat="47.29961" lon="-2.27677">
        <ele>-10.60000038147</ele>
        <time>2022-07-31T09:17:54.000Z</time>
      </trkpt>
      <trkpt lat="47.2996" lon="-2.27686">
        <ele>-10.60000038147</ele>
        <time>2022-07-31T09:17:55.000Z</time>
      </trkpt>
      <trkpt lat="47.29955" lon="-2.27742">
        <ele>-10.60000038147</ele>
        <time>2022-07-31T09:18:01.000Z</time>
      </trkpt>
      <trkpt lat="47.2995" lon="-2.27798">
        <ele>-10.60000038147</ele>
        <time>2022-07-31T09:18:07.000Z</time>
      </trkpt>
      <trkpt lat="47.29945" lon="-2.27851">
        <ele>-10.199999809265</ele>
        <time>2022-07-31T09:18:13.000Z</time>
      </trkpt>
      <trkpt lat="47.29943" lon="-2.27861">
        <ele>-9.8000001907349</ele>
        <time>2022-07-31T09:18:14.000Z</time>
      </trkpt>
      <trkpt lat="47.29943" lon="-2.2787">
        <ele>-9.3999996185303</ele>
        <time>2022-07-31T09:18:15.000Z</time>
      </trkpt>
      <trkpt lat="47.29942" lon="-2.27878">
        <ele>-9</ele>
        <time>2022-07-31T09:18:16.000Z</time>
      </trkpt>
      <trkpt lat="47.29941" lon="-2.27888">
        <ele>-8.6000003814697</ele>
        <time>2022-07-31T09:18:17.000Z</time>
      </trkpt>
      <trkpt lat="47.29938" lon="-2.27915">
        <ele>-8.6000003814697</ele>
        <time>2022-07-31T09:18:20.000Z</time>
      </trkpt>
      <trkpt lat="47.29933" lon="-2.27974">
        <ele>-8.6000003814697</ele>
        <time>2022-07-31T09:18:27.000Z</time>
      </trkpt>
      <trkpt lat="47.29933" lon="-2.27983">
        <ele>-8.6000003814697</ele>
        <time>2022-07-31T09:18:28.000Z</time>
      </trkpt>
      <trkpt lat="47.29939" lon="-2.28018">
        <ele>-8.6000003814697</ele>
        <time>2022-07-31T09:18:32.000Z</time>
      </trkpt>
      <trkpt lat="47.29945" lon="-2.28033">
        <ele>-8.6000003814697</ele>
        <time>2022-07-31T09:18:34.000Z</time>
      </trkpt>
      <trkpt lat="47.29951" lon="-2.28046">
        <ele>-8.6000003814697</ele>
        <time>2022-07-31T09:18:36.000Z</time>
      </trkpt>
      <trkpt lat="47.29956" lon="-2.28048">
        <ele>-8.6000003814697</ele>
        <time>2022-07-31T09:18:37.000Z</time>
      </trkpt>
      <trkpt lat="47.29969" lon="-2.28042">
        <ele>-8.6000003814697</ele>
        <time>2022-07-31T09:18:40.000Z</time>
      </trkpt>
      <trkpt lat="47.29974" lon="-2.28039">
        <ele>-8.6000003814697</ele>
        <time>2022-07-31T09:18:41.000Z</time>
      </trkpt>
      <trkpt lat="47.29992" lon="-2.28034">
        <ele>-8.6000003814697</ele>
        <time>2022-07-31T09:18:46.000Z</time>
      </trkpt>
      <trkpt lat="47.29994" lon="-2.28045">
        <ele>-8.6000003814697</ele>
        <time>2022-07-31T09:18:49.000Z</time>
      </trkpt>
      <trkpt lat="47.29985" lon="-2.28067">
        <ele>-8.6000003814697</ele>
        <time>2022-07-31T09:18:53.000Z</time>
      </trkpt>
      <trkpt lat="47.29984" lon="-2.28073">
        <ele>-8.6000003814697</ele>
        <time>2022-07-31T09:18:54.000Z</time>
      </trkpt>
      <trkpt lat="47.29981" lon="-2.28079">
        <ele>-8.6000003814697</ele>
        <time>2022-07-31T09:18:55.000Z</time>
      </trkpt>
      <trkpt lat="47.29976" lon="-2.281">
        <ele>-8.6000003814697</ele>
        <time>2022-07-31T09:18:58.000Z</time>
      </trkpt>
      <trkpt lat="47.29974" lon="-2.28109">
        <ele>-8.6000003814697</ele>
        <time>2022-07-31T09:18:59.000Z</time>
      </trkpt>
      <trkpt lat="47.29964" lon="-2.28143">
        <ele>-8.6000003814697</ele>
        <time>2022-07-31T09:19:03.000Z</time>
      </trkpt>
      <trkpt lat="47.2995" lon="-2.28192">
        <ele>-8.6000003814697</ele>
        <time>2022-07-31T09:19:09.000Z</time>
      </trkpt>
      <trkpt lat="47.29947" lon="-2.28198">
        <ele>-8.6000003814697</ele>
        <time>2022-07-31T09:19:10.000Z</time>
      </trkpt>
      <trkpt lat="47.29945" lon="-2.28219">
        <ele>-8.6000003814697</ele>
        <time>2022-07-31T09:19:13.000Z</time>
      </trkpt>
      <trkpt lat="47.29945" lon="-2.28227">
        <ele>-8.6000003814697</ele>
        <time>2022-07-31T09:19:14.000Z</time>
      </trkpt>
      <trkpt lat="47.29946" lon="-2.28267">
        <ele>-8.6000003814697</ele>
        <time>2022-07-31T09:19:18.000Z</time>
      </trkpt>
      <trkpt lat="47.29947" lon="-2.28285">
        <ele>-8.6000003814697</ele>
        <time>2022-07-31T09:19:20.000Z</time>
      </trkpt>
      <trkpt lat="47.29947" lon="-2.28305">
        <ele>-8.6000003814697</ele>
        <time>2022-07-31T09:19:22.000Z</time>
      </trkpt>
      <trkpt lat="47.29947" lon="-2.28313">
        <ele>-8.6000003814697</ele>
        <time>2022-07-31T09:19:23.000Z</time>
      </trkpt>
      <trkpt lat="47.29946" lon="-2.28339">
        <ele>-8.6000003814697</ele>
        <time>2022-07-31T09:19:26.000Z</time>
      </trkpt>
      <trkpt lat="47.29943" lon="-2.28376">
        <ele>-8.6000003814697</ele>
        <time>2022-07-31T09:19:30.000Z</time>
      </trkpt>
      <trkpt lat="47.29944" lon="-2.28394">
        <ele>-8.6000003814697</ele>
        <time>2022-07-31T09:19:32.000Z</time>
      </trkpt>
      <trkpt lat="47.29945" lon="-2.28412">
        <ele>-8.6000003814697</ele>
        <time>2022-07-31T09:19:34.000Z</time>
      </trkpt>
      <trkpt lat="47.29937" lon="-2.28431">
        <ele>-8.6000003814697</ele>
        <time>2022-07-31T09:19:37.000Z</time>
      </trkpt>
      <trkpt lat="47.29933" lon="-2.28458">
        <ele>-8.6000003814697</ele>
        <time>2022-07-31T09:19:40.000Z</time>
      </trkpt>
      <trkpt lat="47.29933" lon="-2.28475">
        <ele>-8.6000003814697</ele>
        <time>2022-07-31T09:19:42.000Z</time>
      </trkpt>
      <trkpt lat="47.29936" lon="-2.28494">
        <ele>-8.6000003814697</ele>
        <time>2022-07-31T09:19:44.000Z</time>
      </trkpt>
      <trkpt lat="47.29927" lon="-2.28521">
        <ele>-8.6000003814697</ele>
        <time>2022-07-31T09:19:47.000Z</time>
      </trkpt>
      <trkpt lat="47.29924" lon="-2.28529">
        <ele>-8.6000003814697</ele>
        <time>2022-07-31T09:19:48.000Z</time>
      </trkpt>
      <trkpt lat="47.29923" lon="-2.28538">
        <ele>-8.6000003814697</ele>
        <time>2022-07-31T09:19:49.000Z</time>
      </trkpt>
      <trkpt lat="47.29929" lon="-2.28555">
        <ele>-8.6000003814697</ele>
        <time>2022-07-31T09:19:51.000Z</time>
      </trkpt>
      <trkpt lat="47.2994" lon="-2.28573">
        <ele>-8.6000003814697</ele>
        <time>2022-07-31T09:19:54.000Z</time>
      </trkpt>
      <trkpt lat="47.29936" lon="-2.28595">
        <ele>-8.6000003814697</ele>
        <time>2022-07-31T09:19:57.000Z</time>
      </trkpt>
      <trkpt lat="47.29932" lon="-2.28622">
        <ele>-9</ele>
        <time>2022-07-31T09:20:00.000Z</time>
      </trkpt>
      <trkpt lat="47.2993" lon="-2.28631">
        <ele>-9.3999996185303</ele>
        <time>2022-07-31T09:20:01.000Z</time>
      </trkpt>
      <trkpt lat="47.29929" lon="-2.28639">
        <ele>-9.8000001907349</ele>
        <time>2022-07-31T09:20:02.000Z</time>
      </trkpt>
      <trkpt lat="47.29927" lon="-2.28647">
        <ele>-10.199999809265</ele>
        <time>2022-07-31T09:20:03.000Z</time>
      </trkpt>
      <trkpt lat="47.29925" lon="-2.28656">
        <ele>-10.60000038147</ele>
        <time>2022-07-31T09:20:04.000Z</time>
      </trkpt>
      <trkpt lat="47.29918" lon="-2.28682">
        <ele>-10.60000038147</ele>
        <time>2022-07-31T09:20:07.000Z</time>
      </trkpt>
      <trkpt lat="47.29911" lon="-2.28721">
        <ele>-10.60000038147</ele>
        <time>2022-07-31T09:20:11.000Z</time>
      </trkpt>
      <trkpt lat="47.29909" lon="-2.28731">
        <ele>-10.60000038147</ele>
        <time>2022-07-31T09:20:12.000Z</time>
      </trkpt>
      <trkpt lat="47.29901" lon="-2.2879">
        <ele>-10.60000038147</ele>
        <time>2022-07-31T09:20:18.000Z</time>
      </trkpt>
      <trkpt lat="47.29898" lon="-2.28799">
        <ele>-10.60000038147</ele>
        <time>2022-07-31T09:20:19.000Z</time>
      </trkpt>
      <trkpt lat="47.29894" lon="-2.28826">
        <ele>-10.60000038147</ele>
        <time>2022-07-31T09:20:22.000Z</time>
      </trkpt>
      <trkpt lat="47.29884" lon="-2.2888">
        <ele>-10.60000038147</ele>
        <time>2022-07-31T09:20:28.000Z</time>
      </trkpt>
      <trkpt lat="47.29881" lon="-2.28888">
        <ele>-10.60000038147</ele>
        <time>2022-07-31T09:20:29.000Z</time>
      </trkpt>
      <trkpt lat="47.29874" lon="-2.28909">
        <ele>-10.60000038147</ele>
        <time>2022-07-31T09:20:32.000Z</time>
      </trkpt>
      <trkpt lat="47.29875" lon="-2.2894">
        <ele>-10.60000038147</ele>
        <time>2022-07-31T09:20:36.000Z</time>
      </trkpt>
      <trkpt lat="47.29885" lon="-2.28946">
        <ele>-11.199999809265</ele>
        <time>2022-07-31T09:20:38.000Z</time>
      </trkpt>
      <trkpt lat="47.2989" lon="-2.28945">
        <ele>-11.60000038147</ele>
        <time>2022-07-31T09:20:39.000Z</time>
      </trkpt>
      <trkpt lat="47.29895" lon="-2.28946">
        <ele>-12.39999961853</ele>
        <time>2022-07-31T09:20:40.000Z</time>
      </trkpt>
      <trkpt lat="47.29901" lon="-2.28946">
        <ele>-12.800000190735</ele>
        <time>2022-07-31T09:20:41.000Z</time>
      </trkpt>
      <trkpt lat="47.29917" lon="-2.2895">
        <ele>-12.800000190735</ele>
        <time>2022-07-31T09:20:44.000Z</time>
      </trkpt>
      <trkpt lat="47.29922" lon="-2.28954">
        <ele>-12.800000190735</ele>
        <time>2022-07-31T09:20:45.000Z</time>
      </trkpt>
      <trkpt lat="47.29932" lon="-2.28972">
        <ele>-12.800000190735</ele>
        <time>2022-07-31T09:20:48.000Z</time>
      </trkpt>
      <trkpt lat="47.29941" lon="-2.28984">
        <ele>-12.800000190735</ele>
        <time>2022-07-31T09:20:50.000Z</time>
      </trkpt>
      <trkpt lat="47.29952" lon="-2.29005">
        <ele>-12.800000190735</ele>
        <time>2022-07-31T09:20:53.000Z</time>
      </trkpt>
      <trkpt lat="47.29961" lon="-2.2902">
        <ele>-12.800000190735</ele>
        <time>2022-07-31T09:20:55.000Z</time>
      </trkpt>
      <trkpt lat="47.2997" lon="-2.29035">
        <ele>-12.800000190735</ele>
        <time>2022-07-31T09:20:57.000Z</time>
      </trkpt>
      <trkpt lat="47.29984" lon="-2.29058">
        <ele>-13.199999809265</ele>
        <time>2022-07-31T09:21:00.000Z</time>
      </trkpt>
      <trkpt lat="47.29987" lon="-2.29067">
        <ele>-13.60000038147</ele>
        <time>2022-07-31T09:21:01.000Z</time>
      </trkpt>
      <trkpt lat="47.2999" lon="-2.29075">
        <ele>-14</ele>
        <time>2022-07-31T09:21:02.000Z</time>
      </trkpt>
      <trkpt lat="47.29995" lon="-2.29083">
        <ele>-14.39999961853</ele>
        <time>2022-07-31T09:21:03.000Z</time>
      </trkpt>
      <trkpt lat="47.30001" lon="-2.29088">
        <ele>-14.800000190735</ele>
        <time>2022-07-31T09:21:04.000Z</time>
      </trkpt>
      <trkpt lat="47.30007" lon="-2.29094">
        <ele>-14.800000190735</ele>
        <time>2022-07-31T09:21:05.000Z</time>
      </trkpt>
      <trkpt lat="47.30042" lon="-2.29124">
        <ele>-14.800000190735</ele>
        <time>2022-07-31T09:21:11.000Z</time>
      </trkpt>
      <trkpt lat="47.30059" lon="-2.29137">
        <ele>-14.800000190735</ele>
        <time>2022-07-31T09:21:14.000Z</time>
      </trkpt>
      <trkpt lat="47.30068" lon="-2.29149">
        <ele>-14.800000190735</ele>
        <time>2022-07-31T09:21:16.000Z</time>
      </trkpt>
      <trkpt lat="47.30077" lon="-2.29163">
        <ele>-14.800000190735</ele>
        <time>2022-07-31T09:21:18.000Z</time>
      </trkpt>
      <trkpt lat="47.30097" lon="-2.2919">
        <ele>-14.800000190735</ele>
        <time>2022-07-31T09:21:22.000Z</time>
      </trkpt>
      <trkpt lat="47.30119" lon="-2.29222">
        <ele>-14.800000190735</ele>
        <time>2022-07-31T09:21:27.000Z</time>
      </trkpt>
      <trkpt lat="47.30143" lon="-2.2926">
        <ele>-14.800000190735</ele>
        <time>2022-07-31T09:21:33.000Z</time>
      </trkpt>
      <trkpt lat="47.30148" lon="-2.29266">
        <ele>-15.199999809265</ele>
        <time>2022-07-31T09:21:34.000Z</time>
      </trkpt>
      <trkpt lat="47.30151" lon="-2.2927">
        <ele>-15.60000038147</ele>
        <time>2022-07-31T09:21:35.000Z</time>
      </trkpt>
      <trkpt lat="47.30155" lon="-2.29274">
        <ele>-16</ele>
        <time>2022-07-31T09:21:36.000Z</time>
      </trkpt>
      <trkpt lat="47.30158" lon="-2.29278">
        <ele>-16.39999961853</ele>
        <time>2022-07-31T09:21:37.000Z</time>
      </trkpt>
      <trkpt lat="47.30161" lon="-2.29282">
        <ele>-16.799999237061</ele>
        <time>2022-07-31T09:21:38.000Z</time>
      </trkpt>
      <trkpt lat="47.30174" lon="-2.29303">
        <ele>-16.799999237061</ele>
        <time>2022-07-31T09:21:42.000Z</time>
      </trkpt>
      <trkpt lat="47.30197" lon="-2.29338">
        <ele>-16.799999237061</ele>
        <time>2022-07-31T09:21:48.000Z</time>
      </trkpt>
      <trkpt lat="47.30201" lon="-2.29345">
        <ele>-16.799999237061</ele>
        <time>2022-07-31T09:21:49.000Z</time>
      </trkpt>
      <trkpt lat="47.30208" lon="-2.29372">
        <ele>-16.799999237061</ele>
        <time>2022-07-31T09:21:52.000Z</time>
      </trkpt>
      <trkpt lat="47.30209" lon="-2.2938">
        <ele>-16.799999237061</ele>
        <time>2022-07-31T09:21:53.000Z</time>
      </trkpt>
      <trkpt lat="47.30213" lon="-2.29388">
        <ele>-16.799999237061</ele>
        <time>2022-07-31T09:21:54.000Z</time>
      </trkpt>
      <trkpt lat="47.30219" lon="-2.29411">
        <ele>-16.799999237061</ele>
        <time>2022-07-31T09:21:57.000Z</time>
      </trkpt>
      <trkpt lat="47.3021" lon="-2.29433">
        <ele>-16.799999237061</ele>
        <time>2022-07-31T09:22:00.000Z</time>
      </trkpt>
      <trkpt lat="47.30207" lon="-2.2944">
        <ele>-16.799999237061</ele>
        <time>2022-07-31T09:22:01.000Z</time>
      </trkpt>
      <trkpt lat="47.30195" lon="-2.2946">
        <ele>-16.799999237061</ele>
        <time>2022-07-31T09:22:04.000Z</time>
      </trkpt>
      <trkpt lat="47.30188" lon="-2.29475">
        <ele>-16.799999237061</ele>
        <time>2022-07-31T09:22:06.000Z</time>
      </trkpt>
      <trkpt lat="47.30177" lon="-2.29498">
        <ele>-16.799999237061</ele>
        <time>2022-07-31T09:22:09.000Z</time>
      </trkpt>
      <trkpt lat="47.3017" lon="-2.2951">
        <ele>-16.799999237061</ele>
        <time>2022-07-31T09:22:11.000Z</time>
      </trkpt>
      <trkpt lat="47.30167" lon="-2.29518">
        <ele>-16.799999237061</ele>
        <time>2022-07-31T09:22:12.000Z</time>
      </trkpt>
      <trkpt lat="47.30157" lon="-2.2954">
        <ele>-16.799999237061</ele>
        <time>2022-07-31T09:22:15.000Z</time>
      </trkpt>
      <trkpt lat="47.30143" lon="-2.29577">
        <ele>-16.799999237061</ele>
        <time>2022-07-31T09:22:20.000Z</time>
      </trkpt>
      <trkpt lat="47.30144" lon="-2.29604">
        <ele>-16.799999237061</ele>
        <time>2022-07-31T09:22:23.000Z</time>
      </trkpt>
      <trkpt lat="47.30145" lon="-2.29612">
        <ele>-16.799999237061</ele>
        <time>2022-07-31T09:22:24.000Z</time>
      </trkpt>
      <trkpt lat="47.30143" lon="-2.29646">
        <ele>-16.799999237061</ele>
        <time>2022-07-31T09:22:29.000Z</time>
      </trkpt>
      <trkpt lat="47.3014" lon="-2.29649">
        <ele>-16.799999237061</ele>
        <time>2022-07-31T09:22:30.000Z</time>
      </trkpt>
      <trkpt lat="47.30136" lon="-2.2965">
        <ele>-16.799999237061</ele>
        <time>2022-07-31T09:22:31.000Z</time>
      </trkpt>
      <trkpt lat="47.30115" lon="-2.29651">
        <ele>-16.799999237061</ele>
        <time>2022-07-31T09:22:36.000Z</time>
      </trkpt>
      <trkpt lat="47.30095" lon="-2.29644">
        <ele>-16.799999237061</ele>
        <time>2022-07-31T09:22:40.000Z</time>
      </trkpt>
      <trkpt lat="47.30076" lon="-2.2964">
        <ele>-16.799999237061</ele>
        <time>2022-07-31T09:22:44.000Z</time>
      </trkpt>
      <trkpt lat="47.30066" lon="-2.29637">
        <ele>-16.799999237061</ele>
        <time>2022-07-31T09:22:46.000Z</time>
      </trkpt>
      <trkpt lat="47.3004" lon="-2.29633">
        <ele>-16.799999237061</ele>
        <time>2022-07-31T09:22:53.000Z</time>
      </trkpt>
      <trkpt lat="47.30025" lon="-2.29638">
        <ele>-16.799999237061</ele>
        <time>2022-07-31T09:22:57.000Z</time>
      </trkpt>
      <trkpt lat="47.3" lon="-2.2964">
        <ele>-16.799999237061</ele>
        <time>2022-07-31T09:23:03.000Z</time>
      </trkpt>
      <trkpt lat="47.29996" lon="-2.2964">
        <ele>-16.799999237061</ele>
        <time>2022-07-31T09:23:04.000Z</time>
      </trkpt>
      <trkpt lat="47.2997" lon="-2.29641">
        <ele>-16.799999237061</ele>
        <time>2022-07-31T09:23:10.000Z</time>
      </trkpt>
      <trkpt lat="47.29966" lon="-2.29642">
        <ele>-16.799999237061</ele>
        <time>2022-07-31T09:23:11.000Z</time>
      </trkpt>
      <trkpt lat="47.29948" lon="-2.29648">
        <ele>-16.799999237061</ele>
        <time>2022-07-31T09:23:15.000Z</time>
      </trkpt>
      <trkpt lat="47.29944" lon="-2.29651">
        <ele>-16.799999237061</ele>
        <time>2022-07-31T09:23:16.000Z</time>
      </trkpt>
      <trkpt lat="47.29923" lon="-2.29663">
        <ele>-16.799999237061</ele>
        <time>2022-07-31T09:23:21.000Z</time>
      </trkpt>
      <trkpt lat="47.29917" lon="-2.2967">
        <ele>-16.39999961853</ele>
        <time>2022-07-31T09:23:23.000Z</time>
      </trkpt>
      <trkpt lat="47.29916" lon="-2.29675">
        <ele>-16</ele>
        <time>2022-07-31T09:23:24.000Z</time>
      </trkpt>
      <trkpt lat="47.29916" lon="-2.2968">
        <ele>-15.60000038147</ele>
        <time>2022-07-31T09:23:25.000Z</time>
      </trkpt>
      <trkpt lat="47.29916" lon="-2.29685">
        <ele>-15.199999809265</ele>
        <time>2022-07-31T09:23:26.000Z</time>
      </trkpt>
      <trkpt lat="47.29917" lon="-2.2969">
        <ele>-14.800000190735</ele>
        <time>2022-07-31T09:23:27.000Z</time>
      </trkpt>
      <trkpt lat="47.29918" lon="-2.29695">
        <ele>-14.800000190735</ele>
        <time>2022-07-31T09:23:28.000Z</time>
      </trkpt>
      <trkpt lat="47.29922" lon="-2.29706">
        <ele>-14.800000190735</ele>
        <time>2022-07-31T09:23:30.000Z</time>
      </trkpt>
      <trkpt lat="47.29926" lon="-2.29719">
        <ele>-14.800000190735</ele>
        <time>2022-07-31T09:23:32.000Z</time>
      </trkpt>
      <trkpt lat="47.29929" lon="-2.29726">
        <ele>-14.800000190735</ele>
        <time>2022-07-31T09:23:33.000Z</time>
      </trkpt>
      <trkpt lat="47.29947" lon="-2.29774">
        <ele>-14.800000190735</ele>
        <time>2022-07-31T09:23:40.000Z</time>
      </trkpt>
      <trkpt lat="47.29952" lon="-2.2979">
        <ele>-14.800000190735</ele>
        <time>2022-07-31T09:23:43.000Z</time>
      </trkpt>
      <trkpt lat="47.29951" lon="-2.29793">
        <ele>-14.800000190735</ele>
        <time>2022-07-31T09:23:44.000Z</time>
      </trkpt>
      <trkpt lat="47.29945" lon="-2.29802">
        <ele>-14.800000190735</ele>
        <time>2022-07-31T09:23:48.000Z</time>
      </trkpt>
      <trkpt lat="47.29938" lon="-2.2981">
        <ele>-14.800000190735</ele>
        <time>2022-07-31T09:23:52.000Z</time>
      </trkpt>
      <trkpt lat="47.2992" lon="-2.29827">
        <ele>-14.800000190735</ele>
        <time>2022-07-31T09:23:58.000Z</time>
      </trkpt>
      <trkpt lat="47.29911" lon="-2.29834">
        <ele>-14.800000190735</ele>
        <time>2022-07-31T09:24:00.000Z</time>
      </trkpt>
      <trkpt lat="47.29905" lon="-2.29847">
        <ele>-14.800000190735</ele>
        <time>2022-07-31T09:24:02.000Z</time>
      </trkpt>
      <trkpt lat="47.29905" lon="-2.29879">
        <ele>-14.800000190735</ele>
        <time>2022-07-31T09:24:06.000Z</time>
      </trkpt>
      <trkpt lat="47.29908" lon="-2.29922">
        <ele>-14.800000190735</ele>
        <time>2022-07-31T09:24:11.000Z</time>
      </trkpt>
      <trkpt lat="47.29907" lon="-2.29931">
        <ele>-14.800000190735</ele>
        <time>2022-07-31T09:24:12.000Z</time>
      </trkpt>
      <trkpt lat="47.29898" lon="-2.29942">
        <ele>-14.800000190735</ele>
        <time>2022-07-31T09:24:14.000Z</time>
      </trkpt>
      <trkpt lat="47.29881" lon="-2.29946">
        <ele>-14.800000190735</ele>
        <time>2022-07-31T09:24:17.000Z</time>
      </trkpt>
      <trkpt lat="47.29875" lon="-2.29947">
        <ele>-14.800000190735</ele>
        <time>2022-07-31T09:24:18.000Z</time>
      </trkpt>
      <trkpt lat="47.29834" lon="-2.29955">
        <ele>-14.800000190735</ele>
        <time>2022-07-31T09:24:25.000Z</time>
      </trkpt>
      <trkpt lat="47.29798" lon="-2.29954">
        <ele>-14.800000190735</ele>
        <time>2022-07-31T09:24:31.000Z</time>
      </trkpt>
      <trkpt lat="47.29792" lon="-2.29954">
        <ele>-14.800000190735</ele>
        <time>2022-07-31T09:24:32.000Z</time>
      </trkpt>
      <trkpt lat="47.2978" lon="-2.2996">
        <ele>-14.800000190735</ele>
        <time>2022-07-31T09:24:34.000Z</time>
      </trkpt>
      <trkpt lat="47.29746" lon="-2.29987">
        <ele>-14.800000190735</ele>
        <time>2022-07-31T09:24:40.000Z</time>
      </trkpt>
      <trkpt lat="47.29727" lon="-2.29998">
        <ele>-14.800000190735</ele>
        <time>2022-07-31T09:24:43.000Z</time>
      </trkpt>
      <trkpt lat="47.29708" lon="-2.30004">
        <ele>-14.800000190735</ele>
        <time>2022-07-31T09:24:46.000Z</time>
      </trkpt>
      <trkpt lat="47.29695" lon="-2.30004">
        <ele>-14.800000190735</ele>
        <time>2022-07-31T09:24:48.000Z</time>
      </trkpt>
      <trkpt lat="47.29665" lon="-2.3">
        <ele>-14.800000190735</ele>
        <time>2022-07-31T09:24:53.000Z</time>
      </trkpt>
      <trkpt lat="47.29655" lon="-2.29993">
        <ele>-14.800000190735</ele>
        <time>2022-07-31T09:24:55.000Z</time>
      </trkpt>
      <trkpt lat="47.29647" lon="-2.29987">
        <ele>-14.800000190735</ele>
        <time>2022-07-31T09:24:57.000Z</time>
      </trkpt>
      <trkpt lat="47.29634" lon="-2.29993">
        <ele>-14.800000190735</ele>
        <time>2022-07-31T09:25:00.000Z</time>
      </trkpt>
      <trkpt lat="47.29623" lon="-2.3">
        <ele>-14.800000190735</ele>
        <time>2022-07-31T09:25:02.000Z</time>
      </trkpt>
      <trkpt lat="47.29616" lon="-2.30002">
        <ele>-14.800000190735</ele>
        <time>2022-07-31T09:25:03.000Z</time>
      </trkpt>
      <trkpt lat="47.29609" lon="-2.30004">
        <ele>-14.800000190735</ele>
        <time>2022-07-31T09:25:04.000Z</time>
      </trkpt>
      <trkpt lat="47.29557" lon="-2.3002">
        <ele>-14.800000190735</ele>
        <time>2022-07-31T09:25:12.000Z</time>
      </trkpt>
      <trkpt lat="47.29526" lon="-2.3003">
        <ele>-14.800000190735</ele>
        <time>2022-07-31T09:25:17.000Z</time>
      </trkpt>
      <trkpt lat="47.2952" lon="-2.30029">
        <ele>-14.800000190735</ele>
        <time>2022-07-31T09:25:18.000Z</time>
      </trkpt>
      <trkpt lat="47.29509" lon="-2.30026">
        <ele>-14.800000190735</ele>
        <time>2022-07-31T09:25:20.000Z</time>
      </trkpt>
      <trkpt lat="47.29498" lon="-2.30028">
        <ele>-14.800000190735</ele>
        <time>2022-07-31T09:25:22.000Z</time>
      </trkpt>
      <trkpt lat="47.29493" lon="-2.30029">
        <ele>-14.800000190735</ele>
        <time>2022-07-31T09:25:23.000Z</time>
      </trkpt>
      <trkpt lat="47.29469" lon="-2.30029">
        <ele>-14.800000190735</ele>
        <time>2022-07-31T09:25:27.000Z</time>
      </trkpt>
      <trkpt lat="47.29431" lon="-2.30031">
        <ele>-14.800000190735</ele>
        <time>2022-07-31T09:25:34.000Z</time>
      </trkpt>
      <trkpt lat="47.29404" lon="-2.30028">
        <ele>-14.800000190735</ele>
        <time>2022-07-31T09:25:39.000Z</time>
      </trkpt>
      <trkpt lat="47.29393" lon="-2.30025">
        <ele>-14.800000190735</ele>
        <time>2022-07-31T09:25:41.000Z</time>
      </trkpt>
      <trkpt lat="47.29383" lon="-2.30022">
        <ele>-14.800000190735</ele>
        <time>2022-07-31T09:25:43.000Z</time>
      </trkpt>
      <trkpt lat="47.2937" lon="-2.30014">
        <ele>-14.800000190735</ele>
        <time>2022-07-31T09:25:46.000Z</time>
      </trkpt>
      <trkpt lat="47.29355" lon="-2.30007">
        <ele>-14.39999961853</ele>
        <time>2022-07-31T09:25:50.000Z</time>
      </trkpt>
      <trkpt lat="47.29352" lon="-2.30005">
        <ele>-14</ele>
        <time>2022-07-31T09:25:51.000Z</time>
      </trkpt>
      <trkpt lat="47.29349" lon="-2.30005">
        <ele>-13.60000038147</ele>
        <time>2022-07-31T09:25:52.000Z</time>
      </trkpt>
      <trkpt lat="47.29347" lon="-2.30006">
        <ele>-13.199999809265</ele>
        <time>2022-07-31T09:25:53.000Z</time>
      </trkpt>
      <trkpt lat="47.29346" lon="-2.30009">
        <ele>-12.800000190735</ele>
        <time>2022-07-31T09:25:54.000Z</time>
      </trkpt>
      <trkpt lat="47.29344" lon="-2.30025">
        <ele>-12.800000190735</ele>
        <time>2022-07-31T09:25:57.000Z</time>
      </trkpt>
      <trkpt lat="47.29343" lon="-2.30032">
        <ele>-12.800000190735</ele>
        <time>2022-07-31T09:25:58.000Z</time>
      </trkpt>
      <trkpt lat="47.29338" lon="-2.30079">
        <ele>-12.800000190735</ele>
        <time>2022-07-31T09:26:04.000Z</time>
      </trkpt>
      <trkpt lat="47.29337" lon="-2.30095">
        <ele>-12.800000190735</ele>
        <time>2022-07-31T09:26:06.000Z</time>
      </trkpt>
      <trkpt lat="47.29329" lon="-2.30115">
        <ele>-12.800000190735</ele>
        <time>2022-07-31T09:26:09.000Z</time>
      </trkpt>
      <trkpt lat="47.29312" lon="-2.30121">
        <ele>-12.800000190735</ele>
        <time>2022-07-31T09:26:12.000Z</time>
      </trkpt>
      <trkpt lat="47.29306" lon="-2.30122">
        <ele>-12.800000190735</ele>
        <time>2022-07-31T09:26:13.000Z</time>
      </trkpt>
      <trkpt lat="47.2927" lon="-2.30123">
        <ele>-12.800000190735</ele>
        <time>2022-07-31T09:26:19.000Z</time>
      </trkpt>
      <trkpt lat="47.29248" lon="-2.30126">
        <ele>-12.800000190735</ele>
        <time>2022-07-31T09:26:23.000Z</time>
      </trkpt>
      <trkpt lat="47.29238" lon="-2.30133">
        <ele>-12.800000190735</ele>
        <time>2022-07-31T09:26:25.000Z</time>
      </trkpt>
      <trkpt lat="47.29225" lon="-2.30149">
        <ele>-12.800000190735</ele>
        <time>2022-07-31T09:26:28.000Z</time>
      </trkpt>
      <trkpt lat="47.2922" lon="-2.30153">
        <ele>-12.800000190735</ele>
        <time>2022-07-31T09:26:29.000Z</time>
      </trkpt>
      <trkpt lat="47.2919" lon="-2.30168">
        <ele>-12.800000190735</ele>
        <time>2022-07-31T09:26:34.000Z</time>
      </trkpt>
      <trkpt lat="47.29157" lon="-2.30187">
        <ele>-12.800000190735</ele>
        <time>2022-07-31T09:26:40.000Z</time>
      </trkpt>
      <trkpt lat="47.29152" lon="-2.30189">
        <ele>-12.800000190735</ele>
        <time>2022-07-31T09:26:41.000Z</time>
      </trkpt>
      <trkpt lat="47.29129" lon="-2.30201">
        <ele>-12.800000190735</ele>
        <time>2022-07-31T09:26:45.000Z</time>
      </trkpt>
      <trkpt lat="47.29099" lon="-2.30218">
        <ele>-12.39999961853</ele>
        <time>2022-07-31T09:26:50.000Z</time>
      </trkpt>
      <trkpt lat="47.29093" lon="-2.30222">
        <ele>-12</ele>
        <time>2022-07-31T09:26:51.000Z</time>
      </trkpt>
      <trkpt lat="47.29087" lon="-2.30225">
        <ele>-11.60000038147</ele>
        <time>2022-07-31T09:26:52.000Z</time>
      </trkpt>
      <trkpt lat="47.29081" lon="-2.30229">
        <ele>-11.199999809265</ele>
        <time>2022-07-31T09:26:53.000Z</time>
      </trkpt>
      <trkpt lat="47.29075" lon="-2.30232">
        <ele>-10.800000190735</ele>
        <time>2022-07-31T09:26:54.000Z</time>
      </trkpt>
      <trkpt lat="47.29045" lon="-2.30244">
        <ele>-10.800000190735</ele>
        <time>2022-07-31T09:26:59.000Z</time>
      </trkpt>
      <trkpt lat="47.29001" lon="-2.30256">
        <ele>-10.800000190735</ele>
        <time>2022-07-31T09:27:06.000Z</time>
      </trkpt>
      <trkpt lat="47.28979" lon="-2.30258">
        <ele>-10.800000190735</ele>
        <time>2022-07-31T09:27:10.000Z</time>
      </trkpt>
      <trkpt lat="47.28975" lon="-2.30263">
        <ele>-10.800000190735</ele>
        <time>2022-07-31T09:27:11.000Z</time>
      </trkpt>
      <trkpt lat="47.28973" lon="-2.30285">
        <ele>-10.800000190735</ele>
        <time>2022-07-31T09:27:14.000Z</time>
      </trkpt>
      <trkpt lat="47.28974" lon="-2.30293">
        <ele>-10.800000190735</ele>
        <time>2022-07-31T09:27:15.000Z</time>
      </trkpt>
      <trkpt lat="47.28978" lon="-2.30332">
        <ele>-10.800000190735</ele>
        <time>2022-07-31T09:27:20.000Z</time>
      </trkpt>
      <trkpt lat="47.28977" lon="-2.30379">
        <ele>-10.800000190735</ele>
        <time>2022-07-31T09:27:26.000Z</time>
      </trkpt>
      <trkpt lat="47.28978" lon="-2.30395">
        <ele>-10.39999961853</ele>
        <time>2022-07-31T09:27:28.000Z</time>
      </trkpt>
      <trkpt lat="47.28978" lon="-2.30404">
        <ele>-10</ele>
        <time>2022-07-31T09:27:29.000Z</time>
      </trkpt>
      <trkpt lat="47.28978" lon="-2.30412">
        <ele>-9.6000003814697</ele>
        <time>2022-07-31T09:27:30.000Z</time>
      </trkpt>
      <trkpt lat="47.28979" lon="-2.3042">
        <ele>-9</ele>
        <time>2022-07-31T09:27:31.000Z</time>
      </trkpt>
      <trkpt lat="47.2898" lon="-2.30428">
        <ele>-8.6000003814697</ele>
        <time>2022-07-31T09:27:32.000Z</time>
      </trkpt>
      <trkpt lat="47.28987" lon="-2.30471">
        <ele>-8.6000003814697</ele>
        <time>2022-07-31T09:27:37.000Z</time>
      </trkpt>
      <trkpt lat="47.28992" lon="-2.30504">
        <ele>-8.6000003814697</ele>
        <time>2022-07-31T09:27:41.000Z</time>
      </trkpt>
      <trkpt lat="47.28995" lon="-2.30521">
        <ele>-8.6000003814697</ele>
        <time>2022-07-31T09:27:43.000Z</time>
      </trkpt>
      <trkpt lat="47.29005" lon="-2.30588">
        <ele>-8.6000003814697</ele>
        <time>2022-07-31T09:27:51.000Z</time>
      </trkpt>
      <trkpt lat="47.29006" lon="-2.30614">
        <ele>-8.6000003814697</ele>
        <time>2022-07-31T09:27:54.000Z</time>
      </trkpt>
      <trkpt lat="47.29006" lon="-2.30641">
        <ele>-8.6000003814697</ele>
        <time>2022-07-31T09:27:57.000Z</time>
      </trkpt>
      <trkpt lat="47.29008" lon="-2.307">
        <ele>-8.6000003814697</ele>
        <time>2022-07-31T09:28:03.000Z</time>
      </trkpt>
      <trkpt lat="47.29009" lon="-2.30758">
        <ele>-8.6000003814697</ele>
        <time>2022-07-31T09:28:09.000Z</time>
      </trkpt>
      <trkpt lat="47.29011" lon="-2.30767">
        <ele>-8.6000003814697</ele>
        <time>2022-07-31T09:28:10.000Z</time>
      </trkpt>
      <trkpt lat="47.29019" lon="-2.30802">
        <ele>-8.6000003814697</ele>
        <time>2022-07-31T09:28:14.000Z</time>
      </trkpt>
      <trkpt lat="47.2902" lon="-2.30811">
        <ele>-8.6000003814697</ele>
        <time>2022-07-31T09:28:15.000Z</time>
      </trkpt>
      <trkpt lat="47.29027" lon="-2.30874">
        <ele>-8.6000003814697</ele>
        <time>2022-07-31T09:28:22.000Z</time>
      </trkpt>
      <trkpt lat="47.29029" lon="-2.30899">
        <ele>-8.1999998092651</ele>
        <time>2022-07-31T09:28:25.000Z</time>
      </trkpt>
      <trkpt lat="47.2903" lon="-2.30908">
        <ele>-7.8000001907349</ele>
        <time>2022-07-31T09:28:26.000Z</time>
      </trkpt>
      <trkpt lat="47.2903" lon="-2.30916">
        <ele>-7.1999998092651</ele>
        <time>2022-07-31T09:28:27.000Z</time>
      </trkpt>
      <trkpt lat="47.29031" lon="-2.30924">
        <ele>-6.8000001907349</ele>
        <time>2022-07-31T09:28:28.000Z</time>
      </trkpt>
      <trkpt lat="47.29031" lon="-2.30933">
        <ele>-6.4000000953674</ele>
        <time>2022-07-31T09:28:29.000Z</time>
      </trkpt>
      <trkpt lat="47.29032" lon="-2.30949">
        <ele>-6</ele>
        <time>2022-07-31T09:28:31.000Z</time>
      </trkpt>
      <trkpt lat="47.29032" lon="-2.30958">
        <ele>-5.5999999046326</ele>
        <time>2022-07-31T09:28:32.000Z</time>
      </trkpt>
      <trkpt lat="47.29033" lon="-2.30968">
        <ele>-5.1999998092651</ele>
        <time>2022-07-31T09:28:33.000Z</time>
      </trkpt>
      <trkpt lat="47.29034" lon="-2.30977">
        <ele>-4.8000001907349</ele>
        <time>2022-07-31T09:28:34.000Z</time>
      </trkpt>
      <trkpt lat="47.29034" lon="-2.30986">
        <ele>-4.4000000953674</ele>
        <time>2022-07-31T09:28:35.000Z</time>
      </trkpt>
      <trkpt lat="47.29034" lon="-2.30995">
        <ele>-4.4000000953674</ele>
        <time>2022-07-31T09:28:36.000Z</time>
      </trkpt>
      <trkpt lat="47.29034" lon="-2.31004">
        <ele>-4.4000000953674</ele>
        <time>2022-07-31T09:28:37.000Z</time>
      </trkpt>
      <trkpt lat="47.29034" lon="-2.31013">
        <ele>-4</ele>
        <time>2022-07-31T09:28:38.000Z</time>
      </trkpt>
      <trkpt lat="47.29034" lon="-2.31022">
        <ele>-3.5999999046326</ele>
        <time>2022-07-31T09:28:39.000Z</time>
      </trkpt>
      <trkpt lat="47.29034" lon="-2.31031">
        <ele>-3.2000000476837</ele>
        <time>2022-07-31T09:28:40.000Z</time>
      </trkpt>
      <trkpt lat="47.29033" lon="-2.31039">
        <ele>-2.5999999046326</ele>
        <time>2022-07-31T09:28:41.000Z</time>
      </trkpt>
      <trkpt lat="47.29033" lon="-2.31048">
        <ele>-2.2000000476837</ele>
        <time>2022-07-31T09:28:42.000Z</time>
      </trkpt>
      <trkpt lat="47.29033" lon="-2.31056">
        <ele>-2.2000000476837</ele>
        <time>2022-07-31T09:28:43.000Z</time>
      </trkpt>
      <trkpt lat="47.29034" lon="-2.3109">
        <ele>-1.7999999523163</ele>
        <time>2022-07-31T09:28:47.000Z</time>
      </trkpt>
      <trkpt lat="47.29035" lon="-2.31099">
        <ele>-1.3999999761581</ele>
        <time>2022-07-31T09:28:48.000Z</time>
      </trkpt>
      <trkpt lat="47.29035" lon="-2.31107">
        <ele>-1</ele>
        <time>2022-07-31T09:28:49.000Z</time>
      </trkpt>
      <trkpt lat="47.29036" lon="-2.31115">
        <ele>-0.60000002384186</ele>
        <time>2022-07-31T09:28:50.000Z</time>
      </trkpt>
      <trkpt lat="47.29037" lon="-2.31124">
        <ele>-0.20000000298023</ele>
        <time>2022-07-31T09:28:51.000Z</time>
      </trkpt>
      <trkpt lat="47.2904" lon="-2.31166">
        <ele>-0.20000000298023</ele>
        <time>2022-07-31T09:28:56.000Z</time>
      </trkpt>
      <trkpt lat="47.29041" lon="-2.31174">
        <ele>0.20000000298023</ele>
        <time>2022-07-31T09:28:57.000Z</time>
      </trkpt>
      <trkpt lat="47.29042" lon="-2.31182">
        <ele>0.60000002384186</ele>
        <time>2022-07-31T09:28:58.000Z</time>
      </trkpt>
      <trkpt lat="47.29042" lon="-2.3119">
        <ele>1</ele>
        <time>2022-07-31T09:28:59.000Z</time>
      </trkpt>
      <trkpt lat="47.29043" lon="-2.31198">
        <ele>1.3999999761581</ele>
        <time>2022-07-31T09:29:00.000Z</time>
      </trkpt>
      <trkpt lat="47.29043" lon="-2.31205">
        <ele>1.7999999523163</ele>
        <time>2022-07-31T09:29:01.000Z</time>
      </trkpt>
      <trkpt lat="47.29042" lon="-2.31222">
        <ele>1.7999999523163</ele>
        <time>2022-07-31T09:29:03.000Z</time>
      </trkpt>
      <trkpt lat="47.29032" lon="-2.31252">
        <ele>1.7999999523163</ele>
        <time>2022-07-31T09:29:07.000Z</time>
      </trkpt>
      <trkpt lat="47.29003" lon="-2.31319">
        <ele>1.7999999523163</ele>
        <time>2022-07-31T09:29:16.000Z</time>
      </trkpt>
      <trkpt lat="47.28999" lon="-2.31326">
        <ele>1.7999999523163</ele>
        <time>2022-07-31T09:29:17.000Z</time>
      </trkpt>
      <trkpt lat="47.28985" lon="-2.31351">
        <ele>2.4000000953674</ele>
        <time>2022-07-31T09:29:21.000Z</time>
      </trkpt>
      <trkpt lat="47.28981" lon="-2.31357">
        <ele>2.7999999523163</ele>
        <time>2022-07-31T09:29:22.000Z</time>
      </trkpt>
      <trkpt lat="47.28976" lon="-2.31363">
        <ele>3.2000000476837</ele>
        <time>2022-07-31T09:29:23.000Z</time>
      </trkpt>
      <trkpt lat="47.28972" lon="-2.31368">
        <ele>3.5999999046326</ele>
        <time>2022-07-31T09:29:24.000Z</time>
      </trkpt>
      <trkpt lat="47.28967" lon="-2.31373">
        <ele>4</ele>
        <time>2022-07-31T09:29:25.000Z</time>
      </trkpt>
      <trkpt lat="47.28961" lon="-2.31378">
        <ele>4</ele>
        <time>2022-07-31T09:29:26.000Z</time>
      </trkpt>
      <trkpt lat="47.28956" lon="-2.31382">
        <ele>4</ele>
        <time>2022-07-31T09:29:27.000Z</time>
      </trkpt>
      <trkpt lat="47.28938" lon="-2.31391">
        <ele>4</ele>
        <time>2022-07-31T09:29:30.000Z</time>
      </trkpt>
      <trkpt lat="47.28925" lon="-2.31393">
        <ele>4</ele>
        <time>2022-07-31T09:29:32.000Z</time>
      </trkpt>
      <trkpt lat="47.28905" lon="-2.31393">
        <ele>4</ele>
        <time>2022-07-31T09:29:35.000Z</time>
      </trkpt>
      <trkpt lat="47.28859" lon="-2.31401">
        <ele>4</ele>
        <time>2022-07-31T09:29:42.000Z</time>
      </trkpt>
      <trkpt lat="47.28822" lon="-2.31422">
        <ele>4</ele>
        <time>2022-07-31T09:29:48.000Z</time>
      </trkpt>
      <trkpt lat="47.28777" lon="-2.31456">
        <ele>4</ele>
        <time>2022-07-31T09:29:56.000Z</time>
      </trkpt>
      <trkpt lat="47.28765" lon="-2.31462">
        <ele>4</ele>
        <time>2022-07-31T09:29:58.000Z</time>
      </trkpt>
      <trkpt lat="47.28746" lon="-2.31472">
        <ele>4</ele>
        <time>2022-07-31T09:30:01.000Z</time>
      </trkpt>
      <trkpt lat="47.28709" lon="-2.31491">
        <ele>4</ele>
        <time>2022-07-31T09:30:07.000Z</time>
      </trkpt>
      <trkpt lat="47.28697" lon="-2.31496">
        <ele>4.4000000953674</ele>
        <time>2022-07-31T09:30:09.000Z</time>
      </trkpt>
      <trkpt lat="47.28691" lon="-2.31496">
        <ele>5</ele>
        <time>2022-07-31T09:30:10.000Z</time>
      </trkpt>
      <trkpt lat="47.28685" lon="-2.31494">
        <ele>5.4000000953674</ele>
        <time>2022-07-31T09:30:11.000Z</time>
      </trkpt>
      <trkpt lat="47.28679" lon="-2.31489">
        <ele>5.8000001907349</ele>
        <time>2022-07-31T09:30:12.000Z</time>
      </trkpt>
      <trkpt lat="47.28674" lon="-2.31483">
        <ele>6.1999998092651</ele>
        <time>2022-07-31T09:30:13.000Z</time>
      </trkpt>
      <trkpt lat="47.28671" lon="-2.31475">
        <ele>6.1999998092651</ele>
        <time>2022-07-31T09:30:14.000Z</time>
      </trkpt>
      <trkpt lat="47.28668" lon="-2.31462">
        <ele>6.1999998092651</ele>
        <time>2022-07-31T09:30:16.000Z</time>
      </trkpt>
      <trkpt lat="47.28665" lon="-2.31457">
        <ele>6.1999998092651</ele>
        <time>2022-07-31T09:30:17.000Z</time>
      </trkpt>
      <trkpt lat="47.28661" lon="-2.31454">
        <ele>6.1999998092651</ele>
        <time>2022-07-31T09:30:18.000Z</time>
      </trkpt>
      <trkpt lat="47.28648" lon="-2.31459">
        <ele>6.1999998092651</ele>
        <time>2022-07-31T09:30:21.000Z</time>
      </trkpt>
      <trkpt lat="47.28644" lon="-2.31462">
        <ele>6.1999998092651</ele>
        <time>2022-07-31T09:30:22.000Z</time>
      </trkpt>
      <trkpt lat="47.28622" lon="-2.31476">
        <ele>6.1999998092651</ele>
        <time>2022-07-31T09:30:27.000Z</time>
      </trkpt>
      <trkpt lat="47.28621" lon="-2.31481">
        <ele>6.1999998092651</ele>
        <time>2022-07-31T09:30:28.000Z</time>
      </trkpt>
      <trkpt lat="47.28622" lon="-2.31498">
        <ele>6.1999998092651</ele>
        <time>2022-07-31T09:30:31.000Z</time>
      </trkpt>
      <trkpt lat="47.28626" lon="-2.31538">
        <ele>6.1999998092651</ele>
        <time>2022-07-31T09:30:37.000Z</time>
      </trkpt>
      <trkpt lat="47.28626" lon="-2.3155">
        <ele>6.1999998092651</ele>
        <time>2022-07-31T09:30:39.000Z</time>
      </trkpt>
      <trkpt lat="47.28624" lon="-2.31596">
        <ele>6.1999998092651</ele>
        <time>2022-07-31T09:30:47.000Z</time>
      </trkpt>
      <trkpt lat="47.28624" lon="-2.31656">
        <ele>6.1999998092651</ele>
        <time>2022-07-31T09:30:56.000Z</time>
      </trkpt>
      <trkpt lat="47.28629" lon="-2.31703">
        <ele>6.1999998092651</ele>
        <time>2022-07-31T09:31:03.000Z</time>
      </trkpt>
      <trkpt lat="47.28637" lon="-2.31749">
        <ele>6.1999998092651</ele>
        <time>2022-07-31T09:31:10.000Z</time>
      </trkpt>
      <trkpt lat="47.28645" lon="-2.31809">
        <ele>6.1999998092651</ele>
        <time>2022-07-31T09:31:19.000Z</time>
      </trkpt>
      <trkpt lat="47.28652" lon="-2.31865">
        <ele>6.1999998092651</ele>
        <time>2022-07-31T09:31:27.000Z</time>
      </trkpt>
      <trkpt lat="47.2866" lon="-2.31933">
        <ele>6.1999998092651</ele>
        <time>2022-07-31T09:31:36.000Z</time>
      </trkpt>
      <trkpt lat="47.28668" lon="-2.31993">
        <ele>6.1999998092651</ele>
        <time>2022-07-31T09:31:43.000Z</time>
      </trkpt>
      <trkpt lat="47.28682" lon="-2.3205">
        <ele>6.1999998092651</ele>
        <time>2022-07-31T09:31:50.000Z</time>
      </trkpt>
      <trkpt lat="47.28694" lon="-2.32114">
        <ele>6.1999998092651</ele>
        <time>2022-07-31T09:31:58.000Z</time>
      </trkpt>
      <trkpt lat="47.2869" lon="-2.32151">
        <ele>6.1999998092651</ele>
        <time>2022-07-31T09:32:02.000Z</time>
      </trkpt>
      <trkpt lat="47.28684" lon="-2.32168">
        <ele>6.1999998092651</ele>
        <time>2022-07-31T09:32:04.000Z</time>
      </trkpt>
      <trkpt lat="47.2868" lon="-2.32176">
        <ele>6.1999998092651</ele>
        <time>2022-07-31T09:32:05.000Z</time>
      </trkpt>
      <trkpt lat="47.28672" lon="-2.32191">
        <ele>6.1999998092651</ele>
        <time>2022-07-31T09:32:07.000Z</time>
      </trkpt>
      <trkpt lat="47.28669" lon="-2.32198">
        <ele>5.8000001907349</ele>
        <time>2022-07-31T09:32:08.000Z</time>
      </trkpt>
      <trkpt lat="47.28664" lon="-2.32205">
        <ele>5.4000000953674</ele>
        <time>2022-07-31T09:32:09.000Z</time>
      </trkpt>
      <trkpt lat="47.2866" lon="-2.32211">
        <ele>5</ele>
        <time>2022-07-31T09:32:10.000Z</time>
      </trkpt>
      <trkpt lat="47.28655" lon="-2.32218">
        <ele>4.1999998092651</ele>
        <time>2022-07-31T09:32:11.000Z</time>
      </trkpt>
      <trkpt lat="47.28649" lon="-2.32223">
        <ele>4.1999998092651</ele>
        <time>2022-07-31T09:32:12.000Z</time>
      </trkpt>
      <trkpt lat="47.28636" lon="-2.32233">
        <ele>4.1999998092651</ele>
        <time>2022-07-31T09:32:14.000Z</time>
      </trkpt>
      <trkpt lat="47.28623" lon="-2.32242">
        <ele>3.7999999523163</ele>
        <time>2022-07-31T09:32:16.000Z</time>
      </trkpt>
      <trkpt lat="47.28616" lon="-2.32246">
        <ele>3.4000000953674</ele>
        <time>2022-07-31T09:32:17.000Z</time>
      </trkpt>
      <trkpt lat="47.28609" lon="-2.3225">
        <ele>2.7999999523163</ele>
        <time>2022-07-31T09:32:18.000Z</time>
      </trkpt>
      <trkpt lat="47.28603" lon="-2.32255">
        <ele>2.4000000953674</ele>
        <time>2022-07-31T09:32:19.000Z</time>
      </trkpt>
      <trkpt lat="47.28596" lon="-2.32261">
        <ele>2</ele>
        <time>2022-07-31T09:32:20.000Z</time>
      </trkpt>
      <trkpt lat="47.28589" lon="-2.32266">
        <ele>2</ele>
        <time>2022-07-31T09:32:21.000Z</time>
      </trkpt>
      <trkpt lat="47.28549" lon="-2.32305">
        <ele>2</ele>
        <time>2022-07-31T09:32:27.000Z</time>
      </trkpt>
      <trkpt lat="47.28543" lon="-2.32311">
        <ele>1.6000000238419</ele>
        <time>2022-07-31T09:32:28.000Z</time>
      </trkpt>
      <trkpt lat="47.28536" lon="-2.32317">
        <ele>1.2000000476837</ele>
        <time>2022-07-31T09:32:29.000Z</time>
      </trkpt>
      <trkpt lat="47.28529" lon="-2.32322">
        <ele>0.80000001192093</ele>
        <time>2022-07-31T09:32:30.000Z</time>
      </trkpt>
      <trkpt lat="47.28522" lon="-2.32328">
        <ele>0.40000000596046</ele>
        <time>2022-07-31T09:32:31.000Z</time>
      </trkpt>
      <trkpt lat="47.28516" lon="-2.32333">
        <ele>-0.20000000298023</ele>
        <time>2022-07-31T09:32:32.000Z</time>
      </trkpt>
      <trkpt lat="47.28478" lon="-2.32357">
        <ele>-0.20000000298023</ele>
        <time>2022-07-31T09:32:38.000Z</time>
      </trkpt>
      <trkpt lat="47.28443" lon="-2.32378">
        <ele>-0.20000000298023</ele>
        <time>2022-07-31T09:32:43.000Z</time>
      </trkpt>
      <trkpt lat="47.28405" lon="-2.32404">
        <ele>-0.60000002384186</ele>
        <time>2022-07-31T09:32:49.000Z</time>
      </trkpt>
      <trkpt lat="47.28399" lon="-2.32408">
        <ele>-1</ele>
        <time>2022-07-31T09:32:50.000Z</time>
      </trkpt>
      <trkpt lat="47.28393" lon="-2.32412">
        <ele>-1.3999999761581</ele>
        <time>2022-07-31T09:32:51.000Z</time>
      </trkpt>
      <trkpt lat="47.28387" lon="-2.32415">
        <ele>-1.7999999523163</ele>
        <time>2022-07-31T09:32:52.000Z</time>
      </trkpt>
      <trkpt lat="47.28381" lon="-2.32419">
        <ele>-2.2000000476837</ele>
        <time>2022-07-31T09:32:53.000Z</time>
      </trkpt>
      <trkpt lat="47.28378" lon="-2.32422">
        <ele>-2.2000000476837</ele>
        <time>2022-07-31T09:32:54.000Z</time>
      </trkpt>
      <trkpt lat="47.28377" lon="-2.32425">
        <ele>-2.2000000476837</ele>
        <time>2022-07-31T09:32:55.000Z</time>
      </trkpt>
      <trkpt lat="47.28376" lon="-2.32427">
        <ele>-2.2000000476837</ele>
        <time>2022-07-31T09:32:57.000Z</time>
      </trkpt>
      <trkpt lat="47.28375" lon="-2.32429">
        <ele>-2.2000000476837</ele>
        <time>2022-07-31T09:33:00.000Z</time>
      </trkpt>
      <trkpt lat="47.28374" lon="-2.32437">
        <ele>-2.2000000476837</ele>
        <time>2022-07-31T09:33:02.000Z</time>
      </trkpt>
      <trkpt lat="47.28378" lon="-2.32459">
        <ele>-2.2000000476837</ele>
        <time>2022-07-31T09:33:06.000Z</time>
      </trkpt>
      <trkpt lat="47.28386" lon="-2.32498">
        <ele>-2.2000000476837</ele>
        <time>2022-07-31T09:33:11.000Z</time>
      </trkpt>
      <trkpt lat="47.2839" lon="-2.32514">
        <ele>-2.2000000476837</ele>
        <time>2022-07-31T09:33:13.000Z</time>
      </trkpt>
      <trkpt lat="47.28387" lon="-2.32524">
        <ele>-2.2000000476837</ele>
        <time>2022-07-31T09:33:15.000Z</time>
      </trkpt>
      <trkpt lat="47.28373" lon="-2.32524">
        <ele>-2.2000000476837</ele>
        <time>2022-07-31T09:33:18.000Z</time>
      </trkpt>
      <trkpt lat="47.28368" lon="-2.32523">
        <ele>-2.2000000476837</ele>
        <time>2022-07-31T09:33:19.000Z</time>
      </trkpt>
      <trkpt lat="47.28357" lon="-2.32523">
        <ele>-2.2000000476837</ele>
        <time>2022-07-31T09:33:21.000Z</time>
      </trkpt>
      <trkpt lat="47.28351" lon="-2.32524">
        <ele>-2.2000000476837</ele>
        <time>2022-07-31T09:33:22.000Z</time>
      </trkpt>
      <trkpt lat="47.28327" lon="-2.32525">
        <ele>-2.2000000476837</ele>
        <time>2022-07-31T09:33:26.000Z</time>
      </trkpt>
      <trkpt lat="47.28294" lon="-2.32525">
        <ele>-2.2000000476837</ele>
        <time>2022-07-31T09:33:31.000Z</time>
      </trkpt>
      <trkpt lat="47.28274" lon="-2.32522">
        <ele>-2.2000000476837</ele>
        <time>2022-07-31T09:33:34.000Z</time>
      </trkpt>
      <trkpt lat="47.28264" lon="-2.32514">
        <ele>-2.2000000476837</ele>
        <time>2022-07-31T09:33:36.000Z</time>
      </trkpt>
      <trkpt lat="47.28251" lon="-2.32505">
        <ele>-2.2000000476837</ele>
        <time>2022-07-31T09:33:39.000Z</time>
      </trkpt>
      <trkpt lat="47.28243" lon="-2.32498">
        <ele>-2.2000000476837</ele>
        <time>2022-07-31T09:33:41.000Z</time>
      </trkpt>
      <trkpt lat="47.28216" lon="-2.32477">
        <ele>-2.2000000476837</ele>
        <time>2022-07-31T09:33:45.000Z</time>
      </trkpt>
      <trkpt lat="47.28185" lon="-2.32466">
        <ele>-2.2000000476837</ele>
        <time>2022-07-31T09:33:49.000Z</time>
      </trkpt>
      <trkpt lat="47.28172" lon="-2.32464">
        <ele>-2.2000000476837</ele>
        <time>2022-07-31T09:33:51.000Z</time>
      </trkpt>
      <trkpt lat="47.28132" lon="-2.32466">
        <ele>-2.2000000476837</ele>
        <time>2022-07-31T09:33:57.000Z</time>
      </trkpt>
      <trkpt lat="47.28125" lon="-2.32466">
        <ele>-2.2000000476837</ele>
        <time>2022-07-31T09:33:58.000Z</time>
      </trkpt>
      <trkpt lat="47.28109" lon="-2.32459">
        <ele>-2.2000000476837</ele>
        <time>2022-07-31T09:34:01.000Z</time>
      </trkpt>
      <trkpt lat="47.28102" lon="-2.32451">
        <ele>-2.2000000476837</ele>
        <time>2022-07-31T09:34:03.000Z</time>
      </trkpt>
      <trkpt lat="47.28094" lon="-2.32443">
        <ele>-2.2000000476837</ele>
        <time>2022-07-31T09:34:05.000Z</time>
      </trkpt>
      <trkpt lat="47.28072" lon="-2.32437">
        <ele>-2.2000000476837</ele>
        <time>2022-07-31T09:34:09.000Z</time>
      </trkpt>
      <trkpt lat="47.2806" lon="-2.32438">
        <ele>-2.2000000476837</ele>
        <time>2022-07-31T09:34:11.000Z</time>
      </trkpt>
      <trkpt lat="47.28034" lon="-2.32437">
        <ele>-2.2000000476837</ele>
        <time>2022-07-31T09:34:15.000Z</time>
      </trkpt>
      <trkpt lat="47.27993" lon="-2.32423">
        <ele>-2.2000000476837</ele>
        <time>2022-07-31T09:34:21.000Z</time>
      </trkpt>
      <trkpt lat="47.27968" lon="-2.32413">
        <ele>-2.2000000476837</ele>
        <time>2022-07-31T09:34:25.000Z</time>
      </trkpt>
      <trkpt lat="47.27962" lon="-2.3241">
        <ele>-2.2000000476837</ele>
        <time>2022-07-31T09:34:26.000Z</time>
      </trkpt>
      <trkpt lat="47.27957" lon="-2.32408">
        <ele>-2.2000000476837</ele>
        <time>2022-07-31T09:34:27.000Z</time>
      </trkpt>
      <trkpt lat="47.27934" lon="-2.32401">
        <ele>-2.2000000476837</ele>
        <time>2022-07-31T09:34:31.000Z</time>
      </trkpt>
      <trkpt lat="47.27921" lon="-2.32399">
        <ele>-2.2000000476837</ele>
        <time>2022-07-31T09:34:34.000Z</time>
      </trkpt>
      <trkpt lat="47.27911" lon="-2.32395">
        <ele>-2.2000000476837</ele>
        <time>2022-07-31T09:34:37.000Z</time>
      </trkpt>
      <trkpt lat="47.27907" lon="-2.32405">
        <ele>-2.2000000476837</ele>
        <time>2022-07-31T09:34:40.000Z</time>
      </trkpt>
      <trkpt lat="47.27906" lon="-2.32408">
        <ele>-2.2000000476837</ele>
        <time>2022-07-31T09:34:41.000Z</time>
      </trkpt>
      <trkpt lat="47.27898" lon="-2.32419">
        <ele>-2.2000000476837</ele>
        <time>2022-07-31T09:34:44.000Z</time>
      </trkpt>
      <trkpt lat="47.27894" lon="-2.32423">
        <ele>-1.7999999523163</ele>
        <time>2022-07-31T09:34:45.000Z</time>
      </trkpt>
      <trkpt lat="47.27892" lon="-2.32427">
        <ele>-1.3999999761581</ele>
        <time>2022-07-31T09:34:46.000Z</time>
      </trkpt>
      <trkpt lat="47.27889" lon="-2.32431">
        <ele>-1</ele>
        <time>2022-07-31T09:34:47.000Z</time>
      </trkpt>
      <trkpt lat="47.27886" lon="-2.32436">
        <ele>-0.40000000596046</ele>
        <time>2022-07-31T09:34:48.000Z</time>
      </trkpt>
      <trkpt lat="47.27883" lon="-2.32441">
        <ele>19.9</ele>
        <time>2022-07-31T09:34:49.000Z</time>
      </trkpt>
      <trkpt lat="47.27875" lon="-2.32452">
        <ele>20</ele>
        <time>2022-07-31T09:34:52.000Z</time>
      </trkpt>
      <trkpt lat="47.27872" lon="-2.32455">
        <ele>20</ele>
        <time>2022-07-31T09:34:53.000Z</time>
      </trkpt>
      <trkpt lat="47.27864" lon="-2.32461">
        <ele>20</ele>
        <time>2022-07-31T09:34:55.000Z</time>
      </trkpt>
      <trkpt lat="47.27854" lon="-2.32479">
        <ele>20.2</ele>
        <time>2022-07-31T09:34:59.000Z</time>
      </trkpt>
      <trkpt lat="47.27848" lon="-2.32491">
        <ele>20.2</ele>
        <time>2022-07-31T09:35:01.000Z</time>
      </trkpt>
      <trkpt lat="47.27837" lon="-2.32508">
        <ele>20</ele>
        <time>2022-07-31T09:35:04.000Z</time>
      </trkpt>
      <trkpt lat="47.27821" lon="-2.32529">
        <ele>20.4</ele>
        <time>2022-07-31T09:35:08.000Z</time>
      </trkpt>
      <trkpt lat="47.27794" lon="-2.32567">
        <ele>19.8</ele>
        <time>2022-07-31T09:35:14.000Z</time>
      </trkpt>
      <trkpt lat="47.2778" lon="-2.32589">
        <ele>19.1</ele>
        <time>2022-07-31T09:35:17.000Z</time>
      </trkpt>
      <trkpt lat="47.27776" lon="-2.32597">
        <ele>19</ele>
        <time>2022-07-31T09:35:18.000Z</time>
      </trkpt>
      <trkpt lat="47.27772" lon="-2.32604">
        <ele>18.8</ele>
        <time>2022-07-31T09:35:19.000Z</time>
      </trkpt>
      <trkpt lat="47.27756" lon="-2.32629">
        <ele>17.6</ele>
        <time>2022-07-31T09:35:22.000Z</time>
      </trkpt>
      <trkpt lat="47.27747" lon="-2.32649">
        <ele>-0.60000002384186</ele>
        <time>2022-07-31T09:35:24.000Z</time>
      </trkpt>
      <trkpt lat="47.27742" lon="-2.32659">
        <ele>-1</ele>
        <time>2022-07-31T09:35:25.000Z</time>
      </trkpt>
      <trkpt lat="47.27737" lon="-2.32669">
        <ele>-1.6000000238419</ele>
        <time>2022-07-31T09:35:26.000Z</time>
      </trkpt>
      <trkpt lat="47.27732" lon="-2.32677">
        <ele>-2.2000000476837</ele>
        <time>2022-07-31T09:35:27.000Z</time>
      </trkpt>
      <trkpt lat="47.27727" lon="-2.32685">
        <ele>-3</ele>
        <time>2022-07-31T09:35:28.000Z</time>
      </trkpt>
      <trkpt lat="47.27722" lon="-2.32691">
        <ele>-4.5999999046326</ele>
        <time>2022-07-31T09:35:29.000Z</time>
      </trkpt>
      <trkpt lat="47.27718" lon="-2.32698">
        <ele>-5.5999999046326</ele>
        <time>2022-07-31T09:35:30.000Z</time>
      </trkpt>
      <trkpt lat="47.27715" lon="-2.32704">
        <ele>-6.4000000953674</ele>
        <time>2022-07-31T09:35:31.000Z</time>
      </trkpt>
      <trkpt lat="47.27712" lon="-2.32707">
        <ele>-7.4000000953674</ele>
        <time>2022-07-31T09:35:32.000Z</time>
      </trkpt>
      <trkpt lat="47.2771" lon="-2.3271">
        <ele>-8.1999998092651</ele>
        <time>2022-07-31T09:35:33.000Z</time>
      </trkpt>
      <trkpt lat="47.27694" lon="-2.32726">
        <ele>-8.1999998092651</ele>
        <time>2022-07-31T09:35:38.000Z</time>
      </trkpt>
      <trkpt lat="47.2769" lon="-2.32729">
        <ele>-8.6000003814697</ele>
        <time>2022-07-31T09:35:39.000Z</time>
      </trkpt>
      <trkpt lat="47.27686" lon="-2.32729">
        <ele>-9</ele>
        <time>2022-07-31T09:35:40.000Z</time>
      </trkpt>
      <trkpt lat="47.27682" lon="-2.32729">
        <ele>-9.3999996185303</ele>
        <time>2022-07-31T09:35:41.000Z</time>
      </trkpt>
      <trkpt lat="47.27678" lon="-2.32727">
        <ele>-9.8000001907349</ele>
        <time>2022-07-31T09:35:42.000Z</time>
      </trkpt>
      <trkpt lat="47.27673" lon="-2.32725">
        <ele>-10.199999809265</ele>
        <time>2022-07-31T09:35:43.000Z</time>
      </trkpt>
      <trkpt lat="47.27667" lon="-2.32723">
        <ele>-10.199999809265</ele>
        <time>2022-07-31T09:35:44.000Z</time>
      </trkpt>
      <trkpt lat="47.27662" lon="-2.3272">
        <ele>-10.199999809265</ele>
        <time>2022-07-31T09:35:45.000Z</time>
      </trkpt>
      <trkpt lat="47.27656" lon="-2.32717">
        <ele>-10.199999809265</ele>
        <time>2022-07-31T09:35:46.000Z</time>
      </trkpt>
      <trkpt lat="47.2764" lon="-2.3271">
        <ele>-10.199999809265</ele>
        <time>2022-07-31T09:35:49.000Z</time>
      </trkpt>
      <trkpt lat="47.2763" lon="-2.32703">
        <ele>-10.199999809265</ele>
        <time>2022-07-31T09:35:51.000Z</time>
      </trkpt>
      <trkpt lat="47.27623" lon="-2.32694">
        <ele>-10.199999809265</ele>
        <time>2022-07-31T09:35:53.000Z</time>
      </trkpt>
      <trkpt lat="47.27615" lon="-2.32692">
        <ele>-10.199999809265</ele>
        <time>2022-07-31T09:35:55.000Z</time>
      </trkpt>
      <trkpt lat="47.27606" lon="-2.32708">
        <ele>-10.199999809265</ele>
        <time>2022-07-31T09:35:58.000Z</time>
      </trkpt>
      <trkpt lat="47.27604" lon="-2.32715">
        <ele>-10.199999809265</ele>
        <time>2022-07-31T09:35:59.000Z</time>
      </trkpt>
      <trkpt lat="47.27597" lon="-2.32735">
        <ele>-10.199999809265</ele>
        <time>2022-07-31T09:36:02.000Z</time>
      </trkpt>
      <trkpt lat="47.27596" lon="-2.32741">
        <ele>-10.199999809265</ele>
        <time>2022-07-31T09:36:03.000Z</time>
      </trkpt>
      <trkpt lat="47.27597" lon="-2.32747">
        <ele>-9.6000003814697</ele>
        <time>2022-07-31T09:36:04.000Z</time>
      </trkpt>
      <trkpt lat="47.27597" lon="-2.3275">
        <ele>-9.1999998092651</ele>
        <time>2022-07-31T09:36:05.000Z</time>
      </trkpt>
      <trkpt lat="47.27596" lon="-2.32755">
        <ele>-8.6000003814697</ele>
        <time>2022-07-31T09:36:06.000Z</time>
      </trkpt>
      <trkpt lat="47.27596" lon="-2.32759">
        <ele>-8</ele>
        <time>2022-07-31T09:36:07.000Z</time>
      </trkpt>
      <trkpt lat="47.27595" lon="-2.32762">
        <ele>-7.4000000953674</ele>
        <time>2022-07-31T09:36:08.000Z</time>
      </trkpt>
      <trkpt lat="47.27594" lon="-2.32765">
        <ele>-6.8000001907349</ele>
        <time>2022-07-31T09:36:09.000Z</time>
      </trkpt>
      <trkpt lat="47.27592" lon="-2.32768">
        <ele>-6.1999998092651</ele>
        <time>2022-07-31T09:36:10.000Z</time>
      </trkpt>
      <trkpt lat="47.27589" lon="-2.32773">
        <ele>-5.5999999046326</ele>
        <time>2022-07-31T09:36:11.000Z</time>
      </trkpt>
      <trkpt lat="47.27587" lon="-2.32779">
        <ele>-5.5999999046326</ele>
        <time>2022-07-31T09:36:12.000Z</time>
      </trkpt>
      <trkpt lat="47.27578" lon="-2.32795">
        <ele>-5.5999999046326</ele>
        <time>2022-07-31T09:36:15.000Z</time>
      </trkpt>
      <trkpt lat="47.27576" lon="-2.32801">
        <ele>-5.5999999046326</ele>
        <time>2022-07-31T09:36:16.000Z</time>
      </trkpt>
      <trkpt lat="47.27573" lon="-2.32811">
        <ele>-4.8000001907349</ele>
        <time>2022-07-31T09:36:18.000Z</time>
      </trkpt>
      <trkpt lat="47.27572" lon="-2.32815">
        <ele>-4.1999998092651</ele>
        <time>2022-07-31T09:36:19.000Z</time>
      </trkpt>
      <trkpt lat="47.2757" lon="-2.32819">
        <ele>-3.7999999523163</ele>
        <time>2022-07-31T09:36:20.000Z</time>
      </trkpt>
      <trkpt lat="47.27568" lon="-2.32821">
        <ele>-3.4000000953674</ele>
        <time>2022-07-31T09:36:21.000Z</time>
      </trkpt>
      <trkpt lat="47.27565" lon="-2.32827">
        <ele>-3.4000000953674</ele>
        <time>2022-07-31T09:36:23.000Z</time>
      </trkpt>
      <trkpt lat="47.27551" lon="-2.32839">
        <ele>-3.4000000953674</ele>
        <time>2022-07-31T09:36:28.000Z</time>
      </trkpt>
      <trkpt lat="47.27534" lon="-2.32851">
        <ele>-3.4000000953674</ele>
        <time>2022-07-31T09:36:34.000Z</time>
      </trkpt>
      <trkpt lat="47.27524" lon="-2.3286">
        <ele>-3</ele>
        <time>2022-07-31T09:36:37.000Z</time>
      </trkpt>
      <trkpt lat="47.27522" lon="-2.32864">
        <ele>-2.5999999046326</ele>
        <time>2022-07-31T09:36:38.000Z</time>
      </trkpt>
      <trkpt lat="47.27519" lon="-2.32868">
        <ele>-2.2000000476837</ele>
        <time>2022-07-31T09:36:39.000Z</time>
      </trkpt>
      <trkpt lat="47.27517" lon="-2.32872">
        <ele>-1.7999999523163</ele>
        <time>2022-07-31T09:36:40.000Z</time>
      </trkpt>
      <trkpt lat="47.27515" lon="-2.32876">
        <ele>-1.3999999761581</ele>
        <time>2022-07-31T09:36:41.000Z</time>
      </trkpt>
      <trkpt lat="47.27507" lon="-2.32895">
        <ele>-1.3999999761581</ele>
        <time>2022-07-31T09:36:45.000Z</time>
      </trkpt>
      <trkpt lat="47.275" lon="-2.32924">
        <ele>-1.3999999761581</ele>
        <time>2022-07-31T09:36:51.000Z</time>
      </trkpt>
      <trkpt lat="47.27492" lon="-2.32952">
        <ele>-1.3999999761581</ele>
        <time>2022-07-31T09:36:57.000Z</time>
      </trkpt>
      <trkpt lat="47.27491" lon="-2.32956">
        <ele>-1</ele>
        <time>2022-07-31T09:36:58.000Z</time>
      </trkpt>
      <trkpt lat="47.27489" lon="-2.32959">
        <ele>-0.60000002384186</ele>
        <time>2022-07-31T09:36:59.000Z</time>
      </trkpt>
      <trkpt lat="47.27488" lon="-2.32963">
        <ele>21.1</ele>
        <time>2022-07-31T09:37:00.000Z</time>
      </trkpt>
      <trkpt lat="47.27487" lon="-2.32967">
        <ele>0.40000000596046</ele>
        <time>2022-07-31T09:37:01.000Z</time>
      </trkpt>
      <trkpt lat="47.27485" lon="-2.32971">
        <ele>0.80000001192093</ele>
        <time>2022-07-31T09:37:02.000Z</time>
      </trkpt>
      <trkpt lat="47.27474" lon="-2.33004">
        <ele>0.80000001192093</ele>
        <time>2022-07-31T09:37:10.000Z</time>
      </trkpt>
      <trkpt lat="47.27466" lon="-2.33022">
        <ele>0.80000001192093</ele>
        <time>2022-07-31T09:37:16.000Z</time>
      </trkpt>
      <trkpt lat="47.27465" lon="-2.33024">
        <ele>1.2000000476837</ele>
        <time>2022-07-31T09:37:17.000Z</time>
      </trkpt>
      <trkpt lat="47.27464" lon="-2.33026">
        <ele>1.6000000238419</ele>
        <time>2022-07-31T09:37:18.000Z</time>
      </trkpt>
      <trkpt lat="47.27463" lon="-2.33026">
        <ele>2</ele>
        <time>2022-07-31T09:37:19.000Z</time>
      </trkpt>
      <trkpt lat="47.27461" lon="-2.33027">
        <ele>2.4000000953674</ele>
        <time>2022-07-31T09:37:20.000Z</time>
      </trkpt>
      <trkpt lat="47.2746" lon="-2.33028">
        <ele>2.7999999523163</ele>
        <time>2022-07-31T09:37:21.000Z</time>
      </trkpt>
      <trkpt lat="47.27456" lon="-2.3303">
        <ele>2.7999999523163</ele>
        <time>2022-07-31T09:37:24.000Z</time>
      </trkpt>
      <trkpt lat="47.27451" lon="-2.33031">
        <ele>2.7999999523163</ele>
        <time>2022-07-31T09:37:27.000Z</time>
      </trkpt>
      <trkpt lat="47.2745" lon="-2.33032">
        <ele>2.7999999523163</ele>
        <time>2022-07-31T09:37:29.000Z</time>
      </trkpt>
      <trkpt lat="47.27449" lon="-2.33033">
        <ele>2.7999999523163</ele>
        <time>2022-07-31T09:38:17.000Z</time>
      </trkpt>
      <trkpt lat="47.27447" lon="-2.33034">
        <ele>2.7999999523163</ele>
        <time>2022-07-31T09:38:18.000Z</time>
      </trkpt>
      <trkpt lat="47.27433" lon="-2.33042">
        <ele>2.7999999523163</ele>
        <time>2022-07-31T09:38:25.000Z</time>
      </trkpt>
      <trkpt lat="47.27428" lon="-2.33032">
        <ele>2.7999999523163</ele>
        <time>2022-07-31T09:38:28.000Z</time>
      </trkpt>
      <trkpt lat="47.27426" lon="-2.33027">
        <ele>2.7999999523163</ele>
        <time>2022-07-31T09:38:29.000Z</time>
      </trkpt>
      <trkpt lat="47.27419" lon="-2.32999">
        <ele>2.7999999523163</ele>
        <time>2022-07-31T09:38:34.000Z</time>
      </trkpt>
      <trkpt lat="47.27405" lon="-2.32957">
        <ele>2.7999999523163</ele>
        <time>2022-07-31T09:38:40.000Z</time>
      </trkpt>
      <trkpt lat="47.27401" lon="-2.32936">
        <ele>2.4000000953674</ele>
        <time>2022-07-31T09:38:43.000Z</time>
      </trkpt>
      <trkpt lat="47.27401" lon="-2.32932">
        <ele>2</ele>
        <time>2022-07-31T09:38:44.000Z</time>
      </trkpt>
      <trkpt lat="47.274" lon="-2.32928">
        <ele>1.6000000238419</ele>
        <time>2022-07-31T09:38:45.000Z</time>
      </trkpt>
      <trkpt lat="47.27401" lon="-2.32923">
        <ele>1.2000000476837</ele>
        <time>2022-07-31T09:38:46.000Z</time>
      </trkpt>
      <trkpt lat="47.27401" lon="-2.3292">
        <ele>0.80000001192093</ele>
        <time>2022-07-31T09:38:47.000Z</time>
      </trkpt>
      <trkpt lat="47.27403" lon="-2.32911">
        <ele>0.80000001192093</ele>
        <time>2022-07-31T09:38:49.000Z</time>
      </trkpt>
      <trkpt lat="47.27408" lon="-2.32895">
        <ele>0.80000001192093</ele>
        <time>2022-07-31T09:38:52.000Z</time>
      </trkpt>
      <trkpt lat="47.27408" lon="-2.32888">
        <ele>0.80000001192093</ele>
        <time>2022-07-31T09:38:53.000Z</time>
      </trkpt>
      <trkpt lat="47.27412" lon="-2.32867">
        <ele>0.80000001192093</ele>
        <time>2022-07-31T09:38:57.000Z</time>
      </trkpt>
      <trkpt lat="47.27414" lon="-2.32862">
        <ele>0.40000000596046</ele>
        <time>2022-07-31T09:38:58.000Z</time>
      </trkpt>
      <trkpt lat="47.27416" lon="-2.32856">
        <ele>18</ele>
        <time>2022-07-31T09:38:59.000Z</time>
      </trkpt>
      <trkpt lat="47.27419" lon="-2.32849">
        <ele>-0.40000000596046</ele>
        <time>2022-07-31T09:39:00.000Z</time>
      </trkpt>
      <trkpt lat="47.27421" lon="-2.32842">
        <ele>-1</ele>
        <time>2022-07-31T09:39:01.000Z</time>
      </trkpt>
      <trkpt lat="47.27422" lon="-2.32835">
        <ele>-1.3999999761581</ele>
        <time>2022-07-31T09:39:02.000Z</time>
      </trkpt>
      <trkpt lat="47.27428" lon="-2.32799">
        <ele>-1.3999999761581</ele>
        <time>2022-07-31T09:39:07.000Z</time>
      </trkpt>
      <trkpt lat="47.27434" lon="-2.32777">
        <ele>-1.7999999523163</ele>
        <time>2022-07-31T09:39:10.000Z</time>
      </trkpt>
      <trkpt lat="47.27437" lon="-2.32769">
        <ele>-2.2000000476837</ele>
        <time>2022-07-31T09:39:11.000Z</time>
      </trkpt>
      <trkpt lat="47.27439" lon="-2.32761">
        <ele>-3.2000000476837</ele>
        <time>2022-07-31T09:39:12.000Z</time>
      </trkpt>
      <trkpt lat="47.27441" lon="-2.32753">
        <ele>-3.5999999046326</ele>
        <time>2022-07-31T09:39:13.000Z</time>
      </trkpt>
      <trkpt lat="47.27447" lon="-2.32736">
        <ele>-4</ele>
        <time>2022-07-31T09:39:15.000Z</time>
      </trkpt>
      <trkpt lat="47.27451" lon="-2.32728">
        <ele>-4.4000000953674</ele>
        <time>2022-07-31T09:39:16.000Z</time>
      </trkpt>
      <trkpt lat="47.27454" lon="-2.3272">
        <ele>-5</ele>
        <time>2022-07-31T09:39:17.000Z</time>
      </trkpt>
      <trkpt lat="47.27458" lon="-2.32713">
        <ele>-5.4000000953674</ele>
        <time>2022-07-31T09:39:18.000Z</time>
      </trkpt>
      <trkpt lat="47.27461" lon="-2.32706">
        <ele>-5.8000001907349</ele>
        <time>2022-07-31T09:39:19.000Z</time>
      </trkpt>
      <trkpt lat="47.27466" lon="-2.327">
        <ele>-5.8000001907349</ele>
        <time>2022-07-31T09:39:20.000Z</time>
      </trkpt>
      <trkpt lat="47.27471" lon="-2.32696">
        <ele>-6.1999998092651</ele>
        <time>2022-07-31T09:39:21.000Z</time>
      </trkpt>
      <trkpt lat="47.27476" lon="-2.32694">
        <ele>-6.8000001907349</ele>
        <time>2022-07-31T09:39:22.000Z</time>
      </trkpt>
      <trkpt lat="47.27483" lon="-2.32691">
        <ele>-7.1999998092651</ele>
        <time>2022-07-31T09:39:23.000Z</time>
      </trkpt>
      <trkpt lat="47.2749" lon="-2.32686">
        <ele>-7.5999999046326</ele>
        <time>2022-07-31T09:39:24.000Z</time>
      </trkpt>
      <trkpt lat="47.27497" lon="-2.32681">
        <ele>-8</ele>
        <time>2022-07-31T09:39:25.000Z</time>
      </trkpt>
      <trkpt lat="47.27508" lon="-2.32658">
        <ele>-8</ele>
        <time>2022-07-31T09:39:28.000Z</time>
      </trkpt>
      <trkpt lat="47.27521" lon="-2.32631">
        <ele>-8.3999996185303</ele>
        <time>2022-07-31T09:39:32.000Z</time>
      </trkpt>
      <trkpt lat="47.27526" lon="-2.32629">
        <ele>-8.8000001907349</ele>
        <time>2022-07-31T09:39:33.000Z</time>
      </trkpt>
      <trkpt lat="47.27532" lon="-2.32627">
        <ele>-9.1999998092651</ele>
        <time>2022-07-31T09:39:34.000Z</time>
      </trkpt>
      <trkpt lat="47.27537" lon="-2.32622">
        <ele>-9.6000003814697</ele>
        <time>2022-07-31T09:39:35.000Z</time>
      </trkpt>
      <trkpt lat="47.27542" lon="-2.32616">
        <ele>-10</ele>
        <time>2022-07-31T09:39:36.000Z</time>
      </trkpt>
      <trkpt lat="47.27546" lon="-2.32604">
        <ele>-10</ele>
        <time>2022-07-31T09:39:38.000Z</time>
      </trkpt>
      <trkpt lat="47.27547" lon="-2.32582">
        <ele>-10</ele>
        <time>2022-07-31T09:39:41.000Z</time>
      </trkpt>
      <trkpt lat="47.27539" lon="-2.32569">
        <ele>-10</ele>
        <time>2022-07-31T09:39:44.000Z</time>
      </trkpt>
      <trkpt lat="47.27534" lon="-2.32555">
        <ele>-10</ele>
        <time>2022-07-31T09:39:47.000Z</time>
      </trkpt>
      <trkpt lat="47.27534" lon="-2.32549">
        <ele>-9.6000003814697</ele>
        <time>2022-07-31T09:39:48.000Z</time>
      </trkpt>
      <trkpt lat="47.27534" lon="-2.32544">
        <ele>-9.1999998092651</ele>
        <time>2022-07-31T09:39:49.000Z</time>
      </trkpt>
      <trkpt lat="47.27536" lon="-2.32538">
        <ele>-8.8000001907349</ele>
        <time>2022-07-31T09:39:50.000Z</time>
      </trkpt>
      <trkpt lat="47.27537" lon="-2.32534">
        <ele>-8.3999996185303</ele>
        <time>2022-07-31T09:39:51.000Z</time>
      </trkpt>
      <trkpt lat="47.27539" lon="-2.32528">
        <ele>-8</ele>
        <time>2022-07-31T09:39:52.000Z</time>
      </trkpt>
      <trkpt lat="47.2754" lon="-2.32523">
        <ele>-7.4000000953674</ele>
        <time>2022-07-31T09:39:53.000Z</time>
      </trkpt>
      <trkpt lat="47.27542" lon="-2.32519">
        <ele>-7</ele>
        <time>2022-07-31T09:39:54.000Z</time>
      </trkpt>
      <trkpt lat="47.27544" lon="-2.32514">
        <ele>-6.5999999046326</ele>
        <time>2022-07-31T09:39:55.000Z</time>
      </trkpt>
      <trkpt lat="47.27546" lon="-2.32508">
        <ele>-6</ele>
        <time>2022-07-31T09:39:56.000Z</time>
      </trkpt>
      <trkpt lat="47.27547" lon="-2.32503">
        <ele>-5.5999999046326</ele>
        <time>2022-07-31T09:39:57.000Z</time>
      </trkpt>
      <trkpt lat="47.27548" lon="-2.32498">
        <ele>-5.1999998092651</ele>
        <time>2022-07-31T09:39:58.000Z</time>
      </trkpt>
      <trkpt lat="47.27549" lon="-2.32494">
        <ele>-4.8000001907349</ele>
        <time>2022-07-31T09:39:59.000Z</time>
      </trkpt>
      <trkpt lat="47.2755" lon="-2.32489">
        <ele>-4.1999998092651</ele>
        <time>2022-07-31T09:40:00.000Z</time>
      </trkpt>
      <trkpt lat="47.2755" lon="-2.32483">
        <ele>-3.7999999523163</ele>
        <time>2022-07-31T09:40:01.000Z</time>
      </trkpt>
      <trkpt lat="47.27553" lon="-2.32471">
        <ele>-3.4000000953674</ele>
        <time>2022-07-31T09:40:03.000Z</time>
      </trkpt>
      <trkpt lat="47.27555" lon="-2.32465">
        <ele>-3</ele>
        <time>2022-07-31T09:40:04.000Z</time>
      </trkpt>
      <trkpt lat="47.27557" lon="-2.32458">
        <ele>-2.5999999046326</ele>
        <time>2022-07-31T09:40:05.000Z</time>
      </trkpt>
      <trkpt lat="47.27558" lon="-2.32453">
        <ele>-2.2000000476837</ele>
        <time>2022-07-31T09:40:06.000Z</time>
      </trkpt>
      <trkpt lat="47.2756" lon="-2.32447">
        <ele>-1.7999999523163</ele>
        <time>2022-07-31T09:40:07.000Z</time>
      </trkpt>
      <trkpt lat="47.27568" lon="-2.32435">
        <ele>-1.7999999523163</ele>
        <time>2022-07-31T09:40:10.000Z</time>
      </trkpt>
      <trkpt lat="47.27571" lon="-2.32434">
        <ele>-1.7999999523163</ele>
        <time>2022-07-31T09:40:11.000Z</time>
      </trkpt>
      <trkpt lat="47.27579" lon="-2.32436">
        <ele>-1.7999999523163</ele>
        <time>2022-07-31T09:40:14.000Z</time>
      </trkpt>
      <trkpt lat="47.27586" lon="-2.3244">
        <ele>-1.7999999523163</ele>
        <time>2022-07-31T09:40:16.000Z</time>
      </trkpt>
      <trkpt lat="47.27597" lon="-2.32445">
        <ele>-1.7999999523163</ele>
        <time>2022-07-31T09:40:19.000Z</time>
      </trkpt>
      <trkpt lat="47.27613" lon="-2.3246">
        <ele>-1.3999999761581</ele>
        <time>2022-07-31T09:40:24.000Z</time>
      </trkpt>
      <trkpt lat="47.27617" lon="-2.32464">
        <ele>-1</ele>
        <time>2022-07-31T09:40:25.000Z</time>
      </trkpt>
      <trkpt lat="47.2762" lon="-2.32467">
        <ele>-0.60000002384186</ele>
        <time>2022-07-31T09:40:26.000Z</time>
      </trkpt>
      <trkpt lat="47.27624" lon="-2.3247">
        <ele>0.20000000298023</ele>
        <time>2022-07-31T09:40:27.000Z</time>
      </trkpt>
      <trkpt lat="47.27636" lon="-2.32481">
        <ele>0.20000000298023</ele>
        <time>2022-07-31T09:40:31.000Z</time>
      </trkpt>
      <trkpt lat="47.2765" lon="-2.32492">
        <ele>0.20000000298023</ele>
        <time>2022-07-31T09:40:36.000Z</time>
      </trkpt>
      <trkpt lat="47.27665" lon="-2.32496">
        <ele>0.20000000298023</ele>
        <time>2022-07-31T09:40:40.000Z</time>
      </trkpt>
      <trkpt lat="47.27674" lon="-2.32484">
        <ele>0.20000000298023</ele>
        <time>2022-07-31T09:40:43.000Z</time>
      </trkpt>
      <trkpt lat="47.27679" lon="-2.32477">
        <ele>0.20000000298023</ele>
        <time>2022-07-31T09:40:45.000Z</time>
      </trkpt>
      <trkpt lat="47.27686" lon="-2.32467">
        <ele>0.20000000298023</ele>
        <time>2022-07-31T09:40:48.000Z</time>
      </trkpt>
      <trkpt lat="47.27693" lon="-2.32458">
        <ele>0.20000000298023</ele>
        <time>2022-07-31T09:40:53.000Z</time>
      </trkpt>
      <trkpt lat="47.27698" lon="-2.32453">
        <ele>0.20000000298023</ele>
        <time>2022-07-31T09:40:59.000Z</time>
      </trkpt>
      <trkpt lat="47.277" lon="-2.3245">
        <ele>0.20000000298023</ele>
        <time>2022-07-31T09:41:38.000Z</time>
      </trkpt>
      <trkpt lat="47.27705" lon="-2.32443">
        <ele>0.20000000298023</ele>
        <time>2022-07-31T09:41:41.000Z</time>
      </trkpt>
      <trkpt lat="47.27716" lon="-2.3243">
        <ele>0.20000000298023</ele>
        <time>2022-07-31T09:41:46.000Z</time>
      </trkpt>
      <trkpt lat="47.27723" lon="-2.3242">
        <ele>0.20000000298023</ele>
        <time>2022-07-31T09:41:51.000Z</time>
      </trkpt>
      <trkpt lat="47.27729" lon="-2.32413">
        <ele>0.60000002384186</ele>
        <time>2022-07-31T09:41:56.000Z</time>
      </trkpt>
      <trkpt lat="47.27731" lon="-2.32412">
        <ele>1</ele>
        <time>2022-07-31T09:41:57.000Z</time>
      </trkpt>
      <trkpt lat="47.27732" lon="-2.3241">
        <ele>1.3999999761581</ele>
        <time>2022-07-31T09:41:58.000Z</time>
      </trkpt>
      <trkpt lat="47.27734" lon="-2.32408">
        <ele>1.7999999523163</ele>
        <time>2022-07-31T09:41:59.000Z</time>
      </trkpt>
      <trkpt lat="47.27737" lon="-2.32406">
        <ele>2.2000000476837</ele>
        <time>2022-07-31T09:42:00.000Z</time>
      </trkpt>
      <trkpt lat="47.27741" lon="-2.32402">
        <ele>2.2000000476837</ele>
        <time>2022-07-31T09:42:02.000Z</time>
      </trkpt>
      <trkpt lat="47.27756" lon="-2.32391">
        <ele>2.2000000476837</ele>
        <time>2022-07-31T09:42:07.000Z</time>
      </trkpt>
      <trkpt lat="47.27761" lon="-2.32386">
        <ele>2.2000000476837</ele>
        <time>2022-07-31T09:42:11.000Z</time>
      </trkpt>
      <trkpt lat="47.27761" lon="-2.32383">
        <ele>2.2000000476837</ele>
        <time>2022-07-31T09:42:19.000Z</time>
      </trkpt>
      <trkpt lat="47.27756" lon="-2.32375">
        <ele>2.2000000476837</ele>
        <time>2022-07-31T09:42:23.000Z</time>
      </trkpt>
      <trkpt lat="47.27744" lon="-2.32368">
        <ele>2.2000000476837</ele>
        <time>2022-07-31T09:42:27.000Z</time>
      </trkpt>
      <trkpt lat="47.27729" lon="-2.32354">
        <ele>2.2000000476837</ele>
        <time>2022-07-31T09:42:32.000Z</time>
      </trkpt>
      <trkpt lat="47.27712" lon="-2.32341">
        <ele>2.2000000476837</ele>
        <time>2022-07-31T09:42:37.000Z</time>
      </trkpt>
      <trkpt lat="47.27697" lon="-2.32332">
        <ele>2.2000000476837</ele>
        <time>2022-07-31T09:42:41.000Z</time>
      </trkpt>
      <trkpt lat="47.27693" lon="-2.32328">
        <ele>2.2000000476837</ele>
        <time>2022-07-31T09:42:42.000Z</time>
      </trkpt>
      <trkpt lat="47.27678" lon="-2.32324">
        <ele>2.2000000476837</ele>
        <time>2022-07-31T09:42:45.000Z</time>
      </trkpt>
      <trkpt lat="47.27655" lon="-2.32317">
        <ele>2.2000000476837</ele>
        <time>2022-07-31T09:42:50.000Z</time>
      </trkpt>
      <trkpt lat="47.27643" lon="-2.32312">
        <ele>2.2000000476837</ele>
        <time>2022-07-31T09:42:53.000Z</time>
      </trkpt>
      <trkpt lat="47.27629" lon="-2.32304">
        <ele>2.2000000476837</ele>
        <time>2022-07-31T09:42:56.000Z</time>
      </trkpt>
      <trkpt lat="47.27625" lon="-2.32301">
        <ele>2.2000000476837</ele>
        <time>2022-07-31T09:42:57.000Z</time>
      </trkpt>
      <trkpt lat="47.27622" lon="-2.32297">
        <ele>1.7999999523163</ele>
        <time>2022-07-31T09:42:58.000Z</time>
      </trkpt>
      <trkpt lat="47.27619" lon="-2.32295">
        <ele>1.3999999761581</ele>
        <time>2022-07-31T09:42:59.000Z</time>
      </trkpt>
      <trkpt lat="47.27615" lon="-2.32291">
        <ele>1</ele>
        <time>2022-07-31T09:43:00.000Z</time>
      </trkpt>
      <trkpt lat="47.27611" lon="-2.32288">
        <ele>0.60000002384186</ele>
        <time>2022-07-31T09:43:01.000Z</time>
      </trkpt>
      <trkpt lat="47.27606" lon="-2.32285">
        <ele>0.20000000298023</ele>
        <time>2022-07-31T09:43:02.000Z</time>
      </trkpt>
      <trkpt lat="47.27595" lon="-2.32277">
        <ele>0.20000000298023</ele>
        <time>2022-07-31T09:43:04.000Z</time>
      </trkpt>
      <trkpt lat="47.27565" lon="-2.3225">
        <ele>-0.20000000298023</ele>
        <time>2022-07-31T09:43:09.000Z</time>
      </trkpt>
      <trkpt lat="47.27559" lon="-2.32244">
        <ele>-0.60000002384186</ele>
        <time>2022-07-31T09:43:10.000Z</time>
      </trkpt>
      <trkpt lat="47.27552" lon="-2.32239">
        <ele>-1.2000000476837</ele>
        <time>2022-07-31T09:43:11.000Z</time>
      </trkpt>
      <trkpt lat="47.27545" lon="-2.32233">
        <ele>-1.6000000238419</ele>
        <time>2022-07-31T09:43:12.000Z</time>
      </trkpt>
      <trkpt lat="47.27539" lon="-2.32228">
        <ele>-2.2000000476837</ele>
        <time>2022-07-31T09:43:13.000Z</time>
      </trkpt>
      <trkpt lat="47.27525" lon="-2.32214">
        <ele>-2.5999999046326</ele>
        <time>2022-07-31T09:43:15.000Z</time>
      </trkpt>
      <trkpt lat="47.27519" lon="-2.32206">
        <ele>-3</ele>
        <time>2022-07-31T09:43:16.000Z</time>
      </trkpt>
      <trkpt lat="47.27513" lon="-2.32197">
        <ele>-3.5999999046326</ele>
        <time>2022-07-31T09:43:17.000Z</time>
      </trkpt>
      <trkpt lat="47.27507" lon="-2.32189">
        <ele>-4</ele>
        <time>2022-07-31T09:43:18.000Z</time>
      </trkpt>
      <trkpt lat="47.275" lon="-2.3218">
        <ele>-4.5999999046326</ele>
        <time>2022-07-31T09:43:19.000Z</time>
      </trkpt>
      <trkpt lat="47.27493" lon="-2.32172">
        <ele>-5</ele>
        <time>2022-07-31T09:43:20.000Z</time>
      </trkpt>
      <trkpt lat="47.27487" lon="-2.32164">
        <ele>-5.4000000953674</ele>
        <time>2022-07-31T09:43:21.000Z</time>
      </trkpt>
      <trkpt lat="47.2748" lon="-2.32155">
        <ele>-5.8000001907349</ele>
        <time>2022-07-31T09:43:22.000Z</time>
      </trkpt>
      <trkpt lat="47.27474" lon="-2.32147">
        <ele>-6.1999998092651</ele>
        <time>2022-07-31T09:43:23.000Z</time>
      </trkpt>
      <trkpt lat="47.27468" lon="-2.32139">
        <ele>-6.5999999046326</ele>
        <time>2022-07-31T09:43:24.000Z</time>
      </trkpt>
      <trkpt lat="47.2744" lon="-2.32103">
        <ele>-6.5999999046326</ele>
        <time>2022-07-31T09:43:29.000Z</time>
      </trkpt>
      <trkpt lat="47.27402" lon="-2.32059">
        <ele>-7</ele>
        <time>2022-07-31T09:43:35.000Z</time>
      </trkpt>
      <trkpt lat="47.27396" lon="-2.32052">
        <ele>-7.5999999046326</ele>
        <time>2022-07-31T09:43:36.000Z</time>
      </trkpt>
      <trkpt lat="47.27389" lon="-2.32045">
        <ele>-8</ele>
        <time>2022-07-31T09:43:37.000Z</time>
      </trkpt>
      <trkpt lat="47.27382" lon="-2.32037">
        <ele>-8.3999996185303</ele>
        <time>2022-07-31T09:43:38.000Z</time>
      </trkpt>
      <trkpt lat="47.27374" lon="-2.3203">
        <ele>-8.8000001907349</ele>
        <time>2022-07-31T09:43:39.000Z</time>
      </trkpt>
      <trkpt lat="47.27358" lon="-2.32013">
        <ele>-9.3999996185303</ele>
        <time>2022-07-31T09:43:41.000Z</time>
      </trkpt>
      <trkpt lat="47.2735" lon="-2.32004">
        <ele>-9.8000001907349</ele>
        <time>2022-07-31T09:43:42.000Z</time>
      </trkpt>
      <trkpt lat="47.27342" lon="-2.31995">
        <ele>-10.199999809265</ele>
        <time>2022-07-31T09:43:43.000Z</time>
      </trkpt>
      <trkpt lat="47.27334" lon="-2.31987">
        <ele>-11.199999809265</ele>
        <time>2022-07-31T09:43:44.000Z</time>
      </trkpt>
      <trkpt lat="47.273" lon="-2.31954">
        <ele>-11.199999809265</ele>
        <time>2022-07-31T09:43:48.000Z</time>
      </trkpt>
      <trkpt lat="47.27293" lon="-2.3195">
        <ele>-11.199999809265</ele>
        <time>2022-07-31T09:43:49.000Z</time>
      </trkpt>
      <trkpt lat="47.27285" lon="-2.31946">
        <ele>-11.199999809265</ele>
        <time>2022-07-31T09:43:50.000Z</time>
      </trkpt>
      <trkpt lat="47.2727" lon="-2.31938">
        <ele>-11.199999809265</ele>
        <time>2022-07-31T09:43:52.000Z</time>
      </trkpt>
      <trkpt lat="47.27255" lon="-2.31934">
        <ele>-11.199999809265</ele>
        <time>2022-07-31T09:43:54.000Z</time>
      </trkpt>
      <trkpt lat="47.27228" lon="-2.31926">
        <ele>-11.199999809265</ele>
        <time>2022-07-31T09:43:58.000Z</time>
      </trkpt>
      <trkpt lat="47.27217" lon="-2.31927">
        <ele>-11.199999809265</ele>
        <time>2022-07-31T09:44:00.000Z</time>
      </trkpt>
      <trkpt lat="47.27213" lon="-2.31931">
        <ele>-11.199999809265</ele>
        <time>2022-07-31T09:44:01.000Z</time>
      </trkpt>
      <trkpt lat="47.27204" lon="-2.31951">
        <ele>-11.199999809265</ele>
        <time>2022-07-31T09:44:05.000Z</time>
      </trkpt>
      <trkpt lat="47.27197" lon="-2.31961">
        <ele>-11.199999809265</ele>
        <time>2022-07-31T09:44:07.000Z</time>
      </trkpt>
      <trkpt lat="47.27187" lon="-2.31969">
        <ele>-11.199999809265</ele>
        <time>2022-07-31T09:44:09.000Z</time>
      </trkpt>
      <trkpt lat="47.27183" lon="-2.31975">
        <ele>-11.199999809265</ele>
        <time>2022-07-31T09:44:10.000Z</time>
      </trkpt>
      <trkpt lat="47.27175" lon="-2.31989">
        <ele>-11.199999809265</ele>
        <time>2022-07-31T09:44:12.000Z</time>
      </trkpt>
      <trkpt lat="47.27158" lon="-2.3199">
        <ele>-11.199999809265</ele>
        <time>2022-07-31T09:44:15.000Z</time>
      </trkpt>
      <trkpt lat="47.27153" lon="-2.31988">
        <ele>-11.60000038147</ele>
        <time>2022-07-31T09:44:16.000Z</time>
      </trkpt>
      <trkpt lat="47.27148" lon="-2.31985">
        <ele>-12</ele>
        <time>2022-07-31T09:44:17.000Z</time>
      </trkpt>
      <trkpt lat="47.27142" lon="-2.31982">
        <ele>-12.39999961853</ele>
        <time>2022-07-31T09:44:18.000Z</time>
      </trkpt>
      <trkpt lat="47.27136" lon="-2.31978">
        <ele>-12.800000190735</ele>
        <time>2022-07-31T09:44:19.000Z</time>
      </trkpt>
      <trkpt lat="47.2713" lon="-2.31974">
        <ele>-13.199999809265</ele>
        <time>2022-07-31T09:44:20.000Z</time>
      </trkpt>
      <trkpt lat="47.27118" lon="-2.31968">
        <ele>-13.199999809265</ele>
        <time>2022-07-31T09:44:22.000Z</time>
      </trkpt>
      <trkpt lat="47.27102" lon="-2.3196">
        <ele>-13.199999809265</ele>
        <time>2022-07-31T09:44:25.000Z</time>
      </trkpt>
      <trkpt lat="47.27091" lon="-2.31957">
        <ele>-13.199999809265</ele>
        <time>2022-07-31T09:44:27.000Z</time>
      </trkpt>
      <trkpt lat="47.27081" lon="-2.31957">
        <ele>-13.199999809265</ele>
        <time>2022-07-31T09:44:29.000Z</time>
      </trkpt>
      <trkpt lat="47.27071" lon="-2.31958">
        <ele>-12.800000190735</ele>
        <time>2022-07-31T09:44:31.000Z</time>
      </trkpt>
      <trkpt lat="47.27066" lon="-2.31958">
        <ele>-12.39999961853</ele>
        <time>2022-07-31T09:44:32.000Z</time>
      </trkpt>
      <trkpt lat="47.2706" lon="-2.31957">
        <ele>-11.60000038147</ele>
        <time>2022-07-31T09:44:33.000Z</time>
      </trkpt>
      <trkpt lat="47.27055" lon="-2.31956">
        <ele>-11</ele>
        <time>2022-07-31T09:44:34.000Z</time>
      </trkpt>
      <trkpt lat="47.27045" lon="-2.31957">
        <ele>-11</ele>
        <time>2022-07-31T09:44:36.000Z</time>
      </trkpt>
      <trkpt lat="47.27027" lon="-2.31968">
        <ele>-11</ele>
        <time>2022-07-31T09:44:40.000Z</time>
      </trkpt>
      <trkpt lat="47.27006" lon="-2.31981">
        <ele>-11</ele>
        <time>2022-07-31T09:44:44.000Z</time>
      </trkpt>
      <trkpt lat="47.27007" lon="-2.31994">
        <ele>-11</ele>
        <time>2022-07-31T09:44:46.000Z</time>
      </trkpt>
      <trkpt lat="47.27011" lon="-2.32008">
        <ele>-11</ele>
        <time>2022-07-31T09:44:48.000Z</time>
      </trkpt>
      <trkpt lat="47.27016" lon="-2.32033">
        <ele>-11</ele>
        <time>2022-07-31T09:44:51.000Z</time>
      </trkpt>
      <trkpt lat="47.27018" lon="-2.32041">
        <ele>-11</ele>
        <time>2022-07-31T09:44:52.000Z</time>
      </trkpt>
      <trkpt lat="47.27017" lon="-2.32066">
        <ele>-11</ele>
        <time>2022-07-31T09:44:55.000Z</time>
      </trkpt>
      <trkpt lat="47.27016" lon="-2.32075">
        <ele>-11</ele>
        <time>2022-07-31T09:44:56.000Z</time>
      </trkpt>
      <trkpt lat="47.27012" lon="-2.32101">
        <ele>-11</ele>
        <time>2022-07-31T09:44:59.000Z</time>
      </trkpt>
      <trkpt lat="47.27009" lon="-2.32109">
        <ele>-11.39999961853</ele>
        <time>2022-07-31T09:45:00.000Z</time>
      </trkpt>
      <trkpt lat="47.27006" lon="-2.32115">
        <ele>-12</ele>
        <time>2022-07-31T09:45:01.000Z</time>
      </trkpt>
      <trkpt lat="47.27001" lon="-2.32119">
        <ele>-12.39999961853</ele>
        <time>2022-07-31T09:45:02.000Z</time>
      </trkpt>
      <trkpt lat="47.26996" lon="-2.32124">
        <ele>-12.800000190735</ele>
        <time>2022-07-31T09:45:03.000Z</time>
      </trkpt>
      <trkpt lat="47.26992" lon="-2.32131">
        <ele>-13.199999809265</ele>
        <time>2022-07-31T09:45:04.000Z</time>
      </trkpt>
      <trkpt lat="47.26991" lon="-2.32146">
        <ele>-13.199999809265</ele>
        <time>2022-07-31T09:45:06.000Z</time>
      </trkpt>
      <trkpt lat="47.27002" lon="-2.32165">
        <ele>-13.199999809265</ele>
        <time>2022-07-31T09:45:09.000Z</time>
      </trkpt>
      <trkpt lat="47.2701" lon="-2.32178">
        <ele>-13.199999809265</ele>
        <time>2022-07-31T09:45:11.000Z</time>
      </trkpt>
      <trkpt lat="47.27013" lon="-2.32186">
        <ele>-13.199999809265</ele>
        <time>2022-07-31T09:45:12.000Z</time>
      </trkpt>
      <trkpt lat="47.27018" lon="-2.322">
        <ele>-13.199999809265</ele>
        <time>2022-07-31T09:45:14.000Z</time>
      </trkpt>
      <trkpt lat="47.27031" lon="-2.3224">
        <ele>-13.199999809265</ele>
        <time>2022-07-31T09:45:20.000Z</time>
      </trkpt>
      <trkpt lat="47.27033" lon="-2.32247">
        <ele>-13.199999809265</ele>
        <time>2022-07-31T09:45:21.000Z</time>
      </trkpt>
      <trkpt lat="47.27032" lon="-2.32272">
        <ele>-13.199999809265</ele>
        <time>2022-07-31T09:45:24.000Z</time>
      </trkpt>
      <trkpt lat="47.27032" lon="-2.3228">
        <ele>-13.199999809265</ele>
        <time>2022-07-31T09:45:25.000Z</time>
      </trkpt>
      <trkpt lat="47.27031" lon="-2.32337">
        <ele>-13.199999809265</ele>
        <time>2022-07-31T09:45:31.000Z</time>
      </trkpt>
      <trkpt lat="47.27032" lon="-2.32392">
        <ele>-13.199999809265</ele>
        <time>2022-07-31T09:45:37.000Z</time>
      </trkpt>
      <trkpt lat="47.27035" lon="-2.32433">
        <ele>-13.199999809265</ele>
        <time>2022-07-31T09:45:41.000Z</time>
      </trkpt>
      <trkpt lat="47.27036" lon="-2.32443">
        <ele>-13.199999809265</ele>
        <time>2022-07-31T09:45:42.000Z</time>
      </trkpt>
      <trkpt lat="47.27037" lon="-2.32467">
        <ele>-13.199999809265</ele>
        <time>2022-07-31T09:45:45.000Z</time>
      </trkpt>
      <trkpt lat="47.27037" lon="-2.32482">
        <ele>-13.199999809265</ele>
        <time>2022-07-31T09:45:47.000Z</time>
      </trkpt>
      <trkpt lat="47.2703" lon="-2.32491">
        <ele>-13.199999809265</ele>
        <time>2022-07-31T09:45:49.000Z</time>
      </trkpt>
      <trkpt lat="47.27015" lon="-2.32493">
        <ele>-13.199999809265</ele>
        <time>2022-07-31T09:45:52.000Z</time>
      </trkpt>
      <trkpt lat="47.27003" lon="-2.32479">
        <ele>-13.199999809265</ele>
        <time>2022-07-31T09:45:55.000Z</time>
      </trkpt>
      <trkpt lat="47.27" lon="-2.32474">
        <ele>-13.199999809265</ele>
        <time>2022-07-31T09:45:56.000Z</time>
      </trkpt>
      <trkpt lat="47.26995" lon="-2.32469">
        <ele>-13.199999809265</ele>
        <time>2022-07-31T09:45:57.000Z</time>
      </trkpt>
      <trkpt lat="47.26982" lon="-2.32451">
        <ele>-13.199999809265</ele>
        <time>2022-07-31T09:46:00.000Z</time>
      </trkpt>
      <trkpt lat="47.26977" lon="-2.32446">
        <ele>-13.199999809265</ele>
        <time>2022-07-31T09:46:01.000Z</time>
      </trkpt>
      <trkpt lat="47.26959" lon="-2.32424">
        <ele>-13.199999809265</ele>
        <time>2022-07-31T09:46:05.000Z</time>
      </trkpt>
      <trkpt lat="47.26953" lon="-2.32412">
        <ele>-13.199999809265</ele>
        <time>2022-07-31T09:46:07.000Z</time>
      </trkpt>
      <trkpt lat="47.26946" lon="-2.32389">
        <ele>-13.199999809265</ele>
        <time>2022-07-31T09:46:10.000Z</time>
      </trkpt>
      <trkpt lat="47.26941" lon="-2.32375">
        <ele>-13.199999809265</ele>
        <time>2022-07-31T09:46:12.000Z</time>
      </trkpt>
      <trkpt lat="47.26935" lon="-2.32354">
        <ele>-13.199999809265</ele>
        <time>2022-07-31T09:46:15.000Z</time>
      </trkpt>
      <trkpt lat="47.26931" lon="-2.32348">
        <ele>-13.199999809265</ele>
        <time>2022-07-31T09:46:16.000Z</time>
      </trkpt>
      <trkpt lat="47.26924" lon="-2.32339">
        <ele>-12.800000190735</ele>
        <time>2022-07-31T09:46:18.000Z</time>
      </trkpt>
      <trkpt lat="47.26919" lon="-2.32336">
        <ele>-12.39999961853</ele>
        <time>2022-07-31T09:46:19.000Z</time>
      </trkpt>
      <trkpt lat="47.26915" lon="-2.32335">
        <ele>-11.800000190735</ele>
        <time>2022-07-31T09:46:20.000Z</time>
      </trkpt>
      <trkpt lat="47.26911" lon="-2.32336">
        <ele>-11.39999961853</ele>
        <time>2022-07-31T09:46:21.000Z</time>
      </trkpt>
      <trkpt lat="47.26907" lon="-2.32338">
        <ele>-11</ele>
        <time>2022-07-31T09:46:22.000Z</time>
      </trkpt>
      <trkpt lat="47.26898" lon="-2.32339">
        <ele>-11</ele>
        <time>2022-07-31T09:46:24.000Z</time>
      </trkpt>
      <trkpt lat="47.26893" lon="-2.32338">
        <ele>-11</ele>
        <time>2022-07-31T09:46:25.000Z</time>
      </trkpt>
      <trkpt lat="47.26884" lon="-2.3234">
        <ele>-11</ele>
        <time>2022-07-31T09:46:27.000Z</time>
      </trkpt>
      <trkpt lat="47.26881" lon="-2.3234">
        <ele>-10.60000038147</ele>
        <time>2022-07-31T09:46:28.000Z</time>
      </trkpt>
      <trkpt lat="47.26877" lon="-2.32341">
        <ele>-10.199999809265</ele>
        <time>2022-07-31T09:46:29.000Z</time>
      </trkpt>
      <trkpt lat="47.26873" lon="-2.32342">
        <ele>-9.8000001907349</ele>
        <time>2022-07-31T09:46:30.000Z</time>
      </trkpt>
      <trkpt lat="47.26869" lon="-2.32343">
        <ele>-9.1999998092651</ele>
        <time>2022-07-31T09:46:31.000Z</time>
      </trkpt>
      <trkpt lat="47.26864" lon="-2.32344">
        <ele>-8.8000001907349</ele>
        <time>2022-07-31T09:46:32.000Z</time>
      </trkpt>
      <trkpt lat="47.2686" lon="-2.32345">
        <ele>-8.8000001907349</ele>
        <time>2022-07-31T09:46:33.000Z</time>
      </trkpt>
      <trkpt lat="47.26848" lon="-2.32347">
        <ele>-8.3999996185303</ele>
        <time>2022-07-31T09:46:36.000Z</time>
      </trkpt>
      <trkpt lat="47.26844" lon="-2.32347">
        <ele>-8</ele>
        <time>2022-07-31T09:46:37.000Z</time>
      </trkpt>
      <trkpt lat="47.26839" lon="-2.32349">
        <ele>-7.5999999046326</ele>
        <time>2022-07-31T09:46:38.000Z</time>
      </trkpt>
      <trkpt lat="47.26836" lon="-2.3235">
        <ele>-7</ele>
        <time>2022-07-31T09:46:39.000Z</time>
      </trkpt>
      <trkpt lat="47.26832" lon="-2.32351">
        <ele>-6.5999999046326</ele>
        <time>2022-07-31T09:46:40.000Z</time>
      </trkpt>
      <trkpt lat="47.26821" lon="-2.32354">
        <ele>-6.1999998092651</ele>
        <time>2022-07-31T09:46:43.000Z</time>
      </trkpt>
      <trkpt lat="47.26817" lon="-2.32354">
        <ele>-5.8000001907349</ele>
        <time>2022-07-31T09:46:44.000Z</time>
      </trkpt>
      <trkpt lat="47.26814" lon="-2.32355">
        <ele>-5.4000000953674</ele>
        <time>2022-07-31T09:46:45.000Z</time>
      </trkpt>
      <trkpt lat="47.2681" lon="-2.32356">
        <ele>-5</ele>
        <time>2022-07-31T09:46:46.000Z</time>
      </trkpt>
      <trkpt lat="47.26807" lon="-2.32358">
        <ele>-4.4000000953674</ele>
        <time>2022-07-31T09:46:47.000Z</time>
      </trkpt>
      <trkpt lat="47.26796" lon="-2.32362">
        <ele>-4</ele>
        <time>2022-07-31T09:46:50.000Z</time>
      </trkpt>
      <trkpt lat="47.26792" lon="-2.32364">
        <ele>-3.5999999046326</ele>
        <time>2022-07-31T09:46:51.000Z</time>
      </trkpt>
      <trkpt lat="47.26789" lon="-2.32366">
        <ele>-3.2000000476837</ele>
        <time>2022-07-31T09:46:52.000Z</time>
      </trkpt>
      <trkpt lat="47.26786" lon="-2.32368">
        <ele>-2.7999999523163</ele>
        <time>2022-07-31T09:46:53.000Z</time>
      </trkpt>
      <trkpt lat="47.26783" lon="-2.32371">
        <ele>-2.4000000953674</ele>
        <time>2022-07-31T09:46:54.000Z</time>
      </trkpt>
      <trkpt lat="47.2678" lon="-2.3238">
        <ele>-2.4000000953674</ele>
        <time>2022-07-31T09:46:58.000Z</time>
      </trkpt>
      <trkpt lat="47.26782" lon="-2.3239">
        <ele>-2</ele>
        <time>2022-07-31T09:47:03.000Z</time>
      </trkpt>
      <trkpt lat="47.26782" lon="-2.32394">
        <ele>-1.6000000238419</ele>
        <time>2022-07-31T09:47:04.000Z</time>
      </trkpt>
      <trkpt lat="47.26783" lon="-2.32397">
        <ele>-1.2000000476837</ele>
        <time>2022-07-31T09:47:05.000Z</time>
      </trkpt>
      <trkpt lat="47.26784" lon="-2.324">
        <ele>-0.80000001192093</ele>
        <time>2022-07-31T09:47:06.000Z</time>
      </trkpt>
      <trkpt lat="47.26784" lon="-2.32404">
        <ele>-0.40000000596046</ele>
        <time>2022-07-31T09:47:07.000Z</time>
      </trkpt>
      <trkpt lat="47.26786" lon="-2.32417">
        <ele>-0.40000000596046</ele>
        <time>2022-07-31T09:47:10.000Z</time>
      </trkpt>
      <trkpt lat="47.2679" lon="-2.32445">
        <ele>-0.40000000596046</ele>
        <time>2022-07-31T09:47:17.000Z</time>
      </trkpt>
      <trkpt lat="47.26793" lon="-2.32478">
        <ele>-0.40000000596046</ele>
        <time>2022-07-31T09:47:23.000Z</time>
      </trkpt>
      <trkpt lat="47.26799" lon="-2.32517">
        <ele>-0.40000000596046</ele>
        <time>2022-07-31T09:47:30.000Z</time>
      </trkpt>
      <trkpt lat="47.268" lon="-2.32538">
        <ele>-0.40000000596046</ele>
        <time>2022-07-31T09:47:35.000Z</time>
      </trkpt>
      <trkpt lat="47.26801" lon="-2.32549">
        <ele>-0.40000000596046</ele>
        <time>2022-07-31T09:47:40.000Z</time>
      </trkpt>
      <trkpt lat="47.268" lon="-2.32559">
        <ele>-2.4000000953674</ele>
        <time>2022-07-31T09:47:59.000Z</time>
      </trkpt>
      <trkpt lat="47.268" lon="-2.32567">
        <ele>-2.4000000953674</ele>
        <time>2022-07-31T09:48:01.000Z</time>
      </trkpt>
      <trkpt lat="47.26805" lon="-2.32591">
        <ele>-2.4000000953674</ele>
        <time>2022-07-31T09:48:05.000Z</time>
      </trkpt>
      <trkpt lat="47.26815" lon="-2.32642">
        <ele>-2.4000000953674</ele>
        <time>2022-07-31T09:48:12.000Z</time>
      </trkpt>
      <trkpt lat="47.26815" lon="-2.32657">
        <ele>-2.4000000953674</ele>
        <time>2022-07-31T09:48:14.000Z</time>
      </trkpt>
      <trkpt lat="47.26809" lon="-2.32669">
        <ele>-2.4000000953674</ele>
        <time>2022-07-31T09:48:16.000Z</time>
      </trkpt>
      <trkpt lat="47.26807" lon="-2.3269">
        <ele>-2.4000000953674</ele>
        <time>2022-07-31T09:48:19.000Z</time>
      </trkpt>
      <trkpt lat="47.26818" lon="-2.32718">
        <ele>-2.4000000953674</ele>
        <time>2022-07-31T09:48:23.000Z</time>
      </trkpt>
      <trkpt lat="47.26837" lon="-2.32775">
        <ele>-2.7999999523163</ele>
        <time>2022-07-31T09:48:30.000Z</time>
      </trkpt>
      <trkpt lat="47.2684" lon="-2.32784">
        <ele>-3.2000000476837</ele>
        <time>2022-07-31T09:48:31.000Z</time>
      </trkpt>
      <trkpt lat="47.26842" lon="-2.32796">
        <ele>-3.7999999523163</ele>
        <time>2022-07-31T09:48:32.000Z</time>
      </trkpt>
      <trkpt lat="47.26844" lon="-2.32807">
        <ele>-4.1999998092651</ele>
        <time>2022-07-31T09:48:33.000Z</time>
      </trkpt>
      <trkpt lat="47.26848" lon="-2.32817">
        <ele>-4.8000001907349</ele>
        <time>2022-07-31T09:48:34.000Z</time>
      </trkpt>
      <trkpt lat="47.26851" lon="-2.32828">
        <ele>-5.4000000953674</ele>
        <time>2022-07-31T09:48:35.000Z</time>
      </trkpt>
      <trkpt lat="47.26854" lon="-2.32838">
        <ele>-5.8000001907349</ele>
        <time>2022-07-31T09:48:36.000Z</time>
      </trkpt>
      <trkpt lat="47.26857" lon="-2.32848">
        <ele>-6.5999999046326</ele>
        <time>2022-07-31T09:48:37.000Z</time>
      </trkpt>
      <trkpt lat="47.26861" lon="-2.32857">
        <ele>-7.4000000953674</ele>
        <time>2022-07-31T09:48:38.000Z</time>
      </trkpt>
      <trkpt lat="47.26864" lon="-2.32864">
        <ele>-8.3999996185303</ele>
        <time>2022-07-31T09:48:39.000Z</time>
      </trkpt>
      <trkpt lat="47.26865" lon="-2.32869">
        <ele>-10.199999809265</ele>
        <time>2022-07-31T09:48:40.000Z</time>
      </trkpt>
      <trkpt lat="47.26864" lon="-2.32872">
        <ele>-11.199999809265</ele>
        <time>2022-07-31T09:48:41.000Z</time>
      </trkpt>
      <trkpt lat="47.26862" lon="-2.32875">
        <ele>-12</ele>
        <time>2022-07-31T09:48:42.000Z</time>
      </trkpt>
      <trkpt lat="47.26858" lon="-2.32877">
        <ele>-12</ele>
        <time>2022-07-31T09:48:43.000Z</time>
      </trkpt>
      <trkpt lat="47.26852" lon="-2.32879">
        <ele>-12.39999961853</ele>
        <time>2022-07-31T09:48:44.000Z</time>
      </trkpt>
      <trkpt lat="47.26846" lon="-2.3288">
        <ele>-13</ele>
        <time>2022-07-31T09:48:45.000Z</time>
      </trkpt>
      <trkpt lat="47.26841" lon="-2.32882">
        <ele>-13.39999961853</ele>
        <time>2022-07-31T09:48:46.000Z</time>
      </trkpt>
      <trkpt lat="47.26835" lon="-2.32885">
        <ele>-13.800000190735</ele>
        <time>2022-07-31T09:48:47.000Z</time>
      </trkpt>
      <trkpt lat="47.2683" lon="-2.32889">
        <ele>-14.199999809265</ele>
        <time>2022-07-31T09:48:48.000Z</time>
      </trkpt>
      <trkpt lat="47.26818" lon="-2.32901">
        <ele>-14.199999809265</ele>
        <time>2022-07-31T09:48:50.000Z</time>
      </trkpt>
      <trkpt lat="47.26792" lon="-2.32921">
        <ele>-14.199999809265</ele>
        <time>2022-07-31T09:48:55.000Z</time>
      </trkpt>
      <trkpt lat="47.26777" lon="-2.32935">
        <ele>-14.199999809265</ele>
        <time>2022-07-31T09:48:58.000Z</time>
      </trkpt>
      <trkpt lat="47.26773" lon="-2.32942">
        <ele>-14.199999809265</ele>
        <time>2022-07-31T09:48:59.000Z</time>
      </trkpt>
      <trkpt lat="47.26764" lon="-2.32952">
        <ele>-14.199999809265</ele>
        <time>2022-07-31T09:49:01.000Z</time>
      </trkpt>
      <trkpt lat="47.26744" lon="-2.32975">
        <ele>-14.199999809265</ele>
        <time>2022-07-31T09:49:05.000Z</time>
      </trkpt>
      <trkpt lat="47.2674" lon="-2.32982">
        <ele>-14.199999809265</ele>
        <time>2022-07-31T09:49:06.000Z</time>
      </trkpt>
      <trkpt lat="47.26734" lon="-2.33007">
        <ele>-14.199999809265</ele>
        <time>2022-07-31T09:49:09.000Z</time>
      </trkpt>
      <trkpt lat="47.26734" lon="-2.33033">
        <ele>-14.199999809265</ele>
        <time>2022-07-31T09:49:12.000Z</time>
      </trkpt>
      <trkpt lat="47.26726" lon="-2.33058">
        <ele>-14.199999809265</ele>
        <time>2022-07-31T09:49:15.000Z</time>
      </trkpt>
      <trkpt lat="47.26707" lon="-2.33085">
        <ele>-14.199999809265</ele>
        <time>2022-07-31T09:49:19.000Z</time>
      </trkpt>
      <trkpt lat="47.26703" lon="-2.33091">
        <ele>-14.199999809265</ele>
        <time>2022-07-31T09:49:20.000Z</time>
      </trkpt>
      <trkpt lat="47.26699" lon="-2.33097">
        <ele>-14.199999809265</ele>
        <time>2022-07-31T09:49:21.000Z</time>
      </trkpt>
      <trkpt lat="47.26686" lon="-2.33109">
        <ele>-14.199999809265</ele>
        <time>2022-07-31T09:49:24.000Z</time>
      </trkpt>
      <trkpt lat="47.26664" lon="-2.33127">
        <ele>-14.199999809265</ele>
        <time>2022-07-31T09:49:29.000Z</time>
      </trkpt>
      <trkpt lat="47.2666" lon="-2.3313">
        <ele>-14.199999809265</ele>
        <time>2022-07-31T09:49:30.000Z</time>
      </trkpt>
      <trkpt lat="47.26633" lon="-2.33149">
        <ele>-14.199999809265</ele>
        <time>2022-07-31T09:49:36.000Z</time>
      </trkpt>
      <trkpt lat="47.26614" lon="-2.33149">
        <ele>-14.199999809265</ele>
        <time>2022-07-31T09:49:40.000Z</time>
      </trkpt>
      <trkpt lat="47.26607" lon="-2.3316">
        <ele>-14.199999809265</ele>
        <time>2022-07-31T09:49:43.000Z</time>
      </trkpt>
      <trkpt lat="47.26605" lon="-2.33164">
        <ele>-14.199999809265</ele>
        <time>2022-07-31T09:49:44.000Z</time>
      </trkpt>
      <trkpt lat="47.26597" lon="-2.33183">
        <ele>-14.199999809265</ele>
        <time>2022-07-31T09:49:48.000Z</time>
      </trkpt>
      <trkpt lat="47.26595" lon="-2.33192">
        <ele>-14.199999809265</ele>
        <time>2022-07-31T09:49:50.000Z</time>
      </trkpt>
      <trkpt lat="47.26592" lon="-2.33201">
        <ele>-14.199999809265</ele>
        <time>2022-07-31T09:49:52.000Z</time>
      </trkpt>
      <trkpt lat="47.26584" lon="-2.33207">
        <ele>-14.199999809265</ele>
        <time>2022-07-31T09:49:55.000Z</time>
      </trkpt>
      <trkpt lat="47.2658" lon="-2.33211">
        <ele>-14.199999809265</ele>
        <time>2022-07-31T09:49:56.000Z</time>
      </trkpt>
      <trkpt lat="47.26558" lon="-2.33224">
        <ele>-14.60000038147</ele>
        <time>2022-07-31T09:50:00.000Z</time>
      </trkpt>
      <trkpt lat="47.26553" lon="-2.33227">
        <ele>-15</ele>
        <time>2022-07-31T09:50:01.000Z</time>
      </trkpt>
      <trkpt lat="47.26549" lon="-2.3323">
        <ele>-15.39999961853</ele>
        <time>2022-07-31T09:50:02.000Z</time>
      </trkpt>
      <trkpt lat="47.26544" lon="-2.33233">
        <ele>-15.800000190735</ele>
        <time>2022-07-31T09:50:03.000Z</time>
      </trkpt>
      <trkpt lat="47.2654" lon="-2.33236">
        <ele>-16.200000762939</ele>
        <time>2022-07-31T09:50:04.000Z</time>
      </trkpt>
      <trkpt lat="47.26527" lon="-2.33244">
        <ele>-16.200000762939</ele>
        <time>2022-07-31T09:50:07.000Z</time>
      </trkpt>
      <trkpt lat="47.26519" lon="-2.33249">
        <ele>-16.200000762939</ele>
        <time>2022-07-31T09:50:09.000Z</time>
      </trkpt>
      <trkpt lat="47.26508" lon="-2.33256">
        <ele>-16.200000762939</ele>
        <time>2022-07-31T09:50:12.000Z</time>
      </trkpt>
      <trkpt lat="47.26495" lon="-2.33276">
        <ele>-16.200000762939</ele>
        <time>2022-07-31T09:50:17.000Z</time>
      </trkpt>
      <trkpt lat="47.26492" lon="-2.33279">
        <ele>-16.200000762939</ele>
        <time>2022-07-31T09:50:18.000Z</time>
      </trkpt>
      <trkpt lat="47.26485" lon="-2.33285">
        <ele>-16.200000762939</ele>
        <time>2022-07-31T09:50:20.000Z</time>
      </trkpt>
      <trkpt lat="47.26481" lon="-2.33293">
        <ele>-16.200000762939</ele>
        <time>2022-07-31T09:50:22.000Z</time>
      </trkpt>
      <trkpt lat="47.26474" lon="-2.33303">
        <ele>-16.200000762939</ele>
        <time>2022-07-31T09:50:25.000Z</time>
      </trkpt>
      <trkpt lat="47.26458" lon="-2.33316">
        <ele>-16.200000762939</ele>
        <time>2022-07-31T09:50:31.000Z</time>
      </trkpt>
      <trkpt lat="47.26432" lon="-2.33336">
        <ele>-16.200000762939</ele>
        <time>2022-07-31T09:50:38.000Z</time>
      </trkpt>
      <trkpt lat="47.26397" lon="-2.3336">
        <ele>-16.200000762939</ele>
        <time>2022-07-31T09:50:47.000Z</time>
      </trkpt>
      <trkpt lat="47.26359" lon="-2.33382">
        <ele>-16.200000762939</ele>
        <time>2022-07-31T09:50:55.000Z</time>
      </trkpt>
      <trkpt lat="47.26321" lon="-2.33401">
        <ele>-16.200000762939</ele>
        <time>2022-07-31T09:51:03.000Z</time>
      </trkpt>
      <trkpt lat="47.26318" lon="-2.33405">
        <ele>-16.200000762939</ele>
        <time>2022-07-31T09:51:04.000Z</time>
      </trkpt>
      <trkpt lat="47.26307" lon="-2.33416">
        <ele>-16.200000762939</ele>
        <time>2022-07-31T09:51:07.000Z</time>
      </trkpt>
      <trkpt lat="47.2629" lon="-2.33421">
        <ele>-16.200000762939</ele>
        <time>2022-07-31T09:51:11.000Z</time>
      </trkpt>
      <trkpt lat="47.26262" lon="-2.33426">
        <ele>-16.200000762939</ele>
        <time>2022-07-31T09:51:18.000Z</time>
      </trkpt>
      <trkpt lat="47.26234" lon="-2.33433">
        <ele>-16.200000762939</ele>
        <time>2022-07-31T09:51:24.000Z</time>
      </trkpt>
      <trkpt lat="47.26199" lon="-2.33439">
        <ele>-16.200000762939</ele>
        <time>2022-07-31T09:51:31.000Z</time>
      </trkpt>
      <trkpt lat="47.26171" lon="-2.33438">
        <ele>-16.200000762939</ele>
        <time>2022-07-31T09:51:37.000Z</time>
      </trkpt>
      <trkpt lat="47.26157" lon="-2.33432">
        <ele>-16.200000762939</ele>
        <time>2022-07-31T09:51:40.000Z</time>
      </trkpt>
      <trkpt lat="47.26145" lon="-2.33428">
        <ele>-16.200000762939</ele>
        <time>2022-07-31T09:51:43.000Z</time>
      </trkpt>
      <trkpt lat="47.2614" lon="-2.33434">
        <ele>-16.200000762939</ele>
        <time>2022-07-31T09:51:45.000Z</time>
      </trkpt>
      <trkpt lat="47.26139" lon="-2.33438">
        <ele>-16.200000762939</ele>
        <time>2022-07-31T09:51:46.000Z</time>
      </trkpt>
      <trkpt lat="47.26136" lon="-2.33443">
        <ele>-16.200000762939</ele>
        <time>2022-07-31T09:51:49.000Z</time>
      </trkpt>
      <trkpt lat="47.26136" lon="-2.33443">
        <ele>-16.200000762939</ele>
        <time>2022-07-31T09:51:50.000Z</time>
      </trkpt>
      <trkpt lat="47.26128" lon="-2.33452">
        <ele>-16.200000762939</ele>
        <time>2022-07-31T09:51:55.000Z</time>
      </trkpt>
      <trkpt lat="47.26125" lon="-2.33452">
        <ele>-16.200000762939</ele>
        <time>2022-07-31T09:51:56.000Z</time>
      </trkpt>
      <trkpt lat="47.26117" lon="-2.33454">
        <ele>-16.200000762939</ele>
        <time>2022-07-31T09:51:59.000Z</time>
      </trkpt>
      <trkpt lat="47.26108" lon="-2.33463">
        <ele>-15.800000190735</ele>
        <time>2022-07-31T09:52:02.000Z</time>
      </trkpt>
      <trkpt lat="47.26104" lon="-2.33465">
        <ele>-15.39999961853</ele>
        <time>2022-07-31T09:52:03.000Z</time>
      </trkpt>
      <trkpt lat="47.26099" lon="-2.33467">
        <ele>-15</ele>
        <time>2022-07-31T09:52:04.000Z</time>
      </trkpt>
      <trkpt lat="47.26095" lon="-2.33469">
        <ele>-14.60000038147</ele>
        <time>2022-07-31T09:52:05.000Z</time>
      </trkpt>
      <trkpt lat="47.2609" lon="-2.3347">
        <ele>-14.199999809265</ele>
        <time>2022-07-31T09:52:06.000Z</time>
      </trkpt>
      <trkpt lat="47.26085" lon="-2.3347">
        <ele>-14.199999809265</ele>
        <time>2022-07-31T09:52:07.000Z</time>
      </trkpt>
      <trkpt lat="47.26067" lon="-2.33459">
        <ele>-14.199999809265</ele>
        <time>2022-07-31T09:52:11.000Z</time>
      </trkpt>
      <trkpt lat="47.26055" lon="-2.33452">
        <ele>-14.199999809265</ele>
        <time>2022-07-31T09:52:15.000Z</time>
      </trkpt>
      <trkpt lat="47.26047" lon="-2.33462">
        <ele>-14.199999809265</ele>
        <time>2022-07-31T09:52:18.000Z</time>
      </trkpt>
      <trkpt lat="47.26042" lon="-2.33473">
        <ele>-14.199999809265</ele>
        <time>2022-07-31T09:52:20.000Z</time>
      </trkpt>
      <trkpt lat="47.26035" lon="-2.33484">
        <ele>-14.199999809265</ele>
        <time>2022-07-31T09:52:22.000Z</time>
      </trkpt>
      <trkpt lat="47.26031" lon="-2.33488">
        <ele>-14.199999809265</ele>
        <time>2022-07-31T09:52:23.000Z</time>
      </trkpt>
      <trkpt lat="47.26015" lon="-2.33492">
        <ele>-14.199999809265</ele>
        <time>2022-07-31T09:52:26.000Z</time>
      </trkpt>
      <trkpt lat="47.26009" lon="-2.33492">
        <ele>-14.199999809265</ele>
        <time>2022-07-31T09:52:27.000Z</time>
      </trkpt>
      <trkpt lat="47.25989" lon="-2.33499">
        <ele>-14.199999809265</ele>
        <time>2022-07-31T09:52:32.000Z</time>
      </trkpt>
      <trkpt lat="47.25986" lon="-2.33504">
        <ele>-14.199999809265</ele>
        <time>2022-07-31T09:52:33.000Z</time>
      </trkpt>
      <trkpt lat="47.25979" lon="-2.3351">
        <ele>-14.199999809265</ele>
        <time>2022-07-31T09:52:35.000Z</time>
      </trkpt>
      <trkpt lat="47.25973" lon="-2.33509">
        <ele>-14.199999809265</ele>
        <time>2022-07-31T09:52:36.000Z</time>
      </trkpt>
      <trkpt lat="47.25956" lon="-2.33508">
        <ele>-14.199999809265</ele>
        <time>2022-07-31T09:52:39.000Z</time>
      </trkpt>
      <trkpt lat="47.2595" lon="-2.33512">
        <ele>-14.199999809265</ele>
        <time>2022-07-31T09:52:40.000Z</time>
      </trkpt>
      <trkpt lat="47.25935" lon="-2.33527">
        <ele>-14.199999809265</ele>
        <time>2022-07-31T09:52:43.000Z</time>
      </trkpt>
      <trkpt lat="47.25918" lon="-2.33541">
        <ele>-14.199999809265</ele>
        <time>2022-07-31T09:52:46.000Z</time>
      </trkpt>
      <trkpt lat="47.25902" lon="-2.33555">
        <ele>-14.199999809265</ele>
        <time>2022-07-31T09:52:49.000Z</time>
      </trkpt>
      <trkpt lat="47.25875" lon="-2.33576">
        <ele>-14.199999809265</ele>
        <time>2022-07-31T09:52:54.000Z</time>
      </trkpt>
      <trkpt lat="47.25869" lon="-2.33577">
        <ele>-14.199999809265</ele>
        <time>2022-07-31T09:52:55.000Z</time>
      </trkpt>
      <trkpt lat="47.25837" lon="-2.33578">
        <ele>-13.800000190735</ele>
        <time>2022-07-31T09:53:00.000Z</time>
      </trkpt>
      <trkpt lat="47.25831" lon="-2.33578">
        <ele>-13.39999961853</ele>
        <time>2022-07-31T09:53:01.000Z</time>
      </trkpt>
      <trkpt lat="47.25825" lon="-2.33579">
        <ele>-13</ele>
        <time>2022-07-31T09:53:02.000Z</time>
      </trkpt>
      <trkpt lat="47.2582" lon="-2.33579">
        <ele>-12.60000038147</ele>
        <time>2022-07-31T09:53:03.000Z</time>
      </trkpt>
      <trkpt lat="47.25814" lon="-2.3358">
        <ele>-12.199999809265</ele>
        <time>2022-07-31T09:53:04.000Z</time>
      </trkpt>
      <trkpt lat="47.25783" lon="-2.33582">
        <ele>-12.199999809265</ele>
        <time>2022-07-31T09:53:09.000Z</time>
      </trkpt>
      <trkpt lat="47.25752" lon="-2.33585">
        <ele>-12.199999809265</ele>
        <time>2022-07-31T09:53:14.000Z</time>
      </trkpt>
      <trkpt lat="47.25747" lon="-2.33588">
        <ele>-12.199999809265</ele>
        <time>2022-07-31T09:53:15.000Z</time>
      </trkpt>
      <trkpt lat="47.25735" lon="-2.33586">
        <ele>-12.199999809265</ele>
        <time>2022-07-31T09:53:17.000Z</time>
      </trkpt>
      <trkpt lat="47.25702" lon="-2.33584">
        <ele>-12.199999809265</ele>
        <time>2022-07-31T09:53:22.000Z</time>
      </trkpt>
      <trkpt lat="47.25665" lon="-2.33578">
        <ele>-12.199999809265</ele>
        <time>2022-07-31T09:53:27.000Z</time>
      </trkpt>
      <trkpt lat="47.25637" lon="-2.33565">
        <ele>-12.199999809265</ele>
        <time>2022-07-31T09:53:31.000Z</time>
      </trkpt>
      <trkpt lat="47.2563" lon="-2.33559">
        <ele>-12.199999809265</ele>
        <time>2022-07-31T09:53:32.000Z</time>
      </trkpt>
      <trkpt lat="47.25595" lon="-2.3353">
        <ele>-12.199999809265</ele>
        <time>2022-07-31T09:53:37.000Z</time>
      </trkpt>
      <trkpt lat="47.25588" lon="-2.33521">
        <ele>-12.199999809265</ele>
        <time>2022-07-31T09:53:38.000Z</time>
      </trkpt>
      <trkpt lat="47.25569" lon="-2.33497">
        <ele>-12.199999809265</ele>
        <time>2022-07-31T09:53:41.000Z</time>
      </trkpt>
      <trkpt lat="47.25564" lon="-2.33487">
        <ele>-12.199999809265</ele>
        <time>2022-07-31T09:53:42.000Z</time>
      </trkpt>
      <trkpt lat="47.25549" lon="-2.33456">
        <ele>-12.199999809265</ele>
        <time>2022-07-31T09:53:45.000Z</time>
      </trkpt>
      <trkpt lat="47.25531" lon="-2.33399">
        <ele>-12.199999809265</ele>
        <time>2022-07-31T09:53:50.000Z</time>
      </trkpt>
      <trkpt lat="47.25522" lon="-2.33339">
        <ele>-12.199999809265</ele>
        <time>2022-07-31T09:53:55.000Z</time>
      </trkpt>
      <trkpt lat="47.25515" lon="-2.33278">
        <ele>-11.800000190735</ele>
        <time>2022-07-31T09:54:00.000Z</time>
      </trkpt>
      <trkpt lat="47.25513" lon="-2.33266">
        <ele>-11.39999961853</ele>
        <time>2022-07-31T09:54:01.000Z</time>
      </trkpt>
      <trkpt lat="47.25512" lon="-2.33254">
        <ele>-10.60000038147</ele>
        <time>2022-07-31T09:54:02.000Z</time>
      </trkpt>
      <trkpt lat="47.25511" lon="-2.33243">
        <ele>-10.199999809265</ele>
        <time>2022-07-31T09:54:03.000Z</time>
      </trkpt>
      <trkpt lat="47.2551" lon="-2.33231">
        <ele>-10.199999809265</ele>
        <time>2022-07-31T09:54:04.000Z</time>
      </trkpt>
      <trkpt lat="47.25501" lon="-2.3316">
        <ele>-10.199999809265</ele>
        <time>2022-07-31T09:54:11.000Z</time>
      </trkpt>
      <trkpt lat="47.25496" lon="-2.33116">
        <ele>-10.199999809265</ele>
        <time>2022-07-31T09:54:17.000Z</time>
      </trkpt>
      <trkpt lat="47.25495" lon="-2.33109">
        <ele>-10.199999809265</ele>
        <time>2022-07-31T09:54:18.000Z</time>
      </trkpt>
      <trkpt lat="47.25492" lon="-2.33095">
        <ele>-10.199999809265</ele>
        <time>2022-07-31T09:54:20.000Z</time>
      </trkpt>
      <trkpt lat="47.25482" lon="-2.33091">
        <ele>-10.199999809265</ele>
        <time>2022-07-31T09:54:22.000Z</time>
      </trkpt>
      <trkpt lat="47.25469" lon="-2.331">
        <ele>-10.199999809265</ele>
        <time>2022-07-31T09:54:25.000Z</time>
      </trkpt>
      <trkpt lat="47.25464" lon="-2.33103">
        <ele>-10.199999809265</ele>
        <time>2022-07-31T09:54:26.000Z</time>
      </trkpt>
      <trkpt lat="47.25458" lon="-2.33106">
        <ele>-10.199999809265</ele>
        <time>2022-07-31T09:54:27.000Z</time>
      </trkpt>
      <trkpt lat="47.25443" lon="-2.33112">
        <ele>-10.199999809265</ele>
        <time>2022-07-31T09:54:30.000Z</time>
      </trkpt>
      <trkpt lat="47.25411" lon="-2.33127">
        <ele>-10.199999809265</ele>
        <time>2022-07-31T09:54:37.000Z</time>
      </trkpt>
      <trkpt lat="47.25398" lon="-2.33134">
        <ele>-10.199999809265</ele>
        <time>2022-07-31T09:54:40.000Z</time>
      </trkpt>
      <trkpt lat="47.25386" lon="-2.33139">
        <ele>-10.199999809265</ele>
        <time>2022-07-31T09:54:43.000Z</time>
      </trkpt>
      <trkpt lat="47.25379" lon="-2.33125">
        <ele>-10.199999809265</ele>
        <time>2022-07-31T09:54:46.000Z</time>
      </trkpt>
      <trkpt lat="47.25376" lon="-2.33106">
        <ele>-10.199999809265</ele>
        <time>2022-07-31T09:54:50.000Z</time>
      </trkpt>
      <trkpt lat="47.25374" lon="-2.33103">
        <ele>-10.199999809265</ele>
        <time>2022-07-31T09:54:53.000Z</time>
      </trkpt>
      <trkpt lat="47.25372" lon="-2.33099">
        <ele>-8.1999998092651</ele>
        <time>2022-07-31T10:19:48.000Z</time>
      </trkpt>
      <trkpt lat="47.25369" lon="-2.33097">
        <ele>-8.1999998092651</ele>
        <time>2022-07-31T10:19:51.000Z</time>
      </trkpt>
      <trkpt lat="47.25362" lon="-2.33086">
        <ele>-8.1999998092651</ele>
        <time>2022-07-31T10:19:57.000Z</time>
      </trkpt>
      <trkpt lat="47.25356" lon="-2.33071">
        <ele>-8.1999998092651</ele>
        <time>2022-07-31T10:20:02.000Z</time>
      </trkpt>
      <trkpt lat="47.25349" lon="-2.33049">
        <ele>-8.1999998092651</ele>
        <time>2022-07-31T10:20:08.000Z</time>
      </trkpt>
      <trkpt lat="47.2534" lon="-2.33027">
        <ele>-8.1999998092651</ele>
        <time>2022-07-31T10:20:13.000Z</time>
      </trkpt>
      <trkpt lat="47.25339" lon="-2.33021">
        <ele>-7.8000001907349</ele>
        <time>2022-07-31T10:20:14.000Z</time>
      </trkpt>
      <trkpt lat="47.25337" lon="-2.33017">
        <ele>-7.4000000953674</ele>
        <time>2022-07-31T10:20:15.000Z</time>
      </trkpt>
      <trkpt lat="47.25334" lon="-2.33012">
        <ele>-7</ele>
        <time>2022-07-31T10:20:16.000Z</time>
      </trkpt>
      <trkpt lat="47.25332" lon="-2.33008">
        <ele>-6.5999999046326</ele>
        <time>2022-07-31T10:20:17.000Z</time>
      </trkpt>
      <trkpt lat="47.2533" lon="-2.33003">
        <ele>-6.1999998092651</ele>
        <time>2022-07-31T10:20:18.000Z</time>
      </trkpt>
      <trkpt lat="47.25317" lon="-2.32966">
        <ele>-6.1999998092651</ele>
        <time>2022-07-31T10:20:25.000Z</time>
      </trkpt>
      <trkpt lat="47.25312" lon="-2.32955">
        <ele>-6.1999998092651</ele>
        <time>2022-07-31T10:20:27.000Z</time>
      </trkpt>
      <trkpt lat="47.25307" lon="-2.32938">
        <ele>-6.1999998092651</ele>
        <time>2022-07-31T10:20:30.000Z</time>
      </trkpt>
      <trkpt lat="47.25307" lon="-2.32931">
        <ele>-6.1999998092651</ele>
        <time>2022-07-31T10:20:31.000Z</time>
      </trkpt>
      <trkpt lat="47.25309" lon="-2.32919">
        <ele>-6.1999998092651</ele>
        <time>2022-07-31T10:20:33.000Z</time>
      </trkpt>
      <trkpt lat="47.25324" lon="-2.32902">
        <ele>-6.1999998092651</ele>
        <time>2022-07-31T10:20:37.000Z</time>
      </trkpt>
      <trkpt lat="47.2535" lon="-2.32877">
        <ele>-6.1999998092651</ele>
        <time>2022-07-31T10:20:44.000Z</time>
      </trkpt>
      <trkpt lat="47.25377" lon="-2.3285">
        <ele>-6.1999998092651</ele>
        <time>2022-07-31T10:20:51.000Z</time>
      </trkpt>
      <trkpt lat="47.25409" lon="-2.32812">
        <ele>-6.1999998092651</ele>
        <time>2022-07-31T10:21:00.000Z</time>
      </trkpt>
      <trkpt lat="47.25426" lon="-2.32781">
        <ele>-5.8000001907349</ele>
        <time>2022-07-31T10:21:06.000Z</time>
      </trkpt>
      <trkpt lat="47.25427" lon="-2.32775">
        <ele>-5.4000000953674</ele>
        <time>2022-07-31T10:21:07.000Z</time>
      </trkpt>
      <trkpt lat="47.25429" lon="-2.3277">
        <ele>-4.8000001907349</ele>
        <time>2022-07-31T10:21:08.000Z</time>
      </trkpt>
      <trkpt lat="47.25432" lon="-2.32766">
        <ele>-4.4000000953674</ele>
        <time>2022-07-31T10:21:09.000Z</time>
      </trkpt>
      <trkpt lat="47.25435" lon="-2.32762">
        <ele>-4</ele>
        <time>2022-07-31T10:21:10.000Z</time>
      </trkpt>
      <trkpt lat="47.25439" lon="-2.32758">
        <ele>-4</ele>
        <time>2022-07-31T10:21:11.000Z</time>
      </trkpt>
      <trkpt lat="47.25442" lon="-2.32754">
        <ele>-4</ele>
        <time>2022-07-31T10:21:12.000Z</time>
      </trkpt>
      <trkpt lat="47.25451" lon="-2.32739">
        <ele>-4</ele>
        <time>2022-07-31T10:21:15.000Z</time>
      </trkpt>
      <trkpt lat="47.25461" lon="-2.32727">
        <ele>-4</ele>
        <time>2022-07-31T10:21:18.000Z</time>
      </trkpt>
      <trkpt lat="47.25483" lon="-2.32695">
        <ele>-4</ele>
        <time>2022-07-31T10:21:25.000Z</time>
      </trkpt>
      <trkpt lat="47.25487" lon="-2.32669">
        <ele>-4</ele>
        <time>2022-07-31T10:21:29.000Z</time>
      </trkpt>
      <trkpt lat="47.25484" lon="-2.32643">
        <ele>-4</ele>
        <time>2022-07-31T10:21:33.000Z</time>
      </trkpt>
      <trkpt lat="47.25483" lon="-2.32637">
        <ele>-4</ele>
        <time>2022-07-31T10:21:34.000Z</time>
      </trkpt>
      <trkpt lat="47.25472" lon="-2.32586">
        <ele>-4</ele>
        <time>2022-07-31T10:21:42.000Z</time>
      </trkpt>
      <trkpt lat="47.25466" lon="-2.32563">
        <ele>-3.5999999046326</ele>
        <time>2022-07-31T10:21:46.000Z</time>
      </trkpt>
      <trkpt lat="47.25464" lon="-2.32557">
        <ele>-3.2000000476837</ele>
        <time>2022-07-31T10:21:47.000Z</time>
      </trkpt>
      <trkpt lat="47.25463" lon="-2.32551">
        <ele>-2.7999999523163</ele>
        <time>2022-07-31T10:21:48.000Z</time>
      </trkpt>
      <trkpt lat="47.25461" lon="-2.32545">
        <ele>-2.4000000953674</ele>
        <time>2022-07-31T10:21:49.000Z</time>
      </trkpt>
      <trkpt lat="47.25459" lon="-2.32539">
        <ele>-2</ele>
        <time>2022-07-31T10:21:50.000Z</time>
      </trkpt>
      <trkpt lat="47.25447" lon="-2.32496">
        <ele>-2</ele>
        <time>2022-07-31T10:21:57.000Z</time>
      </trkpt>
      <trkpt lat="47.25439" lon="-2.32458">
        <ele>-2</ele>
        <time>2022-07-31T10:22:03.000Z</time>
      </trkpt>
      <trkpt lat="47.25437" lon="-2.32452">
        <ele>-2</ele>
        <time>2022-07-31T10:22:04.000Z</time>
      </trkpt>
      <trkpt lat="47.25426" lon="-2.32413">
        <ele>-2</ele>
        <time>2022-07-31T10:22:10.000Z</time>
      </trkpt>
      <trkpt lat="47.25419" lon="-2.32387">
        <ele>-2</ele>
        <time>2022-07-31T10:22:14.000Z</time>
      </trkpt>
      <trkpt lat="47.25415" lon="-2.32369">
        <ele>-2</ele>
        <time>2022-07-31T10:22:17.000Z</time>
      </trkpt>
      <trkpt lat="47.25403" lon="-2.32321">
        <ele>-2</ele>
        <time>2022-07-31T10:22:25.000Z</time>
      </trkpt>
      <trkpt lat="47.25393" lon="-2.32292">
        <ele>-2</ele>
        <time>2022-07-31T10:22:30.000Z</time>
      </trkpt>
      <trkpt lat="47.25388" lon="-2.32281">
        <ele>-2</ele>
        <time>2022-07-31T10:22:32.000Z</time>
      </trkpt>
      <trkpt lat="47.25375" lon="-2.32239">
        <ele>-2</ele>
        <time>2022-07-31T10:22:39.000Z</time>
      </trkpt>
      <trkpt lat="47.25373" lon="-2.32234">
        <ele>-2</ele>
        <time>2022-07-31T10:22:40.000Z</time>
      </trkpt>
      <trkpt lat="47.25366" lon="-2.32218">
        <ele>-2</ele>
        <time>2022-07-31T10:22:43.000Z</time>
      </trkpt>
      <trkpt lat="47.25362" lon="-2.32207">
        <ele>-2</ele>
        <time>2022-07-31T10:22:45.000Z</time>
      </trkpt>
      <trkpt lat="47.25354" lon="-2.32185">
        <ele>-1.6000000238419</ele>
        <time>2022-07-31T10:22:49.000Z</time>
      </trkpt>
      <trkpt lat="47.25353" lon="-2.3218">
        <ele>-1.2000000476837</ele>
        <time>2022-07-31T10:22:50.000Z</time>
      </trkpt>
      <trkpt lat="47.25351" lon="-2.32175">
        <ele>-0.40000000596046</ele>
        <time>2022-07-31T10:22:51.000Z</time>
      </trkpt>
      <trkpt lat="47.25349" lon="-2.3217">
        <ele>15.8</ele>
        <time>2022-07-31T10:22:52.000Z</time>
      </trkpt>
      <trkpt lat="47.2534" lon="-2.32144">
        <ele>16.7</ele>
        <time>2022-07-31T10:22:57.000Z</time>
      </trkpt>
      <trkpt lat="47.25334" lon="-2.32122">
        <ele>17</ele>
        <time>2022-07-31T10:23:01.000Z</time>
      </trkpt>
      <trkpt lat="47.25334" lon="-2.3211">
        <ele>17</ele>
        <time>2022-07-31T10:23:03.000Z</time>
      </trkpt>
      <trkpt lat="47.25335" lon="-2.32103">
        <ele>16.9</ele>
        <time>2022-07-31T10:23:04.000Z</time>
      </trkpt>
      <trkpt lat="47.25348" lon="-2.3208">
        <ele>16</ele>
        <time>2022-07-31T10:23:08.000Z</time>
      </trkpt>
      <trkpt lat="47.25355" lon="-2.32067">
        <ele>15.9</ele>
        <time>2022-07-31T10:23:12.000Z</time>
      </trkpt>
      <trkpt lat="47.25361" lon="-2.32065">
        <ele>15.7</ele>
        <time>2022-07-31T10:23:14.000Z</time>
      </trkpt>
      <trkpt lat="47.25367" lon="-2.3207">
        <ele>15.6</ele>
        <time>2022-07-31T10:23:16.000Z</time>
      </trkpt>
      <trkpt lat="47.25388" lon="-2.32092">
        <ele>14.7</ele>
        <time>2022-07-31T10:23:22.000Z</time>
      </trkpt>
      <trkpt lat="47.254" lon="-2.32103">
        <ele>14.3</ele>
        <time>2022-07-31T10:23:25.000Z</time>
      </trkpt>
      <trkpt lat="47.25415" lon="-2.32109">
        <ele>14.1</ele>
        <time>2022-07-31T10:23:28.000Z</time>
      </trkpt>
      <trkpt lat="47.2542" lon="-2.3211">
        <ele>14.1</ele>
        <time>2022-07-31T10:23:29.000Z</time>
      </trkpt>
      <trkpt lat="47.25425" lon="-2.3211">
        <ele>14.1</ele>
        <time>2022-07-31T10:23:31.000Z</time>
      </trkpt>
      <trkpt lat="47.2543" lon="-2.3211">
        <ele>14</ele>
        <time>2022-07-31T10:23:34.000Z</time>
      </trkpt>
      <trkpt lat="47.2543" lon="-2.32113">
        <ele>13.9</ele>
        <time>2022-07-31T10:23:35.000Z</time>
      </trkpt>
      <trkpt lat="47.25424" lon="-2.32118">
        <ele>13.7</ele>
        <time>2022-07-31T10:23:38.000Z</time>
      </trkpt>
      <trkpt lat="47.25413" lon="-2.32116">
        <ele>13.8</ele>
        <time>2022-07-31T10:23:42.000Z</time>
      </trkpt>
      <trkpt lat="47.2541" lon="-2.32116">
        <ele>13.9</ele>
        <time>2022-07-31T10:23:43.000Z</time>
      </trkpt>
      <trkpt lat="47.25409" lon="-2.32117">
        <ele>13.8</ele>
        <time>2022-07-31T10:23:44.000Z</time>
      </trkpt>
      <trkpt lat="47.25409" lon="-2.32121">
        <ele>13.7</ele>
        <time>2022-07-31T10:23:46.000Z</time>
      </trkpt>
      <trkpt lat="47.25411" lon="-2.32119">
        <ele>13.8</ele>
        <time>2022-07-31T10:23:50.000Z</time>
      </trkpt>
      <trkpt lat="47.25418" lon="-2.32114">
        <ele>13.9</ele>
        <time>2022-07-31T10:23:54.000Z</time>
      </trkpt>
      <trkpt lat="47.25425" lon="-2.32111">
        <ele>14</ele>
        <time>2022-07-31T10:23:56.000Z</time>
      </trkpt>
      <trkpt lat="47.25434" lon="-2.32107">
        <ele>14.2</ele>
        <time>2022-07-31T10:23:58.000Z</time>
      </trkpt>
      <trkpt lat="47.25441" lon="-2.32102">
        <ele>14.3</ele>
        <time>2022-07-31T10:24:00.000Z</time>
      </trkpt>
      <trkpt lat="47.25456" lon="-2.32089">
        <ele>14.8</ele>
        <time>2022-07-31T10:24:04.000Z</time>
      </trkpt>
      <trkpt lat="47.25484" lon="-2.32067">
        <ele>15.2</ele>
        <time>2022-07-31T10:24:11.000Z</time>
      </trkpt>
      <trkpt lat="47.25502" lon="-2.32051">
        <ele>15.2</ele>
        <time>2022-07-31T10:24:16.000Z</time>
      </trkpt>
      <trkpt lat="47.25529" lon="-2.32029">
        <ele>15</ele>
        <time>2022-07-31T10:24:23.000Z</time>
      </trkpt>
      <trkpt lat="47.25545" lon="-2.32026">
        <ele>15.1</ele>
        <time>2022-07-31T10:24:27.000Z</time>
      </trkpt>
      <trkpt lat="47.2556" lon="-2.32022">
        <ele>15.2</ele>
        <time>2022-07-31T10:24:31.000Z</time>
      </trkpt>
      <trkpt lat="47.25561" lon="-2.32026">
        <ele>15.1</ele>
        <time>2022-07-31T10:24:32.000Z</time>
      </trkpt>
      <trkpt lat="47.25575" lon="-2.3205">
        <ele>15</ele>
        <time>2022-07-31T10:24:38.000Z</time>
      </trkpt>
      <trkpt lat="47.25585" lon="-2.32063">
        <ele>15</ele>
        <time>2022-07-31T10:24:43.000Z</time>
      </trkpt>
      <trkpt lat="47.25587" lon="-2.32064">
        <ele>15</ele>
        <time>2022-07-31T10:24:44.000Z</time>
      </trkpt>
      <trkpt lat="47.25598" lon="-2.32075">
        <ele>15</ele>
        <time>2022-07-31T10:24:49.000Z</time>
      </trkpt>
      <trkpt lat="47.256" lon="-2.32079">
        <ele>15</ele>
        <time>2022-07-31T10:24:50.000Z</time>
      </trkpt>
      <trkpt lat="47.25608" lon="-2.32104">
        <ele>14.9</ele>
        <time>2022-07-31T10:24:56.000Z</time>
      </trkpt>
      <trkpt lat="47.25618" lon="-2.32137">
        <ele>14.1</ele>
        <time>2022-07-31T10:25:03.000Z</time>
      </trkpt>
      <trkpt lat="47.25626" lon="-2.32159">
        <ele>14</ele>
        <time>2022-07-31T10:25:08.000Z</time>
      </trkpt>
      <trkpt lat="47.25627" lon="-2.32172">
        <ele>13.9</ele>
        <time>2022-07-31T10:25:12.000Z</time>
      </trkpt>
      <trkpt lat="47.25627" lon="-2.32173">
        <ele>13.9</ele>
        <time>2022-07-31T10:25:13.000Z</time>
      </trkpt>
      <trkpt lat="47.25621" lon="-2.32177">
        <ele>13.8</ele>
        <time>2022-07-31T10:25:16.000Z</time>
      </trkpt>
      <trkpt lat="47.25619" lon="-2.32178">
        <ele>13.7</ele>
        <time>2022-07-31T10:25:17.000Z</time>
      </trkpt>
      <trkpt lat="47.25614" lon="-2.32182">
        <ele>13.5</ele>
        <time>2022-07-31T10:25:22.000Z</time>
      </trkpt>
      <trkpt lat="47.25618" lon="-2.32177">
        <ele>13.7</ele>
        <time>2022-07-31T10:25:31.000Z</time>
      </trkpt>
      <trkpt lat="47.25623" lon="-2.32174">
        <ele>13.8</ele>
        <time>2022-07-31T10:25:33.000Z</time>
      </trkpt>
      <trkpt lat="47.25632" lon="-2.32172">
        <ele>14</ele>
        <time>2022-07-31T10:25:37.000Z</time>
      </trkpt>
      <trkpt lat="47.25633" lon="-2.32176">
        <ele>13.9</ele>
        <time>2022-07-31T10:25:38.000Z</time>
      </trkpt>
      <trkpt lat="47.25637" lon="-2.32197">
        <ele>13.8</ele>
        <time>2022-07-31T10:25:43.000Z</time>
      </trkpt>
      <trkpt lat="47.25638" lon="-2.322">
        <ele>13.8</ele>
        <time>2022-07-31T10:25:44.000Z</time>
      </trkpt>
      <trkpt lat="47.25635" lon="-2.32206">
        <ele>13.5</ele>
        <time>2022-07-31T10:25:46.000Z</time>
      </trkpt>
      <trkpt lat="47.25631" lon="-2.32208">
        <ele>13.4</ele>
        <time>2022-07-31T10:25:48.000Z</time>
      </trkpt>
      <trkpt lat="47.25624" lon="-2.32209">
        <ele>13.2</ele>
        <time>2022-07-31T10:25:50.000Z</time>
      </trkpt>
      <trkpt lat="47.25613" lon="-2.32212">
        <ele>13</ele>
        <time>2022-07-31T10:25:53.000Z</time>
      </trkpt>
      <trkpt lat="47.25585" lon="-2.32219">
        <ele>-0.40000000596046</ele>
        <time>2022-07-31T10:25:59.000Z</time>
      </trkpt>
      <trkpt lat="47.25581" lon="-2.3222">
        <ele>-0.80000001192093</ele>
        <time>2022-07-31T10:26:00.000Z</time>
      </trkpt>
      <trkpt lat="47.25577" lon="-2.3222">
        <ele>-1.3999999761581</ele>
        <time>2022-07-31T10:26:01.000Z</time>
      </trkpt>
      <trkpt lat="47.25575" lon="-2.32221">
        <ele>-1.7999999523163</ele>
        <time>2022-07-31T10:26:02.000Z</time>
      </trkpt>
      <trkpt lat="47.25575" lon="-2.32221">
        <ele>-2.2000000476837</ele>
        <time>2022-07-31T10:26:03.000Z</time>
      </trkpt>
      <trkpt lat="47.25574" lon="-2.32221">
        <ele>-2.2000000476837</ele>
        <time>2022-07-31T10:26:06.000Z</time>
      </trkpt>
      <trkpt lat="47.25578" lon="-2.32221">
        <ele>-2.2000000476837</ele>
        <time>2022-07-31T10:26:24.000Z</time>
      </trkpt>
      <trkpt lat="47.25581" lon="-2.3222">
        <ele>-2.2000000476837</ele>
        <time>2022-07-31T10:26:25.000Z</time>
      </trkpt>
      <trkpt lat="47.25595" lon="-2.32215">
        <ele>-2.2000000476837</ele>
        <time>2022-07-31T10:26:30.000Z</time>
      </trkpt>
      <trkpt lat="47.25613" lon="-2.3221">
        <ele>-2.2000000476837</ele>
        <time>2022-07-31T10:26:36.000Z</time>
      </trkpt>
      <trkpt lat="47.25633" lon="-2.32201">
        <ele>-2.2000000476837</ele>
        <time>2022-07-31T10:26:43.000Z</time>
      </trkpt>
      <trkpt lat="47.25636" lon="-2.32194">
        <ele>-2.2000000476837</ele>
        <time>2022-07-31T10:26:45.000Z</time>
      </trkpt>
      <trkpt lat="47.25635" lon="-2.32185">
        <ele>-2.2000000476837</ele>
        <time>2022-07-31T10:26:47.000Z</time>
      </trkpt>
      <trkpt lat="47.25629" lon="-2.3216">
        <ele>-2.2000000476837</ele>
        <time>2022-07-31T10:26:52.000Z</time>
      </trkpt>
      <trkpt lat="47.25618" lon="-2.32124">
        <ele>-1.7999999523163</ele>
        <time>2022-07-31T10:26:59.000Z</time>
      </trkpt>
      <trkpt lat="47.25617" lon="-2.32119">
        <ele>-1.3999999761581</ele>
        <time>2022-07-31T10:27:00.000Z</time>
      </trkpt>
      <trkpt lat="47.25615" lon="-2.32114">
        <ele>-1</ele>
        <time>2022-07-31T10:27:01.000Z</time>
      </trkpt>
      <trkpt lat="47.25613" lon="-2.32109">
        <ele>-0.60000002384186</ele>
        <time>2022-07-31T10:27:02.000Z</time>
      </trkpt>
      <trkpt lat="47.25612" lon="-2.32104">
        <ele>-0.20000000298023</ele>
        <time>2022-07-31T10:27:03.000Z</time>
      </trkpt>
      <trkpt lat="47.25612" lon="-2.32083">
        <ele>-0.20000000298023</ele>
        <time>2022-07-31T10:27:07.000Z</time>
      </trkpt>
      <trkpt lat="47.25621" lon="-2.32073">
        <ele>-0.20000000298023</ele>
        <time>2022-07-31T10:27:10.000Z</time>
      </trkpt>
      <trkpt lat="47.25639" lon="-2.32057">
        <ele>-0.20000000298023</ele>
        <time>2022-07-31T10:27:15.000Z</time>
      </trkpt>
      <trkpt lat="47.25643" lon="-2.32054">
        <ele>-0.20000000298023</ele>
        <time>2022-07-31T10:27:16.000Z</time>
      </trkpt>
      <trkpt lat="47.25667" lon="-2.32033">
        <ele>-0.20000000298023</ele>
        <time>2022-07-31T10:27:23.000Z</time>
      </trkpt>
      <trkpt lat="47.25677" lon="-2.32019">
        <ele>-0.20000000298023</ele>
        <time>2022-07-31T10:27:26.000Z</time>
      </trkpt>
      <trkpt lat="47.2568" lon="-2.3201">
        <ele>-0.20000000298023</ele>
        <time>2022-07-31T10:27:28.000Z</time>
      </trkpt>
      <trkpt lat="47.25687" lon="-2.31995">
        <ele>-0.20000000298023</ele>
        <time>2022-07-31T10:27:32.000Z</time>
      </trkpt>
      <trkpt lat="47.2569" lon="-2.31993">
        <ele>-0.20000000298023</ele>
        <time>2022-07-31T10:27:33.000Z</time>
      </trkpt>
      <trkpt lat="47.25706" lon="-2.31989">
        <ele>-0.20000000298023</ele>
        <time>2022-07-31T10:27:37.000Z</time>
      </trkpt>
      <trkpt lat="47.2571" lon="-2.31987">
        <ele>-0.20000000298023</ele>
        <time>2022-07-31T10:27:38.000Z</time>
      </trkpt>
      <trkpt lat="47.25727" lon="-2.31977">
        <ele>-0.20000000298023</ele>
        <time>2022-07-31T10:27:42.000Z</time>
      </trkpt>
      <trkpt lat="47.25732" lon="-2.31974">
        <ele>-0.60000002384186</ele>
        <time>2022-07-31T10:27:43.000Z</time>
      </trkpt>
      <trkpt lat="47.25737" lon="-2.3197">
        <ele>-1</ele>
        <time>2022-07-31T10:27:44.000Z</time>
      </trkpt>
      <trkpt lat="47.25742" lon="-2.31967">
        <ele>-1.3999999761581</ele>
        <time>2022-07-31T10:27:45.000Z</time>
      </trkpt>
      <trkpt lat="47.25747" lon="-2.31963">
        <ele>-2</ele>
        <time>2022-07-31T10:27:46.000Z</time>
      </trkpt>
      <trkpt lat="47.25752" lon="-2.31959">
        <ele>-2.4000000953674</ele>
        <time>2022-07-31T10:27:47.000Z</time>
      </trkpt>
      <trkpt lat="47.25757" lon="-2.31956">
        <ele>-2.4000000953674</ele>
        <time>2022-07-31T10:27:48.000Z</time>
      </trkpt>
      <trkpt lat="47.25783" lon="-2.31933">
        <ele>-2.7999999523163</ele>
        <time>2022-07-31T10:27:53.000Z</time>
      </trkpt>
      <trkpt lat="47.25789" lon="-2.31928">
        <ele>-3.2000000476837</ele>
        <time>2022-07-31T10:27:54.000Z</time>
      </trkpt>
      <trkpt lat="47.25794" lon="-2.31923">
        <ele>-3.5999999046326</ele>
        <time>2022-07-31T10:27:55.000Z</time>
      </trkpt>
      <trkpt lat="47.258" lon="-2.31918">
        <ele>-4</ele>
        <time>2022-07-31T10:27:56.000Z</time>
      </trkpt>
      <trkpt lat="47.25805" lon="-2.31913">
        <ele>-4.5999999046326</ele>
        <time>2022-07-31T10:27:57.000Z</time>
      </trkpt>
      <trkpt lat="47.25809" lon="-2.31907">
        <ele>-4.5999999046326</ele>
        <time>2022-07-31T10:27:59.000Z</time>
      </trkpt>
      <trkpt lat="47.25815" lon="-2.31901">
        <ele>-4.5999999046326</ele>
        <time>2022-07-31T10:28:01.000Z</time>
      </trkpt>
      <trkpt lat="47.25824" lon="-2.31896">
        <ele>-5</ele>
        <time>2022-07-31T10:28:03.000Z</time>
      </trkpt>
      <trkpt lat="47.25829" lon="-2.31892">
        <ele>-5.4000000953674</ele>
        <time>2022-07-31T10:28:04.000Z</time>
      </trkpt>
      <trkpt lat="47.25834" lon="-2.31887">
        <ele>-5.8000001907349</ele>
        <time>2022-07-31T10:28:05.000Z</time>
      </trkpt>
      <trkpt lat="47.25839" lon="-2.31882">
        <ele>-6.1999998092651</ele>
        <time>2022-07-31T10:28:06.000Z</time>
      </trkpt>
      <trkpt lat="47.25845" lon="-2.31878">
        <ele>-6.5999999046326</ele>
        <time>2022-07-31T10:28:07.000Z</time>
      </trkpt>
      <trkpt lat="47.2585" lon="-2.31874">
        <ele>-6.5999999046326</ele>
        <time>2022-07-31T10:28:08.000Z</time>
      </trkpt>
      <trkpt lat="47.25861" lon="-2.31864">
        <ele>-6.5999999046326</ele>
        <time>2022-07-31T10:28:10.000Z</time>
      </trkpt>
      <trkpt lat="47.2587" lon="-2.31851">
        <ele>-6.5999999046326</ele>
        <time>2022-07-31T10:28:12.000Z</time>
      </trkpt>
      <trkpt lat="47.25874" lon="-2.31843">
        <ele>-6.5999999046326</ele>
        <time>2022-07-31T10:28:13.000Z</time>
      </trkpt>
      <trkpt lat="47.25893" lon="-2.31806">
        <ele>-6.5999999046326</ele>
        <time>2022-07-31T10:28:18.000Z</time>
      </trkpt>
      <trkpt lat="47.25908" lon="-2.31766">
        <ele>-6.5999999046326</ele>
        <time>2022-07-31T10:28:23.000Z</time>
      </trkpt>
      <trkpt lat="47.25911" lon="-2.31758">
        <ele>-6.5999999046326</ele>
        <time>2022-07-31T10:28:24.000Z</time>
      </trkpt>
      <trkpt lat="47.25921" lon="-2.31736">
        <ele>-6.5999999046326</ele>
        <time>2022-07-31T10:28:27.000Z</time>
      </trkpt>
      <trkpt lat="47.25933" lon="-2.31716">
        <ele>-6.5999999046326</ele>
        <time>2022-07-31T10:28:30.000Z</time>
      </trkpt>
      <trkpt lat="47.25953" lon="-2.31689">
        <ele>-6.5999999046326</ele>
        <time>2022-07-31T10:28:35.000Z</time>
      </trkpt>
      <trkpt lat="47.25958" lon="-2.31685">
        <ele>-6.5999999046326</ele>
        <time>2022-07-31T10:28:36.000Z</time>
      </trkpt>
      <trkpt lat="47.25984" lon="-2.3167">
        <ele>-6.5999999046326</ele>
        <time>2022-07-31T10:28:41.000Z</time>
      </trkpt>
      <trkpt lat="47.25996" lon="-2.31664">
        <ele>-6.5999999046326</ele>
        <time>2022-07-31T10:28:43.000Z</time>
      </trkpt>
      <trkpt lat="47.26019" lon="-2.31649">
        <ele>-6.5999999046326</ele>
        <time>2022-07-31T10:28:47.000Z</time>
      </trkpt>
      <trkpt lat="47.26025" lon="-2.31645">
        <ele>-6.5999999046326</ele>
        <time>2022-07-31T10:28:48.000Z</time>
      </trkpt>
      <trkpt lat="47.26044" lon="-2.31622">
        <ele>-7</ele>
        <time>2022-07-31T10:28:52.000Z</time>
      </trkpt>
      <trkpt lat="47.26049" lon="-2.31617">
        <ele>-7.4000000953674</ele>
        <time>2022-07-31T10:28:53.000Z</time>
      </trkpt>
      <trkpt lat="47.26054" lon="-2.31612">
        <ele>-7.8000001907349</ele>
        <time>2022-07-31T10:28:54.000Z</time>
      </trkpt>
      <trkpt lat="47.26059" lon="-2.31606">
        <ele>-8.1999998092651</ele>
        <time>2022-07-31T10:28:55.000Z</time>
      </trkpt>
      <trkpt lat="47.26064" lon="-2.31601">
        <ele>-8.6000003814697</ele>
        <time>2022-07-31T10:28:56.000Z</time>
      </trkpt>
      <trkpt lat="47.26072" lon="-2.31589">
        <ele>-8.6000003814697</ele>
        <time>2022-07-31T10:28:58.000Z</time>
      </trkpt>
      <trkpt lat="47.26077" lon="-2.31584">
        <ele>-8.6000003814697</ele>
        <time>2022-07-31T10:28:59.000Z</time>
      </trkpt>
      <trkpt lat="47.26086" lon="-2.31582">
        <ele>-8.6000003814697</ele>
        <time>2022-07-31T10:29:01.000Z</time>
      </trkpt>
      <trkpt lat="47.26104" lon="-2.31599">
        <ele>-8.6000003814697</ele>
        <time>2022-07-31T10:29:05.000Z</time>
      </trkpt>
      <trkpt lat="47.26123" lon="-2.31612">
        <ele>-8.6000003814697</ele>
        <time>2022-07-31T10:29:09.000Z</time>
      </trkpt>
      <trkpt lat="47.26138" lon="-2.31609">
        <ele>-8.6000003814697</ele>
        <time>2022-07-31T10:29:12.000Z</time>
      </trkpt>
      <trkpt lat="47.26143" lon="-2.31607">
        <ele>-8.6000003814697</ele>
        <time>2022-07-31T10:29:13.000Z</time>
      </trkpt>
      <trkpt lat="47.26176" lon="-2.31595">
        <ele>-8.6000003814697</ele>
        <time>2022-07-31T10:29:19.000Z</time>
      </trkpt>
      <trkpt lat="47.26209" lon="-2.31586">
        <ele>-8.6000003814697</ele>
        <time>2022-07-31T10:29:25.000Z</time>
      </trkpt>
      <trkpt lat="47.26214" lon="-2.31587">
        <ele>-8.6000003814697</ele>
        <time>2022-07-31T10:29:26.000Z</time>
      </trkpt>
      <trkpt lat="47.26233" lon="-2.31597">
        <ele>-8.6000003814697</ele>
        <time>2022-07-31T10:29:30.000Z</time>
      </trkpt>
      <trkpt lat="47.26246" lon="-2.31608">
        <ele>-8.6000003814697</ele>
        <time>2022-07-31T10:29:33.000Z</time>
      </trkpt>
      <trkpt lat="47.26251" lon="-2.31612">
        <ele>-8.6000003814697</ele>
        <time>2022-07-31T10:29:34.000Z</time>
      </trkpt>
      <trkpt lat="47.26254" lon="-2.31617">
        <ele>-8.6000003814697</ele>
        <time>2022-07-31T10:29:35.000Z</time>
      </trkpt>
      <trkpt lat="47.26265" lon="-2.31632">
        <ele>-8.6000003814697</ele>
        <time>2022-07-31T10:29:38.000Z</time>
      </trkpt>
      <trkpt lat="47.26281" lon="-2.31658">
        <ele>-8.6000003814697</ele>
        <time>2022-07-31T10:29:43.000Z</time>
      </trkpt>
      <trkpt lat="47.26297" lon="-2.31685">
        <ele>-8.6000003814697</ele>
        <time>2022-07-31T10:29:48.000Z</time>
      </trkpt>
      <trkpt lat="47.26302" lon="-2.31696">
        <ele>-8.6000003814697</ele>
        <time>2022-07-31T10:29:50.000Z</time>
      </trkpt>
      <trkpt lat="47.26309" lon="-2.31702">
        <ele>-8.6000003814697</ele>
        <time>2022-07-31T10:29:52.000Z</time>
      </trkpt>
      <trkpt lat="47.26319" lon="-2.317">
        <ele>-8.6000003814697</ele>
        <time>2022-07-31T10:29:55.000Z</time>
      </trkpt>
      <trkpt lat="47.26322" lon="-2.31699">
        <ele>-8.6000003814697</ele>
        <time>2022-07-31T10:29:56.000Z</time>
      </trkpt>
      <trkpt lat="47.26331" lon="-2.31692">
        <ele>-8.6000003814697</ele>
        <time>2022-07-31T10:29:59.000Z</time>
      </trkpt>
      <trkpt lat="47.26332" lon="-2.31688">
        <ele>-8.6000003814697</ele>
        <time>2022-07-31T10:30:00.000Z</time>
      </trkpt>
      <trkpt lat="47.2634" lon="-2.31683">
        <ele>-8.6000003814697</ele>
        <time>2022-07-31T10:30:03.000Z</time>
      </trkpt>
      <trkpt lat="47.26343" lon="-2.31682">
        <ele>-8.6000003814697</ele>
        <time>2022-07-31T10:30:04.000Z</time>
      </trkpt>
      <trkpt lat="47.26359" lon="-2.31674">
        <ele>-8.6000003814697</ele>
        <time>2022-07-31T10:30:09.000Z</time>
      </trkpt>
      <trkpt lat="47.26371" lon="-2.31669">
        <ele>-8.1999998092651</ele>
        <time>2022-07-31T10:30:13.000Z</time>
      </trkpt>
      <trkpt lat="47.26374" lon="-2.31667">
        <ele>-7.8000001907349</ele>
        <time>2022-07-31T10:30:14.000Z</time>
      </trkpt>
      <trkpt lat="47.26378" lon="-2.31665">
        <ele>-7.4000000953674</ele>
        <time>2022-07-31T10:30:15.000Z</time>
      </trkpt>
      <trkpt lat="47.26381" lon="-2.31663">
        <ele>-7</ele>
        <time>2022-07-31T10:30:16.000Z</time>
      </trkpt>
      <trkpt lat="47.26384" lon="-2.31661">
        <ele>-6.5999999046326</ele>
        <time>2022-07-31T10:30:17.000Z</time>
      </trkpt>
      <trkpt lat="47.264" lon="-2.31655">
        <ele>-6.5999999046326</ele>
        <time>2022-07-31T10:30:22.000Z</time>
      </trkpt>
      <trkpt lat="47.26407" lon="-2.31647">
        <ele>-6.5999999046326</ele>
        <time>2022-07-31T10:30:25.000Z</time>
      </trkpt>
      <trkpt lat="47.26408" lon="-2.31643">
        <ele>-6.5999999046326</ele>
        <time>2022-07-31T10:30:26.000Z</time>
      </trkpt>
      <trkpt lat="47.26408" lon="-2.31629">
        <ele>-6.5999999046326</ele>
        <time>2022-07-31T10:30:29.000Z</time>
      </trkpt>
      <trkpt lat="47.26408" lon="-2.31614">
        <ele>-6.5999999046326</ele>
        <time>2022-07-31T10:30:32.000Z</time>
      </trkpt>
      <trkpt lat="47.26409" lon="-2.31579">
        <ele>-6.5999999046326</ele>
        <time>2022-07-31T10:30:39.000Z</time>
      </trkpt>
      <trkpt lat="47.26409" lon="-2.31557">
        <ele>-6.5999999046326</ele>
        <time>2022-07-31T10:30:44.000Z</time>
      </trkpt>
      <trkpt lat="47.26411" lon="-2.31549">
        <ele>-6.1999998092651</ele>
        <time>2022-07-31T10:30:47.000Z</time>
      </trkpt>
      <trkpt lat="47.26412" lon="-2.31549">
        <ele>-5.8000001907349</ele>
        <time>2022-07-31T10:30:48.000Z</time>
      </trkpt>
      <trkpt lat="47.26414" lon="-2.3155">
        <ele>-5.4000000953674</ele>
        <time>2022-07-31T10:30:49.000Z</time>
      </trkpt>
      <trkpt lat="47.26415" lon="-2.3155">
        <ele>-4.8000001907349</ele>
        <time>2022-07-31T10:30:50.000Z</time>
      </trkpt>
      <trkpt lat="47.26416" lon="-2.31551">
        <ele>-4.4000000953674</ele>
        <time>2022-07-31T10:30:51.000Z</time>
      </trkpt>
    </trkseg>
  </trk>
</gpx>